<?xml version="1.0" encoding="UTF-8" standalone="no" ?>
<gpx xmlns="http://www.topografix.com/GPX/1/1" xmlns:xsi="http://www.w3.org/2001/XMLSchema-instance" xsi:schemaLocation="http://www.topografix.com/GPX/1/1 http://www.topografix.com/GPX/1/1/gpx.xsd" version="1.1" creator="VisuGPX - https://www.visugpx.com">
  <metadata>
    <name>Traversée Moderne - Etapes 1_6</name>
  </metadata>
  <trk>
    <name><![CDATA[13343421-Traversée Moderne - Etape 1]]></name>
    <extensions>
      <line xmlns="http://www.topografix.com/GPX/gpx_style/0/2">
        <color>0000FF</color>
        <width>4</width>
      </line>
    </extensions>
    <trkseg>
      <trkpt lat="47.21584" lon="-1.55106">
        <ele>17</ele>
        <time>2021-07-21T14:06:34Z</time>
      </trkpt>
      <trkpt lat="47.21422" lon="-1.55034">
        <ele>10</ele>
        <time>2021-07-21T14:07:14Z</time>
      </trkpt>
      <trkpt lat="47.21294" lon="-1.55339">
        <ele>11</ele>
        <time>2021-07-21T14:08:10Z</time>
      </trkpt>
      <trkpt lat="47.21169" lon="-1.55646">
        <ele>9</ele>
        <time>2021-07-21T14:09:07Z</time>
      </trkpt>
      <trkpt lat="47.21183" lon="-1.55697">
        <ele>10</ele>
        <time>2021-07-21T14:09:16Z</time>
      </trkpt>
      <trkpt lat="47.21143" lon="-1.55862">
        <ele>8</ele>
        <time>2021-07-21T14:09:44Z</time>
      </trkpt>
      <trkpt lat="47.21149" lon="-1.55907">
        <ele>8</ele>
        <time>2021-07-21T14:09:51Z</time>
      </trkpt>
      <trkpt lat="47.21117" lon="-1.55927">
        <ele>8</ele>
        <time>2021-07-21T14:09:59Z</time>
      </trkpt>
      <trkpt lat="47.21077" lon="-1.55966">
        <ele>8</ele>
        <time>2021-07-21T14:10:10Z</time>
      </trkpt>
      <trkpt lat="47.21065" lon="-1.56015">
        <ele>8</ele>
        <time>2021-07-21T14:10:19Z</time>
      </trkpt>
      <trkpt lat="47.21043" lon="-1.56052">
        <ele>8</ele>
        <time>2021-07-21T14:10:26Z</time>
      </trkpt>
      <trkpt lat="47.21017" lon="-1.56112">
        <ele>8</ele>
        <time>2021-07-21T14:10:38Z</time>
      </trkpt>
      <trkpt lat="47.21008" lon="-1.56158">
        <ele>8</ele>
        <time>2021-07-21T14:10:45Z</time>
      </trkpt>
      <trkpt lat="47.20984" lon="-1.56169">
        <ele>7</ele>
        <time>2021-07-21T14:10:51Z</time>
      </trkpt>
      <trkpt lat="47.20986" lon="-1.56227">
        <ele>6</ele>
        <time>2021-07-21T14:11:00Z</time>
      </trkpt>
      <trkpt lat="47.20982" lon="-1.56363">
        <ele>9</ele>
        <time>2021-07-21T14:11:22Z</time>
      </trkpt>
      <trkpt lat="47.20941" lon="-1.56443">
        <ele>5</ele>
        <time>2021-07-21T14:11:38Z</time>
      </trkpt>
      <trkpt lat="47.20906" lon="-1.56577">
        <ele>5</ele>
        <time>2021-07-21T14:12:01Z</time>
      </trkpt>
      <trkpt lat="47.20903" lon="-1.56603">
        <ele>5</ele>
        <time>2021-07-21T14:12:05Z</time>
      </trkpt>
      <trkpt lat="47.20869" lon="-1.56728">
        <ele>3</ele>
        <time>2021-07-21T14:12:26Z</time>
      </trkpt>
      <trkpt lat="47.20746" lon="-1.57114">
        <ele>6</ele>
        <time>2021-07-21T14:13:34Z</time>
      </trkpt>
      <trkpt lat="47.20708" lon="-1.5717">
        <ele>5</ele>
        <time>2021-07-21T14:13:46Z</time>
      </trkpt>
      <trkpt lat="47.2068" lon="-1.57194">
        <ele>4</ele>
        <time>2021-07-21T14:13:54Z</time>
      </trkpt>
      <trkpt lat="47.20663" lon="-1.57217">
        <ele>4</ele>
        <time>2021-07-21T14:13:59Z</time>
      </trkpt>
      <trkpt lat="47.20651" lon="-1.57271">
        <ele>5</ele>
        <time>2021-07-21T14:14:08Z</time>
      </trkpt>
      <trkpt lat="47.2067" lon="-1.57277">
        <ele>6</ele>
        <time>2021-07-21T14:14:13Z</time>
      </trkpt>
      <trkpt lat="47.20681" lon="-1.57304">
        <ele>8</ele>
        <time>2021-07-21T14:14:18Z</time>
      </trkpt>
      <trkpt lat="47.20671" lon="-1.57318">
        <ele>8</ele>
        <time>2021-07-21T14:14:21Z</time>
      </trkpt>
      <trkpt lat="47.20653" lon="-1.57335">
        <ele>9</ele>
        <time>2021-07-21T14:14:26Z</time>
      </trkpt>
      <trkpt lat="47.20631" lon="-1.57366">
        <ele>11</ele>
        <time>2021-07-21T14:14:33Z</time>
      </trkpt>
      <trkpt lat="47.20613" lon="-1.57383">
        <ele>11</ele>
        <time>2021-07-21T14:14:38Z</time>
      </trkpt>
      <trkpt lat="47.20596" lon="-1.57404">
        <ele>12</ele>
        <time>2021-07-21T14:14:43Z</time>
      </trkpt>
      <trkpt lat="47.20575" lon="-1.5742">
        <ele>12</ele>
        <time>2021-07-21T14:14:49Z</time>
      </trkpt>
      <trkpt lat="47.20558" lon="-1.57442">
        <ele>10</ele>
        <time>2021-07-21T14:14:54Z</time>
      </trkpt>
      <trkpt lat="47.20542" lon="-1.57458">
        <ele>10</ele>
        <time>2021-07-21T14:14:59Z</time>
      </trkpt>
      <trkpt lat="47.20488" lon="-1.57496">
        <ele>10</ele>
        <time>2021-07-21T14:15:13Z</time>
      </trkpt>
      <trkpt lat="47.20458" lon="-1.57513">
        <ele>9</ele>
        <time>2021-07-21T14:15:20Z</time>
      </trkpt>
      <trkpt lat="47.20411" lon="-1.57523">
        <ele>9</ele>
        <time>2021-07-21T14:15:31Z</time>
      </trkpt>
      <trkpt lat="47.20374" lon="-1.57538">
        <ele>12</ele>
        <time>2021-07-21T14:15:40Z</time>
      </trkpt>
      <trkpt lat="47.20336" lon="-1.5756">
        <ele>17</ele>
        <time>2021-07-21T14:15:50Z</time>
      </trkpt>
      <trkpt lat="47.20294" lon="-1.57571">
        <ele>18</ele>
        <time>2021-07-21T14:16:00Z</time>
      </trkpt>
      <trkpt lat="47.20244" lon="-1.57609">
        <ele>22</ele>
        <time>2021-07-21T14:16:13Z</time>
      </trkpt>
      <trkpt lat="47.20185" lon="-1.57642">
        <ele>15</ele>
        <time>2021-07-21T14:16:28Z</time>
      </trkpt>
      <trkpt lat="47.20128" lon="-1.57711">
        <ele>15</ele>
        <time>2021-07-21T14:16:45Z</time>
      </trkpt>
      <trkpt lat="47.2009" lon="-1.5779">
        <ele>16</ele>
        <time>2021-07-21T14:17:00Z</time>
      </trkpt>
      <trkpt lat="47.2004" lon="-1.57905">
        <ele>10</ele>
        <time>2021-07-21T14:17:22Z</time>
      </trkpt>
      <trkpt lat="47.20003" lon="-1.57974">
        <ele>6</ele>
        <time>2021-07-21T14:17:36Z</time>
      </trkpt>
      <trkpt lat="47.19965" lon="-1.58107">
        <ele>9</ele>
        <time>2021-07-21T14:17:59Z</time>
      </trkpt>
      <trkpt lat="47.19915" lon="-1.5826">
        <ele>11</ele>
        <time>2021-07-21T14:18:26Z</time>
      </trkpt>
      <trkpt lat="47.19875" lon="-1.58445">
        <ele>11</ele>
        <time>2021-07-21T14:18:56Z</time>
      </trkpt>
      <trkpt lat="47.19864" lon="-1.58514">
        <ele>11</ele>
        <time>2021-07-21T14:19:08Z</time>
      </trkpt>
      <trkpt lat="47.19841" lon="-1.58771">
        <ele>11</ele>
        <time>2021-07-21T14:19:49Z</time>
      </trkpt>
      <trkpt lat="47.19835" lon="-1.58816">
        <ele>11</ele>
        <time>2021-07-21T14:19:56Z</time>
      </trkpt>
      <trkpt lat="47.19839" lon="-1.58842">
        <ele>11</ele>
        <time>2021-07-21T14:20:00Z</time>
      </trkpt>
      <trkpt lat="47.19817" lon="-1.58857">
        <ele>10</ele>
        <time>2021-07-21T14:20:06Z</time>
      </trkpt>
      <trkpt lat="47.19806" lon="-1.58872">
        <ele>9</ele>
        <time>2021-07-21T14:20:09Z</time>
      </trkpt>
      <trkpt lat="47.19792" lon="-1.58949">
        <ele>9</ele>
        <time>2021-07-21T14:20:22Z</time>
      </trkpt>
      <trkpt lat="47.19781" lon="-1.58956">
        <ele>9</ele>
        <time>2021-07-21T14:20:25Z</time>
      </trkpt>
      <trkpt lat="47.19774" lon="-1.58971">
        <ele>9</ele>
        <time>2021-07-21T14:20:28Z</time>
      </trkpt>
      <trkpt lat="47.1976" lon="-1.59047">
        <ele>9</ele>
        <time>2021-07-21T14:20:40Z</time>
      </trkpt>
      <trkpt lat="47.19741" lon="-1.59177">
        <ele>5</ele>
        <time>2021-07-21T14:21:01Z</time>
      </trkpt>
      <trkpt lat="47.19678" lon="-1.59425">
        <ele>7</ele>
        <time>2021-07-21T14:21:43Z</time>
      </trkpt>
      <trkpt lat="47.19649" lon="-1.59586">
        <ele>5</ele>
        <time>2021-07-21T14:22:10Z</time>
      </trkpt>
      <trkpt lat="47.19624" lon="-1.59682">
        <ele>5</ele>
        <time>2021-07-21T14:22:26Z</time>
      </trkpt>
      <trkpt lat="47.19599" lon="-1.59761">
        <ele>6</ele>
        <time>2021-07-21T14:22:40Z</time>
      </trkpt>
      <trkpt lat="47.19582" lon="-1.59804">
        <ele>5</ele>
        <time>2021-07-21T14:22:48Z</time>
      </trkpt>
      <trkpt lat="47.19576" lon="-1.59843">
        <ele>5</ele>
        <time>2021-07-21T14:22:54Z</time>
      </trkpt>
      <trkpt lat="47.19553" lon="-1.59931">
        <ele>4</ele>
        <time>2021-07-21T14:23:09Z</time>
      </trkpt>
      <trkpt lat="47.1953" lon="-1.60217">
        <ele>6</ele>
        <time>2021-07-21T14:23:55Z</time>
      </trkpt>
      <trkpt lat="47.19525" lon="-1.60337">
        <ele>6</ele>
        <time>2021-07-21T14:24:14Z</time>
      </trkpt>
      <trkpt lat="47.19505" lon="-1.60592">
        <ele>6</ele>
        <time>2021-07-21T14:24:55Z</time>
      </trkpt>
      <trkpt lat="47.19474" lon="-1.60858">
        <ele>7</ele>
        <time>2021-07-21T14:25:38Z</time>
      </trkpt>
      <trkpt lat="47.19466" lon="-1.61067">
        <ele>4</ele>
        <time>2021-07-21T14:26:11Z</time>
      </trkpt>
      <trkpt lat="47.19478" lon="-1.61297">
        <ele>5</ele>
        <time>2021-07-21T14:26:47Z</time>
      </trkpt>
      <trkpt lat="47.19479" lon="-1.6147">
        <ele>7</ele>
        <time>2021-07-21T14:27:15Z</time>
      </trkpt>
      <trkpt lat="47.19455" lon="-1.61654">
        <ele>8</ele>
        <time>2021-07-21T14:27:45Z</time>
      </trkpt>
      <trkpt lat="47.19434" lon="-1.61792">
        <ele>4</ele>
        <time>2021-07-21T14:28:07Z</time>
      </trkpt>
      <trkpt lat="47.19445" lon="-1.61899">
        <ele>4</ele>
        <time>2021-07-21T14:28:24Z</time>
      </trkpt>
      <trkpt lat="47.19466" lon="-1.62009">
        <ele>7</ele>
        <time>2021-07-21T14:28:42Z</time>
      </trkpt>
      <trkpt lat="47.19462" lon="-1.62248">
        <ele>3</ele>
        <time>2021-07-21T14:29:20Z</time>
      </trkpt>
      <trkpt lat="47.19473" lon="-1.62409">
        <ele>5</ele>
        <time>2021-07-21T14:29:46Z</time>
      </trkpt>
      <trkpt lat="47.19464" lon="-1.62652">
        <ele>7</ele>
        <time>2021-07-21T14:30:25Z</time>
      </trkpt>
      <trkpt lat="47.19483" lon="-1.62807">
        <ele>6</ele>
        <time>2021-07-21T14:30:50Z</time>
      </trkpt>
      <trkpt lat="47.19497" lon="-1.63014">
        <ele>4</ele>
        <time>2021-07-21T14:31:23Z</time>
      </trkpt>
      <trkpt lat="47.19493" lon="-1.63195">
        <ele>4</ele>
        <time>2021-07-21T14:31:51Z</time>
      </trkpt>
      <trkpt lat="47.19434" lon="-1.63751">
        <ele>6</ele>
        <time>2021-07-21T14:33:21Z</time>
      </trkpt>
      <trkpt lat="47.19427" lon="-1.63846">
        <ele>5</ele>
        <time>2021-07-21T14:33:36Z</time>
      </trkpt>
      <trkpt lat="47.19401" lon="-1.64109">
        <ele>5</ele>
        <time>2021-07-21T14:34:18Z</time>
      </trkpt>
      <trkpt lat="47.19398" lon="-1.64252">
        <ele>4</ele>
        <time>2021-07-21T14:34:41Z</time>
      </trkpt>
      <trkpt lat="47.19375" lon="-1.6444">
        <ele>5</ele>
        <time>2021-07-21T14:35:11Z</time>
      </trkpt>
      <trkpt lat="47.19372" lon="-1.64604">
        <ele>5</ele>
        <time>2021-07-21T14:35:37Z</time>
      </trkpt>
      <trkpt lat="47.19338" lon="-1.64714">
        <ele>6</ele>
        <time>2021-07-21T14:35:56Z</time>
      </trkpt>
      <trkpt lat="47.19363" lon="-1.64787">
        <ele>8</ele>
        <time>2021-07-21T14:36:09Z</time>
      </trkpt>
      <trkpt lat="47.19415" lon="-1.6491">
        <ele>10</ele>
        <time>2021-07-21T14:36:32Z</time>
      </trkpt>
      <trkpt lat="47.19457" lon="-1.64994">
        <ele>12</ele>
        <time>2021-07-21T14:36:49Z</time>
      </trkpt>
      <trkpt lat="47.19528" lon="-1.65265">
        <ele>9</ele>
        <time>2021-07-21T14:37:35Z</time>
      </trkpt>
      <trkpt lat="47.19575" lon="-1.65402">
        <ele>5</ele>
        <time>2021-07-21T14:37:59Z</time>
      </trkpt>
      <trkpt lat="47.19608" lon="-1.65548">
        <ele>5</ele>
        <time>2021-07-21T14:38:23Z</time>
      </trkpt>
      <trkpt lat="47.19663" lon="-1.65821">
        <ele>6</ele>
        <time>2021-07-21T14:39:09Z</time>
      </trkpt>
      <trkpt lat="47.19717" lon="-1.66005">
        <ele>5</ele>
        <time>2021-07-21T14:39:40Z</time>
      </trkpt>
      <trkpt lat="47.19745" lon="-1.66112">
        <ele>5</ele>
        <time>2021-07-21T14:39:59Z</time>
      </trkpt>
      <trkpt lat="47.19753" lon="-1.66199">
        <ele>5</ele>
        <time>2021-07-21T14:40:13Z</time>
      </trkpt>
      <trkpt lat="47.19719" lon="-1.66599">
        <ele>7</ele>
        <time>2021-07-21T14:41:17Z</time>
      </trkpt>
      <trkpt lat="47.19701" lon="-1.6666">
        <ele>9</ele>
        <time>2021-07-21T14:41:27Z</time>
      </trkpt>
      <trkpt lat="47.19653" lon="-1.66617">
        <ele>8</ele>
        <time>2021-07-21T14:41:40Z</time>
      </trkpt>
      <trkpt lat="47.19601" lon="-1.66632">
        <ele>7</ele>
        <time>2021-07-21T14:41:53Z</time>
      </trkpt>
      <trkpt lat="47.19599" lon="-1.66801">
        <ele>10</ele>
        <time>2021-07-21T14:42:19Z</time>
      </trkpt>
      <trkpt lat="47.19651" lon="-1.66982">
        <ele>7</ele>
        <time>2021-07-21T14:42:51Z</time>
      </trkpt>
      <trkpt lat="47.19724" lon="-1.67127">
        <ele>5</ele>
        <time>2021-07-21T14:43:19Z</time>
      </trkpt>
      <trkpt lat="47.19837" lon="-1.67372">
        <ele>5</ele>
        <time>2021-07-21T14:44:06Z</time>
      </trkpt>
      <trkpt lat="47.1987" lon="-1.67426">
        <ele>6</ele>
        <time>2021-07-21T14:44:18Z</time>
      </trkpt>
      <trkpt lat="47.19956" lon="-1.6763">
        <ele>7</ele>
        <time>2021-07-21T14:44:56Z</time>
      </trkpt>
      <trkpt lat="47.20067" lon="-1.67801">
        <ele>6</ele>
        <time>2021-07-21T14:45:33Z</time>
      </trkpt>
      <trkpt lat="47.20137" lon="-1.67918">
        <ele>6</ele>
        <time>2021-07-21T14:45:58Z</time>
      </trkpt>
      <trkpt lat="47.20242" lon="-1.67835">
        <ele>11</ele>
        <time>2021-07-21T14:46:26Z</time>
      </trkpt>
      <trkpt lat="47.2015" lon="-1.67566">
        <ele>9</ele>
        <time>2021-07-21T14:47:14Z</time>
      </trkpt>
      <trkpt lat="47.20115" lon="-1.67486">
        <ele>9</ele>
        <time>2021-07-21T14:47:29Z</time>
      </trkpt>
      <trkpt lat="47.20188" lon="-1.67445">
        <ele>6</ele>
        <time>2021-07-21T14:47:47Z</time>
      </trkpt>
      <trkpt lat="47.20313" lon="-1.6739">
        <ele>5</ele>
        <time>2021-07-21T14:48:18Z</time>
      </trkpt>
      <trkpt lat="47.20353" lon="-1.67409">
        <ele>5</ele>
        <time>2021-07-21T14:48:27Z</time>
      </trkpt>
      <trkpt lat="47.20374" lon="-1.67492">
        <ele>6</ele>
        <time>2021-07-21T14:48:41Z</time>
      </trkpt>
      <trkpt lat="47.20402" lon="-1.67551">
        <ele>6</ele>
        <time>2021-07-21T14:48:53Z</time>
      </trkpt>
      <trkpt lat="47.20476" lon="-1.67622">
        <ele>4</ele>
        <time>2021-07-21T14:49:13Z</time>
      </trkpt>
      <trkpt lat="47.20527" lon="-1.6777">
        <ele>6</ele>
        <time>2021-07-21T14:49:40Z</time>
      </trkpt>
      <trkpt lat="47.20586" lon="-1.67916">
        <ele>2</ele>
        <time>2021-07-21T14:50:07Z</time>
      </trkpt>
      <trkpt lat="47.20639" lon="-1.6813">
        <ele>2</ele>
        <time>2021-07-21T14:50:43Z</time>
      </trkpt>
      <trkpt lat="47.20702" lon="-1.68345">
        <ele>5</ele>
        <time>2021-07-21T14:51:20Z</time>
      </trkpt>
      <trkpt lat="47.20752" lon="-1.68493">
        <ele>6</ele>
        <time>2021-07-21T14:51:46Z</time>
      </trkpt>
      <trkpt lat="47.20808" lon="-1.68707">
        <ele>4</ele>
        <time>2021-07-21T14:52:23Z</time>
      </trkpt>
      <trkpt lat="47.20861" lon="-1.68924">
        <ele>4</ele>
        <time>2021-07-21T14:52:59Z</time>
      </trkpt>
      <trkpt lat="47.20889" lon="-1.69153">
        <ele>4</ele>
        <time>2021-07-21T14:53:36Z</time>
      </trkpt>
      <trkpt lat="47.20934" lon="-1.6974">
        <ele>4</ele>
        <time>2021-07-21T14:55:10Z</time>
      </trkpt>
      <trkpt lat="47.20941" lon="-1.69985">
        <ele>4</ele>
        <time>2021-07-21T14:55:49Z</time>
      </trkpt>
      <trkpt lat="47.20957" lon="-1.70179">
        <ele>6</ele>
        <time>2021-07-21T14:56:20Z</time>
      </trkpt>
      <trkpt lat="47.20967" lon="-1.7048">
        <ele>6</ele>
        <time>2021-07-21T14:57:08Z</time>
      </trkpt>
      <trkpt lat="47.2095" lon="-1.70715">
        <ele>5</ele>
        <time>2021-07-21T14:57:45Z</time>
      </trkpt>
      <trkpt lat="47.21007" lon="-1.70968">
        <ele>5</ele>
        <time>2021-07-21T14:58:27Z</time>
      </trkpt>
      <trkpt lat="47.21024" lon="-1.71077">
        <ele>7</ele>
        <time>2021-07-21T14:58:45Z</time>
      </trkpt>
      <trkpt lat="47.20981" lon="-1.71225">
        <ele>7</ele>
        <time>2021-07-21T14:59:11Z</time>
      </trkpt>
      <trkpt lat="47.20865" lon="-1.7132">
        <ele>5</ele>
        <time>2021-07-21T14:59:42Z</time>
      </trkpt>
      <trkpt lat="47.2084" lon="-1.71483">
        <ele>2</ele>
        <time>2021-07-21T15:00:08Z</time>
      </trkpt>
      <trkpt lat="47.20847" lon="-1.71902">
        <ele>5</ele>
        <time>2021-07-21T15:01:15Z</time>
      </trkpt>
      <trkpt lat="47.20906" lon="-1.72754">
        <ele>7</ele>
        <time>2021-07-21T15:03:30Z</time>
      </trkpt>
      <trkpt lat="47.20976" lon="-1.72994">
        <ele>7</ele>
        <time>2021-07-21T15:04:12Z</time>
      </trkpt>
      <trkpt lat="47.21042" lon="-1.73144">
        <ele>6</ele>
        <time>2021-07-21T15:04:40Z</time>
      </trkpt>
      <trkpt lat="47.21123" lon="-1.73172">
        <ele>7</ele>
        <time>2021-07-21T15:05:00Z</time>
      </trkpt>
      <trkpt lat="47.21116" lon="-1.7331">
        <ele>5</ele>
        <time>2021-07-21T15:05:22Z</time>
      </trkpt>
      <trkpt lat="47.21109" lon="-1.73553">
        <ele>4</ele>
        <time>2021-07-21T15:06:00Z</time>
      </trkpt>
      <trkpt lat="47.21114" lon="-1.73711">
        <ele>4</ele>
        <time>2021-07-21T15:06:25Z</time>
      </trkpt>
      <trkpt lat="47.2114" lon="-1.73874">
        <ele>4</ele>
        <time>2021-07-21T15:06:52Z</time>
      </trkpt>
      <trkpt lat="47.21168" lon="-1.74012">
        <ele>4</ele>
        <time>2021-07-21T15:07:15Z</time>
      </trkpt>
      <trkpt lat="47.21151" lon="-1.74096">
        <ele>4</ele>
        <time>2021-07-21T15:07:29Z</time>
      </trkpt>
      <trkpt lat="47.21094" lon="-1.7417">
        <ele>2</ele>
        <time>2021-07-21T15:07:46Z</time>
      </trkpt>
      <trkpt lat="47.21038" lon="-1.74249">
        <ele>3</ele>
        <time>2021-07-21T15:08:05Z</time>
      </trkpt>
      <trkpt lat="47.20996" lon="-1.74372">
        <ele>3</ele>
        <time>2021-07-21T15:08:26Z</time>
      </trkpt>
      <trkpt lat="47.20979" lon="-1.74533">
        <ele>7</ele>
        <time>2021-07-21T15:08:52Z</time>
      </trkpt>
      <trkpt lat="47.2096" lon="-1.74749">
        <ele>10</ele>
        <time>2021-07-21T15:09:27Z</time>
      </trkpt>
      <trkpt lat="47.20943" lon="-1.74852">
        <ele>8</ele>
        <time>2021-07-21T15:09:44Z</time>
      </trkpt>
      <trkpt lat="47.20873" lon="-1.74903">
        <ele>4</ele>
        <time>2021-07-21T15:10:02Z</time>
      </trkpt>
      <trkpt lat="47.20783" lon="-1.74923">
        <ele>3</ele>
        <time>2021-07-21T15:10:23Z</time>
      </trkpt>
      <trkpt lat="47.20705" lon="-1.74956">
        <ele>3</ele>
        <time>2021-07-21T15:10:42Z</time>
      </trkpt>
      <trkpt lat="47.20653" lon="-1.75038">
        <ele>3</ele>
        <time>2021-07-21T15:11:00Z</time>
      </trkpt>
      <trkpt lat="47.20605" lon="-1.75165">
        <ele>2</ele>
        <time>2021-07-21T15:11:23Z</time>
      </trkpt>
      <trkpt lat="47.20319" lon="-1.75566">
        <ele>5</ele>
        <time>2021-07-21T15:12:55Z</time>
      </trkpt>
      <trkpt lat="47.20325" lon="-1.75634">
        <ele>6</ele>
        <time>2021-07-21T15:13:06Z</time>
      </trkpt>
      <trkpt lat="47.20386" lon="-1.75933">
        <ele>6</ele>
        <time>2021-07-21T15:13:56Z</time>
      </trkpt>
      <trkpt lat="47.20408" lon="-1.76067">
        <ele>7</ele>
        <time>2021-07-21T15:14:17Z</time>
      </trkpt>
      <trkpt lat="47.20416" lon="-1.7617">
        <ele>9</ele>
        <time>2021-07-21T15:14:34Z</time>
      </trkpt>
      <trkpt lat="47.20436" lon="-1.76282">
        <ele>6</ele>
        <time>2021-07-21T15:14:52Z</time>
      </trkpt>
      <trkpt lat="47.20458" lon="-1.76448">
        <ele>5</ele>
        <time>2021-07-21T15:15:19Z</time>
      </trkpt>
      <trkpt lat="47.20467" lon="-1.76543">
        <ele>5</ele>
        <time>2021-07-21T15:15:34Z</time>
      </trkpt>
      <trkpt lat="47.205" lon="-1.76671">
        <ele>6</ele>
        <time>2021-07-21T15:15:56Z</time>
      </trkpt>
      <trkpt lat="47.20556" lon="-1.76985">
        <ele>6</ele>
        <time>2021-07-21T15:16:47Z</time>
      </trkpt>
      <trkpt lat="47.20572" lon="-1.77281">
        <ele>8</ele>
        <time>2021-07-21T15:17:35Z</time>
      </trkpt>
      <trkpt lat="47.20595" lon="-1.77469">
        <ele>10</ele>
        <time>2021-07-21T15:18:05Z</time>
      </trkpt>
      <trkpt lat="47.20613" lon="-1.77565">
        <ele>8</ele>
        <time>2021-07-21T15:18:21Z</time>
      </trkpt>
      <trkpt lat="47.20593" lon="-1.77822">
        <ele>11</ele>
        <time>2021-07-21T15:19:02Z</time>
      </trkpt>
      <trkpt lat="47.20582" lon="-1.779">
        <ele>11</ele>
        <time>2021-07-21T15:19:14Z</time>
      </trkpt>
      <trkpt lat="47.20587" lon="-1.78">
        <ele>8</ele>
        <time>2021-07-21T15:19:30Z</time>
      </trkpt>
      <trkpt lat="47.20589" lon="-1.7815">
        <ele>7</ele>
        <time>2021-07-21T15:19:54Z</time>
      </trkpt>
      <trkpt lat="47.20608" lon="-1.78276">
        <ele>6</ele>
        <time>2021-07-21T15:20:15Z</time>
      </trkpt>
      <trkpt lat="47.20624" lon="-1.78413">
        <ele>6</ele>
        <time>2021-07-21T15:20:37Z</time>
      </trkpt>
      <trkpt lat="47.20624" lon="-1.78505">
        <ele>8</ele>
        <time>2021-07-21T15:20:51Z</time>
      </trkpt>
      <trkpt lat="47.20637" lon="-1.78534">
        <ele>8</ele>
        <time>2021-07-21T15:20:57Z</time>
      </trkpt>
      <trkpt lat="47.20692" lon="-1.78552">
        <ele>7</ele>
        <time>2021-07-21T15:21:10Z</time>
      </trkpt>
      <trkpt lat="47.20766" lon="-1.78569">
        <ele>4</ele>
        <time>2021-07-21T15:21:27Z</time>
      </trkpt>
      <trkpt lat="47.2082" lon="-1.7861">
        <ele>4</ele>
        <time>2021-07-21T15:21:42Z</time>
      </trkpt>
      <trkpt lat="47.20828" lon="-1.78693">
        <ele>3</ele>
        <time>2021-07-21T15:21:55Z</time>
      </trkpt>
      <trkpt lat="47.20803" lon="-1.78835">
        <ele>4</ele>
        <time>2021-07-21T15:22:18Z</time>
      </trkpt>
      <trkpt lat="47.20777" lon="-1.78941">
        <ele>5</ele>
        <time>2021-07-21T15:22:36Z</time>
      </trkpt>
      <trkpt lat="47.20738" lon="-1.79023">
        <ele>6</ele>
        <time>2021-07-21T15:22:52Z</time>
      </trkpt>
      <trkpt lat="47.20709" lon="-1.79126">
        <ele>4</ele>
        <time>2021-07-21T15:23:10Z</time>
      </trkpt>
      <trkpt lat="47.20705" lon="-1.79231">
        <ele>3</ele>
        <time>2021-07-21T15:23:26Z</time>
      </trkpt>
      <trkpt lat="47.20706" lon="-1.79356">
        <ele>2</ele>
        <time>2021-07-21T15:23:46Z</time>
      </trkpt>
      <trkpt lat="47.20684" lon="-1.79448">
        <ele>3</ele>
        <time>2021-07-21T15:24:02Z</time>
      </trkpt>
      <trkpt lat="47.20684" lon="-1.79578">
        <ele>3</ele>
        <time>2021-07-21T15:24:22Z</time>
      </trkpt>
      <trkpt lat="47.20733" lon="-1.80406">
        <ele>4</ele>
        <time>2021-07-21T15:26:34Z</time>
      </trkpt>
      <trkpt lat="47.20855" lon="-1.81179">
        <ele>3</ele>
        <time>2021-07-21T15:28:40Z</time>
      </trkpt>
      <trkpt lat="47.21069" lon="-1.81742">
        <ele>5</ele>
        <time>2021-07-21T15:30:22Z</time>
      </trkpt>
      <trkpt lat="47.2138" lon="-1.82265">
        <ele>3</ele>
        <time>2021-07-21T15:32:13Z</time>
      </trkpt>
      <trkpt lat="47.21446" lon="-1.82339">
        <ele>2</ele>
        <time>2021-07-21T15:32:32Z</time>
      </trkpt>
      <trkpt lat="47.21413" lon="-1.82396">
        <ele>1</ele>
        <time>2021-07-21T15:32:44Z</time>
      </trkpt>
      <trkpt lat="47.2138" lon="-1.82435">
        <ele>2</ele>
        <time>2021-07-21T15:32:54Z</time>
      </trkpt>
      <trkpt lat="47.21449" lon="-1.82546">
        <ele>1</ele>
        <time>2021-07-21T15:33:18Z</time>
      </trkpt>
      <trkpt lat="47.21805" lon="-1.83206">
        <ele>2</ele>
        <time>2021-07-21T15:35:31Z</time>
      </trkpt>
      <trkpt lat="47.22187" lon="-1.8397">
        <ele>3</ele>
        <time>2021-07-21T15:38:02Z</time>
      </trkpt>
      <trkpt lat="47.22721" lon="-1.85017">
        <ele>4</ele>
        <time>2021-07-21T15:41:29Z</time>
      </trkpt>
      <trkpt lat="47.23535" lon="-1.86706">
        <ele>2</ele>
        <time>2021-07-21T15:46:58Z</time>
      </trkpt>
      <trkpt lat="47.24348" lon="-1.88367">
        <ele>1</ele>
        <time>2021-07-21T15:52:23Z</time>
      </trkpt>
      <trkpt lat="47.25108" lon="-1.90127">
        <ele>2</ele>
        <time>2021-07-21T15:57:53Z</time>
      </trkpt>
      <trkpt lat="47.25671" lon="-1.91123">
        <ele>1</ele>
        <time>2021-07-21T16:01:19Z</time>
      </trkpt>
      <trkpt lat="47.26021" lon="-1.91723">
        <ele>2</ele>
        <time>2021-07-21T16:03:24Z</time>
      </trkpt>
      <trkpt lat="47.26021" lon="-1.91766">
        <ele>2</ele>
        <time>2021-07-21T16:03:31Z</time>
      </trkpt>
      <trkpt lat="47.2626" lon="-1.91444">
        <ele>3</ele>
        <time>2021-07-21T16:04:46Z</time>
      </trkpt>
      <trkpt lat="47.26515" lon="-1.90886">
        <ele>1</ele>
        <time>2021-07-21T16:06:33Z</time>
      </trkpt>
      <trkpt lat="47.26828" lon="-1.90558">
        <ele>1</ele>
        <time>2021-07-21T16:08:03Z</time>
      </trkpt>
      <trkpt lat="47.27166" lon="-1.90182">
        <ele>1</ele>
        <time>2021-07-21T16:09:42Z</time>
      </trkpt>
      <trkpt lat="47.27495" lon="-1.89987">
        <ele>1</ele>
        <time>2021-07-21T16:11:04Z</time>
      </trkpt>
      <trkpt lat="47.26672" lon="-1.90716">
        <ele>2</ele>
        <time>2021-07-21T16:14:49Z</time>
      </trkpt>
      <trkpt lat="47.26006" lon="-1.91741">
        <ele>2</ele>
        <time>2021-07-21T16:18:34Z</time>
      </trkpt>
      <trkpt lat="47.26235" lon="-1.9233">
        <ele>2</ele>
        <time>2021-07-21T16:20:21Z</time>
      </trkpt>
      <trkpt lat="47.26449" lon="-1.93314">
        <ele>2</ele>
        <time>2021-07-21T16:23:05Z</time>
      </trkpt>
      <trkpt lat="47.26531" lon="-1.93846">
        <ele>1</ele>
        <time>2021-07-21T16:24:31Z</time>
      </trkpt>
      <trkpt lat="47.26583" lon="-1.94331">
        <ele>3</ele>
        <time>2021-07-21T16:25:49Z</time>
      </trkpt>
      <trkpt lat="47.26694" lon="-1.94821">
        <ele>2</ele>
        <time>2021-07-21T16:27:11Z</time>
      </trkpt>
      <trkpt lat="47.26656" lon="-1.95001">
        <ele>2</ele>
        <time>2021-07-21T16:27:41Z</time>
      </trkpt>
      <trkpt lat="47.26566" lon="-1.95082">
        <ele>4</ele>
        <time>2021-07-21T16:28:06Z</time>
      </trkpt>
      <trkpt lat="47.26473" lon="-1.95087">
        <ele>6</ele>
        <time>2021-07-21T16:28:27Z</time>
      </trkpt>
      <trkpt lat="47.26476" lon="-1.95271">
        <ele>5</ele>
        <time>2021-07-21T16:28:57Z</time>
      </trkpt>
      <trkpt lat="47.26578" lon="-1.95554">
        <ele>9</ele>
        <time>2021-07-21T16:29:47Z</time>
      </trkpt>
      <trkpt lat="47.26659" lon="-1.95829">
        <ele>10</ele>
        <time>2021-07-21T16:30:35Z</time>
      </trkpt>
      <trkpt lat="47.26761" lon="-1.96125">
        <ele>15</ele>
        <time>2021-07-21T16:31:27Z</time>
      </trkpt>
      <trkpt lat="47.26816" lon="-1.96353">
        <ele>14</ele>
        <time>2021-07-21T16:32:06Z</time>
      </trkpt>
      <trkpt lat="47.26895" lon="-1.96537">
        <ele>13</ele>
        <time>2021-07-21T16:32:40Z</time>
      </trkpt>
      <trkpt lat="47.27044" lon="-1.96902">
        <ele>7</ele>
        <time>2021-07-21T16:33:48Z</time>
      </trkpt>
      <trkpt lat="47.27111" lon="-1.97168">
        <ele>9</ele>
        <time>2021-07-21T16:34:33Z</time>
      </trkpt>
      <trkpt lat="47.27198" lon="-1.97318">
        <ele>6</ele>
        <time>2021-07-21T16:35:04Z</time>
      </trkpt>
      <trkpt lat="47.27259" lon="-1.97469">
        <ele>6</ele>
        <time>2021-07-21T16:35:32Z</time>
      </trkpt>
      <trkpt lat="47.27294" lon="-1.97623">
        <ele>9</ele>
        <time>2021-07-21T16:35:58Z</time>
      </trkpt>
      <trkpt lat="47.27306" lon="-1.97731">
        <ele>11</ele>
        <time>2021-07-21T16:36:15Z</time>
      </trkpt>
      <trkpt lat="47.2737" lon="-1.97766">
        <ele>9</ele>
        <time>2021-07-21T16:36:31Z</time>
      </trkpt>
      <trkpt lat="47.2741" lon="-1.97823">
        <ele>8</ele>
        <time>2021-07-21T16:36:44Z</time>
      </trkpt>
      <trkpt lat="47.27446" lon="-1.98027">
        <ele>5</ele>
        <time>2021-07-21T16:37:17Z</time>
      </trkpt>
      <trkpt lat="47.27448" lon="-1.98149">
        <ele>5</ele>
        <time>2021-07-21T16:37:37Z</time>
      </trkpt>
      <trkpt lat="47.2742" lon="-1.98376">
        <ele>4</ele>
        <time>2021-07-21T16:38:13Z</time>
      </trkpt>
      <trkpt lat="47.27403" lon="-1.98483">
        <ele>5</ele>
        <time>2021-07-21T16:38:31Z</time>
      </trkpt>
      <trkpt lat="47.27462" lon="-1.9854">
        <ele>4</ele>
        <time>2021-07-21T16:38:47Z</time>
      </trkpt>
      <trkpt lat="47.27515" lon="-1.98601">
        <ele>3</ele>
        <time>2021-07-21T16:39:03Z</time>
      </trkpt>
      <trkpt lat="47.27574" lon="-1.98823">
        <ele>2</ele>
        <time>2021-07-21T16:39:40Z</time>
      </trkpt>
      <trkpt lat="47.27599" lon="-1.98966">
        <ele>2</ele>
        <time>2021-07-21T16:40:04Z</time>
      </trkpt>
      <trkpt lat="47.27595" lon="-1.99068">
        <ele>4</ele>
        <time>2021-07-21T16:40:20Z</time>
      </trkpt>
      <trkpt lat="47.27528" lon="-1.99246">
        <ele>3</ele>
        <time>2021-07-21T16:40:52Z</time>
      </trkpt>
      <trkpt lat="47.27512" lon="-1.99364">
        <ele>3</ele>
        <time>2021-07-21T16:41:11Z</time>
      </trkpt>
      <trkpt lat="47.27524" lon="-1.99494">
        <ele>4</ele>
        <time>2021-07-21T16:41:32Z</time>
      </trkpt>
      <trkpt lat="47.2756" lon="-1.99627">
        <ele>4</ele>
        <time>2021-07-21T16:41:55Z</time>
      </trkpt>
      <trkpt lat="47.27573" lon="-1.99752">
        <ele>4</ele>
        <time>2021-07-21T16:42:15Z</time>
      </trkpt>
      <trkpt lat="47.27564" lon="-1.99879">
        <ele>5</ele>
        <time>2021-07-21T16:42:35Z</time>
      </trkpt>
      <trkpt lat="47.27576" lon="-1.99951">
        <ele>4</ele>
        <time>2021-07-21T16:42:47Z</time>
      </trkpt>
      <trkpt lat="47.27609" lon="-2.00032">
        <ele>4</ele>
        <time>2021-07-21T16:43:02Z</time>
      </trkpt>
      <trkpt lat="47.2765" lon="-2.00122">
        <ele>6</ele>
        <time>2021-07-21T16:43:19Z</time>
      </trkpt>
      <trkpt lat="47.2768" lon="-2.00219">
        <ele>5</ele>
        <time>2021-07-21T16:43:36Z</time>
      </trkpt>
      <trkpt lat="47.27668" lon="-2.00384">
        <ele>6</ele>
        <time>2021-07-21T16:44:02Z</time>
      </trkpt>
      <trkpt lat="47.27671" lon="-2.00446">
        <ele>6</ele>
        <time>2021-07-21T16:44:12Z</time>
      </trkpt>
      <trkpt lat="47.27756" lon="-2.00451">
        <ele>4</ele>
        <time>2021-07-21T16:44:32Z</time>
      </trkpt>
      <trkpt lat="47.27834" lon="-2.00502">
        <ele>2</ele>
        <time>2021-07-21T16:44:52Z</time>
      </trkpt>
      <trkpt lat="47.27895" lon="-2.00563">
        <ele>3</ele>
        <time>2021-07-21T16:45:09Z</time>
      </trkpt>
      <trkpt lat="47.27945" lon="-2.00624">
        <ele>3</ele>
        <time>2021-07-21T16:45:24Z</time>
      </trkpt>
      <trkpt lat="47.27955" lon="-2.00691">
        <ele>4</ele>
        <time>2021-07-21T16:45:35Z</time>
      </trkpt>
      <trkpt lat="47.27907" lon="-2.00737">
        <ele>5</ele>
        <time>2021-07-21T16:45:48Z</time>
      </trkpt>
      <trkpt lat="47.27839" lon="-2.00821">
        <ele>4</ele>
        <time>2021-07-21T16:46:09Z</time>
      </trkpt>
      <trkpt lat="47.27805" lon="-2.00869">
        <ele>5</ele>
        <time>2021-07-21T16:46:20Z</time>
      </trkpt>
      <trkpt lat="47.27763" lon="-2.00943">
        <ele>7</ele>
        <time>2021-07-21T16:46:35Z</time>
      </trkpt>
      <trkpt lat="47.27777" lon="-2.01005">
        <ele>7</ele>
        <time>2021-07-21T16:46:46Z</time>
      </trkpt>
      <trkpt lat="47.27811" lon="-2.01096">
        <ele>5</ele>
        <time>2021-07-21T16:47:02Z</time>
      </trkpt>
      <trkpt lat="47.27855" lon="-2.0117">
        <ele>5</ele>
        <time>2021-07-21T16:47:18Z</time>
      </trkpt>
      <trkpt lat="47.279" lon="-2.0129">
        <ele>5</ele>
        <time>2021-07-21T16:47:40Z</time>
      </trkpt>
      <trkpt lat="47.27929" lon="-2.01405">
        <ele>4</ele>
        <time>2021-07-21T16:47:59Z</time>
      </trkpt>
      <trkpt lat="47.27945" lon="-2.01482">
        <ele>2</ele>
        <time>2021-07-21T16:48:12Z</time>
      </trkpt>
      <trkpt lat="47.28045" lon="-2.01507">
        <ele>2</ele>
        <time>2021-07-21T16:48:35Z</time>
      </trkpt>
      <trkpt lat="47.28161" lon="-2.01556">
        <ele>2</ele>
        <time>2021-07-21T16:49:04Z</time>
      </trkpt>
      <trkpt lat="47.28329" lon="-2.01589">
        <ele>4</ele>
        <time>2021-07-21T16:49:43Z</time>
      </trkpt>
      <trkpt lat="47.28426" lon="-2.01635">
        <ele>5</ele>
        <time>2021-07-21T16:50:07Z</time>
      </trkpt>
      <trkpt lat="47.28519" lon="-2.01658">
        <ele>5</ele>
        <time>2021-07-21T16:50:29Z</time>
      </trkpt>
      <trkpt lat="47.28601" lon="-2.01737">
        <ele>4</ele>
        <time>2021-07-21T16:50:52Z</time>
      </trkpt>
      <trkpt lat="47.28653" lon="-2.01813">
        <ele>4</ele>
        <time>2021-07-21T16:51:09Z</time>
      </trkpt>
      <trkpt lat="47.28717" lon="-2.01959">
        <ele>3</ele>
        <time>2021-07-21T16:51:37Z</time>
      </trkpt>
      <trkpt lat="47.28741" lon="-2.02051">
        <ele>3</ele>
        <time>2021-07-21T16:51:52Z</time>
      </trkpt>
      <trkpt lat="47.28791" lon="-2.02143">
        <ele>3</ele>
        <time>2021-07-21T16:52:11Z</time>
      </trkpt>
      <trkpt lat="47.28833" lon="-2.02293">
        <ele>3</ele>
        <time>2021-07-21T16:52:37Z</time>
      </trkpt>
      <trkpt lat="47.28841" lon="-2.02434">
        <ele>4</ele>
        <time>2021-07-21T16:52:59Z</time>
      </trkpt>
      <trkpt lat="47.28845" lon="-2.02566">
        <ele>4</ele>
        <time>2021-07-21T16:53:20Z</time>
      </trkpt>
      <trkpt lat="47.28862" lon="-2.02684">
        <ele>4</ele>
        <time>2021-07-21T16:53:39Z</time>
      </trkpt>
      <trkpt lat="47.28916" lon="-2.02722">
        <ele>3</ele>
        <time>2021-07-21T16:53:53Z</time>
      </trkpt>
      <trkpt lat="47.2899" lon="-2.0302">
        <ele>4</ele>
        <time>2021-07-21T16:54:43Z</time>
      </trkpt>
      <trkpt lat="47.28992" lon="-2.03143">
        <ele>4</ele>
        <time>2021-07-21T16:55:03Z</time>
      </trkpt>
      <trkpt lat="47.2898" lon="-2.03268">
        <ele>2</ele>
        <time>2021-07-21T16:55:23Z</time>
      </trkpt>
      <trkpt lat="47.28931" lon="-2.035">
        <ele>3</ele>
        <time>2021-07-21T16:56:01Z</time>
      </trkpt>
      <trkpt lat="47.28916" lon="-2.0386">
        <ele>8</ele>
        <time>2021-07-21T16:56:58Z</time>
      </trkpt>
      <trkpt lat="47.28888" lon="-2.04003">
        <ele>8</ele>
        <time>2021-07-21T16:57:22Z</time>
      </trkpt>
      <trkpt lat="47.28815" lon="-2.0409">
        <ele>6</ele>
        <time>2021-07-21T16:57:44Z</time>
      </trkpt>
      <trkpt lat="47.28738" lon="-2.04212">
        <ele>3</ele>
        <time>2021-07-21T16:58:10Z</time>
      </trkpt>
      <trkpt lat="47.28656" lon="-2.04327">
        <ele>1</ele>
        <time>2021-07-21T16:58:37Z</time>
      </trkpt>
      <trkpt lat="47.28492" lon="-2.04597">
        <ele>3</ele>
        <time>2021-07-21T16:59:34Z</time>
      </trkpt>
      <trkpt lat="47.28327" lon="-2.04934">
        <ele>1</ele>
        <time>2021-07-21T17:00:40Z</time>
      </trkpt>
      <trkpt lat="47.28107" lon="-2.05419">
        <ele>3</ele>
        <time>2021-07-21T17:02:12Z</time>
      </trkpt>
      <trkpt lat="47.27978" lon="-2.05684">
        <ele>2</ele>
        <time>2021-07-21T17:03:04Z</time>
      </trkpt>
      <trkpt lat="47.27907" lon="-2.05752">
        <ele>4</ele>
        <time>2021-07-21T17:03:24Z</time>
      </trkpt>
      <trkpt lat="47.27834" lon="-2.05813">
        <ele>6</ele>
        <time>2021-07-21T17:03:43Z</time>
      </trkpt>
      <trkpt lat="47.27792" lon="-2.0583">
        <ele>6</ele>
        <time>2021-07-21T17:03:54Z</time>
      </trkpt>
      <trkpt lat="47.27766" lon="-2.05871">
        <ele>6</ele>
        <time>2021-07-21T17:04:02Z</time>
      </trkpt>
      <trkpt lat="47.27747" lon="-2.05932">
        <ele>6</ele>
        <time>2021-07-21T17:04:13Z</time>
      </trkpt>
      <trkpt lat="47.27704" lon="-2.05947">
        <ele>6</ele>
        <time>2021-07-21T17:04:23Z</time>
      </trkpt>
      <trkpt lat="47.27657" lon="-2.05983">
        <ele>7</ele>
        <time>2021-07-21T17:04:36Z</time>
      </trkpt>
      <trkpt lat="47.27676" lon="-2.0609">
        <ele>6</ele>
        <time>2021-07-21T17:04:53Z</time>
      </trkpt>
      <trkpt lat="47.27687" lon="-2.06167">
        <ele>5</ele>
        <time>2021-07-21T17:05:06Z</time>
      </trkpt>
      <trkpt lat="47.27718" lon="-2.06158">
        <ele>6</ele>
        <time>2021-07-21T17:05:13Z</time>
      </trkpt>
      <trkpt lat="47.27739" lon="-2.06142">
        <ele>7</ele>
        <time>2021-07-21T17:05:19Z</time>
      </trkpt>
      <trkpt lat="47.27763" lon="-2.06136">
        <ele>7</ele>
        <time>2021-07-21T17:05:24Z</time>
      </trkpt>
      <trkpt lat="47.27774" lon="-2.06186">
        <ele>7</ele>
        <time>2021-07-21T17:05:33Z</time>
      </trkpt>
      <trkpt lat="47.27794" lon="-2.06185">
        <ele>6</ele>
        <time>2021-07-21T17:05:37Z</time>
      </trkpt>
      <trkpt lat="47.2782" lon="-2.06175">
        <ele>6</ele>
        <time>2021-07-21T17:05:44Z</time>
      </trkpt>
      <trkpt lat="47.2784" lon="-2.06157">
        <ele>6</ele>
        <time>2021-07-21T17:05:49Z</time>
      </trkpt>
      <trkpt lat="47.27864" lon="-2.06151">
        <ele>5</ele>
        <time>2021-07-21T17:05:55Z</time>
      </trkpt>
      <trkpt lat="47.27868" lon="-2.06183">
        <ele>6</ele>
        <time>2021-07-21T17:06:00Z</time>
      </trkpt>
      <trkpt lat="47.27902" lon="-2.0619">
        <ele>5</ele>
        <time>2021-07-21T17:06:08Z</time>
      </trkpt>
      <trkpt lat="47.27949" lon="-2.06206">
        <ele>4</ele>
        <time>2021-07-21T17:06:19Z</time>
      </trkpt>
      <trkpt lat="47.27978" lon="-2.06221">
        <ele>3</ele>
        <time>2021-07-21T17:06:26Z</time>
      </trkpt>
      <trkpt lat="47.27995" lon="-2.0626">
        <ele>2</ele>
        <time>2021-07-21T17:06:34Z</time>
      </trkpt>
      <trkpt lat="47.28012" lon="-2.06284">
        <ele>2</ele>
        <time>2021-07-21T17:06:39Z</time>
      </trkpt>
      <trkpt lat="47.28081" lon="-2.06265">
        <ele>2</ele>
        <time>2021-07-21T17:06:56Z</time>
      </trkpt>
      <trkpt lat="47.28122" lon="-2.06285">
        <ele>2</ele>
        <time>2021-07-21T17:07:06Z</time>
      </trkpt>
      <trkpt lat="47.28144" lon="-2.06339">
        <ele>2</ele>
        <time>2021-07-21T17:07:16Z</time>
      </trkpt>
      <trkpt lat="47.28149" lon="-2.06414">
        <ele>3</ele>
        <time>2021-07-21T17:07:28Z</time>
      </trkpt>
      <trkpt lat="47.28133" lon="-2.06654">
        <ele>4</ele>
        <time>2021-07-21T17:08:06Z</time>
      </trkpt>
      <trkpt lat="47.28113" lon="-2.06902">
        <ele>4</ele>
        <time>2021-07-21T17:08:45Z</time>
      </trkpt>
      <trkpt lat="47.28113" lon="-2.06989">
        <ele>3</ele>
        <time>2021-07-21T17:08:59Z</time>
      </trkpt>
      <trkpt lat="47.28106" lon="-2.07175">
        <ele>2</ele>
        <time>2021-07-21T17:09:29Z</time>
      </trkpt>
      <trkpt lat="47.28107" lon="-2.07282">
        <ele>2</ele>
        <time>2021-07-21T17:09:46Z</time>
      </trkpt>
      <trkpt lat="47.28114" lon="-2.07496">
        <ele>2</ele>
        <time>2021-07-21T17:10:20Z</time>
      </trkpt>
      <trkpt lat="47.28111" lon="-2.07644">
        <ele>3</ele>
        <time>2021-07-21T17:10:43Z</time>
      </trkpt>
      <trkpt lat="47.28068" lon="-2.07948">
        <ele>2</ele>
        <time>2021-07-21T17:11:32Z</time>
      </trkpt>
      <trkpt lat="47.28062" lon="-2.08121">
        <ele>1</ele>
        <time>2021-07-21T17:12:00Z</time>
      </trkpt>
      <trkpt lat="47.28021" lon="-2.0843">
        <ele>1</ele>
        <time>2021-07-21T17:12:50Z</time>
      </trkpt>
      <trkpt lat="47.27962" lon="-2.08979">
        <ele>2</ele>
        <time>2021-07-21T17:14:18Z</time>
      </trkpt>
      <trkpt lat="47.27905" lon="-2.09563">
        <ele>1</ele>
        <time>2021-07-21T17:15:51Z</time>
      </trkpt>
      <trkpt lat="47.27848" lon="-2.0995">
        <ele>2</ele>
        <time>2021-07-21T17:16:54Z</time>
      </trkpt>
      <trkpt lat="47.27763" lon="-2.10301">
        <ele>1</ele>
        <time>2021-07-21T17:17:53Z</time>
      </trkpt>
      <trkpt lat="47.27675" lon="-2.10548">
        <ele>2</ele>
        <time>2021-07-21T17:18:37Z</time>
      </trkpt>
      <trkpt lat="47.27599" lon="-2.10778">
        <ele>1</ele>
        <time>2021-07-21T17:19:18Z</time>
      </trkpt>
      <trkpt lat="47.27538" lon="-2.11046">
        <ele>1</ele>
        <time>2021-07-21T17:20:02Z</time>
      </trkpt>
      <trkpt lat="47.27519" lon="-2.1125">
        <ele>1</ele>
        <time>2021-07-21T17:20:35Z</time>
      </trkpt>
      <trkpt lat="47.27498" lon="-2.11426">
        <ele>1</ele>
        <time>2021-07-21T17:21:03Z</time>
      </trkpt>
      <trkpt lat="47.27522" lon="-2.11579">
        <ele>1</ele>
        <time>2021-07-21T17:21:28Z</time>
      </trkpt>
      <trkpt lat="47.27528" lon="-2.11702">
        <ele>2</ele>
        <time>2021-07-21T17:21:48Z</time>
      </trkpt>
      <trkpt lat="47.27512" lon="-2.11895">
        <ele>1</ele>
        <time>2021-07-21T17:22:19Z</time>
      </trkpt>
      <trkpt lat="47.27495" lon="-2.12413">
        <ele>1</ele>
        <time>2021-07-21T17:23:41Z</time>
      </trkpt>
      <trkpt lat="47.27484" lon="-2.12564">
        <ele>3</ele>
        <time>2021-07-21T17:24:05Z</time>
      </trkpt>
      <trkpt lat="47.27488" lon="-2.12679">
        <ele>1</ele>
        <time>2021-07-21T17:24:23Z</time>
      </trkpt>
      <trkpt lat="47.27477" lon="-2.12773">
        <ele>1</ele>
        <time>2021-07-21T17:24:38Z</time>
      </trkpt>
      <trkpt lat="47.27467" lon="-2.12903">
        <ele>1</ele>
        <time>2021-07-21T17:24:59Z</time>
      </trkpt>
      <trkpt lat="47.27441" lon="-2.13054">
        <ele>2</ele>
        <time>2021-07-21T17:25:24Z</time>
      </trkpt>
      <trkpt lat="47.27415" lon="-2.13301">
        <ele>4.8</ele>
        <time>2021-07-21T17:26:03Z</time>
      </trkpt>
      <trkpt lat="47.2738" lon="-2.13437">
        <ele>2</ele>
        <time>2021-07-21T17:26:26Z</time>
      </trkpt>
      <trkpt lat="47.2736" lon="-2.13452">
        <ele>2</ele>
        <time>2021-07-21T17:26:32Z</time>
      </trkpt>
      <trkpt lat="47.27323" lon="-2.13449">
        <ele>3</ele>
        <time>2021-07-21T17:26:40Z</time>
      </trkpt>
      <trkpt lat="47.27278" lon="-2.13523">
        <ele>3</ele>
        <time>2021-07-21T17:26:56Z</time>
      </trkpt>
      <trkpt lat="47.27233" lon="-2.13631">
        <ele>3</ele>
        <time>2021-07-21T17:27:16Z</time>
      </trkpt>
      <trkpt lat="47.27173" lon="-2.13743">
        <ele>3</ele>
        <time>2021-07-21T17:27:39Z</time>
      </trkpt>
      <trkpt lat="47.27119" lon="-2.13904">
        <ele>2</ele>
        <time>2021-07-21T17:28:07Z</time>
      </trkpt>
      <trkpt lat="47.27067" lon="-2.14016">
        <ele>3</ele>
        <time>2021-07-21T17:28:29Z</time>
      </trkpt>
      <trkpt lat="47.27051" lon="-2.14164">
        <ele>4</ele>
        <time>2021-07-21T17:28:52Z</time>
      </trkpt>
      <trkpt lat="47.27048" lon="-2.1422">
        <ele>1</ele>
        <time>2021-07-21T17:29:01Z</time>
      </trkpt>
      <trkpt lat="47.27058" lon="-2.14289">
        <ele>2</ele>
        <time>2021-07-21T17:29:12Z</time>
      </trkpt>
      <trkpt lat="47.26987" lon="-2.14613">
        <ele>3</ele>
        <time>2021-07-21T17:30:06Z</time>
      </trkpt>
      <trkpt lat="47.26949" lon="-2.14728">
        <ele>2</ele>
        <time>2021-07-21T17:30:27Z</time>
      </trkpt>
      <trkpt lat="47.26937" lon="-2.14868">
        <ele>2</ele>
        <time>2021-07-21T17:30:49Z</time>
      </trkpt>
      <trkpt lat="47.26923" lon="-2.14955">
        <ele>2</ele>
        <time>2021-07-21T17:31:03Z</time>
      </trkpt>
      <trkpt lat="47.26897" lon="-2.14986">
        <ele>2</ele>
        <time>2021-07-21T17:31:11Z</time>
      </trkpt>
      <trkpt lat="47.26856" lon="-2.15014">
        <ele>2</ele>
        <time>2021-07-21T17:31:22Z</time>
      </trkpt>
      <trkpt lat="47.26946" lon="-2.15026">
        <ele>2</ele>
        <time>2021-07-21T17:31:43Z</time>
      </trkpt>
      <trkpt lat="47.2696" lon="-2.15121">
        <ele>2</ele>
        <time>2021-07-21T17:31:58Z</time>
      </trkpt>
      <trkpt lat="47.26979" lon="-2.15218">
        <ele>2</ele>
        <time>2021-07-21T17:32:14Z</time>
      </trkpt>
      <trkpt lat="47.26979" lon="-2.15412">
        <ele>2</ele>
        <time>2021-07-21T17:32:45Z</time>
      </trkpt>
      <trkpt lat="47.26954" lon="-2.15652">
        <ele>3</ele>
        <time>2021-07-21T17:33:23Z</time>
      </trkpt>
      <trkpt lat="47.26939" lon="-2.15838">
        <ele>2</ele>
        <time>2021-07-21T17:33:53Z</time>
      </trkpt>
      <trkpt lat="47.26916" lon="-2.15943">
        <ele>2</ele>
        <time>2021-07-21T17:34:10Z</time>
      </trkpt>
      <trkpt lat="47.26901" lon="-2.16027">
        <ele>2</ele>
        <time>2021-07-21T17:34:24Z</time>
      </trkpt>
      <trkpt lat="47.26882" lon="-2.16098">
        <ele>3</ele>
        <time>2021-07-21T17:34:36Z</time>
      </trkpt>
      <trkpt lat="47.26859" lon="-2.16129">
        <ele>4</ele>
        <time>2021-07-21T17:34:44Z</time>
      </trkpt>
      <trkpt lat="47.26812" lon="-2.16111">
        <ele>5</ele>
        <time>2021-07-21T17:34:55Z</time>
      </trkpt>
      <trkpt lat="47.26728" lon="-2.16111">
        <ele>4</ele>
        <time>2021-07-21T17:35:15Z</time>
      </trkpt>
      <trkpt lat="47.26773" lon="-2.16159">
        <ele>4</ele>
        <time>2021-07-21T17:35:28Z</time>
      </trkpt>
      <trkpt lat="47.26866" lon="-2.16177">
        <ele>3</ele>
        <time>2021-07-21T17:35:49Z</time>
      </trkpt>
      <trkpt lat="47.27041" lon="-2.16236">
        <time>2021-07-21T17:36:31Z</time>
      </trkpt>
      <trkpt lat="47.272" lon="-2.16284">
        <time>2021-07-21T17:37:09Z</time>
      </trkpt>
      <trkpt lat="47.28946" lon="-2.17375">
        <ele>2</ele>
        <time>2021-07-21T17:44:32Z</time>
      </trkpt>
      <trkpt lat="47.29952" lon="-2.17894">
        <ele>5</ele>
        <time>2021-07-21T17:48:41Z</time>
      </trkpt>
      <trkpt lat="47.30077" lon="-2.17763">
        <ele>4</ele>
        <time>2021-07-21T17:49:17Z</time>
      </trkpt>
      <trkpt lat="47.30176" lon="-2.17832">
        <ele>1</ele>
        <time>2021-07-21T17:49:42Z</time>
      </trkpt>
      <trkpt lat="47.30184" lon="-2.17982">
        <ele>3</ele>
        <time>2021-07-21T17:50:06Z</time>
      </trkpt>
      <trkpt lat="47.30036" lon="-2.18094">
        <ele>3</ele>
        <time>2021-07-21T17:50:45Z</time>
      </trkpt>
      <trkpt lat="47.29949" lon="-2.18124">
        <ele>3</ele>
        <time>2021-07-21T17:51:06Z</time>
      </trkpt>
      <trkpt lat="47.29824" lon="-2.18308">
        <ele>4</ele>
        <time>2021-07-21T17:51:47Z</time>
      </trkpt>
      <trkpt lat="47.29661" lon="-2.18446">
        <ele>6</ele>
        <time>2021-07-21T17:52:31Z</time>
      </trkpt>
      <trkpt lat="47.29456" lon="-2.18679">
        <ele>6</ele>
        <time>2021-07-21T17:53:32Z</time>
      </trkpt>
      <trkpt lat="47.29236" lon="-2.19134">
        <ele>5</ele>
        <time>2021-07-21T17:55:00Z</time>
      </trkpt>
      <trkpt lat="47.28962" lon="-2.19199">
        <ele>5</ele>
        <time>2021-07-21T17:56:05Z</time>
      </trkpt>
      <trkpt lat="47.2905" lon="-2.19841">
        <ele>4</ele>
        <time>2021-07-21T17:57:49Z</time>
      </trkpt>
      <trkpt lat="47.29025" lon="-2.19921">
        <ele>5</ele>
        <time>2021-07-21T17:58:03Z</time>
      </trkpt>
      <trkpt lat="47.29016" lon="-2.19982">
        <ele>4</ele>
        <time>2021-07-21T17:58:12Z</time>
      </trkpt>
      <trkpt lat="47.29039" lon="-2.20184">
        <ele>3</ele>
        <time>2021-07-21T17:58:45Z</time>
      </trkpt>
      <trkpt lat="47.28942" lon="-2.20199">
        <ele>2</ele>
        <time>2021-07-21T17:59:08Z</time>
      </trkpt>
      <trkpt lat="47.28943" lon="-2.20278">
        <ele>2</ele>
        <time>2021-07-21T17:59:20Z</time>
      </trkpt>
      <trkpt lat="47.28334" lon="-2.20371">
        <ele>3</ele>
        <time>2021-07-21T18:01:43Z</time>
      </trkpt>
      <trkpt lat="47.28213" lon="-2.20393">
        <ele>4</ele>
        <time>2021-07-21T18:02:12Z</time>
      </trkpt>
      <trkpt lat="47.2818" lon="-2.20199">
        <ele>4</ele>
        <time>2021-07-21T18:02:43Z</time>
      </trkpt>
      <trkpt lat="47.27987" lon="-2.20259">
        <ele>3</ele>
        <time>2021-07-21T18:03:29Z</time>
      </trkpt>
      <trkpt lat="47.27779" lon="-2.20297">
        <ele>7</ele>
        <time>2021-07-21T18:04:18Z</time>
      </trkpt>
      <trkpt lat="47.27578" lon="-2.20358">
        <ele>8</ele>
        <time>2021-07-21T18:05:06Z</time>
      </trkpt>
      <trkpt lat="47.27453" lon="-2.20392">
        <ele>6</ele>
        <time>2021-07-21T18:05:36Z</time>
      </trkpt>
      <trkpt lat="47.27315" lon="-2.20443">
        <ele>8</ele>
        <time>2021-07-21T18:06:09Z</time>
      </trkpt>
      <trkpt lat="47.27282" lon="-2.20238">
        <ele>6</ele>
        <time>2021-07-21T18:06:43Z</time>
      </trkpt>
      <trkpt lat="47.27257" lon="-2.20125">
        <ele>4</ele>
        <time>2021-07-21T18:07:01Z</time>
      </trkpt>
      <trkpt lat="47.27252" lon="-2.20067">
        <ele>5</ele>
        <time>2021-07-21T18:07:11Z</time>
      </trkpt>
      <trkpt lat="47.27232" lon="-2.1991">
        <ele>7</ele>
        <time>2021-07-21T18:07:36Z</time>
      </trkpt>
      <trkpt lat="47.27215" lon="-2.199">
        <ele>6</ele>
        <time>2021-07-21T18:07:40Z</time>
      </trkpt>
      <trkpt lat="47.27191" lon="-2.19895">
        <ele>6</ele>
        <time>2021-07-21T18:07:46Z</time>
      </trkpt>
      <trkpt lat="47.27172" lon="-2.19899">
        <ele>6</ele>
        <time>2021-07-21T18:07:50Z</time>
      </trkpt>
      <trkpt lat="47.27152" lon="-2.19916">
        <ele>7</ele>
        <time>2021-07-21T18:07:56Z</time>
      </trkpt>
      <trkpt lat="47.27088" lon="-2.1996">
        <ele>6</ele>
        <time>2021-07-21T18:08:12Z</time>
      </trkpt>
      <trkpt lat="47.27081" lon="-2.19976">
        <ele>6</ele>
        <time>2021-07-21T18:08:15Z</time>
      </trkpt>
      <trkpt lat="47.27096" lon="-2.20202">
        <ele>4</ele>
        <time>2021-07-21T18:08:51Z</time>
      </trkpt>
      <trkpt lat="47.27119" lon="-2.20326">
        <ele>6</ele>
        <time>2021-07-21T18:09:12Z</time>
      </trkpt>
      <trkpt lat="47.27122" lon="-2.20353">
        <ele>6</ele>
        <time>2021-07-21T18:09:16Z</time>
      </trkpt>
      <trkpt lat="47.27113" lon="-2.2037">
        <ele>6</ele>
        <time>2021-07-21T18:09:19Z</time>
      </trkpt>
      <trkpt lat="47.27131" lon="-2.20451">
        <ele>6</ele>
        <time>2021-07-21T18:09:33Z</time>
      </trkpt>
      <trkpt lat="47.27128" lon="-2.20479">
        <ele>6</ele>
        <time>2021-07-21T18:09:37Z</time>
      </trkpt>
      <trkpt lat="47.27136" lon="-2.20519">
        <ele>6</ele>
        <time>2021-07-21T18:09:44Z</time>
      </trkpt>
      <trkpt lat="47.27134" lon="-2.20584">
        <ele>6</ele>
        <time>2021-07-21T18:09:54Z</time>
      </trkpt>
      <trkpt lat="47.27119" lon="-2.20719">
        <ele>5</ele>
        <time>2021-07-21T18:10:16Z</time>
      </trkpt>
      <trkpt lat="47.271" lon="-2.20839">
        <ele>5</ele>
        <time>2021-07-21T18:10:35Z</time>
      </trkpt>
      <trkpt lat="47.27039" lon="-2.21039">
        <ele>7</ele>
        <time>2021-07-21T18:11:10Z</time>
      </trkpt>
      <trkpt lat="47.27003" lon="-2.21171">
        <ele>8</ele>
        <time>2021-07-21T18:11:33Z</time>
      </trkpt>
      <trkpt lat="47.26952" lon="-2.21235">
        <ele>7</ele>
        <time>2021-07-21T18:11:48Z</time>
      </trkpt>
      <trkpt lat="47.26915" lon="-2.21297">
        <ele>8</ele>
        <time>2021-07-21T18:12:01Z</time>
      </trkpt>
      <trkpt lat="47.26887" lon="-2.21416">
        <ele>7</ele>
        <time>2021-07-21T18:12:21Z</time>
      </trkpt>
      <trkpt lat="47.26861" lon="-2.21567">
        <ele>6</ele>
        <time>2021-07-21T18:12:46Z</time>
      </trkpt>
      <trkpt lat="47.26824" lon="-2.21751">
        <ele>9</ele>
        <time>2021-07-21T18:13:17Z</time>
      </trkpt>
      <trkpt lat="47.268" lon="-2.21845">
        <ele>6</ele>
        <time>2021-07-21T18:13:32Z</time>
      </trkpt>
      <trkpt lat="47.2678" lon="-2.21941">
        <ele>5</ele>
        <time>2021-07-21T18:13:48Z</time>
      </trkpt>
      <trkpt lat="47.26726" lon="-2.2208">
        <ele>4</ele>
        <time>2021-07-21T18:14:14Z</time>
      </trkpt>
      <trkpt lat="47.26586" lon="-2.22385">
        <ele>7</ele>
        <time>2021-07-21T18:15:12Z</time>
      </trkpt>
      <trkpt lat="47.26496" lon="-2.22514">
        <ele>5</ele>
        <time>2021-07-21T18:15:41Z</time>
      </trkpt>
      <trkpt lat="47.26505" lon="-2.22578">
        <ele>5</ele>
        <time>2021-07-21T18:15:52Z</time>
      </trkpt>
      <trkpt lat="47.26633" lon="-2.2272">
        <ele>6</ele>
        <time>2021-07-21T18:16:29Z</time>
      </trkpt>
      <trkpt lat="47.26805" lon="-2.22789">
        <ele>6</ele>
        <time>2021-07-21T18:17:11Z</time>
      </trkpt>
      <trkpt lat="47.26939" lon="-2.22823">
        <ele>7</ele>
        <time>2021-07-21T18:17:43Z</time>
      </trkpt>
      <trkpt lat="47.26816" lon="-2.23205">
        <ele>8</ele>
        <time>2021-07-21T18:18:50Z</time>
      </trkpt>
      <trkpt lat="47.26787" lon="-2.23364">
        <ele>13</ele>
        <time>2021-07-21T18:19:16Z</time>
      </trkpt>
      <trkpt lat="47.26877" lon="-2.23643">
        <ele>19</ele>
        <time>2021-07-21T18:20:05Z</time>
      </trkpt>
      <trkpt lat="47.26997" lon="-2.23896">
        <ele>24</ele>
        <time>2021-07-21T18:20:54Z</time>
      </trkpt>
      <trkpt lat="47.27075" lon="-2.24188">
        <ele>21</ele>
        <time>2021-07-21T18:21:43Z</time>
      </trkpt>
      <trkpt lat="47.27116" lon="-2.24176">
        <ele>19</ele>
        <time>2021-07-21T18:21:53Z</time>
      </trkpt>
      <trkpt lat="47.27172" lon="-2.24152">
        <ele>17</ele>
        <time>2021-07-21T18:22:07Z</time>
      </trkpt>
      <trkpt lat="47.27171" lon="-2.2411">
        <ele>17</ele>
        <time>2021-07-21T18:22:13Z</time>
      </trkpt>
      <trkpt lat="47.27229" lon="-2.24045">
        <ele>16</ele>
        <time>2021-07-21T18:22:30Z</time>
      </trkpt>
      <trkpt lat="47.27246" lon="-2.23987">
        <ele>13</ele>
        <time>2021-07-21T18:22:40Z</time>
      </trkpt>
      <trkpt lat="47.27289" lon="-2.23981">
        <ele>14</ele>
        <time>2021-07-21T18:22:50Z</time>
      </trkpt>
      <trkpt lat="47.27341" lon="-2.23968">
        <ele>14</ele>
        <time>2021-07-21T18:23:03Z</time>
      </trkpt>
      <trkpt lat="47.27387" lon="-2.2396">
        <ele>13</ele>
        <time>2021-07-21T18:23:14Z</time>
      </trkpt>
      <trkpt lat="47.27408" lon="-2.23984">
        <ele>14</ele>
        <time>2021-07-21T18:23:20Z</time>
      </trkpt>
      <trkpt lat="47.27426" lon="-2.24041">
        <ele>17</ele>
        <time>2021-07-21T18:23:30Z</time>
      </trkpt>
      <trkpt lat="47.27434" lon="-2.24109">
        <ele>18</ele>
        <time>2021-07-21T18:23:41Z</time>
      </trkpt>
      <trkpt lat="47.27448" lon="-2.24174">
        <ele>18</ele>
        <time>2021-07-21T18:23:51Z</time>
      </trkpt>
      <trkpt lat="47.27465" lon="-2.24223">
        <ele>17</ele>
        <time>2021-07-21T18:24:00Z</time>
      </trkpt>
      <trkpt lat="47.27471" lon="-2.2428">
        <ele>17</ele>
        <time>2021-07-21T18:24:09Z</time>
      </trkpt>
      <trkpt lat="47.27463" lon="-2.24311">
        <ele>16</ele>
        <time>2021-07-21T18:24:15Z</time>
      </trkpt>
      <trkpt lat="47.27447" lon="-2.2433">
        <ele>16</ele>
        <time>2021-07-21T18:24:19Z</time>
      </trkpt>
      <trkpt lat="47.27442" lon="-2.24374">
        <ele>15</ele>
        <time>2021-07-21T18:24:26Z</time>
      </trkpt>
      <trkpt lat="47.27443" lon="-2.24458">
        <ele>15</ele>
        <time>2021-07-21T18:24:40Z</time>
      </trkpt>
      <trkpt lat="47.27439" lon="-2.2454">
        <ele>16</ele>
        <time>2021-07-21T18:24:53Z</time>
      </trkpt>
      <trkpt lat="47.27432" lon="-2.24608">
        <ele>16</ele>
        <time>2021-07-21T18:25:04Z</time>
      </trkpt>
      <trkpt lat="47.27441" lon="-2.24772">
        <ele>17</ele>
        <time>2021-07-21T18:25:30Z</time>
      </trkpt>
      <trkpt lat="47.27427" lon="-2.2481">
        <ele>16</ele>
        <time>2021-07-21T18:25:37Z</time>
      </trkpt>
      <trkpt lat="47.27412" lon="-2.24872">
        <ele>16</ele>
        <time>2021-07-21T18:25:47Z</time>
      </trkpt>
      <trkpt lat="47.27404" lon="-2.24889">
        <ele>16</ele>
        <time>2021-07-21T18:25:50Z</time>
      </trkpt>
      <trkpt lat="47.27347" lon="-2.24966">
        <ele>13</ele>
        <time>2021-07-21T18:26:08Z</time>
      </trkpt>
      <trkpt lat="47.27322" lon="-2.24989">
        <ele>13</ele>
        <time>2021-07-21T18:26:15Z</time>
      </trkpt>
      <trkpt lat="47.27372" lon="-2.2513">
        <ele>13</ele>
        <time>2021-07-21T18:26:40Z</time>
      </trkpt>
      <trkpt lat="47.27444" lon="-2.25303">
        <ele>17</ele>
        <time>2021-07-21T18:27:13Z</time>
      </trkpt>
      <trkpt lat="47.27447" lon="-2.25382">
        <ele>17</ele>
        <time>2021-07-21T18:27:25Z</time>
      </trkpt>
      <trkpt lat="47.2743" lon="-2.25418">
        <ele>18</ele>
        <time>2021-07-21T18:27:32Z</time>
      </trkpt>
      <trkpt lat="47.27455" lon="-2.25446">
        <ele>16</ele>
        <time>2021-07-21T18:27:39Z</time>
      </trkpt>
      <trkpt lat="47.27514" lon="-2.25471">
        <ele>15</ele>
        <time>2021-07-21T18:27:54Z</time>
      </trkpt>
      <trkpt lat="47.27556" lon="-2.25549">
        <ele>15</ele>
        <time>2021-07-21T18:28:10Z</time>
      </trkpt>
      <trkpt lat="47.27569" lon="-2.25656">
        <ele>16</ele>
        <time>2021-07-21T18:28:27Z</time>
      </trkpt>
      <trkpt lat="47.27598" lon="-2.25726">
        <ele>16</ele>
        <time>2021-07-21T18:28:40Z</time>
      </trkpt>
      <trkpt lat="47.27591" lon="-2.25811">
        <ele>15</ele>
        <time>2021-07-21T18:28:53Z</time>
      </trkpt>
      <trkpt lat="47.27632" lon="-2.2588">
        <ele>15</ele>
        <time>2021-07-21T18:29:08Z</time>
      </trkpt>
      <trkpt lat="47.27561" lon="-2.25936">
        <ele>15</ele>
        <time>2021-07-21T18:29:27Z</time>
      </trkpt>
      <trkpt lat="47.27527" lon="-2.25968">
        <ele>17</ele>
        <time>2021-07-21T18:29:36Z</time>
      </trkpt>
      <trkpt lat="47.27488" lon="-2.26018">
        <ele>18</ele>
        <time>2021-07-21T18:29:48Z</time>
      </trkpt>
      <trkpt lat="47.27456" lon="-2.26072">
        <ele>19</ele>
        <time>2021-07-21T18:30:00Z</time>
      </trkpt>
      <trkpt lat="47.274" lon="-2.26106">
        <ele>20</ele>
        <time>2021-07-21T18:30:14Z</time>
      </trkpt>
      <trkpt lat="47.27339" lon="-2.26124">
        <ele>21</ele>
        <time>2021-07-21T18:30:28Z</time>
      </trkpt>
      <trkpt lat="47.27275" lon="-2.2615">
        <ele>21</ele>
        <time>2021-07-21T18:30:44Z</time>
      </trkpt>
      <trkpt lat="47.27209" lon="-2.26196">
        <ele>21</ele>
        <time>2021-07-21T18:31:01Z</time>
      </trkpt>
      <trkpt lat="47.27127" lon="-2.26282">
        <ele>22</ele>
        <time>2021-07-21T18:31:24Z</time>
      </trkpt>
      <trkpt lat="47.2696" lon="-2.26509">
        <ele>26</ele>
        <time>2021-07-21T18:32:17Z</time>
      </trkpt>
      <trkpt lat="47.26876" lon="-2.26543">
        <ele>25</ele>
        <time>2021-07-21T18:32:38Z</time>
      </trkpt>
      <trkpt lat="47.26906" lon="-2.26673">
        <ele>24</ele>
        <time>2021-07-21T18:32:59Z</time>
      </trkpt>
      <trkpt lat="47.26947" lon="-2.2679">
        <ele>23</ele>
        <time>2021-07-21T18:33:20Z</time>
      </trkpt>
      <trkpt lat="47.26961" lon="-2.26869">
        <ele>22</ele>
        <time>2021-07-21T18:33:33Z</time>
      </trkpt>
      <trkpt lat="47.26956" lon="-2.26976">
        <ele>24</ele>
        <time>2021-07-21T18:33:50Z</time>
      </trkpt>
      <trkpt lat="47.2702" lon="-2.27104">
        <ele>25</ele>
        <time>2021-07-21T18:34:15Z</time>
      </trkpt>
      <trkpt lat="47.271" lon="-2.27255">
        <ele>25</ele>
        <time>2021-07-21T18:34:46Z</time>
      </trkpt>
      <trkpt lat="47.27133" lon="-2.274">
        <ele>29</ele>
        <time>2021-07-21T18:35:10Z</time>
      </trkpt>
      <trkpt lat="47.27145" lon="-2.27553">
        <ele>31</ele>
        <time>2021-07-21T18:35:34Z</time>
      </trkpt>
      <trkpt lat="47.27088" lon="-2.27635">
        <ele>32</ele>
        <time>2021-07-21T18:35:53Z</time>
      </trkpt>
      <trkpt lat="47.27031" lon="-2.27699">
        <ele>33</ele>
        <time>2021-07-21T18:36:10Z</time>
      </trkpt>
      <trkpt lat="47.27018" lon="-2.27727">
        <ele>34</ele>
        <time>2021-07-21T18:36:15Z</time>
      </trkpt>
      <trkpt lat="47.27112" lon="-2.27765">
        <ele>33</ele>
        <time>2021-07-21T18:36:38Z</time>
      </trkpt>
      <trkpt lat="47.27114" lon="-2.27806">
        <ele>34</ele>
        <time>2021-07-21T18:36:44Z</time>
      </trkpt>
      <trkpt lat="47.27095" lon="-2.27872">
        <ele>36</ele>
        <time>2021-07-21T18:36:56Z</time>
      </trkpt>
      <trkpt lat="47.2707" lon="-2.27915">
        <ele>36</ele>
        <time>2021-07-21T18:37:05Z</time>
      </trkpt>
      <trkpt lat="47.27084" lon="-2.27982">
        <ele>36</ele>
        <time>2021-07-21T18:37:16Z</time>
      </trkpt>
      <trkpt lat="47.27117" lon="-2.28076">
        <ele>35</ele>
        <time>2021-07-21T18:37:33Z</time>
      </trkpt>
      <trkpt lat="47.27124" lon="-2.28168">
        <ele>33</ele>
        <time>2021-07-21T18:37:47Z</time>
      </trkpt>
      <trkpt lat="47.27126" lon="-2.28278">
        <ele>31</ele>
        <time>2021-07-21T18:38:05Z</time>
      </trkpt>
      <trkpt lat="47.27153" lon="-2.28398">
        <ele>32</ele>
        <time>2021-07-21T18:38:25Z</time>
      </trkpt>
      <trkpt lat="47.27181" lon="-2.28594">
        <ele>34</ele>
        <time>2021-07-21T18:38:56Z</time>
      </trkpt>
      <trkpt lat="47.27181" lon="-2.2876">
        <ele>36</ele>
        <time>2021-07-21T18:39:23Z</time>
      </trkpt>
      <trkpt lat="47.27193" lon="-2.29105">
        <ele>28</ele>
        <time>2021-07-21T18:40:18Z</time>
      </trkpt>
      <trkpt lat="47.27174" lon="-2.29125">
        <ele>28</ele>
        <time>2021-07-21T18:40:23Z</time>
      </trkpt>
      <trkpt lat="47.27143" lon="-2.29181">
        <ele>30</ele>
        <time>2021-07-21T18:40:34Z</time>
      </trkpt>
      <trkpt lat="47.27164" lon="-2.2927">
        <ele>29</ele>
        <time>2021-07-21T18:40:49Z</time>
      </trkpt>
      <trkpt lat="47.27166" lon="-2.29342">
        <ele>29</ele>
        <time>2021-07-21T18:41:01Z</time>
      </trkpt>
      <trkpt lat="47.27233" lon="-2.29498">
        <ele>32</ele>
        <time>2021-07-21T18:41:30Z</time>
      </trkpt>
      <trkpt lat="47.27237" lon="-2.29569">
        <ele>31</ele>
        <time>2021-07-21T18:41:41Z</time>
      </trkpt>
      <trkpt lat="47.27179" lon="-2.2962">
        <ele>31</ele>
        <time>2021-07-21T18:41:57Z</time>
      </trkpt>
      <trkpt lat="47.27133" lon="-2.2963">
        <ele>32</ele>
        <time>2021-07-21T18:42:08Z</time>
      </trkpt>
      <trkpt lat="47.27114" lon="-2.29694">
        <ele>33</ele>
        <time>2021-07-21T18:42:19Z</time>
      </trkpt>
      <trkpt lat="47.27108" lon="-2.29788">
        <ele>32</ele>
        <time>2021-07-21T18:42:34Z</time>
      </trkpt>
      <trkpt lat="47.27089" lon="-2.29873">
        <ele>32</ele>
        <time>2021-07-21T18:42:48Z</time>
      </trkpt>
      <trkpt lat="47.27025" lon="-2.30003">
        <ele>29</ele>
        <time>2021-07-21T18:43:14Z</time>
      </trkpt>
      <trkpt lat="47.27001" lon="-2.30061">
        <ele>30</ele>
        <time>2021-07-21T18:43:24Z</time>
      </trkpt>
      <trkpt lat="47.2693" lon="-2.30112">
        <ele>30</ele>
        <time>2021-07-21T18:43:43Z</time>
      </trkpt>
      <trkpt lat="47.26868" lon="-2.30181">
        <ele>30</ele>
        <time>2021-07-21T18:44:01Z</time>
      </trkpt>
      <trkpt lat="47.26902" lon="-2.3035">
        <ele>29</ele>
        <time>2021-07-21T18:44:29Z</time>
      </trkpt>
      <trkpt lat="47.26918" lon="-2.30447">
        <ele>29</ele>
        <time>2021-07-21T18:44:45Z</time>
      </trkpt>
      <trkpt lat="47.26913" lon="-2.30539">
        <ele>28</ele>
        <time>2021-07-21T18:44:59Z</time>
      </trkpt>
      <trkpt lat="47.26921" lon="-2.30618">
        <ele>28</ele>
        <time>2021-07-21T18:45:12Z</time>
      </trkpt>
      <trkpt lat="47.26897" lon="-2.30653">
        <ele>28</ele>
        <time>2021-07-21T18:45:20Z</time>
      </trkpt>
      <trkpt lat="47.26852" lon="-2.30733">
        <ele>28</ele>
        <time>2021-07-21T18:45:36Z</time>
      </trkpt>
      <trkpt lat="47.26826" lon="-2.30827">
        <ele>26</ele>
        <time>2021-07-21T18:45:52Z</time>
      </trkpt>
      <trkpt lat="47.26842" lon="-2.31035">
        <ele>28</ele>
        <time>2021-07-21T18:46:26Z</time>
      </trkpt>
      <trkpt lat="47.26837" lon="-2.31317">
        <ele>28</ele>
        <time>2021-07-21T18:47:10Z</time>
      </trkpt>
      <trkpt lat="47.26856" lon="-2.31505">
        <ele>25</ele>
        <time>2021-07-21T18:47:40Z</time>
      </trkpt>
      <trkpt lat="47.26925" lon="-2.3162">
        <ele>22</ele>
        <time>2021-07-21T18:48:05Z</time>
      </trkpt>
      <trkpt lat="47.27091" lon="-2.31764">
        <ele>14</ele>
        <time>2021-07-21T18:48:50Z</time>
      </trkpt>
      <trkpt lat="47.27209" lon="-2.31894">
        <ele>10</ele>
        <time>2021-07-21T18:49:24Z</time>
      </trkpt>
      <trkpt lat="47.27361" lon="-2.32003">
        <ele>6</ele>
        <time>2021-07-21T18:50:04Z</time>
      </trkpt>
      <trkpt lat="47.27547" lon="-2.32205">
        <ele>15</ele>
        <time>2021-07-21T18:50:58Z</time>
      </trkpt>
      <trkpt lat="47.27601" lon="-2.32327">
        <ele>18</ele>
        <time>2021-07-21T18:51:21Z</time>
      </trkpt>
      <trkpt lat="47.27542" lon="-2.32457">
        <ele>17</ele>
        <time>2021-07-21T18:51:45Z</time>
      </trkpt>
      <trkpt lat="47.27542" lon="-2.3258">
        <ele>11</ele>
        <time>2021-07-21T18:52:05Z</time>
      </trkpt>
      <trkpt lat="47.27464" lon="-2.32724">
        <ele>14</ele>
        <time>2021-07-21T18:52:34Z</time>
      </trkpt>
      <trkpt lat="47.27316" lon="-2.33098">
        <ele>20</ele>
        <time>2021-07-21T18:53:43Z</time>
      </trkpt>
      <trkpt lat="47.27308" lon="-2.33131">
        <ele>21</ele>
        <time>2021-07-21T18:53:48Z</time>
      </trkpt>
      <trkpt lat="47.27415" lon="-2.33244">
        <ele>26</ele>
        <time>2021-07-21T18:54:19Z</time>
      </trkpt>
      <trkpt lat="47.27401" lon="-2.33295">
        <ele>26</ele>
        <time>2021-07-21T18:54:28Z</time>
      </trkpt>
      <trkpt lat="47.2741" lon="-2.33374">
        <ele>26</ele>
        <time>2021-07-21T18:54:40Z</time>
      </trkpt>
      <trkpt lat="47.27434" lon="-2.33432">
        <ele>26</ele>
        <time>2021-07-21T18:54:51Z</time>
      </trkpt>
      <trkpt lat="47.27434" lon="-2.33488">
        <ele>26</ele>
        <time>2021-07-21T18:55:00Z</time>
      </trkpt>
      <trkpt lat="47.27408" lon="-2.33529">
        <ele>26</ele>
        <time>2021-07-21T18:55:09Z</time>
      </trkpt>
      <trkpt lat="47.27365" lon="-2.33585">
        <ele>25</ele>
        <time>2021-07-21T18:55:22Z</time>
      </trkpt>
      <trkpt lat="47.27328" lon="-2.33639">
        <ele>26</ele>
        <time>2021-07-21T18:55:35Z</time>
      </trkpt>
      <trkpt lat="47.27311" lon="-2.33652">
        <ele>26</ele>
        <time>2021-07-21T18:55:39Z</time>
      </trkpt>
      <trkpt lat="47.27372" lon="-2.33866">
        <ele>26</ele>
        <time>2021-07-21T18:56:16Z</time>
      </trkpt>
      <trkpt lat="47.27391" lon="-2.34024">
        <ele>25</ele>
        <time>2021-07-21T18:56:41Z</time>
      </trkpt>
      <trkpt lat="47.27403" lon="-2.34193">
        <ele>23</ele>
        <time>2021-07-21T18:57:08Z</time>
      </trkpt>
      <trkpt lat="47.27413" lon="-2.3429">
        <ele>22</ele>
        <time>2021-07-21T18:57:24Z</time>
      </trkpt>
      <trkpt lat="47.27422" lon="-2.34428">
        <ele>24</ele>
        <time>2021-07-21T18:57:46Z</time>
      </trkpt>
      <trkpt lat="47.27437" lon="-2.34565">
        <ele>26</ele>
        <time>2021-07-21T18:58:08Z</time>
      </trkpt>
      <trkpt lat="47.27458" lon="-2.34685">
        <ele>25</ele>
        <time>2021-07-21T18:58:27Z</time>
      </trkpt>
      <trkpt lat="47.27538" lon="-2.3468">
        <ele>25</ele>
        <time>2021-07-21T18:58:46Z</time>
      </trkpt>
      <trkpt lat="47.27605" lon="-2.34629">
        <ele>25</ele>
        <time>2021-07-21T18:59:04Z</time>
      </trkpt>
      <trkpt lat="47.27675" lon="-2.34555">
        <ele>24</ele>
        <time>2021-07-21T18:59:24Z</time>
      </trkpt>
      <trkpt lat="47.27688" lon="-2.3465">
        <ele>23</ele>
        <time>2021-07-21T18:59:39Z</time>
      </trkpt>
      <trkpt lat="47.27706" lon="-2.34724">
        <ele>23</ele>
        <time>2021-07-21T18:59:52Z</time>
      </trkpt>
      <trkpt lat="47.27784" lon="-2.34866">
        <ele>21</ele>
        <time>2021-07-21T19:00:20Z</time>
      </trkpt>
      <trkpt lat="47.27763" lon="-2.35045">
        <ele>19</ele>
        <time>2021-07-21T19:00:49Z</time>
      </trkpt>
      <trkpt lat="47.27768" lon="-2.35203">
        <ele>16</ele>
        <time>2021-07-21T19:01:14Z</time>
      </trkpt>
      <trkpt lat="47.27792" lon="-2.35321">
        <ele>16</ele>
        <time>2021-07-21T19:01:34Z</time>
      </trkpt>
      <trkpt lat="47.27827" lon="-2.35367">
        <ele>16</ele>
        <time>2021-07-21T19:01:45Z</time>
      </trkpt>
      <trkpt lat="47.27903" lon="-2.35402">
        <ele>16</ele>
        <time>2021-07-21T19:02:03Z</time>
      </trkpt>
      <trkpt lat="47.27953" lon="-2.35448">
        <ele>18</ele>
        <time>2021-07-21T19:02:17Z</time>
      </trkpt>
      <trkpt lat="47.28009" lon="-2.35555">
        <ele>22</ele>
        <time>2021-07-21T19:02:39Z</time>
      </trkpt>
      <trkpt lat="47.2777" lon="-2.35629">
        <ele>14</ele>
        <time>2021-07-21T19:03:36Z</time>
      </trkpt>
      <trkpt lat="47.27727" lon="-2.35686">
        <ele>13</ele>
        <time>2021-07-21T19:03:49Z</time>
      </trkpt>
      <trkpt lat="47.27675" lon="-2.35744">
        <ele>11</ele>
        <time>2021-07-21T19:04:04Z</time>
      </trkpt>
      <trkpt lat="47.27633" lon="-2.35795">
        <ele>10</ele>
        <time>2021-07-21T19:04:17Z</time>
      </trkpt>
      <trkpt lat="47.27585" lon="-2.35859">
        <ele>9</ele>
        <time>2021-07-21T19:04:32Z</time>
      </trkpt>
      <trkpt lat="47.27531" lon="-2.35974">
        <ele>11</ele>
        <time>2021-07-21T19:04:54Z</time>
      </trkpt>
      <trkpt lat="47.27521" lon="-2.36015">
        <ele>11</ele>
        <time>2021-07-21T19:05:01Z</time>
      </trkpt>
      <trkpt lat="47.27512" lon="-2.36035">
        <ele>10</ele>
        <time>2021-07-21T19:05:05Z</time>
      </trkpt>
      <trkpt lat="47.27487" lon="-2.36044">
        <ele>9</ele>
        <time>2021-07-21T19:05:11Z</time>
      </trkpt>
      <trkpt lat="47.27442" lon="-2.36047">
        <ele>8</ele>
        <time>2021-07-21T19:05:22Z</time>
      </trkpt>
      <trkpt lat="47.27452" lon="-2.36071">
        <ele>6</ele>
        <time>2021-07-21T19:05:26Z</time>
      </trkpt>
      <trkpt lat="47.27463" lon="-2.36083">
        <ele>6</ele>
        <time>2021-07-21T19:05:29Z</time>
      </trkpt>
      <trkpt lat="47.27466" lon="-2.36105">
        <ele>6</ele>
        <time>2021-07-21T19:05:33Z</time>
      </trkpt>
      <trkpt lat="47.27533" lon="-2.36281">
        <ele>7</ele>
        <time>2021-07-21T19:06:05Z</time>
      </trkpt>
      <trkpt lat="47.2772" lon="-2.36819">
        <ele>5</ele>
        <time>2021-07-21T19:07:40Z</time>
      </trkpt>
      <trkpt lat="47.27829" lon="-2.37194">
        <ele>10</ele>
        <time>2021-07-21T19:08:45Z</time>
      </trkpt>
      <trkpt lat="47.27971" lon="-2.37795">
        <ele>9</ele>
        <time>2021-07-21T19:10:26Z</time>
      </trkpt>
      <trkpt lat="47.27976" lon="-2.37802">
        <ele>9</ele>
        <time>2021-07-21T14:10:50Z</time>
      </trkpt>
      <trkpt lat="47.28051" lon="-2.37728">
        <ele>11</ele>
        <time>2021-07-21T14:11:11Z</time>
      </trkpt>
      <trkpt lat="47.28106" lon="-2.37678">
        <ele>11</ele>
        <time>2021-07-21T14:11:26Z</time>
      </trkpt>
      <trkpt lat="47.28135" lon="-2.37634">
        <ele>11</ele>
        <time>2021-07-21T14:11:36Z</time>
      </trkpt>
      <trkpt lat="47.28164" lon="-2.37652">
        <ele>11</ele>
        <time>2021-07-21T14:11:43Z</time>
      </trkpt>
      <trkpt lat="47.2823" lon="-2.37648">
        <ele>12</ele>
        <time>2021-07-21T14:11:59Z</time>
      </trkpt>
      <trkpt lat="47.28288" lon="-2.37626">
        <ele>12</ele>
        <time>2021-07-21T14:12:13Z</time>
      </trkpt>
      <trkpt lat="47.28347" lon="-2.37551">
        <ele>10</ele>
        <time>2021-07-21T14:12:31Z</time>
      </trkpt>
      <trkpt lat="47.28403" lon="-2.37537">
        <ele>10</ele>
        <time>2021-07-21T14:12:44Z</time>
      </trkpt>
      <trkpt lat="47.28442" lon="-2.37496">
        <ele>10</ele>
        <time>2021-07-21T14:12:55Z</time>
      </trkpt>
      <trkpt lat="47.2846" lon="-2.3743">
        <ele>9</ele>
        <time>2021-07-21T14:13:07Z</time>
      </trkpt>
      <trkpt lat="47.28489" lon="-2.37303">
        <ele>10</ele>
        <time>2021-07-21T14:13:28Z</time>
      </trkpt>
      <trkpt lat="47.28501" lon="-2.37184">
        <ele>11</ele>
        <time>2021-07-21T14:13:47Z</time>
      </trkpt>
      <trkpt lat="47.28504" lon="-2.37032">
        <ele>18</ele>
        <time>2021-07-21T14:14:11Z</time>
      </trkpt>
      <trkpt lat="47.28492" lon="-2.36926">
        <ele>21</ele>
        <time>2021-07-21T14:14:28Z</time>
      </trkpt>
      <trkpt lat="47.2848" lon="-2.36841">
        <ele>19</ele>
        <time>2021-07-21T14:14:42Z</time>
      </trkpt>
      <trkpt lat="47.28442" lon="-2.36722">
        <ele>22</ele>
        <time>2021-07-21T14:15:03Z</time>
      </trkpt>
      <trkpt lat="47.28506" lon="-2.36668">
        <ele>29</ele>
        <time>2021-07-21T14:15:20Z</time>
      </trkpt>
      <trkpt lat="47.28601" lon="-2.36841">
        <ele>20</ele>
        <time>2021-07-21T14:15:55Z</time>
      </trkpt>
      <trkpt lat="47.28658" lon="-2.36785">
        <ele>27</ele>
        <time>2021-07-21T14:16:11Z</time>
      </trkpt>
      <trkpt lat="47.2872" lon="-2.36908">
        <ele>22</ele>
        <time>2021-07-21T14:16:35Z</time>
      </trkpt>
      <trkpt lat="47.28751" lon="-2.36942">
        <ele>21</ele>
        <time>2021-07-21T14:16:44Z</time>
      </trkpt>
      <trkpt lat="47.28768" lon="-2.36986">
        <ele>21</ele>
        <time>2021-07-21T14:16:52Z</time>
      </trkpt>
      <trkpt lat="47.28786" lon="-2.37035">
        <ele>19</ele>
        <time>2021-07-21T14:17:01Z</time>
      </trkpt>
      <trkpt lat="47.28805" lon="-2.37103">
        <ele>16</ele>
        <time>2021-07-21T14:17:13Z</time>
      </trkpt>
      <trkpt lat="47.28824" lon="-2.37116">
        <ele>15</ele>
        <time>2021-07-21T14:17:18Z</time>
      </trkpt>
      <trkpt lat="47.2885" lon="-2.37242">
        <ele>10</ele>
        <time>2021-07-21T14:17:39Z</time>
      </trkpt>
      <trkpt lat="47.28988" lon="-2.37181">
        <ele>17</ele>
        <time>2021-07-21T14:18:12Z</time>
      </trkpt>
      <trkpt lat="47.29129" lon="-2.36963">
        <ele>32</ele>
        <time>2021-07-21T14:19:00Z</time>
      </trkpt>
      <trkpt lat="47.29259" lon="-2.37115">
        <ele>32</ele>
        <time>2021-07-21T14:19:39Z</time>
      </trkpt>
      <trkpt lat="47.29314" lon="-2.37173">
        <ele>30</ele>
        <time>2021-07-21T14:19:54Z</time>
      </trkpt>
      <trkpt lat="47.294" lon="-2.3723">
        <ele>31</ele>
        <time>2021-07-21T14:20:16Z</time>
      </trkpt>
      <trkpt lat="47.29523" lon="-2.37348">
        <ele>35</ele>
        <time>2021-07-21T14:20:51Z</time>
      </trkpt>
      <trkpt lat="47.29633" lon="-2.37507">
        <ele>34</ele>
        <time>2021-07-21T14:21:27Z</time>
      </trkpt>
      <trkpt lat="47.29946" lon="-2.37908">
        <ele>29</ele>
        <time>2021-07-21T14:23:04Z</time>
      </trkpt>
      <trkpt lat="47.30202" lon="-2.38101">
        <ele>40</ele>
        <time>2021-07-21T14:24:11Z</time>
      </trkpt>
      <trkpt lat="47.30249" lon="-2.38187">
        <ele>42</ele>
        <time>2021-07-21T14:24:28Z</time>
      </trkpt>
      <trkpt lat="47.30307" lon="-2.38474">
        <ele>38</ele>
        <time>2021-07-21T14:25:16Z</time>
      </trkpt>
      <trkpt lat="47.30417" lon="-2.38779">
        <ele>43</ele>
        <time>2021-07-21T14:26:10Z</time>
      </trkpt>
      <trkpt lat="47.30316" lon="-2.38959">
        <ele>34</ele>
        <time>2021-07-21T14:26:47Z</time>
      </trkpt>
      <trkpt lat="47.30208" lon="-2.38775">
        <ele>32</ele>
        <time>2021-07-21T14:27:26Z</time>
      </trkpt>
      <trkpt lat="47.30033" lon="-2.38972">
        <ele>14</ele>
        <time>2021-07-21T14:28:17Z</time>
      </trkpt>
      <trkpt lat="47.29658" lon="-2.39178">
        <ele>5</ele>
        <time>2021-07-21T14:29:51Z</time>
      </trkpt>
      <trkpt lat="47.29635" lon="-2.39397">
        <ele>3</ele>
        <time>2021-07-21T14:30:26Z</time>
      </trkpt>
      <trkpt lat="47.29579" lon="-2.39534">
        <ele>3</ele>
        <time>2021-07-21T14:30:51Z</time>
      </trkpt>
      <trkpt lat="47.29873" lon="-2.39611">
        <ele>11</ele>
        <time>2021-07-21T14:32:01Z</time>
      </trkpt>
      <trkpt lat="47.30324" lon="-2.39714">
        <ele>14</ele>
        <time>2021-07-21T14:33:47Z</time>
      </trkpt>
      <trkpt lat="47.3047" lon="-2.39819">
        <ele>19</ele>
        <time>2021-07-21T14:34:25Z</time>
      </trkpt>
      <trkpt lat="47.30793" lon="-2.40101">
        <ele>28</ele>
        <time>2021-07-21T14:35:53Z</time>
      </trkpt>
      <trkpt lat="47.31096" lon="-2.40079">
        <ele>31</ele>
        <time>2021-07-21T14:37:04Z</time>
      </trkpt>
      <trkpt lat="47.31174" lon="-2.40062">
        <ele>32</ele>
        <time>2021-07-21T14:37:22Z</time>
      </trkpt>
      <trkpt lat="47.31355" lon="-2.40523">
        <ele>40</ele>
        <time>2021-07-21T14:38:47Z</time>
      </trkpt>
      <trkpt lat="47.31654" lon="-2.40335">
        <ele>47</ele>
        <time>2021-07-21T14:40:03Z</time>
      </trkpt>
      <trkpt lat="47.3207" lon="-2.40602">
        <ele>50</ele>
        <time>2021-07-21T14:41:49Z</time>
      </trkpt>
      <trkpt lat="47.32212" lon="-2.40808">
        <ele>51</ele>
        <time>2021-07-21T14:42:35Z</time>
      </trkpt>
      <trkpt lat="47.32133" lon="-2.41299">
        <ele>46</ele>
        <time>2021-07-21T14:43:55Z</time>
      </trkpt>
      <trkpt lat="47.32422" lon="-2.41154">
        <ele>54</ele>
        <time>2021-07-21T14:45:06Z</time>
      </trkpt>
      <trkpt lat="47.32588" lon="-2.41501">
        <ele>51</ele>
        <time>2021-07-21T14:46:13Z</time>
      </trkpt>
      <trkpt lat="47.32702" lon="-2.41543">
        <ele>48</ele>
        <time>2021-07-21T14:46:41Z</time>
      </trkpt>
      <trkpt lat="47.32711" lon="-2.41744">
        <ele>48</ele>
        <time>2021-07-21T14:47:13Z</time>
      </trkpt>
      <trkpt lat="47.32765" lon="-2.41864">
        <ele>47</ele>
        <time>2021-07-21T14:47:36Z</time>
      </trkpt>
      <trkpt lat="47.32809" lon="-2.41952">
        <ele>44</ele>
        <time>2021-07-21T14:47:53Z</time>
      </trkpt>
      <trkpt lat="47.32869" lon="-2.42108">
        <ele>45</ele>
        <time>2021-07-21T14:48:21Z</time>
      </trkpt>
      <trkpt lat="47.32702" lon="-2.42259">
        <ele>49</ele>
        <time>2021-07-21T14:49:07Z</time>
      </trkpt>
      <trkpt lat="47.32786" lon="-2.42616">
        <ele>51</ele>
        <time>2021-07-21T14:50:07Z</time>
      </trkpt>
      <trkpt lat="47.327" lon="-2.42703">
        <ele>50</ele>
        <time>2021-07-21T14:50:31Z</time>
      </trkpt>
      <trkpt lat="47.32612" lon="-2.42933">
        <ele>50</ele>
        <time>2021-07-21T14:51:13Z</time>
      </trkpt>
      <trkpt lat="47.32617" lon="-2.43075">
        <ele>50</ele>
        <time>2021-07-21T14:51:36Z</time>
      </trkpt>
      <trkpt lat="47.32376" lon="-2.4307">
        <ele>38</ele>
        <time>2021-07-21T14:52:32Z</time>
      </trkpt>
      <trkpt lat="47.32133" lon="-2.43188">
        <ele>31</ele>
        <time>2021-07-21T14:53:32Z</time>
      </trkpt>
      <trkpt lat="47.32051" lon="-2.43231">
        <ele>29</ele>
        <time>2021-07-21T14:53:52Z</time>
      </trkpt>
      <trkpt lat="47.31972" lon="-2.43297">
        <ele>24</ele>
        <time>2021-07-21T14:54:13Z</time>
      </trkpt>
      <trkpt lat="47.31954" lon="-2.43394">
        <ele>20</ele>
        <time>2021-07-21T14:54:29Z</time>
      </trkpt>
      <trkpt lat="47.31927" lon="-2.43496">
        <ele>16</ele>
        <time>2021-07-21T14:54:46Z</time>
      </trkpt>
      <trkpt lat="47.31928" lon="-2.43568">
        <ele>15</ele>
        <time>2021-07-21T14:54:58Z</time>
      </trkpt>
      <trkpt lat="47.3188" lon="-2.43639">
        <ele>11</ele>
        <time>2021-07-21T14:55:14Z</time>
      </trkpt>
      <trkpt lat="47.31973" lon="-2.43828">
        <ele>15</ele>
        <time>2021-07-21T14:55:51Z</time>
      </trkpt>
      <trkpt lat="47.32029" lon="-2.43798">
        <ele>19</ele>
        <time>2021-07-21T14:56:04Z</time>
      </trkpt>
      <trkpt lat="47.32219" lon="-2.44045">
        <ele>29</ele>
        <time>2021-07-21T14:57:04Z</time>
      </trkpt>
      <trkpt lat="47.32024" lon="-2.44293">
        <ele>12</ele>
        <time>2021-07-21T14:58:04Z</time>
      </trkpt>
      <trkpt lat="47.31835" lon="-2.44701">
        <ele>5</ele>
        <time>2021-07-21T14:59:22Z</time>
      </trkpt>
      <trkpt lat="47.31729" lon="-2.44795">
        <ele>5</ele>
        <time>2021-07-21T14:59:51Z</time>
      </trkpt>
      <trkpt lat="47.31859" lon="-2.45196">
        <ele>3</ele>
        <time>2021-07-21T15:01:01Z</time>
      </trkpt>
      <trkpt lat="47.31766" lon="-2.45334">
        <ele>2</ele>
        <time>2021-07-21T15:01:32Z</time>
      </trkpt>
      <trkpt lat="47.31913" lon="-2.4553">
        <ele>2</ele>
        <time>2021-07-21T15:02:18Z</time>
      </trkpt>
      <trkpt lat="47.321" lon="-2.45745">
        <ele>1</ele>
        <time>2021-07-21T15:03:14Z</time>
      </trkpt>
      <trkpt lat="47.32252" lon="-2.45969">
        <ele>2</ele>
        <time>2021-07-21T15:04:04Z</time>
      </trkpt>
      <trkpt lat="47.32435" lon="-2.46316">
        <ele>2</ele>
        <time>2021-07-21T15:05:13Z</time>
      </trkpt>
      <trkpt lat="47.32591" lon="-2.46597">
        <ele>1</ele>
        <time>2021-07-21T15:06:11Z</time>
      </trkpt>
      <trkpt lat="47.32773" lon="-2.46832">
        <ele>2</ele>
        <time>2021-07-21T15:07:07Z</time>
      </trkpt>
      <trkpt lat="47.32847" lon="-2.47053">
        <ele>4</ele>
        <time>2021-07-21T15:07:46Z</time>
      </trkpt>
      <trkpt lat="47.32888" lon="-2.47336">
        <ele>3</ele>
        <time>2021-07-21T15:08:32Z</time>
      </trkpt>
      <trkpt lat="47.3294" lon="-2.47692">
        <ele>2</ele>
        <time>2021-07-21T15:09:30Z</time>
      </trkpt>
      <trkpt lat="47.3312" lon="-2.4783">
        <ele>2</ele>
        <time>2021-07-21T15:10:17Z</time>
      </trkpt>
      <trkpt lat="47.33152" lon="-2.4816">
        <ele>3</ele>
        <time>2021-07-21T15:11:10Z</time>
      </trkpt>
      <trkpt lat="47.33193" lon="-2.48555">
        <ele>1</ele>
        <time>2021-07-21T15:12:13Z</time>
      </trkpt>
      <trkpt lat="47.33245" lon="-2.48873">
        <ele>2.8</ele>
        <time>2021-07-21T15:13:05Z</time>
      </trkpt>
      <trkpt lat="47.33376" lon="-2.48812">
        <ele>1</ele>
        <time>2021-07-21T15:13:37Z</time>
      </trkpt>
      <trkpt lat="47.33539" lon="-2.48606">
        <ele>3</ele>
        <time>2021-07-21T15:14:27Z</time>
      </trkpt>
      <trkpt lat="47.33638" lon="-2.48375">
        <ele>6</ele>
        <time>2021-07-21T15:15:11Z</time>
      </trkpt>
      <trkpt lat="47.33801" lon="-2.48276">
        <ele>11</ele>
        <time>2021-07-21T15:15:52Z</time>
      </trkpt>
      <trkpt lat="47.33943" lon="-2.48231">
        <ele>13</ele>
        <time>2021-07-21T15:16:26Z</time>
      </trkpt>
      <trkpt lat="47.34132" lon="-2.48267">
        <ele>10</ele>
        <time>2021-07-21T15:17:10Z</time>
      </trkpt>
      <trkpt lat="47.3426" lon="-2.48375">
        <ele>9</ele>
        <time>2021-07-21T15:17:45Z</time>
      </trkpt>
      <trkpt lat="47.34374" lon="-2.48368">
        <ele>15</ele>
        <time>2021-07-21T15:18:11Z</time>
      </trkpt>
      <trkpt lat="47.34459" lon="-2.48301">
        <ele>23</ele>
        <time>2021-07-21T15:18:34Z</time>
      </trkpt>
      <trkpt lat="47.34562" lon="-2.48383">
        <ele>29</ele>
        <time>2021-07-21T15:19:01Z</time>
      </trkpt>
      <trkpt lat="47.3467" lon="-2.48396">
        <ele>31</ele>
        <time>2021-07-21T15:19:26Z</time>
      </trkpt>
      <trkpt lat="47.34777" lon="-2.48386">
        <ele>35</ele>
        <time>2021-07-21T15:19:51Z</time>
      </trkpt>
      <trkpt lat="47.34872" lon="-2.48327">
        <ele>38</ele>
        <time>2021-07-21T15:20:15Z</time>
      </trkpt>
      <trkpt lat="47.34929" lon="-2.48199">
        <ele>39</ele>
        <time>2021-07-21T15:20:40Z</time>
      </trkpt>
      <trkpt lat="47.35027" lon="-2.48067">
        <ele>37</ele>
        <time>2021-07-21T15:21:11Z</time>
      </trkpt>
      <trkpt lat="47.35031" lon="-2.47919">
        <ele>36</ele>
        <time>2021-07-21T15:21:34Z</time>
      </trkpt>
      <trkpt lat="47.35034" lon="-2.47753">
        <ele>37</ele>
        <time>2021-07-21T15:22:00Z</time>
      </trkpt>
      <trkpt lat="47.35034" lon="-2.47534">
        <ele>37</ele>
        <time>2021-07-21T15:22:35Z</time>
      </trkpt>
      <trkpt lat="47.3497" lon="-2.4719">
        <ele>41</ele>
        <time>2021-07-21T15:23:31Z</time>
      </trkpt>
      <trkpt lat="47.34886" lon="-2.46924">
        <ele>42</ele>
        <time>2021-07-21T15:24:18Z</time>
      </trkpt>
      <trkpt lat="47.34848" lon="-2.46607">
        <ele>40</ele>
        <time>2021-07-21T15:25:09Z</time>
      </trkpt>
      <trkpt lat="47.34856" lon="-2.46474">
        <ele>37</ele>
        <time>2021-07-21T15:25:30Z</time>
      </trkpt>
      <trkpt lat="47.35109" lon="-2.46371">
        <ele>38</ele>
        <time>2021-07-21T15:26:31Z</time>
      </trkpt>
      <trkpt lat="47.35275" lon="-2.46186">
        <ele>38</ele>
        <time>2021-07-21T15:27:20Z</time>
      </trkpt>
      <trkpt lat="47.35505" lon="-2.46006">
        <ele>40</ele>
        <time>2021-07-21T15:28:21Z</time>
      </trkpt>
      <trkpt lat="47.35554" lon="-2.45894">
        <ele>38</ele>
        <time>2021-07-21T15:28:42Z</time>
      </trkpt>
      <trkpt lat="47.35761" lon="-2.45856">
        <ele>32</ele>
        <time>2021-07-21T15:29:30Z</time>
      </trkpt>
      <trkpt lat="47.35944" lon="-2.45813">
        <ele>28</ele>
        <time>2021-07-21T15:30:14Z</time>
      </trkpt>
      <trkpt lat="47.36095" lon="-2.45748">
        <ele>29</ele>
        <time>2021-07-21T15:30:50Z</time>
      </trkpt>
      <trkpt lat="47.36223" lon="-2.45701">
        <ele>29</ele>
        <time>2021-07-21T15:31:21Z</time>
      </trkpt>
      <trkpt lat="47.36281" lon="-2.45834">
        <ele>30</ele>
        <time>2021-07-21T15:31:46Z</time>
      </trkpt>
      <trkpt lat="47.36383" lon="-2.45971">
        <ele>30</ele>
        <time>2021-07-21T15:32:18Z</time>
      </trkpt>
      <trkpt lat="47.36505" lon="-2.46147">
        <ele>31</ele>
        <time>2021-07-21T15:32:58Z</time>
      </trkpt>
      <trkpt lat="47.36586" lon="-2.46268">
        <ele>29</ele>
        <time>2021-07-21T15:33:25Z</time>
      </trkpt>
      <trkpt lat="47.3663" lon="-2.46383">
        <ele>28</ele>
        <time>2021-07-21T15:33:46Z</time>
      </trkpt>
      <trkpt lat="47.36615" lon="-2.46461">
        <ele>28</ele>
        <time>2021-07-21T15:33:59Z</time>
      </trkpt>
      <trkpt lat="47.36548" lon="-2.46581">
        <ele>29</ele>
        <time>2021-07-21T15:34:24Z</time>
      </trkpt>
      <trkpt lat="47.36522" lon="-2.46675">
        <ele>30</ele>
        <time>2021-07-21T15:34:40Z</time>
      </trkpt>
      <trkpt lat="47.36621" lon="-2.4686">
        <ele>29</ele>
        <time>2021-07-21T15:35:17Z</time>
      </trkpt>
      <trkpt lat="47.36752" lon="-2.4713">
        <ele>29</ele>
        <time>2021-07-21T15:36:09Z</time>
      </trkpt>
      <trkpt lat="47.36836" lon="-2.47332">
        <ele>30</ele>
        <time>2021-07-21T15:36:47Z</time>
      </trkpt>
      <trkpt lat="47.36766" lon="-2.47456">
        <ele>31</ele>
        <time>2021-07-21T15:37:12Z</time>
      </trkpt>
      <trkpt lat="47.36729" lon="-2.47499">
        <ele>31</ele>
        <time>2021-07-21T15:37:23Z</time>
      </trkpt>
      <trkpt lat="47.36839" lon="-2.47705">
        <ele>34</ele>
        <time>2021-07-21T15:38:05Z</time>
      </trkpt>
      <trkpt lat="47.36827" lon="-2.48224">
        <ele>40</ele>
        <time>2021-07-21T15:39:27Z</time>
      </trkpt>
      <trkpt lat="47.36935" lon="-2.48235">
        <ele>39</ele>
        <time>2021-07-21T15:39:52Z</time>
      </trkpt>
      <trkpt lat="47.37138" lon="-2.48098">
        <ele>36</ele>
        <time>2021-07-21T15:40:44Z</time>
      </trkpt>
      <trkpt lat="47.37726" lon="-2.47555">
        <ele>35</ele>
        <time>2021-07-21T15:43:26Z</time>
      </trkpt>
      <trkpt lat="47.37922" lon="-2.47949">
        <ele>21</ele>
        <time>2021-07-21T15:44:44Z</time>
      </trkpt>
      <trkpt lat="47.37634" lon="-2.48455">
        <ele>24</ele>
        <time>2021-07-21T15:46:28Z</time>
      </trkpt>
      <trkpt lat="47.37663" lon="-2.48574">
        <ele>25</ele>
        <time>2021-07-21T15:46:48Z</time>
      </trkpt>
      <trkpt lat="47.37681" lon="-2.48743">
        <ele>26</ele>
        <time>2021-07-21T15:47:15Z</time>
      </trkpt>
      <trkpt lat="47.37675" lon="-2.49067">
        <ele>32</ele>
        <time>2021-07-21T15:48:07Z</time>
      </trkpt>
      <trkpt lat="47.37748" lon="-2.49662">
        <ele>31</ele>
        <time>2021-07-21T15:49:42Z</time>
      </trkpt>
      <trkpt lat="47.37833" lon="-2.50034">
        <ele>32</ele>
        <time>2021-07-21T15:50:44Z</time>
      </trkpt>
      <trkpt lat="47.37551" lon="-2.50098">
        <ele>25</ele>
        <time>2021-07-21T15:51:51Z</time>
      </trkpt>
      <trkpt lat="47.37689" lon="-2.5121">
        <ele>29</ele>
        <time>2021-07-21T15:54:50Z</time>
      </trkpt>
      <trkpt lat="47.37807" lon="-2.51213">
        <ele>27</ele>
        <time>2021-07-21T15:55:17Z</time>
      </trkpt>
      <trkpt lat="47.37978" lon="-2.51042">
        <ele>26</ele>
        <time>2021-07-21T15:56:05Z</time>
      </trkpt>
      <trkpt lat="47.38109" lon="-2.50935">
        <ele>22</ele>
        <time>2021-07-21T15:56:40Z</time>
      </trkpt>
      <trkpt lat="47.38277" lon="-2.51009">
        <ele>18</ele>
        <time>2021-07-21T15:57:21Z</time>
      </trkpt>
      <trkpt lat="47.38512" lon="-2.51106">
        <ele>14</ele>
        <time>2021-07-21T15:58:18Z</time>
      </trkpt>
      <trkpt lat="47.3876" lon="-2.50927">
        <ele>22</ele>
        <time>2021-07-21T15:59:23Z</time>
      </trkpt>
      <trkpt lat="47.38847" lon="-2.50904">
        <ele>24</ele>
        <time>2021-07-21T15:59:43Z</time>
      </trkpt>
      <trkpt lat="47.38928" lon="-2.50817">
        <ele>23</ele>
        <time>2021-07-21T16:00:07Z</time>
      </trkpt>
      <trkpt lat="47.39025" lon="-2.50945">
        <ele>21</ele>
        <time>2021-07-21T16:00:37Z</time>
      </trkpt>
      <trkpt lat="47.39108" lon="-2.51088">
        <ele>18</ele>
        <time>2021-07-21T16:01:07Z</time>
      </trkpt>
      <trkpt lat="47.39163" lon="-2.51244">
        <ele>18</ele>
        <time>2021-07-21T16:01:35Z</time>
      </trkpt>
      <trkpt lat="47.39204" lon="-2.51162">
        <ele>17</ele>
        <time>2021-07-21T16:01:51Z</time>
      </trkpt>
      <trkpt lat="47.39242" lon="-2.51075">
        <ele>15</ele>
        <time>2021-07-21T16:02:07Z</time>
      </trkpt>
      <trkpt lat="47.3935" lon="-2.50994">
        <ele>16</ele>
        <time>2021-07-21T16:02:36Z</time>
      </trkpt>
      <trkpt lat="47.39446" lon="-2.51093">
        <ele>12</ele>
        <time>2021-07-21T16:03:03Z</time>
      </trkpt>
      <trkpt lat="47.39491" lon="-2.51297">
        <ele>9</ele>
        <time>2021-07-21T16:03:37Z</time>
      </trkpt>
      <trkpt lat="47.39636" lon="-2.5133">
        <ele>6</ele>
        <time>2021-07-21T16:04:11Z</time>
      </trkpt>
      <trkpt lat="47.398" lon="-2.5117">
        <ele>8</ele>
        <time>2021-07-21T16:04:57Z</time>
      </trkpt>
      <trkpt lat="47.39954" lon="-2.50858">
        <ele>11</ele>
        <time>2021-07-21T16:05:58Z</time>
      </trkpt>
      <trkpt lat="47.40297" lon="-2.50143">
        <ele>5</ele>
        <time>2021-07-21T16:08:17Z</time>
      </trkpt>
      <trkpt lat="47.40326" lon="-2.49963">
        <ele>7</ele>
        <time>2021-07-21T16:08:46Z</time>
      </trkpt>
      <trkpt lat="47.40143" lon="-2.49079">
        <ele>11</ele>
        <time>2021-07-21T16:11:12Z</time>
      </trkpt>
      <trkpt lat="47.40163" lon="-2.48868">
        <ele>12</ele>
        <time>2021-07-21T16:11:46Z</time>
      </trkpt>
      <trkpt lat="47.40311" lon="-2.48692">
        <ele>12</ele>
        <time>2021-07-21T16:12:30Z</time>
      </trkpt>
      <trkpt lat="47.40476" lon="-2.48582">
        <ele>9</ele>
        <time>2021-07-21T16:13:12Z</time>
      </trkpt>
      <trkpt lat="47.40514" lon="-2.48656">
        <ele>9</ele>
        <time>2021-07-21T16:13:27Z</time>
      </trkpt>
      <trkpt lat="47.4059" lon="-2.48774">
        <ele>12</ele>
        <time>2021-07-21T16:13:53Z</time>
      </trkpt>
      <trkpt lat="47.40629" lon="-2.48893">
        <ele>7</ele>
        <time>2021-07-21T16:14:14Z</time>
      </trkpt>
      <trkpt lat="47.40749" lon="-2.48848">
        <ele>8</ele>
        <time>2021-07-21T16:14:42Z</time>
      </trkpt>
      <trkpt lat="47.4092" lon="-2.48786">
        <ele>8</ele>
        <time>2021-07-21T16:15:24Z</time>
      </trkpt>
      <trkpt lat="47.41068" lon="-2.48776">
        <ele>8</ele>
        <time>2021-07-21T16:15:58Z</time>
      </trkpt>
      <trkpt lat="47.41077" lon="-2.48661">
        <ele>9</ele>
        <time>2021-07-21T16:16:16Z</time>
      </trkpt>
      <trkpt lat="47.41087" lon="-2.48585">
        <ele>10</ele>
        <time>2021-07-21T16:16:29Z</time>
      </trkpt>
      <trkpt lat="47.4112" lon="-2.48578">
        <ele>8</ele>
        <time>2021-07-21T16:16:37Z</time>
      </trkpt>
      <trkpt lat="47.41078" lon="-2.48421">
        <ele>11</ele>
        <time>2021-07-21T16:17:03Z</time>
      </trkpt>
      <trkpt lat="47.41011" lon="-2.48335">
        <ele>11</ele>
        <time>2021-07-21T16:17:24Z</time>
      </trkpt>
      <trkpt lat="47.4097" lon="-2.48268">
        <ele>9</ele>
        <time>2021-07-21T16:17:38Z</time>
      </trkpt>
      <trkpt lat="47.40906" lon="-2.4812">
        <ele>7</ele>
        <time>2021-07-21T16:18:06Z</time>
      </trkpt>
      <trkpt lat="47.40868" lon="-2.48021">
        <ele>7</ele>
        <time>2021-07-21T16:18:24Z</time>
      </trkpt>
      <trkpt lat="47.40857" lon="-2.47975">
        <ele>6</ele>
        <time>2021-07-21T16:18:32Z</time>
      </trkpt>
      <trkpt lat="47.40904" lon="-2.47924">
        <ele>7</ele>
        <time>2021-07-21T16:18:45Z</time>
      </trkpt>
      <trkpt lat="47.41034" lon="-2.47806">
        <ele>10</ele>
        <time>2021-07-21T16:19:21Z</time>
      </trkpt>
      <trkpt lat="47.41139" lon="-2.4763">
        <ele>11</ele>
        <time>2021-07-21T16:19:58Z</time>
      </trkpt>
      <trkpt lat="47.41191" lon="-2.47442">
        <ele>8</ele>
        <time>2021-07-21T16:20:30Z</time>
      </trkpt>
      <trkpt lat="47.41296" lon="-2.4736">
        <ele>10</ele>
        <time>2021-07-21T16:20:58Z</time>
      </trkpt>
      <trkpt lat="47.41372" lon="-2.47265">
        <ele>8</ele>
        <time>2021-07-21T16:21:21Z</time>
      </trkpt>
      <trkpt lat="47.415" lon="-2.47179">
        <ele>7</ele>
        <time>2021-07-21T16:21:54Z</time>
      </trkpt>
      <trkpt lat="47.4159" lon="-2.47092">
        <ele>5</ele>
        <time>2021-07-21T16:22:19Z</time>
      </trkpt>
      <trkpt lat="47.41595" lon="-2.47015">
        <ele>6</ele>
        <time>2021-07-21T16:22:31Z</time>
      </trkpt>
      <trkpt lat="47.41538" lon="-2.46893">
        <ele>4</ele>
        <time>2021-07-21T16:22:55Z</time>
      </trkpt>
      <trkpt lat="47.41412" lon="-2.46755">
        <ele>3.3</ele>
        <time>2021-07-21T16:23:31Z</time>
      </trkpt>
      <trkpt lat="47.41248" lon="-2.46602">
        <ele>2.6</ele>
        <time>2021-07-21T16:24:17Z</time>
      </trkpt>
      <trkpt lat="47.41097" lon="-2.46513">
        <ele>1</ele>
        <time>2021-07-21T16:24:55Z</time>
      </trkpt>
      <trkpt lat="47.40895" lon="-2.46474">
        <ele>3</ele>
        <time>2021-07-21T16:25:42Z</time>
      </trkpt>
      <trkpt lat="47.40828" lon="-2.46393">
        <ele>4</ele>
        <time>2021-07-21T16:26:02Z</time>
      </trkpt>
      <trkpt lat="47.40728" lon="-2.46309">
        <ele>6</ele>
        <time>2021-07-21T16:26:29Z</time>
      </trkpt>
      <trkpt lat="47.40552" lon="-2.46222">
        <ele>3</ele>
        <time>2021-07-21T16:27:13Z</time>
      </trkpt>
      <trkpt lat="47.40465" lon="-2.46158">
        <ele>3</ele>
        <time>2021-07-21T16:27:35Z</time>
      </trkpt>
      <trkpt lat="47.40412" lon="-2.46076">
        <ele>6</ele>
        <time>2021-07-21T16:27:53Z</time>
      </trkpt>
      <trkpt lat="47.40363" lon="-2.45936">
        <ele>11</ele>
        <time>2021-07-21T16:28:18Z</time>
      </trkpt>
      <trkpt lat="47.40281" lon="-2.45954">
        <ele>13</ele>
        <time>2021-07-21T16:28:37Z</time>
      </trkpt>
      <trkpt lat="47.40165" lon="-2.46046">
        <ele>14</ele>
        <time>2021-07-21T16:29:08Z</time>
      </trkpt>
      <trkpt lat="47.40143" lon="-2.45933">
        <ele>16</ele>
        <time>2021-07-21T16:29:27Z</time>
      </trkpt>
      <trkpt lat="47.40096" lon="-2.45744">
        <ele>15</ele>
        <time>2021-07-21T16:29:59Z</time>
      </trkpt>
      <trkpt lat="47.40183" lon="-2.45512">
        <ele>9</ele>
        <time>2021-07-21T16:30:41Z</time>
      </trkpt>
      <trkpt lat="47.4032" lon="-2.45272">
        <ele>10</ele>
        <time>2021-07-21T16:31:30Z</time>
      </trkpt>
      <trkpt lat="47.40387" lon="-2.45143">
        <ele>14</ele>
        <time>2021-07-21T16:31:56Z</time>
      </trkpt>
      <trkpt lat="47.40344" lon="-2.44945">
        <ele>14</ele>
        <time>2021-07-21T16:32:29Z</time>
      </trkpt>
      <trkpt lat="47.40198" lon="-2.44538">
        <ele>6</ele>
        <time>2021-07-21T16:33:42Z</time>
      </trkpt>
      <trkpt lat="47.40111" lon="-2.44601">
        <ele>9</ele>
        <time>2021-07-21T16:34:04Z</time>
      </trkpt>
      <trkpt lat="47.39994" lon="-2.44591">
        <ele>12</ele>
        <time>2021-07-21T16:34:32Z</time>
      </trkpt>
      <trkpt lat="47.39916" lon="-2.4467">
        <ele>15</ele>
        <time>2021-07-21T16:34:54Z</time>
      </trkpt>
      <trkpt lat="47.39842" lon="-2.4467">
        <ele>16</ele>
        <time>2021-07-21T16:35:11Z</time>
      </trkpt>
      <trkpt lat="47.39607" lon="-2.44808">
        <ele>13</ele>
        <time>2021-07-21T16:36:10Z</time>
      </trkpt>
      <trkpt lat="47.39486" lon="-2.44897">
        <ele>11</ele>
        <time>2021-07-21T16:36:41Z</time>
      </trkpt>
      <trkpt lat="47.39448" lon="-2.44908">
        <ele>11</ele>
        <time>2021-07-21T16:36:51Z</time>
      </trkpt>
      <trkpt lat="47.39424" lon="-2.45061">
        <ele>14</ele>
        <time>2021-07-21T16:37:15Z</time>
      </trkpt>
      <trkpt lat="47.39324" lon="-2.44903">
        <ele>12</ele>
        <time>2021-07-21T16:37:50Z</time>
      </trkpt>
      <trkpt lat="47.39298" lon="-2.44846">
        <ele>13</ele>
        <time>2021-07-21T16:38:00Z</time>
      </trkpt>
      <trkpt lat="47.39227" lon="-2.44834">
        <ele>14</ele>
        <time>2021-07-21T16:38:17Z</time>
      </trkpt>
      <trkpt lat="47.39115" lon="-2.44747">
        <ele>11</ele>
        <time>2021-07-21T16:38:47Z</time>
      </trkpt>
      <trkpt lat="47.39023" lon="-2.44808">
        <ele>9</ele>
        <time>2021-07-21T16:39:10Z</time>
      </trkpt>
      <trkpt lat="47.38937" lon="-2.44726">
        <ele>6</ele>
        <time>2021-07-21T16:39:34Z</time>
      </trkpt>
      <trkpt lat="47.39001" lon="-2.44252">
        <ele>11</ele>
        <time>2021-07-21T16:40:51Z</time>
      </trkpt>
      <trkpt lat="47.39045" lon="-2.43997">
        <ele>11</ele>
        <time>2021-07-21T16:41:32Z</time>
      </trkpt>
      <trkpt lat="47.39004" lon="-2.43915">
        <ele>14</ele>
        <time>2021-07-21T16:41:48Z</time>
      </trkpt>
      <trkpt lat="47.38997" lon="-2.43724">
        <ele>10</ele>
        <time>2021-07-21T16:42:19Z</time>
      </trkpt>
      <trkpt lat="47.39035" lon="-2.43652">
        <ele>11</ele>
        <time>2021-07-21T16:42:33Z</time>
      </trkpt>
      <trkpt lat="47.39201" lon="-2.43593">
        <ele>16</ele>
        <time>2021-07-21T16:43:13Z</time>
      </trkpt>
      <trkpt lat="47.39408" lon="-2.43558">
        <ele>8</ele>
        <time>2021-07-21T16:44:01Z</time>
      </trkpt>
      <trkpt lat="47.39856" lon="-2.43254">
        <ele>11</ele>
        <time>2021-07-21T16:45:57Z</time>
      </trkpt>
      <trkpt lat="47.40073" lon="-2.43093">
        <ele>9</ele>
        <time>2021-07-21T16:46:53Z</time>
      </trkpt>
      <trkpt lat="47.40039" lon="-2.42933">
        <ele>11</ele>
        <time>2021-07-21T16:47:20Z</time>
      </trkpt>
      <trkpt lat="47.40144" lon="-2.4282">
        <ele>11</ele>
        <time>2021-07-21T16:47:50Z</time>
      </trkpt>
      <trkpt lat="47.403" lon="-2.42815">
        <ele>8</ele>
        <time>2021-07-21T16:48:27Z</time>
      </trkpt>
      <trkpt lat="47.40339" lon="-2.42856">
        <ele>6</ele>
        <time>2021-07-21T16:48:38Z</time>
      </trkpt>
      <trkpt lat="47.40389" lon="-2.42778">
        <ele>9</ele>
        <time>2021-07-21T16:48:55Z</time>
      </trkpt>
      <trkpt lat="47.40393" lon="-2.42667">
        <ele>11</ele>
        <time>2021-07-21T16:49:12Z</time>
      </trkpt>
      <trkpt lat="47.40414" lon="-2.42621">
        <ele>11</ele>
        <time>2021-07-21T16:49:21Z</time>
      </trkpt>
      <trkpt lat="47.40433" lon="-2.4257">
        <ele>11</ele>
        <time>2021-07-21T16:49:30Z</time>
      </trkpt>
      <trkpt lat="47.40415" lon="-2.42504">
        <ele>12</ele>
        <time>2021-07-21T16:49:42Z</time>
      </trkpt>
      <trkpt lat="47.40382" lon="-2.4242">
        <ele>11</ele>
        <time>2021-07-21T16:49:57Z</time>
      </trkpt>
      <trkpt lat="47.40327" lon="-2.42318">
        <ele>9</ele>
        <time>2021-07-21T16:50:17Z</time>
      </trkpt>
      <trkpt lat="47.40222" lon="-2.41999">
        <ele>13</ele>
        <time>2021-07-21T16:51:14Z</time>
      </trkpt>
      <trkpt lat="47.40172" lon="-2.41886">
        <ele>14</ele>
        <time>2021-07-21T16:51:35Z</time>
      </trkpt>
      <trkpt lat="47.40222" lon="-2.4171">
        <ele>12</ele>
        <time>2021-07-21T16:52:05Z</time>
      </trkpt>
      <trkpt lat="47.40263" lon="-2.41539">
        <ele>10</ele>
        <time>2021-07-21T16:52:34Z</time>
      </trkpt>
      <trkpt lat="47.40308" lon="-2.41361">
        <ele>12</ele>
        <time>2021-07-21T16:53:04Z</time>
      </trkpt>
      <trkpt lat="47.40239" lon="-2.41225">
        <ele>8</ele>
        <time>2021-07-21T16:53:31Z</time>
      </trkpt>
      <trkpt lat="47.40011" lon="-2.40986">
        <ele>6</ele>
        <time>2021-07-21T16:54:36Z</time>
      </trkpt>
      <trkpt lat="47.40175" lon="-2.40468">
        <ele>6</ele>
        <time>2021-07-21T16:56:06Z</time>
      </trkpt>
      <trkpt lat="47.4036" lon="-2.402">
        <ele>5</ele>
        <time>2021-07-21T16:57:07Z</time>
      </trkpt>
      <trkpt lat="47.40332" lon="-2.40103">
        <ele>4</ele>
        <time>2021-07-21T16:57:24Z</time>
      </trkpt>
      <trkpt lat="47.40393" lon="-2.40039">
        <ele>2</ele>
        <time>2021-07-21T16:57:41Z</time>
      </trkpt>
      <trkpt lat="47.40417" lon="-2.40075">
        <ele>2</ele>
        <time>2021-07-21T16:57:49Z</time>
      </trkpt>
      <trkpt lat="47.40633" lon="-2.39906">
        <ele>1</ele>
        <time>2021-07-21T16:58:46Z</time>
      </trkpt>
      <trkpt lat="47.40916" lon="-2.39842">
        <ele>3</ele>
        <time>2021-07-21T16:59:53Z</time>
      </trkpt>
      <trkpt lat="47.41116" lon="-2.39827">
        <ele>1</ele>
        <time>2021-07-21T17:00:40Z</time>
      </trkpt>
      <trkpt lat="47.41301" lon="-2.3986">
        <ele>11</ele>
        <time>2021-07-21T17:01:23Z</time>
      </trkpt>
      <trkpt lat="47.41477" lon="-2.39985">
        <ele>13</ele>
        <time>2021-07-21T17:02:09Z</time>
      </trkpt>
      <trkpt lat="47.41486" lon="-2.40358">
        <ele>2</ele>
        <time>2021-07-21T17:03:08Z</time>
      </trkpt>
      <trkpt lat="47.41482" lon="-2.40446">
        <ele>1</ele>
        <time>2021-07-21T17:03:22Z</time>
      </trkpt>
      <trkpt lat="47.41522" lon="-2.40565">
        <ele>2</ele>
        <time>2021-07-21T17:03:43Z</time>
      </trkpt>
      <trkpt lat="47.41524" lon="-2.40664">
        <ele>2</ele>
        <time>2021-07-21T17:03:58Z</time>
      </trkpt>
      <trkpt lat="47.41474" lon="-2.40794">
        <ele>3</ele>
        <time>2021-07-21T17:04:22Z</time>
      </trkpt>
      <trkpt lat="47.41407" lon="-2.40957">
        <ele>2.7</ele>
        <time>2021-07-21T17:04:52Z</time>
      </trkpt>
      <trkpt lat="47.41455" lon="-2.41131">
        <ele>1</ele>
        <time>2021-07-21T17:05:22Z</time>
      </trkpt>
      <trkpt lat="47.41519" lon="-2.40968">
        <ele>6</ele>
        <time>2021-07-21T17:05:52Z</time>
      </trkpt>
      <trkpt lat="47.417" lon="-2.40945">
        <ele>10</ele>
        <time>2021-07-21T17:06:34Z</time>
      </trkpt>
      <trkpt lat="47.41881" lon="-2.40738">
        <ele>7</ele>
        <time>2021-07-21T17:07:27Z</time>
      </trkpt>
      <trkpt lat="47.42006" lon="-2.40656">
        <ele>6</ele>
        <time>2021-07-21T17:07:59Z</time>
      </trkpt>
      <trkpt lat="47.42028" lon="-2.41052">
        <ele>12</ele>
        <time>2021-07-21T17:09:02Z</time>
      </trkpt>
      <trkpt lat="47.42127" lon="-2.41317">
        <ele>17</ele>
        <time>2021-07-21T17:09:50Z</time>
      </trkpt>
      <trkpt lat="47.42225" lon="-2.41325">
        <ele>17</ele>
        <time>2021-07-21T17:10:13Z</time>
      </trkpt>
      <trkpt lat="47.42361" lon="-2.41195">
        <ele>18</ele>
        <time>2021-07-21T17:10:51Z</time>
      </trkpt>
      <trkpt lat="47.42693" lon="-2.40886">
        <ele>17</ele>
        <time>2021-07-21T17:12:22Z</time>
      </trkpt>
      <trkpt lat="47.42827" lon="-2.40982">
        <ele>17</ele>
        <time>2021-07-21T17:12:57Z</time>
      </trkpt>
      <trkpt lat="47.43007" lon="-2.41111">
        <ele>19</ele>
        <time>2021-07-21T17:13:44Z</time>
      </trkpt>
      <trkpt lat="47.43004" lon="-2.41537">
        <ele>20</ele>
        <time>2021-07-21T17:14:51Z</time>
      </trkpt>
      <trkpt lat="47.43038" lon="-2.41794">
        <ele>16</ele>
        <time>2021-07-21T17:15:33Z</time>
      </trkpt>
      <trkpt lat="47.43023" lon="-2.4209">
        <ele>14</ele>
        <time>2021-07-21T17:16:19Z</time>
      </trkpt>
      <trkpt lat="47.42995" lon="-2.42409">
        <ele>16</ele>
        <time>2021-07-21T17:17:10Z</time>
      </trkpt>
      <trkpt lat="47.43033" lon="-2.42703">
        <ele>18</ele>
        <time>2021-07-21T17:17:58Z</time>
      </trkpt>
      <trkpt lat="47.43237" lon="-2.42823">
        <ele>17</ele>
        <time>2021-07-21T17:18:49Z</time>
      </trkpt>
      <trkpt lat="47.4342" lon="-2.42897">
        <ele>13</ele>
        <time>2021-07-21T17:19:33Z</time>
      </trkpt>
      <trkpt lat="47.43561" lon="-2.43014">
        <ele>10</ele>
        <time>2021-07-21T17:20:11Z</time>
      </trkpt>
      <trkpt lat="47.43668" lon="-2.43405">
        <ele>16</ele>
        <time>2021-07-21T17:21:18Z</time>
      </trkpt>
      <trkpt lat="47.43772" lon="-2.43297">
        <ele>17</ele>
        <time>2021-07-21T17:21:47Z</time>
      </trkpt>
      <trkpt lat="47.4392" lon="-2.43221">
        <ele>12</ele>
        <time>2021-07-21T17:22:24Z</time>
      </trkpt>
      <trkpt lat="47.43991" lon="-2.43246">
        <ele>12</ele>
        <time>2021-07-21T17:22:41Z</time>
      </trkpt>
      <trkpt lat="47.44115" lon="-2.43593">
        <ele>19</ele>
        <time>2021-07-21T17:23:43Z</time>
      </trkpt>
      <trkpt lat="47.44295" lon="-2.44083">
        <ele>12</ele>
        <time>2021-07-21T17:25:11Z</time>
      </trkpt>
      <trkpt lat="47.44409" lon="-2.44328">
        <ele>12</ele>
        <time>2021-07-21T17:25:58Z</time>
      </trkpt>
      <trkpt lat="47.4454" lon="-2.44339">
        <ele>15</ele>
        <time>2021-07-21T17:26:29Z</time>
      </trkpt>
      <trkpt lat="47.4465" lon="-2.44543">
        <ele>14</ele>
        <time>2021-07-21T17:27:10Z</time>
      </trkpt>
      <trkpt lat="47.44752" lon="-2.44584">
        <ele>12</ele>
        <time>2021-07-21T17:27:34Z</time>
      </trkpt>
      <trkpt lat="47.45012" lon="-2.44512">
        <ele>11</ele>
        <time>2021-07-21T17:28:36Z</time>
      </trkpt>
      <trkpt lat="47.4503" lon="-2.44601">
        <ele>11</ele>
        <time>2021-07-21T17:28:51Z</time>
      </trkpt>
      <trkpt lat="47.45175" lon="-2.44627">
        <ele>11</ele>
        <time>2021-07-21T17:29:25Z</time>
      </trkpt>
      <trkpt lat="47.45171" lon="-2.44885">
        <ele>7</ele>
        <time>2021-07-21T17:30:06Z</time>
      </trkpt>
      <trkpt lat="47.44935" lon="-2.44954">
        <ele>9</ele>
        <time>2021-07-21T17:31:02Z</time>
      </trkpt>
      <trkpt lat="47.44704" lon="-2.44977">
        <ele>8</ele>
        <time>2021-07-21T17:31:56Z</time>
      </trkpt>
      <trkpt lat="47.45178" lon="-2.45836">
        <ele>7</ele>
        <time>2021-07-21T17:34:51Z</time>
      </trkpt>
      <trkpt lat="47.45164" lon="-2.45908">
        <ele>8</ele>
        <time>2021-07-21T17:35:03Z</time>
      </trkpt>
      <trkpt lat="47.4519" lon="-2.4613">
        <ele>14</ele>
        <time>2021-07-21T17:35:38Z</time>
      </trkpt>
      <trkpt lat="47.45259" lon="-2.46354">
        <ele>14</ele>
        <time>2021-07-21T17:36:17Z</time>
      </trkpt>
      <trkpt lat="47.45204" lon="-2.46464">
        <ele>12</ele>
        <time>2021-07-21T17:36:39Z</time>
      </trkpt>
      <trkpt lat="47.45185" lon="-2.46796">
        <ele>7</ele>
        <time>2021-07-21T17:37:32Z</time>
      </trkpt>
      <trkpt lat="47.45225" lon="-2.47153">
        <ele>15</ele>
        <time>2021-07-21T17:38:29Z</time>
      </trkpt>
      <trkpt lat="47.45137" lon="-2.47181">
        <ele>15</ele>
        <time>2021-07-21T17:38:50Z</time>
      </trkpt>
      <trkpt lat="47.45071" lon="-2.47166">
        <ele>15</ele>
        <time>2021-07-21T17:39:05Z</time>
      </trkpt>
      <trkpt lat="47.45014" lon="-2.47199">
        <ele>14</ele>
        <time>2021-07-21T17:39:20Z</time>
      </trkpt>
      <trkpt lat="47.44914" lon="-2.47248">
        <ele>8</ele>
        <time>2021-07-21T17:39:44Z</time>
      </trkpt>
      <trkpt lat="47.44817" lon="-2.47357">
        <ele>4</ele>
        <time>2021-07-21T17:40:13Z</time>
      </trkpt>
      <trkpt lat="47.44745" lon="-2.4736">
        <ele>3</ele>
        <time>2021-07-21T17:40:29Z</time>
      </trkpt>
      <trkpt lat="47.44679" lon="-2.47393">
        <ele>2</ele>
        <time>2021-07-21T17:40:46Z</time>
      </trkpt>
      <trkpt lat="47.44612" lon="-2.47521">
        <ele>2</ele>
        <time>2021-07-21T17:41:11Z</time>
      </trkpt>
      <trkpt lat="47.44505" lon="-2.47857">
        <ele>3</ele>
        <time>2021-07-21T17:42:10Z</time>
      </trkpt>
      <trkpt lat="47.445" lon="-2.48003">
        <ele>10</ele>
        <time>2021-07-21T17:42:33Z</time>
      </trkpt>
      <trkpt lat="47.44521" lon="-2.48204">
        <ele>7</ele>
        <time>2021-07-21T17:43:05Z</time>
      </trkpt>
      <trkpt lat="47.44552" lon="-2.48404">
        <ele>7</ele>
        <time>2021-07-21T17:43:38Z</time>
      </trkpt>
      <trkpt lat="47.44729" lon="-2.48827">
        <ele>12</ele>
        <time>2021-07-21T17:44:56Z</time>
      </trkpt>
      <trkpt lat="47.44874" lon="-2.49131">
        <ele>13</ele>
        <time>2021-07-21T17:45:55Z</time>
      </trkpt>
      <trkpt lat="47.45063" lon="-2.4921">
        <ele>15</ele>
        <time>2021-07-21T17:46:41Z</time>
      </trkpt>
      <trkpt lat="47.45259" lon="-2.4923">
        <ele>15</ele>
        <time>2021-07-21T17:47:27Z</time>
      </trkpt>
      <trkpt lat="47.45411" lon="-2.49189">
        <ele>13</ele>
        <time>2021-07-21T17:48:03Z</time>
      </trkpt>
      <trkpt lat="47.45539" lon="-2.49274">
        <ele>12</ele>
        <time>2021-07-21T17:48:35Z</time>
      </trkpt>
      <trkpt lat="47.45627" lon="-2.49539">
        <ele>10</ele>
        <time>2021-07-21T17:49:22Z</time>
      </trkpt>
      <trkpt lat="47.45641" lon="-2.49736">
        <ele>4</ele>
        <time>2021-07-21T17:49:53Z</time>
      </trkpt>
      <trkpt lat="47.4571" lon="-2.49771">
        <ele>3</ele>
        <time>2021-07-21T17:50:10Z</time>
      </trkpt>
      <trkpt lat="47.45735" lon="-2.49695">
        <ele>4</ele>
        <time>2021-07-21T17:50:24Z</time>
      </trkpt>
      <trkpt lat="47.4571" lon="-2.49534">
        <ele>9</ele>
        <time>2021-07-21T17:50:50Z</time>
      </trkpt>
      <trkpt lat="47.45741" lon="-2.49406">
        <ele>10</ele>
        <time>2021-07-21T17:51:11Z</time>
      </trkpt>
      <trkpt lat="47.45868" lon="-2.49297">
        <ele>13</ele>
        <time>2021-07-21T17:51:46Z</time>
      </trkpt>
      <trkpt lat="47.46203" lon="-2.49095">
        <ele>12</ele>
        <time>2021-07-21T17:53:10Z</time>
      </trkpt>
      <trkpt lat="47.46307" lon="-2.48942">
        <ele>13</ele>
        <time>2021-07-21T17:53:44Z</time>
      </trkpt>
      <trkpt lat="47.46379" lon="-2.48763">
        <ele>14</ele>
        <time>2021-07-21T17:54:17Z</time>
      </trkpt>
      <trkpt lat="47.46424" lon="-2.48539">
        <ele>14</ele>
        <time>2021-07-21T17:54:54Z</time>
      </trkpt>
      <trkpt lat="47.46396" lon="-2.48248">
        <ele>12</ele>
        <time>2021-07-21T17:55:41Z</time>
      </trkpt>
      <trkpt lat="47.46484" lon="-2.48247">
        <ele>14</ele>
        <time>2021-07-21T17:56:01Z</time>
      </trkpt>
      <trkpt lat="47.46583" lon="-2.48164">
        <ele>17</ele>
        <time>2021-07-21T17:56:28Z</time>
      </trkpt>
      <trkpt lat="47.46643" lon="-2.48113">
        <ele>17</ele>
        <time>2021-07-21T17:56:44Z</time>
      </trkpt>
      <trkpt lat="47.46769" lon="-2.48092">
        <ele>17</ele>
        <time>2021-07-21T17:57:13Z</time>
      </trkpt>
      <trkpt lat="47.46862" lon="-2.48044">
        <ele>13</ele>
        <time>2021-07-21T17:57:36Z</time>
      </trkpt>
      <trkpt lat="47.46933" lon="-2.4812">
        <ele>12</ele>
        <time>2021-07-21T17:57:57Z</time>
      </trkpt>
      <trkpt lat="47.47052" lon="-2.48141">
        <ele>9</ele>
        <time>2021-07-21T17:58:25Z</time>
      </trkpt>
      <trkpt lat="47.47185" lon="-2.48133">
        <ele>11</ele>
        <time>2021-07-21T17:58:56Z</time>
      </trkpt>
      <trkpt lat="47.47345" lon="-2.48143">
        <ele>16</ele>
        <time>2021-07-21T17:59:33Z</time>
      </trkpt>
      <trkpt lat="47.47613" lon="-2.48068">
        <ele>19</ele>
        <time>2021-07-21T18:00:37Z</time>
      </trkpt>
      <trkpt lat="47.47617" lon="-2.48208">
        <ele>18</ele>
        <time>2021-07-21T18:00:59Z</time>
      </trkpt>
      <trkpt lat="47.47626" lon="-2.48391">
        <ele>19</ele>
        <time>2021-07-21T18:01:28Z</time>
      </trkpt>
      <trkpt lat="47.47656" lon="-2.48494">
        <ele>18</ele>
        <time>2021-07-21T18:01:46Z</time>
      </trkpt>
      <trkpt lat="47.47791" lon="-2.48533">
        <ele>17</ele>
        <time>2021-07-21T18:02:18Z</time>
      </trkpt>
      <trkpt lat="47.47859" lon="-2.48629">
        <ele>16</ele>
        <time>2021-07-21T18:02:40Z</time>
      </trkpt>
      <trkpt lat="47.47926" lon="-2.48805">
        <ele>15</ele>
        <time>2021-07-21T18:03:12Z</time>
      </trkpt>
      <trkpt lat="47.47997" lon="-2.48892">
        <ele>15</ele>
        <time>2021-07-21T18:03:33Z</time>
      </trkpt>
      <trkpt lat="47.48162" lon="-2.48964">
        <ele>15</ele>
        <time>2021-07-21T18:04:13Z</time>
      </trkpt>
      <trkpt lat="47.48347" lon="-2.48967">
        <ele>14</ele>
        <time>2021-07-21T18:04:57Z</time>
      </trkpt>
      <trkpt lat="47.48438" lon="-2.49068">
        <ele>13</ele>
        <time>2021-07-21T18:05:23Z</time>
      </trkpt>
      <trkpt lat="47.48456" lon="-2.49133">
        <ele>14</ele>
        <time>2021-07-21T18:05:34Z</time>
      </trkpt>
      <trkpt lat="47.48466" lon="-2.49322">
        <ele>15</ele>
        <time>2021-07-21T18:06:04Z</time>
      </trkpt>
      <trkpt lat="47.48496" lon="-2.49403">
        <ele>14</ele>
        <time>2021-07-21T18:06:19Z</time>
      </trkpt>
      <trkpt lat="47.4858" lon="-2.4967">
        <ele>11</ele>
        <time>2021-07-21T18:07:05Z</time>
      </trkpt>
      <trkpt lat="47.48669" lon="-2.4961">
        <ele>14</ele>
        <time>2021-07-21T18:07:28Z</time>
      </trkpt>
      <trkpt lat="47.48775" lon="-2.49552">
        <ele>16</ele>
        <time>2021-07-21T18:07:55Z</time>
      </trkpt>
      <trkpt lat="47.48837" lon="-2.49507">
        <ele>19</ele>
        <time>2021-07-21T18:08:11Z</time>
      </trkpt>
      <trkpt lat="47.48896" lon="-2.49423">
        <ele>17</ele>
        <time>2021-07-21T18:08:30Z</time>
      </trkpt>
      <trkpt lat="47.48991" lon="-2.49412">
        <ele>14</ele>
        <time>2021-07-21T18:08:52Z</time>
      </trkpt>
      <trkpt lat="47.48977" lon="-2.49674">
        <ele>12</ele>
        <time>2021-07-21T18:09:34Z</time>
      </trkpt>
      <trkpt lat="47.49064" lon="-2.4968">
        <ele>13</ele>
        <time>2021-07-21T18:09:54Z</time>
      </trkpt>
      <trkpt lat="47.49125" lon="-2.49683">
        <ele>14</ele>
        <time>2021-07-21T18:10:08Z</time>
      </trkpt>
      <trkpt lat="47.49179" lon="-2.49706">
        <ele>15</ele>
        <time>2021-07-21T18:10:21Z</time>
      </trkpt>
      <trkpt lat="47.49321" lon="-2.49655">
        <ele>15</ele>
        <time>2021-07-21T18:10:55Z</time>
      </trkpt>
      <trkpt lat="47.49431" lon="-2.49605">
        <ele>14</ele>
        <time>2021-07-21T18:11:22Z</time>
      </trkpt>
      <trkpt lat="47.49472" lon="-2.49479">
        <ele>15</ele>
        <time>2021-07-21T18:11:44Z</time>
      </trkpt>
      <trkpt lat="47.49424" lon="-2.4935">
        <ele>20</ele>
        <time>2021-07-21T18:12:08Z</time>
      </trkpt>
      <trkpt lat="47.4935" lon="-2.49077">
        <ele>19</ele>
        <time>2021-07-21T18:12:54Z</time>
      </trkpt>
      <trkpt lat="47.49209" lon="-2.48717">
        <ele>18</ele>
        <time>2021-07-21T18:14:00Z</time>
      </trkpt>
      <trkpt lat="47.49134" lon="-2.48554">
        <ele>17</ele>
        <time>2021-07-21T18:14:31Z</time>
      </trkpt>
      <trkpt lat="47.49054" lon="-2.48502">
        <ele>17</ele>
        <time>2021-07-21T18:14:51Z</time>
      </trkpt>
      <trkpt lat="47.49021" lon="-2.48509">
        <ele>18</ele>
        <time>2021-07-21T18:14:59Z</time>
      </trkpt>
      <trkpt lat="47.48991" lon="-2.48447">
        <ele>18</ele>
        <time>2021-07-21T18:15:11Z</time>
      </trkpt>
      <trkpt lat="47.48996" lon="-2.48346">
        <ele>16</ele>
        <time>2021-07-21T18:15:27Z</time>
      </trkpt>
      <trkpt lat="47.49059" lon="-2.48288">
        <ele>17</ele>
        <time>2021-07-21T18:15:44Z</time>
      </trkpt>
      <trkpt lat="47.49046" lon="-2.48176">
        <ele>13</ele>
        <time>2021-07-21T18:16:02Z</time>
      </trkpt>
      <trkpt lat="47.49027" lon="-2.48071">
        <ele>8</ele>
        <time>2021-07-21T18:16:19Z</time>
      </trkpt>
      <trkpt lat="47.49015" lon="-2.48016">
        <ele>4</ele>
        <time>2021-07-21T18:16:28Z</time>
      </trkpt>
      <trkpt lat="47.49054" lon="-2.47915">
        <ele>4</ele>
        <time>2021-07-21T18:16:47Z</time>
      </trkpt>
      <trkpt lat="47.48889" lon="-2.47706">
        <ele>4</ele>
        <time>2021-07-21T18:17:38Z</time>
      </trkpt>
      <trkpt lat="47.4883" lon="-2.47627">
        <ele>8</ele>
        <time>2021-07-21T18:17:56Z</time>
      </trkpt>
      <trkpt lat="47.48611" lon="-2.47637">
        <ele>13</ele>
        <time>2021-07-21T18:18:47Z</time>
      </trkpt>
      <trkpt lat="47.48554" lon="-2.47677">
        <ele>13</ele>
        <time>2021-07-21T18:19:02Z</time>
      </trkpt>
      <trkpt lat="47.48525" lon="-2.47627">
        <ele>10</ele>
        <time>2021-07-21T18:19:12Z</time>
      </trkpt>
      <trkpt lat="47.48484" lon="-2.47565">
        <ele>8</ele>
        <time>2021-07-21T18:19:26Z</time>
      </trkpt>
      <trkpt lat="47.48564" lon="-2.47468">
        <ele>6</ele>
        <time>2021-07-21T18:19:50Z</time>
      </trkpt>
      <trkpt lat="47.4864" lon="-2.47352">
        <ele>4</ele>
        <time>2021-07-21T18:20:16Z</time>
      </trkpt>
      <trkpt lat="47.48628" lon="-2.47197">
        <ele>2</ele>
        <time>2021-07-21T18:20:40Z</time>
      </trkpt>
      <trkpt lat="47.48579" lon="-2.47125">
        <ele>2</ele>
        <time>2021-07-21T18:20:57Z</time>
      </trkpt>
      <trkpt lat="47.48601" lon="-2.46995">
        <ele>3</ele>
        <time>2021-07-21T18:21:18Z</time>
      </trkpt>
      <trkpt lat="47.48647" lon="-2.46627">
        <ele>4</ele>
        <time>2021-07-21T18:22:17Z</time>
      </trkpt>
      <trkpt lat="47.48686" lon="-2.46353">
        <ele>4</ele>
        <time>2021-07-21T18:23:01Z</time>
      </trkpt>
      <trkpt lat="47.48762" lon="-2.46158">
        <ele>3</ele>
        <time>2021-07-21T18:23:36Z</time>
      </trkpt>
      <trkpt lat="47.48869" lon="-2.45775">
        <ele>3</ele>
        <time>2021-07-21T18:24:42Z</time>
      </trkpt>
      <trkpt lat="47.48915" lon="-2.45342">
        <ele>1</ele>
        <time>2021-07-21T18:25:51Z</time>
      </trkpt>
      <trkpt lat="47.48917" lon="-2.45341">
        <ele>1</ele>
        <time>2021-07-21T14:12:32Z</time>
      </trkpt>
      <trkpt lat="47.4896" lon="-2.45156">
        <ele>5</ele>
        <time>2021-07-21T14:13:03Z</time>
      </trkpt>
      <trkpt lat="47.49009" lon="-2.45057">
        <ele>4</ele>
        <time>2021-07-21T14:13:22Z</time>
      </trkpt>
      <trkpt lat="47.49091" lon="-2.44972">
        <ele>4</ele>
        <time>2021-07-21T14:13:46Z</time>
      </trkpt>
      <trkpt lat="47.49108" lon="-2.4486">
        <ele>9</ele>
        <time>2021-07-21T14:14:04Z</time>
      </trkpt>
      <trkpt lat="47.49111" lon="-2.44757">
        <ele>16</ele>
        <time>2021-07-21T14:14:20Z</time>
      </trkpt>
      <trkpt lat="47.49099" lon="-2.44632">
        <ele>19</ele>
        <time>2021-07-21T14:14:40Z</time>
      </trkpt>
      <trkpt lat="47.49096" lon="-2.44521">
        <ele>20</ele>
        <time>2021-07-21T14:14:57Z</time>
      </trkpt>
      <trkpt lat="47.49163" lon="-2.44471">
        <ele>18</ele>
        <time>2021-07-21T14:15:15Z</time>
      </trkpt>
      <trkpt lat="47.49164" lon="-2.44395">
        <ele>18</ele>
        <time>2021-07-21T14:15:27Z</time>
      </trkpt>
      <trkpt lat="47.49138" lon="-2.44313">
        <ele>20</ele>
        <time>2021-07-21T14:15:41Z</time>
      </trkpt>
      <trkpt lat="47.49147" lon="-2.44271">
        <ele>19</ele>
        <time>2021-07-21T14:15:48Z</time>
      </trkpt>
      <trkpt lat="47.49187" lon="-2.44254">
        <ele>18</ele>
        <time>2021-07-21T14:15:58Z</time>
      </trkpt>
      <trkpt lat="47.49214" lon="-2.44232">
        <ele>16</ele>
        <time>2021-07-21T14:16:05Z</time>
      </trkpt>
      <trkpt lat="47.49223" lon="-2.44187">
        <ele>16</ele>
        <time>2021-07-21T14:16:13Z</time>
      </trkpt>
      <trkpt lat="47.49247" lon="-2.44157">
        <ele>15</ele>
        <time>2021-07-21T14:16:20Z</time>
      </trkpt>
      <trkpt lat="47.4929" lon="-2.44142">
        <ele>12</ele>
        <time>2021-07-21T14:16:30Z</time>
      </trkpt>
      <trkpt lat="47.49338" lon="-2.44132">
        <ele>8</ele>
        <time>2021-07-21T14:16:42Z</time>
      </trkpt>
      <trkpt lat="47.49381" lon="-2.44128">
        <ele>6</ele>
        <time>2021-07-21T14:16:52Z</time>
      </trkpt>
      <trkpt lat="47.49397" lon="-2.44095">
        <ele>4</ele>
        <time>2021-07-21T14:16:58Z</time>
      </trkpt>
      <trkpt lat="47.49384" lon="-2.44055">
        <ele>4</ele>
        <time>2021-07-21T14:17:05Z</time>
      </trkpt>
      <trkpt lat="47.49365" lon="-2.44038">
        <ele>4</ele>
        <time>2021-07-21T14:17:10Z</time>
      </trkpt>
      <trkpt lat="47.49334" lon="-2.44034">
        <ele>6</ele>
        <time>2021-07-21T14:17:17Z</time>
      </trkpt>
      <trkpt lat="47.49302" lon="-2.44025">
        <ele>7</ele>
        <time>2021-07-21T14:17:25Z</time>
      </trkpt>
      <trkpt lat="47.49274" lon="-2.44005">
        <ele>7</ele>
        <time>2021-07-21T14:17:32Z</time>
      </trkpt>
      <trkpt lat="47.4924" lon="-2.43975">
        <ele>10</ele>
        <time>2021-07-21T14:17:42Z</time>
      </trkpt>
      <trkpt lat="47.49214" lon="-2.43956">
        <ele>11</ele>
        <time>2021-07-21T14:17:48Z</time>
      </trkpt>
      <trkpt lat="47.49195" lon="-2.43929">
        <ele>13</ele>
        <time>2021-07-21T14:17:54Z</time>
      </trkpt>
      <trkpt lat="47.49155" lon="-2.43859">
        <ele>16</ele>
        <time>2021-07-21T14:18:09Z</time>
      </trkpt>
      <trkpt lat="47.49114" lon="-2.43814">
        <ele>18</ele>
        <time>2021-07-21T14:18:21Z</time>
      </trkpt>
      <trkpt lat="47.49073" lon="-2.43762">
        <ele>20</ele>
        <time>2021-07-21T14:18:33Z</time>
      </trkpt>
      <trkpt lat="47.4903" lon="-2.43705">
        <ele>22</ele>
        <time>2021-07-21T14:18:47Z</time>
      </trkpt>
      <trkpt lat="47.48994" lon="-2.43647">
        <ele>23</ele>
        <time>2021-07-21T14:18:59Z</time>
      </trkpt>
      <trkpt lat="47.48974" lon="-2.43623">
        <ele>23</ele>
        <time>2021-07-21T14:19:05Z</time>
      </trkpt>
      <trkpt lat="47.48951" lon="-2.43609">
        <ele>23</ele>
        <time>2021-07-21T14:19:11Z</time>
      </trkpt>
      <trkpt lat="47.48958" lon="-2.43571">
        <ele>23</ele>
        <time>2021-07-21T14:19:17Z</time>
      </trkpt>
      <trkpt lat="47.48972" lon="-2.43515">
        <ele>23</ele>
        <time>2021-07-21T14:19:27Z</time>
      </trkpt>
      <trkpt lat="47.48979" lon="-2.43471">
        <ele>24</ele>
        <time>2021-07-21T14:19:34Z</time>
      </trkpt>
      <trkpt lat="47.48993" lon="-2.43403">
        <ele>25</ele>
        <time>2021-07-21T14:19:45Z</time>
      </trkpt>
      <trkpt lat="47.48996" lon="-2.43331">
        <ele>26</ele>
        <time>2021-07-21T14:19:57Z</time>
      </trkpt>
      <trkpt lat="47.48989" lon="-2.43265">
        <ele>26</ele>
        <time>2021-07-21T14:20:07Z</time>
      </trkpt>
      <trkpt lat="47.48994" lon="-2.43202">
        <ele>26</ele>
        <time>2021-07-21T14:20:17Z</time>
      </trkpt>
      <trkpt lat="47.48987" lon="-2.43148">
        <ele>26</ele>
        <time>2021-07-21T14:20:26Z</time>
      </trkpt>
      <trkpt lat="47.48973" lon="-2.43099">
        <ele>25</ele>
        <time>2021-07-21T14:20:34Z</time>
      </trkpt>
      <trkpt lat="47.48957" lon="-2.43042">
        <ele>23</ele>
        <time>2021-07-21T14:20:44Z</time>
      </trkpt>
      <trkpt lat="47.48945" lon="-2.42973">
        <ele>20</ele>
        <time>2021-07-21T14:20:55Z</time>
      </trkpt>
      <trkpt lat="47.48954" lon="-2.42907">
        <ele>18</ele>
        <time>2021-07-21T14:21:06Z</time>
      </trkpt>
      <trkpt lat="47.48953" lon="-2.42849">
        <ele>16</ele>
        <time>2021-07-21T14:21:15Z</time>
      </trkpt>
      <trkpt lat="47.48932" lon="-2.42837">
        <ele>15</ele>
        <time>2021-07-21T14:21:20Z</time>
      </trkpt>
      <trkpt lat="47.48895" lon="-2.42844">
        <ele>13</ele>
        <time>2021-07-21T14:21:29Z</time>
      </trkpt>
      <trkpt lat="47.48863" lon="-2.42847">
        <ele>12</ele>
        <time>2021-07-21T14:21:36Z</time>
      </trkpt>
      <trkpt lat="47.48834" lon="-2.42834">
        <ele>10</ele>
        <time>2021-07-21T14:21:43Z</time>
      </trkpt>
      <trkpt lat="47.48782" lon="-2.42809">
        <ele>8</ele>
        <time>2021-07-21T14:21:56Z</time>
      </trkpt>
      <trkpt lat="47.48694" lon="-2.42784">
        <ele>6</ele>
        <time>2021-07-21T14:22:17Z</time>
      </trkpt>
      <trkpt lat="47.48619" lon="-2.42749">
        <ele>5</ele>
        <time>2021-07-21T14:22:36Z</time>
      </trkpt>
      <trkpt lat="47.48596" lon="-2.427">
        <ele>4</ele>
        <time>2021-07-21T14:22:45Z</time>
      </trkpt>
      <trkpt lat="47.48529" lon="-2.423">
        <ele>5</ele>
        <time>2021-07-21T14:23:50Z</time>
      </trkpt>
      <trkpt lat="47.48545" lon="-2.42216">
        <ele>7</ele>
        <time>2021-07-21T14:24:04Z</time>
      </trkpt>
      <trkpt lat="47.48647" lon="-2.42122">
        <ele>5</ele>
        <time>2021-07-21T14:24:32Z</time>
      </trkpt>
      <trkpt lat="47.4878" lon="-2.42015">
        <ele>8</ele>
        <time>2021-07-21T14:25:07Z</time>
      </trkpt>
      <trkpt lat="47.48833" lon="-2.41877">
        <ele>11</ele>
        <time>2021-07-21T14:25:32Z</time>
      </trkpt>
      <trkpt lat="47.48772" lon="-2.41757">
        <ele>15</ele>
        <time>2021-07-21T14:25:56Z</time>
      </trkpt>
      <trkpt lat="47.48737" lon="-2.41714">
        <ele>16</ele>
        <time>2021-07-21T14:26:07Z</time>
      </trkpt>
      <trkpt lat="47.48772" lon="-2.41585">
        <ele>18</ele>
        <time>2021-07-21T14:26:28Z</time>
      </trkpt>
      <trkpt lat="47.48766" lon="-2.41474">
        <ele>21</ele>
        <time>2021-07-21T14:26:46Z</time>
      </trkpt>
      <trkpt lat="47.48812" lon="-2.41328">
        <ele>23</ele>
        <time>2021-07-21T14:27:11Z</time>
      </trkpt>
      <trkpt lat="47.48856" lon="-2.41225">
        <ele>24</ele>
        <time>2021-07-21T14:27:31Z</time>
      </trkpt>
      <trkpt lat="47.48914" lon="-2.41105">
        <ele>25</ele>
        <time>2021-07-21T14:27:54Z</time>
      </trkpt>
      <trkpt lat="47.48809" lon="-2.4095">
        <ele>23</ele>
        <time>2021-07-21T14:28:29Z</time>
      </trkpt>
      <trkpt lat="47.4878" lon="-2.41006">
        <ele>25</ele>
        <time>2021-07-21T14:28:40Z</time>
      </trkpt>
      <trkpt lat="47.48717" lon="-2.41015">
        <ele>24</ele>
        <time>2021-07-21T14:28:55Z</time>
      </trkpt>
      <trkpt lat="47.48632" lon="-2.41152">
        <ele>24</ele>
        <time>2021-07-21T14:29:24Z</time>
      </trkpt>
      <trkpt lat="47.48554" lon="-2.41212">
        <ele>29</ele>
        <time>2021-07-21T14:29:44Z</time>
      </trkpt>
      <trkpt lat="47.48418" lon="-2.41053">
        <ele>21</ele>
        <time>2021-07-21T14:30:25Z</time>
      </trkpt>
      <trkpt lat="47.48348" lon="-2.4098">
        <ele>20</ele>
        <time>2021-07-21T14:30:45Z</time>
      </trkpt>
      <trkpt lat="47.48284" lon="-2.40856">
        <ele>19</ele>
        <time>2021-07-21T14:31:10Z</time>
      </trkpt>
      <trkpt lat="47.48238" lon="-2.40611">
        <ele>17</ele>
        <time>2021-07-21T14:31:50Z</time>
      </trkpt>
      <trkpt lat="47.48255" lon="-2.40474">
        <ele>19</ele>
        <time>2021-07-21T14:32:12Z</time>
      </trkpt>
      <trkpt lat="47.48215" lon="-2.40311">
        <ele>22</ele>
        <time>2021-07-21T14:32:39Z</time>
      </trkpt>
      <trkpt lat="47.48171" lon="-2.40204">
        <ele>24</ele>
        <time>2021-07-21T14:32:59Z</time>
      </trkpt>
      <trkpt lat="47.48189" lon="-2.40032">
        <ele>23</ele>
        <time>2021-07-21T14:33:26Z</time>
      </trkpt>
      <trkpt lat="47.48197" lon="-2.39869">
        <ele>25</ele>
        <time>2021-07-21T14:33:52Z</time>
      </trkpt>
      <trkpt lat="47.48177" lon="-2.3971">
        <ele>28</ele>
        <time>2021-07-21T14:34:18Z</time>
      </trkpt>
      <trkpt lat="47.48237" lon="-2.39715">
        <ele>25</ele>
        <time>2021-07-21T14:34:32Z</time>
      </trkpt>
      <trkpt lat="47.4825" lon="-2.3974">
        <ele>24</ele>
        <time>2021-07-21T14:34:37Z</time>
      </trkpt>
      <trkpt lat="47.483" lon="-2.39861">
        <ele>21</ele>
        <time>2021-07-21T14:34:59Z</time>
      </trkpt>
      <trkpt lat="47.48451" lon="-2.39898">
        <ele>19</ele>
        <time>2021-07-21T14:35:35Z</time>
      </trkpt>
      <trkpt lat="47.48561" lon="-2.39943">
        <ele>21</ele>
        <time>2021-07-21T14:36:01Z</time>
      </trkpt>
      <trkpt lat="47.4865" lon="-2.39945">
        <ele>23</ele>
        <time>2021-07-21T14:36:22Z</time>
      </trkpt>
      <trkpt lat="47.48776" lon="-2.399">
        <ele>28</ele>
        <time>2021-07-21T14:36:52Z</time>
      </trkpt>
      <trkpt lat="47.4883" lon="-2.39796">
        <ele>29</ele>
        <time>2021-07-21T14:37:13Z</time>
      </trkpt>
      <trkpt lat="47.48801" lon="-2.39659">
        <ele>31</ele>
        <time>2021-07-21T14:37:36Z</time>
      </trkpt>
      <trkpt lat="47.4881" lon="-2.39489">
        <ele>33</ele>
        <time>2021-07-21T14:38:03Z</time>
      </trkpt>
      <trkpt lat="47.48798" lon="-2.39363">
        <ele>33</ele>
        <time>2021-07-21T14:38:23Z</time>
      </trkpt>
      <trkpt lat="47.48896" lon="-2.39316">
        <ele>30</ele>
        <time>2021-07-21T14:38:47Z</time>
      </trkpt>
      <trkpt lat="47.48915" lon="-2.39142">
        <ele>25</ele>
        <time>2021-07-21T14:39:15Z</time>
      </trkpt>
      <trkpt lat="47.48928" lon="-2.38991">
        <ele>23</ele>
        <time>2021-07-21T14:39:39Z</time>
      </trkpt>
      <trkpt lat="47.49127" lon="-2.38922">
        <ele>23</ele>
        <time>2021-07-21T14:40:26Z</time>
      </trkpt>
      <trkpt lat="47.49364" lon="-2.38893">
        <ele>14</ele>
        <time>2021-07-21T14:41:22Z</time>
      </trkpt>
      <trkpt lat="47.49425" lon="-2.38892">
        <ele>10</ele>
        <time>2021-07-21T14:41:36Z</time>
      </trkpt>
      <trkpt lat="47.49456" lon="-2.38843">
        <ele>11</ele>
        <time>2021-07-21T14:41:47Z</time>
      </trkpt>
      <trkpt lat="47.49464" lon="-2.38803">
        <ele>12</ele>
        <time>2021-07-21T14:41:53Z</time>
      </trkpt>
      <trkpt lat="47.49414" lon="-2.38783">
        <ele>13</ele>
        <time>2021-07-21T14:42:05Z</time>
      </trkpt>
      <trkpt lat="47.49376" lon="-2.38741">
        <ele>17</ele>
        <time>2021-07-21T14:42:17Z</time>
      </trkpt>
      <trkpt lat="47.49339" lon="-2.38702">
        <ele>18</ele>
        <time>2021-07-21T14:42:27Z</time>
      </trkpt>
      <trkpt lat="47.49249" lon="-2.38578">
        <ele>24</ele>
        <time>2021-07-21T14:42:56Z</time>
      </trkpt>
      <trkpt lat="47.49141" lon="-2.38484">
        <ele>31</ele>
        <time>2021-07-21T14:43:25Z</time>
      </trkpt>
      <trkpt lat="47.48911" lon="-2.38349">
        <ele>36</ele>
        <time>2021-07-21T14:44:23Z</time>
      </trkpt>
      <trkpt lat="47.48717" lon="-2.38263">
        <ele>37</ele>
        <time>2021-07-21T14:45:10Z</time>
      </trkpt>
      <trkpt lat="47.48616" lon="-2.38216">
        <ele>36</ele>
        <time>2021-07-21T14:45:35Z</time>
      </trkpt>
      <trkpt lat="47.4848" lon="-2.3811">
        <ele>38</ele>
        <time>2021-07-21T14:46:11Z</time>
      </trkpt>
      <trkpt lat="47.48373" lon="-2.38012">
        <ele>45</ele>
        <time>2021-07-21T14:46:40Z</time>
      </trkpt>
      <trkpt lat="47.48458" lon="-2.37688">
        <ele>38</ele>
        <time>2021-07-21T14:47:35Z</time>
      </trkpt>
      <trkpt lat="47.48505" lon="-2.37525">
        <ele>37</ele>
        <time>2021-07-21T14:48:03Z</time>
      </trkpt>
      <trkpt lat="47.48505" lon="-2.37456">
        <ele>38</ele>
        <time>2021-07-21T14:48:14Z</time>
      </trkpt>
      <trkpt lat="47.48571" lon="-2.37297">
        <ele>39</ele>
        <time>2021-07-21T14:48:43Z</time>
      </trkpt>
      <trkpt lat="47.48653" lon="-2.37196">
        <ele>40</ele>
        <time>2021-07-21T14:49:08Z</time>
      </trkpt>
      <trkpt lat="47.48659" lon="-2.37111">
        <ele>40</ele>
        <time>2021-07-21T14:49:22Z</time>
      </trkpt>
      <trkpt lat="47.48691" lon="-2.36984">
        <ele>41</ele>
        <time>2021-07-21T14:49:43Z</time>
      </trkpt>
      <trkpt lat="47.48706" lon="-2.36865">
        <ele>42</ele>
        <time>2021-07-21T14:50:02Z</time>
      </trkpt>
      <trkpt lat="47.48757" lon="-2.36849">
        <ele>40</ele>
        <time>2021-07-21T14:50:14Z</time>
      </trkpt>
      <trkpt lat="47.48796" lon="-2.36746">
        <ele>37</ele>
        <time>2021-07-21T14:50:33Z</time>
      </trkpt>
      <trkpt lat="47.48847" lon="-2.36598">
        <ele>36</ele>
        <time>2021-07-21T14:50:59Z</time>
      </trkpt>
      <trkpt lat="47.48896" lon="-2.3644">
        <ele>35</ele>
        <time>2021-07-21T14:51:27Z</time>
      </trkpt>
      <trkpt lat="47.48903" lon="-2.36302">
        <ele>38</ele>
        <time>2021-07-21T14:51:49Z</time>
      </trkpt>
      <trkpt lat="47.48967" lon="-2.36172">
        <ele>41</ele>
        <time>2021-07-21T14:52:14Z</time>
      </trkpt>
      <trkpt lat="47.49028" lon="-2.35909">
        <ele>40</ele>
        <time>2021-07-21T14:52:58Z</time>
      </trkpt>
      <trkpt lat="47.49079" lon="-2.35743">
        <ele>35</ele>
        <time>2021-07-21T14:53:27Z</time>
      </trkpt>
      <trkpt lat="47.49098" lon="-2.35606">
        <ele>30</ele>
        <time>2021-07-21T14:53:49Z</time>
      </trkpt>
      <trkpt lat="47.49098" lon="-2.35379">
        <ele>27</ele>
        <time>2021-07-21T14:54:24Z</time>
      </trkpt>
      <trkpt lat="47.48967" lon="-2.35436">
        <ele>32</ele>
        <time>2021-07-21T14:54:56Z</time>
      </trkpt>
      <trkpt lat="47.4893" lon="-2.35259">
        <ele>32</ele>
        <time>2021-07-21T14:55:26Z</time>
      </trkpt>
      <trkpt lat="47.48937" lon="-2.35083">
        <ele>30</ele>
        <time>2021-07-21T14:55:53Z</time>
      </trkpt>
      <trkpt lat="47.4893" lon="-2.34909">
        <ele>31</ele>
        <time>2021-07-21T14:56:21Z</time>
      </trkpt>
      <trkpt lat="47.48919" lon="-2.3485">
        <ele>32</ele>
        <time>2021-07-21T14:56:31Z</time>
      </trkpt>
      <trkpt lat="47.48942" lon="-2.34833">
        <ele>31</ele>
        <time>2021-07-21T14:56:37Z</time>
      </trkpt>
      <trkpt lat="47.48943" lon="-2.34795">
        <ele>31</ele>
        <time>2021-07-21T14:56:43Z</time>
      </trkpt>
      <trkpt lat="47.48982" lon="-2.34769">
        <ele>30</ele>
        <time>2021-07-21T14:56:53Z</time>
      </trkpt>
      <trkpt lat="47.49002" lon="-2.34748">
        <ele>31</ele>
        <time>2021-07-21T14:56:58Z</time>
      </trkpt>
      <trkpt lat="47.49007" lon="-2.34712">
        <ele>31</ele>
        <time>2021-07-21T14:57:04Z</time>
      </trkpt>
      <trkpt lat="47.48999" lon="-2.34675">
        <ele>32</ele>
        <time>2021-07-21T14:57:10Z</time>
      </trkpt>
      <trkpt lat="47.48991" lon="-2.34648">
        <ele>32</ele>
        <time>2021-07-21T14:57:15Z</time>
      </trkpt>
      <trkpt lat="47.48982" lon="-2.34627">
        <ele>32</ele>
        <time>2021-07-21T14:57:19Z</time>
      </trkpt>
      <trkpt lat="47.48974" lon="-2.34597">
        <ele>32</ele>
        <time>2021-07-21T14:57:24Z</time>
      </trkpt>
      <trkpt lat="47.48978" lon="-2.3457">
        <ele>32</ele>
        <time>2021-07-21T14:57:28Z</time>
      </trkpt>
      <trkpt lat="47.49011" lon="-2.34581">
        <ele>31</ele>
        <time>2021-07-21T14:57:36Z</time>
      </trkpt>
      <trkpt lat="47.49043" lon="-2.34574">
        <ele>29</ele>
        <time>2021-07-21T14:57:44Z</time>
      </trkpt>
      <trkpt lat="47.49059" lon="-2.34553">
        <ele>29</ele>
        <time>2021-07-21T14:57:49Z</time>
      </trkpt>
      <trkpt lat="47.49079" lon="-2.34522">
        <ele>28</ele>
        <time>2021-07-21T14:57:55Z</time>
      </trkpt>
      <trkpt lat="47.49094" lon="-2.34481">
        <ele>28</ele>
        <time>2021-07-21T14:58:03Z</time>
      </trkpt>
      <trkpt lat="47.49108" lon="-2.34437">
        <ele>29</ele>
        <time>2021-07-21T14:58:10Z</time>
      </trkpt>
      <trkpt lat="47.49123" lon="-2.34388">
        <ele>30</ele>
        <time>2021-07-21T14:58:19Z</time>
      </trkpt>
      <trkpt lat="47.49147" lon="-2.34343">
        <ele>30</ele>
        <time>2021-07-21T14:58:28Z</time>
      </trkpt>
      <trkpt lat="47.49188" lon="-2.34306">
        <ele>30</ele>
        <time>2021-07-21T14:58:39Z</time>
      </trkpt>
      <trkpt lat="47.49236" lon="-2.34306">
        <ele>30</ele>
        <time>2021-07-21T14:58:50Z</time>
      </trkpt>
      <trkpt lat="47.49296" lon="-2.34301">
        <ele>31</ele>
        <time>2021-07-21T14:59:04Z</time>
      </trkpt>
      <trkpt lat="47.49292" lon="-2.34256">
        <ele>33</ele>
        <time>2021-07-21T14:59:12Z</time>
      </trkpt>
      <trkpt lat="47.49283" lon="-2.34191">
        <ele>35</ele>
        <time>2021-07-21T14:59:22Z</time>
      </trkpt>
      <trkpt lat="47.49276" lon="-2.3414">
        <ele>37</ele>
        <time>2021-07-21T14:59:30Z</time>
      </trkpt>
      <trkpt lat="47.49267" lon="-2.34113">
        <ele>37</ele>
        <time>2021-07-21T14:59:35Z</time>
      </trkpt>
      <trkpt lat="47.49235" lon="-2.34075">
        <ele>38</ele>
        <time>2021-07-21T14:59:45Z</time>
      </trkpt>
      <trkpt lat="47.4927" lon="-2.33994">
        <ele>39</ele>
        <time>2021-07-21T15:00:00Z</time>
      </trkpt>
      <trkpt lat="47.49303" lon="-2.33906">
        <ele>42</ele>
        <time>2021-07-21T15:00:16Z</time>
      </trkpt>
      <trkpt lat="47.4933" lon="-2.33849">
        <ele>43</ele>
        <time>2021-07-21T15:00:27Z</time>
      </trkpt>
      <trkpt lat="47.49374" lon="-2.33793">
        <ele>43</ele>
        <time>2021-07-21T15:00:40Z</time>
      </trkpt>
      <trkpt lat="47.49432" lon="-2.33697">
        <ele>44</ele>
        <time>2021-07-21T15:01:01Z</time>
      </trkpt>
      <trkpt lat="47.49388" lon="-2.33668">
        <ele>44</ele>
        <time>2021-07-21T15:01:12Z</time>
      </trkpt>
      <trkpt lat="47.49539" lon="-2.33529">
        <ele>46</ele>
        <time>2021-07-21T15:01:53Z</time>
      </trkpt>
      <trkpt lat="47.49641" lon="-2.33467">
        <ele>44</ele>
        <time>2021-07-21T15:02:19Z</time>
      </trkpt>
      <trkpt lat="47.49711" lon="-2.3343">
        <ele>43</ele>
        <time>2021-07-21T15:02:36Z</time>
      </trkpt>
      <trkpt lat="47.49834" lon="-2.33404">
        <ele>41</ele>
        <time>2021-07-21T15:03:05Z</time>
      </trkpt>
      <trkpt lat="47.50044" lon="-2.33383">
        <ele>37</ele>
        <time>2021-07-21T15:03:55Z</time>
      </trkpt>
      <trkpt lat="47.49866" lon="-2.3304">
        <ele>38</ele>
        <time>2021-07-21T15:05:03Z</time>
      </trkpt>
      <trkpt lat="47.50017" lon="-2.32813">
        <ele>34</ele>
        <time>2021-07-21T15:05:53Z</time>
      </trkpt>
      <trkpt lat="47.49913" lon="-2.32611">
        <ele>32</ele>
        <time>2021-07-21T15:06:33Z</time>
      </trkpt>
      <trkpt lat="47.5002" lon="-2.3238">
        <ele>30</ele>
        <time>2021-07-21T15:07:17Z</time>
      </trkpt>
      <trkpt lat="47.50052" lon="-2.32271">
        <ele>28</ele>
        <time>2021-07-21T15:07:36Z</time>
      </trkpt>
      <trkpt lat="47.50171" lon="-2.31824">
        <ele>19</ele>
        <time>2021-07-21T15:08:52Z</time>
      </trkpt>
      <trkpt lat="47.5029" lon="-2.31759">
        <ele>21</ele>
        <time>2021-07-21T15:09:22Z</time>
      </trkpt>
      <trkpt lat="47.50269" lon="-2.31629">
        <ele>24</ele>
        <time>2021-07-21T15:09:43Z</time>
      </trkpt>
      <trkpt lat="47.50359" lon="-2.31535">
        <ele>30</ele>
        <time>2021-07-21T15:10:08Z</time>
      </trkpt>
      <trkpt lat="47.50439" lon="-2.31297">
        <ele>35</ele>
        <time>2021-07-21T15:10:50Z</time>
      </trkpt>
      <trkpt lat="47.5049" lon="-2.31207">
        <ele>34</ele>
        <time>2021-07-21T15:11:09Z</time>
      </trkpt>
      <trkpt lat="47.50659" lon="-2.31142">
        <ele>42</ele>
        <time>2021-07-21T15:11:50Z</time>
      </trkpt>
      <trkpt lat="47.50651" lon="-2.31257">
        <ele>39</ele>
        <time>2021-07-21T15:12:08Z</time>
      </trkpt>
      <trkpt lat="47.50663" lon="-2.31362">
        <ele>36</ele>
        <time>2021-07-21T15:12:25Z</time>
      </trkpt>
      <trkpt lat="47.50729" lon="-2.31467">
        <ele>35</ele>
        <time>2021-07-21T15:12:47Z</time>
      </trkpt>
      <trkpt lat="47.50854" lon="-2.31488">
        <ele>42</ele>
        <time>2021-07-21T15:13:17Z</time>
      </trkpt>
      <trkpt lat="47.50934" lon="-2.31532">
        <ele>42</ele>
        <time>2021-07-21T15:13:37Z</time>
      </trkpt>
      <trkpt lat="47.51032" lon="-2.3147">
        <ele>41</ele>
        <time>2021-07-21T15:14:01Z</time>
      </trkpt>
      <trkpt lat="47.51061" lon="-2.31362">
        <ele>39</ele>
        <time>2021-07-21T15:14:20Z</time>
      </trkpt>
      <trkpt lat="47.51151" lon="-2.3134">
        <ele>36</ele>
        <time>2021-07-21T15:14:41Z</time>
      </trkpt>
      <trkpt lat="47.51214" lon="-2.31297">
        <ele>37</ele>
        <time>2021-07-21T15:14:57Z</time>
      </trkpt>
      <trkpt lat="47.5123" lon="-2.31256">
        <ele>38</ele>
        <time>2021-07-21T15:15:05Z</time>
      </trkpt>
      <trkpt lat="47.51231" lon="-2.31191">
        <ele>39</ele>
        <time>2021-07-21T15:15:15Z</time>
      </trkpt>
      <trkpt lat="47.51214" lon="-2.31109">
        <ele>38</ele>
        <time>2021-07-21T15:15:29Z</time>
      </trkpt>
      <trkpt lat="47.512" lon="-2.30944">
        <ele>38</ele>
        <time>2021-07-21T15:15:55Z</time>
      </trkpt>
      <trkpt lat="47.51197" lon="-2.30826">
        <ele>38</ele>
        <time>2021-07-21T15:16:13Z</time>
      </trkpt>
      <trkpt lat="47.51195" lon="-2.3074">
        <ele>38</ele>
        <time>2021-07-21T15:16:27Z</time>
      </trkpt>
      <trkpt lat="47.51226" lon="-2.30688">
        <ele>39</ele>
        <time>2021-07-21T15:16:38Z</time>
      </trkpt>
      <trkpt lat="47.51327" lon="-2.30652">
        <ele>37</ele>
        <time>2021-07-21T15:17:02Z</time>
      </trkpt>
      <trkpt lat="47.5142" lon="-2.30583">
        <ele>31</ele>
        <time>2021-07-21T15:17:26Z</time>
      </trkpt>
      <trkpt lat="47.51529" lon="-2.30529">
        <ele>24</ele>
        <time>2021-07-21T15:17:53Z</time>
      </trkpt>
      <trkpt lat="47.51642" lon="-2.30542">
        <ele>20</ele>
        <time>2021-07-21T15:18:20Z</time>
      </trkpt>
      <trkpt lat="47.51713" lon="-2.30577">
        <ele>13</ele>
        <time>2021-07-21T15:18:37Z</time>
      </trkpt>
      <trkpt lat="47.5173" lon="-2.30499">
        <ele>12</ele>
        <time>2021-07-21T15:18:50Z</time>
      </trkpt>
      <trkpt lat="47.51727" lon="-2.30351">
        <ele>12</ele>
        <time>2021-07-21T15:19:14Z</time>
      </trkpt>
      <trkpt lat="47.51769" lon="-2.30345">
        <ele>13</ele>
        <time>2021-07-21T15:19:23Z</time>
      </trkpt>
      <trkpt lat="47.51774" lon="-2.30398">
        <ele>12</ele>
        <time>2021-07-21T15:19:32Z</time>
      </trkpt>
      <trkpt lat="47.51782" lon="-2.30465">
        <ele>11</ele>
        <time>2021-07-21T15:19:43Z</time>
      </trkpt>
      <trkpt lat="47.51795" lon="-2.30515">
        <ele>10</ele>
        <time>2021-07-21T15:19:51Z</time>
      </trkpt>
      <trkpt lat="47.51809" lon="-2.30568">
        <ele>8</ele>
        <time>2021-07-21T15:20:00Z</time>
      </trkpt>
      <trkpt lat="47.51811" lon="-2.30611">
        <ele>6</ele>
        <time>2021-07-21T15:20:07Z</time>
      </trkpt>
      <trkpt lat="47.51818" lon="-2.3065">
        <ele>4</ele>
        <time>2021-07-21T15:20:13Z</time>
      </trkpt>
      <trkpt lat="47.51836" lon="-2.30675">
        <ele>3</ele>
        <time>2021-07-21T15:20:19Z</time>
      </trkpt>
      <trkpt lat="47.5186" lon="-2.3068">
        <ele>3</ele>
        <time>2021-07-21T15:20:25Z</time>
      </trkpt>
      <trkpt lat="47.51877" lon="-2.30658">
        <ele>4</ele>
        <time>2021-07-21T15:20:30Z</time>
      </trkpt>
      <trkpt lat="47.51876" lon="-2.30621">
        <ele>5</ele>
        <time>2021-07-21T15:20:36Z</time>
      </trkpt>
      <trkpt lat="47.51871" lon="-2.30568">
        <ele>7</ele>
        <time>2021-07-21T15:20:44Z</time>
      </trkpt>
      <trkpt lat="47.51912" lon="-2.30543">
        <ele>8</ele>
        <time>2021-07-21T15:20:54Z</time>
      </trkpt>
      <trkpt lat="47.51967" lon="-2.30524">
        <ele>6</ele>
        <time>2021-07-21T15:21:08Z</time>
      </trkpt>
      <trkpt lat="47.52019" lon="-2.30504">
        <ele>5</ele>
        <time>2021-07-21T15:21:20Z</time>
      </trkpt>
      <trkpt lat="47.52083" lon="-2.30453">
        <ele>11</ele>
        <time>2021-07-21T15:21:37Z</time>
      </trkpt>
      <trkpt lat="47.52147" lon="-2.30489">
        <ele>10</ele>
        <time>2021-07-21T15:21:53Z</time>
      </trkpt>
      <trkpt lat="47.52152" lon="-2.30474">
        <ele>13</ele>
        <time>2021-07-21T15:21:56Z</time>
      </trkpt>
      <trkpt lat="47.52115" lon="-2.30453">
        <ele>13</ele>
        <time>2021-07-21T15:22:05Z</time>
      </trkpt>
      <trkpt lat="47.52093" lon="-2.3043">
        <ele>14</ele>
        <time>2021-07-21T15:22:11Z</time>
      </trkpt>
      <trkpt lat="47.5209" lon="-2.30403">
        <ele>17</ele>
        <time>2021-07-21T15:22:16Z</time>
      </trkpt>
      <trkpt lat="47.52113" lon="-2.30419">
        <ele>18</ele>
        <time>2021-07-21T15:22:22Z</time>
      </trkpt>
      <trkpt lat="47.52138" lon="-2.30428">
        <ele>19</ele>
        <time>2021-07-21T15:22:28Z</time>
      </trkpt>
      <trkpt lat="47.52168" lon="-2.30442">
        <ele>20</ele>
        <time>2021-07-21T15:22:35Z</time>
      </trkpt>
      <trkpt lat="47.52196" lon="-2.3044">
        <ele>21</ele>
        <time>2021-07-21T15:22:42Z</time>
      </trkpt>
      <trkpt lat="47.52245" lon="-2.30416">
        <ele>30</ele>
        <time>2021-07-21T15:22:54Z</time>
      </trkpt>
      <trkpt lat="47.52318" lon="-2.30373">
        <ele>41</ele>
        <time>2021-07-21T15:23:12Z</time>
      </trkpt>
      <trkpt lat="47.52383" lon="-2.30303">
        <ele>42</ele>
        <time>2021-07-21T15:23:31Z</time>
      </trkpt>
      <trkpt lat="47.52441" lon="-2.30242">
        <ele>40</ele>
        <time>2021-07-21T15:23:47Z</time>
      </trkpt>
      <trkpt lat="47.52455" lon="-2.30198">
        <ele>42</ele>
        <time>2021-07-21T15:23:55Z</time>
      </trkpt>
      <trkpt lat="47.52486" lon="-2.30176">
        <ele>41</ele>
        <time>2021-07-21T15:24:03Z</time>
      </trkpt>
      <trkpt lat="47.52539" lon="-2.30137">
        <ele>37</ele>
        <time>2021-07-21T15:24:17Z</time>
      </trkpt>
      <trkpt lat="47.52532" lon="-2.30052">
        <ele>44</ele>
        <time>2021-07-21T15:24:30Z</time>
      </trkpt>
      <trkpt lat="47.52632" lon="-2.29987">
        <ele>44</ele>
        <time>2021-07-21T15:24:56Z</time>
      </trkpt>
      <trkpt lat="47.526" lon="-2.29695">
        <ele>49</ele>
        <time>2021-07-21T15:25:42Z</time>
      </trkpt>
      <trkpt lat="47.5275" lon="-2.29637">
        <ele>50</ele>
        <time>2021-07-21T15:26:19Z</time>
      </trkpt>
      <trkpt lat="47.52723" lon="-2.29345">
        <ele>40</ele>
        <time>2021-07-21T15:27:05Z</time>
      </trkpt>
      <trkpt lat="47.5273" lon="-2.29128">
        <ele>38</ele>
        <time>2021-07-21T15:27:39Z</time>
      </trkpt>
      <trkpt lat="47.52699" lon="-2.2893">
        <ele>42</ele>
        <time>2021-07-21T15:28:11Z</time>
      </trkpt>
      <trkpt lat="47.53071" lon="-2.28374">
        <ele>16</ele>
        <time>2021-07-21T15:30:15Z</time>
      </trkpt>
      <trkpt lat="47.53144" lon="-2.28399">
        <ele>17</ele>
        <time>2021-07-21T15:30:32Z</time>
      </trkpt>
      <trkpt lat="47.5323" lon="-2.28396">
        <ele>20</ele>
        <time>2021-07-21T15:30:52Z</time>
      </trkpt>
      <trkpt lat="47.53313" lon="-2.28331">
        <ele>24</ele>
        <time>2021-07-21T15:31:14Z</time>
      </trkpt>
      <trkpt lat="47.53437" lon="-2.28277">
        <ele>29</ele>
        <time>2021-07-21T15:31:45Z</time>
      </trkpt>
      <trkpt lat="47.53499" lon="-2.28257">
        <ele>30</ele>
        <time>2021-07-21T15:31:59Z</time>
      </trkpt>
      <trkpt lat="47.53512" lon="-2.28329">
        <ele>31</ele>
        <time>2021-07-21T15:32:11Z</time>
      </trkpt>
      <trkpt lat="47.53503" lon="-2.28374">
        <ele>29</ele>
        <time>2021-07-21T15:32:19Z</time>
      </trkpt>
      <trkpt lat="47.53539" lon="-2.28425">
        <ele>28</ele>
        <time>2021-07-21T15:32:30Z</time>
      </trkpt>
      <trkpt lat="47.53514" lon="-2.2856">
        <ele>26</ele>
        <time>2021-07-21T15:32:52Z</time>
      </trkpt>
      <trkpt lat="47.53547" lon="-2.28668">
        <ele>27</ele>
        <time>2021-07-21T15:33:11Z</time>
      </trkpt>
      <trkpt lat="47.53551" lon="-2.28761">
        <ele>28</ele>
        <time>2021-07-21T15:33:26Z</time>
      </trkpt>
      <trkpt lat="47.53545" lon="-2.28851">
        <ele>27</ele>
        <time>2021-07-21T15:33:40Z</time>
      </trkpt>
      <trkpt lat="47.53555" lon="-2.28891">
        <ele>27</ele>
        <time>2021-07-21T15:33:47Z</time>
      </trkpt>
      <trkpt lat="47.5363" lon="-2.29025">
        <ele>26</ele>
        <time>2021-07-21T15:34:14Z</time>
      </trkpt>
      <trkpt lat="47.53661" lon="-2.29118">
        <ele>25</ele>
        <time>2021-07-21T15:34:30Z</time>
      </trkpt>
      <trkpt lat="47.53673" lon="-2.29246">
        <ele>21</ele>
        <time>2021-07-21T15:34:51Z</time>
      </trkpt>
      <trkpt lat="47.53682" lon="-2.2934">
        <ele>19</ele>
        <time>2021-07-21T15:35:06Z</time>
      </trkpt>
      <trkpt lat="47.53679" lon="-2.29439">
        <ele>15</ele>
        <time>2021-07-21T15:35:21Z</time>
      </trkpt>
      <trkpt lat="47.53706" lon="-2.2948">
        <ele>15</ele>
        <time>2021-07-21T15:35:30Z</time>
      </trkpt>
      <trkpt lat="47.53737" lon="-2.29494">
        <ele>15</ele>
        <time>2021-07-21T15:35:38Z</time>
      </trkpt>
      <trkpt lat="47.53824" lon="-2.29464">
        <ele>16</ele>
        <time>2021-07-21T15:35:59Z</time>
      </trkpt>
      <trkpt lat="47.53913" lon="-2.29463">
        <ele>13</ele>
        <time>2021-07-21T15:36:20Z</time>
      </trkpt>
      <trkpt lat="47.53959" lon="-2.29579">
        <ele>15</ele>
        <time>2021-07-21T15:36:41Z</time>
      </trkpt>
      <trkpt lat="47.54002" lon="-2.29683">
        <ele>17</ele>
        <time>2021-07-21T15:37:00Z</time>
      </trkpt>
      <trkpt lat="47.5406" lon="-2.29725">
        <ele>18</ele>
        <time>2021-07-21T15:37:15Z</time>
      </trkpt>
      <trkpt lat="47.54193" lon="-2.29725">
        <ele>20</ele>
        <time>2021-07-21T15:37:46Z</time>
      </trkpt>
      <trkpt lat="47.54351" lon="-2.29712">
        <ele>24</ele>
        <time>2021-07-21T15:38:23Z</time>
      </trkpt>
      <trkpt lat="47.54535" lon="-2.29697">
        <ele>32</ele>
        <time>2021-07-21T15:39:06Z</time>
      </trkpt>
      <trkpt lat="47.54493" lon="-2.29218">
        <ele>25</ele>
        <time>2021-07-21T15:40:22Z</time>
      </trkpt>
      <trkpt lat="47.54706" lon="-2.29188">
        <ele>24</ele>
        <time>2021-07-21T15:41:12Z</time>
      </trkpt>
      <trkpt lat="47.5473" lon="-2.29172">
        <ele>24</ele>
        <time>2021-07-21T15:41:18Z</time>
      </trkpt>
      <trkpt lat="47.54733" lon="-2.29128">
        <ele>24</ele>
        <time>2021-07-21T15:41:25Z</time>
      </trkpt>
      <trkpt lat="47.54739" lon="-2.29028">
        <ele>22</ele>
        <time>2021-07-21T15:41:41Z</time>
      </trkpt>
      <trkpt lat="47.54737" lon="-2.28861">
        <ele>22</ele>
        <time>2021-07-21T15:42:08Z</time>
      </trkpt>
      <trkpt lat="47.54753" lon="-2.28855">
        <ele>20</ele>
        <time>2021-07-21T15:42:11Z</time>
      </trkpt>
      <trkpt lat="47.54769" lon="-2.2884">
        <ele>20</ele>
        <time>2021-07-21T15:42:16Z</time>
      </trkpt>
      <trkpt lat="47.54789" lon="-2.28835">
        <ele>20</ele>
        <time>2021-07-21T15:42:21Z</time>
      </trkpt>
      <trkpt lat="47.54801" lon="-2.28843">
        <ele>21</ele>
        <time>2021-07-21T15:42:24Z</time>
      </trkpt>
      <trkpt lat="47.54899" lon="-2.28972">
        <ele>20</ele>
        <time>2021-07-21T15:42:54Z</time>
      </trkpt>
      <trkpt lat="47.55028" lon="-2.29152">
        <ele>20</ele>
        <time>2021-07-21T15:43:36Z</time>
      </trkpt>
      <trkpt lat="47.55053" lon="-2.29161">
        <ele>22</ele>
        <time>2021-07-21T15:43:42Z</time>
      </trkpt>
      <trkpt lat="47.55067" lon="-2.29161">
        <ele>23</ele>
        <time>2021-07-21T15:43:45Z</time>
      </trkpt>
      <trkpt lat="47.55188" lon="-2.29133">
        <ele>25</ele>
        <time>2021-07-21T15:44:14Z</time>
      </trkpt>
      <trkpt lat="47.5534" lon="-2.29079">
        <ele>28</ele>
        <time>2021-07-21T15:44:50Z</time>
      </trkpt>
      <trkpt lat="47.55478" lon="-2.29032">
        <ele>34</ele>
        <time>2021-07-21T15:45:23Z</time>
      </trkpt>
      <trkpt lat="47.55489" lon="-2.28935">
        <ele>36</ele>
        <time>2021-07-21T15:45:39Z</time>
      </trkpt>
      <trkpt lat="47.55492" lon="-2.28845">
        <ele>37</ele>
        <time>2021-07-21T15:45:53Z</time>
      </trkpt>
      <trkpt lat="47.55443" lon="-2.28746">
        <ele>39</ele>
        <time>2021-07-21T15:46:12Z</time>
      </trkpt>
      <trkpt lat="47.55421" lon="-2.28652">
        <ele>42</ele>
        <time>2021-07-21T15:46:28Z</time>
      </trkpt>
      <trkpt lat="47.55371" lon="-2.2836">
        <ele>41</ele>
        <time>2021-07-21T15:47:15Z</time>
      </trkpt>
      <trkpt lat="47.55297" lon="-2.28199">
        <ele>44</ele>
        <time>2021-07-21T15:47:46Z</time>
      </trkpt>
      <trkpt lat="47.55235" lon="-2.28122">
        <ele>45</ele>
        <time>2021-07-21T15:48:05Z</time>
      </trkpt>
      <trkpt lat="47.55204" lon="-2.27991">
        <ele>45</ele>
        <time>2021-07-21T15:48:27Z</time>
      </trkpt>
      <trkpt lat="47.5521" lon="-2.27884">
        <ele>43</ele>
        <time>2021-07-21T15:48:44Z</time>
      </trkpt>
      <trkpt lat="47.55162" lon="-2.27832">
        <ele>41</ele>
        <time>2021-07-21T15:48:58Z</time>
      </trkpt>
      <trkpt lat="47.55152" lon="-2.27766">
        <ele>42</ele>
        <time>2021-07-21T15:49:08Z</time>
      </trkpt>
      <trkpt lat="47.55304" lon="-2.27733">
        <ele>45</ele>
        <time>2021-07-21T15:49:44Z</time>
      </trkpt>
      <trkpt lat="47.55452" lon="-2.27749">
        <ele>46</ele>
        <time>2021-07-21T15:50:19Z</time>
      </trkpt>
      <trkpt lat="47.55546" lon="-2.27721">
        <ele>49</ele>
        <time>2021-07-21T15:50:41Z</time>
      </trkpt>
      <trkpt lat="47.55623" lon="-2.27613">
        <ele>52</ele>
        <time>2021-07-21T15:51:06Z</time>
      </trkpt>
      <trkpt lat="47.5581" lon="-2.27341">
        <ele>52</ele>
        <time>2021-07-21T15:52:07Z</time>
      </trkpt>
      <trkpt lat="47.55937" lon="-2.273">
        <ele>54</ele>
        <time>2021-07-21T15:52:37Z</time>
      </trkpt>
      <trkpt lat="47.56122" lon="-2.27231">
        <ele>50</ele>
        <time>2021-07-21T15:53:22Z</time>
      </trkpt>
      <trkpt lat="47.56257" lon="-2.27324">
        <ele>50</ele>
        <time>2021-07-21T15:53:57Z</time>
      </trkpt>
      <trkpt lat="47.56396" lon="-2.27317">
        <ele>56</ele>
        <time>2021-07-21T15:54:29Z</time>
      </trkpt>
      <trkpt lat="47.56501" lon="-2.27279">
        <ele>54</ele>
        <time>2021-07-21T15:54:55Z</time>
      </trkpt>
      <trkpt lat="47.56742" lon="-2.27295">
        <ele>48</ele>
        <time>2021-07-21T15:55:51Z</time>
      </trkpt>
      <trkpt lat="47.56718" lon="-2.27111">
        <ele>45</ele>
        <time>2021-07-21T15:56:20Z</time>
      </trkpt>
      <trkpt lat="47.56667" lon="-2.26819">
        <ele>52</ele>
        <time>2021-07-21T15:57:08Z</time>
      </trkpt>
      <trkpt lat="47.56574" lon="-2.26436">
        <ele>49</ele>
        <time>2021-07-21T15:58:12Z</time>
      </trkpt>
      <trkpt lat="47.56686" lon="-2.2644">
        <ele>49</ele>
        <time>2021-07-21T15:58:38Z</time>
      </trkpt>
      <trkpt lat="47.56791" lon="-2.26425">
        <ele>52</ele>
        <time>2021-07-21T15:59:03Z</time>
      </trkpt>
      <trkpt lat="47.56825" lon="-2.26241">
        <ele>55</ele>
        <time>2021-07-21T15:59:33Z</time>
      </trkpt>
      <trkpt lat="47.56815" lon="-2.26057">
        <ele>55</ele>
        <time>2021-07-21T16:00:02Z</time>
      </trkpt>
      <trkpt lat="47.56813" lon="-2.2583">
        <ele>48</ele>
        <time>2021-07-21T16:00:38Z</time>
      </trkpt>
      <trkpt lat="47.57039" lon="-2.25833">
        <ele>43</ele>
        <time>2021-07-21T16:01:31Z</time>
      </trkpt>
      <trkpt lat="47.57168" lon="-2.25805">
        <ele>43</ele>
        <time>2021-07-21T16:02:01Z</time>
      </trkpt>
      <trkpt lat="47.57202" lon="-2.25707">
        <ele>40</ele>
        <time>2021-07-21T16:02:18Z</time>
      </trkpt>
      <trkpt lat="47.57248" lon="-2.25368">
        <ele>37</ele>
        <time>2021-07-21T16:03:13Z</time>
      </trkpt>
      <trkpt lat="47.57278" lon="-2.25133">
        <ele>32</ele>
        <time>2021-07-21T16:03:51Z</time>
      </trkpt>
      <trkpt lat="47.57297" lon="-2.24935">
        <ele>14</ele>
        <time>2021-07-21T16:04:22Z</time>
      </trkpt>
      <trkpt lat="47.57095" lon="-2.2404">
        <ele>40</ele>
        <time>2021-07-21T16:06:51Z</time>
      </trkpt>
      <trkpt lat="47.57093" lon="-2.23946">
        <ele>37</ele>
        <time>2021-07-21T16:07:06Z</time>
      </trkpt>
      <trkpt lat="47.57044" lon="-2.23823">
        <ele>38</ele>
        <time>2021-07-21T16:07:28Z</time>
      </trkpt>
      <trkpt lat="47.57368" lon="-2.23636">
        <ele>22</ele>
        <time>2021-07-21T16:08:49Z</time>
      </trkpt>
      <trkpt lat="47.57424" lon="-2.23509">
        <ele>15</ele>
        <time>2021-07-21T16:09:13Z</time>
      </trkpt>
      <trkpt lat="47.57577" lon="-2.23401">
        <ele>4</ele>
        <time>2021-07-21T16:09:53Z</time>
      </trkpt>
      <trkpt lat="47.57789" lon="-2.2321">
        <ele>5</ele>
        <time>2021-07-21T16:10:51Z</time>
      </trkpt>
      <trkpt lat="47.57906" lon="-2.23203">
        <ele>12</ele>
        <time>2021-07-21T16:11:18Z</time>
      </trkpt>
      <trkpt lat="47.57996" lon="-2.23138">
        <ele>14</ele>
        <time>2021-07-21T16:11:41Z</time>
      </trkpt>
      <trkpt lat="47.5804" lon="-2.22983">
        <ele>20</ele>
        <time>2021-07-21T16:12:08Z</time>
      </trkpt>
      <trkpt lat="47.58139" lon="-2.22528">
        <ele>8</ele>
        <time>2021-07-21T16:13:23Z</time>
      </trkpt>
      <trkpt lat="47.58169" lon="-2.22409">
        <ele>7</ele>
        <time>2021-07-21T16:13:43Z</time>
      </trkpt>
      <trkpt lat="47.58054" lon="-2.21694">
        <ele>20</ele>
        <time>2021-07-21T16:15:39Z</time>
      </trkpt>
      <trkpt lat="47.57916" lon="-2.21106">
        <ele>23</ele>
        <time>2021-07-21T16:17:17Z</time>
      </trkpt>
      <trkpt lat="47.5786" lon="-2.20958">
        <ele>23</ele>
        <time>2021-07-21T16:17:44Z</time>
      </trkpt>
      <trkpt lat="47.57791" lon="-2.2064">
        <ele>24</ele>
        <time>2021-07-21T16:18:36Z</time>
      </trkpt>
      <trkpt lat="47.57731" lon="-2.20511">
        <ele>28</ele>
        <time>2021-07-21T16:19:01Z</time>
      </trkpt>
      <trkpt lat="47.57628" lon="-2.20121">
        <ele>22</ele>
        <time>2021-07-21T16:20:07Z</time>
      </trkpt>
      <trkpt lat="47.57485" lon="-2.19663">
        <ele>26</ele>
        <time>2021-07-21T16:21:27Z</time>
      </trkpt>
      <trkpt lat="47.57468" lon="-2.19529">
        <ele>29</ele>
        <time>2021-07-21T16:21:48Z</time>
      </trkpt>
      <trkpt lat="47.57378" lon="-2.19154">
        <ele>28</ele>
        <time>2021-07-21T16:22:51Z</time>
      </trkpt>
      <trkpt lat="47.57275" lon="-2.18775">
        <ele>33</ele>
        <time>2021-07-21T16:23:55Z</time>
      </trkpt>
      <trkpt lat="47.57263" lon="-2.18504">
        <ele>32</ele>
        <time>2021-07-21T16:24:38Z</time>
      </trkpt>
      <trkpt lat="47.57241" lon="-2.18367">
        <ele>28</ele>
        <time>2021-07-21T16:25:00Z</time>
      </trkpt>
      <trkpt lat="47.57287" lon="-2.18295">
        <ele>21</ele>
        <time>2021-07-21T16:25:16Z</time>
      </trkpt>
      <trkpt lat="47.57368" lon="-2.18241">
        <ele>15</ele>
        <time>2021-07-21T16:25:37Z</time>
      </trkpt>
      <trkpt lat="47.57387" lon="-2.17732">
        <ele>8</ele>
        <time>2021-07-21T16:26:57Z</time>
      </trkpt>
      <trkpt lat="47.57402" lon="-2.17292">
        <ele>15</ele>
        <time>2021-07-21T16:28:06Z</time>
      </trkpt>
      <trkpt lat="47.57648" lon="-2.1714">
        <ele>21</ele>
        <time>2021-07-21T16:29:08Z</time>
      </trkpt>
      <trkpt lat="47.57738" lon="-2.17115">
        <ele>15</ele>
        <time>2021-07-21T16:29:30Z</time>
      </trkpt>
      <trkpt lat="47.57738" lon="-2.16747">
        <ele>27</ele>
        <time>2021-07-21T16:30:28Z</time>
      </trkpt>
      <trkpt lat="47.57684" lon="-2.16465">
        <ele>32</ele>
        <time>2021-07-21T16:31:14Z</time>
      </trkpt>
      <trkpt lat="47.57657" lon="-2.16371">
        <ele>33</ele>
        <time>2021-07-21T16:31:30Z</time>
      </trkpt>
      <trkpt lat="47.57599" lon="-2.1614">
        <ele>31</ele>
        <time>2021-07-21T16:32:09Z</time>
      </trkpt>
      <trkpt lat="47.5755" lon="-2.15891">
        <ele>25</ele>
        <time>2021-07-21T16:32:50Z</time>
      </trkpt>
      <trkpt lat="47.57516" lon="-2.15823">
        <ele>24</ele>
        <time>2021-07-21T16:33:03Z</time>
      </trkpt>
      <trkpt lat="47.57794" lon="-2.15614">
        <ele>24</ele>
        <time>2021-07-21T16:34:16Z</time>
      </trkpt>
      <trkpt lat="47.57891" lon="-2.15527">
        <ele>26</ele>
        <time>2021-07-21T16:34:42Z</time>
      </trkpt>
      <trkpt lat="47.58001" lon="-2.15202">
        <ele>9</ele>
        <time>2021-07-21T16:35:40Z</time>
      </trkpt>
      <trkpt lat="47.5821" lon="-2.15144">
        <ele>3</ele>
        <time>2021-07-21T16:36:29Z</time>
      </trkpt>
      <trkpt lat="47.58118" lon="-2.14646">
        <ele>2</ele>
        <time>2021-07-21T16:37:51Z</time>
      </trkpt>
      <trkpt lat="47.58273" lon="-2.14614">
        <ele>3</ele>
        <time>2021-07-21T16:38:27Z</time>
      </trkpt>
      <trkpt lat="47.58247" lon="-2.14224">
        <ele>2</ele>
        <time>2021-07-21T16:39:29Z</time>
      </trkpt>
      <trkpt lat="47.58047" lon="-2.13788">
        <ele>4</ele>
        <time>2021-07-21T16:40:52Z</time>
      </trkpt>
      <trkpt lat="47.58176" lon="-2.13596">
        <ele>4</ele>
        <time>2021-07-21T16:41:35Z</time>
      </trkpt>
      <trkpt lat="47.58215" lon="-2.13428">
        <ele>4</ele>
        <time>2021-07-21T16:42:03Z</time>
      </trkpt>
      <trkpt lat="47.58191" lon="-2.1317">
        <ele>4</ele>
        <time>2021-07-21T16:42:44Z</time>
      </trkpt>
      <trkpt lat="47.58159" lon="-2.12997">
        <ele>3</ele>
        <time>2021-07-21T16:43:12Z</time>
      </trkpt>
      <trkpt lat="47.58118" lon="-2.12939">
        <ele>4</ele>
        <time>2021-07-21T16:43:25Z</time>
      </trkpt>
      <trkpt lat="47.58015" lon="-2.12983">
        <ele>7</ele>
        <time>2021-07-21T16:43:50Z</time>
      </trkpt>
      <trkpt lat="47.57906" lon="-2.12957">
        <ele>7</ele>
        <time>2021-07-21T16:44:16Z</time>
      </trkpt>
      <trkpt lat="47.57863" lon="-2.13009">
        <ele>7</ele>
        <time>2021-07-21T16:44:29Z</time>
      </trkpt>
      <trkpt lat="47.57806" lon="-2.13066">
        <ele>7</ele>
        <time>2021-07-21T16:44:45Z</time>
      </trkpt>
      <trkpt lat="47.57693" lon="-2.13112">
        <ele>6</ele>
        <time>2021-07-21T16:45:12Z</time>
      </trkpt>
      <trkpt lat="47.57627" lon="-2.13076">
        <ele>6</ele>
        <time>2021-07-21T16:45:29Z</time>
      </trkpt>
      <trkpt lat="47.57583" lon="-2.13076">
        <ele>6</ele>
        <time>2021-07-21T16:45:39Z</time>
      </trkpt>
      <trkpt lat="47.57545" lon="-2.12971">
        <ele>4</ele>
        <time>2021-07-21T16:45:58Z</time>
      </trkpt>
      <trkpt lat="47.57535" lon="-2.12889">
        <ele>4</ele>
        <time>2021-07-21T16:46:11Z</time>
      </trkpt>
      <trkpt lat="47.57609" lon="-2.12891">
        <ele>5</ele>
        <time>2021-07-21T16:46:28Z</time>
      </trkpt>
      <trkpt lat="47.57605" lon="-2.1271">
        <ele>4</ele>
        <time>2021-07-21T16:46:57Z</time>
      </trkpt>
      <trkpt lat="47.57595" lon="-2.12555">
        <ele>3</ele>
        <time>2021-07-21T16:47:21Z</time>
      </trkpt>
      <trkpt lat="47.57574" lon="-2.12324">
        <ele>4</ele>
        <time>2021-07-21T16:47:58Z</time>
      </trkpt>
      <trkpt lat="47.57519" lon="-2.12146">
        <ele>5</ele>
        <time>2021-07-21T16:48:29Z</time>
      </trkpt>
      <trkpt lat="47.5746" lon="-2.12008">
        <ele>4</ele>
        <time>2021-07-21T16:48:55Z</time>
      </trkpt>
      <trkpt lat="47.57353" lon="-2.11915">
        <ele>5</ele>
        <time>2021-07-21T16:49:24Z</time>
      </trkpt>
      <trkpt lat="47.57314" lon="-2.11871">
        <ele>6</ele>
        <time>2021-07-21T16:49:35Z</time>
      </trkpt>
      <trkpt lat="47.57234" lon="-2.11875">
        <ele>8</ele>
        <time>2021-07-21T16:49:54Z</time>
      </trkpt>
      <trkpt lat="47.5721" lon="-2.1137">
        <ele>15</ele>
        <time>2021-07-21T16:51:14Z</time>
      </trkpt>
      <trkpt lat="47.57063" lon="-2.11366">
        <ele>20</ele>
        <time>2021-07-21T16:51:48Z</time>
      </trkpt>
      <trkpt lat="47.57095" lon="-2.1102">
        <ele>20</ele>
        <time>2021-07-21T16:52:43Z</time>
      </trkpt>
      <trkpt lat="47.5709" lon="-2.10749">
        <ele>17</ele>
        <time>2021-07-21T16:53:26Z</time>
      </trkpt>
      <trkpt lat="47.57227" lon="-2.10572">
        <ele>4</ele>
        <time>2021-07-21T16:54:08Z</time>
      </trkpt>
      <trkpt lat="47.57765" lon="-2.10154">
        <ele>1</ele>
        <time>2021-07-21T16:56:30Z</time>
      </trkpt>
      <trkpt lat="47.57794" lon="-2.1009">
        <ele>1</ele>
        <time>2021-07-21T16:56:42Z</time>
      </trkpt>
      <trkpt lat="47.57884" lon="-2.09416">
        <ele>2</ele>
        <time>2021-07-21T16:58:30Z</time>
      </trkpt>
      <trkpt lat="47.5792" lon="-2.09165">
        <ele>1</ele>
        <time>2021-07-21T16:59:11Z</time>
      </trkpt>
      <trkpt lat="47.57996" lon="-2.0884">
        <ele>2</ele>
        <time>2021-07-21T17:00:05Z</time>
      </trkpt>
      <trkpt lat="47.58183" lon="-2.08082">
        <ele>2</ele>
        <time>2021-07-21T17:02:12Z</time>
      </trkpt>
      <trkpt lat="47.58273" lon="-2.08089">
        <ele>4</ele>
        <time>2021-07-21T17:02:33Z</time>
      </trkpt>
      <trkpt lat="47.58451" lon="-2.08201">
        <ele>3</ele>
        <time>2021-07-21T17:03:18Z</time>
      </trkpt>
      <trkpt lat="47.59607" lon="-2.08999">
        <ele>4</ele>
        <time>2021-07-21T17:08:16Z</time>
      </trkpt>
      <trkpt lat="47.59702" lon="-2.09053">
        <ele>4</ele>
        <time>2021-07-21T17:08:40Z</time>
      </trkpt>
      <trkpt lat="47.59813" lon="-2.09114">
        <ele>3</ele>
        <time>2021-07-21T17:09:07Z</time>
      </trkpt>
      <trkpt lat="47.59936" lon="-2.09096">
        <ele>2</ele>
        <time>2021-07-21T17:09:36Z</time>
      </trkpt>
      <trkpt lat="47.59919" lon="-2.09048">
        <ele>4</ele>
        <time>2021-07-21T17:09:45Z</time>
      </trkpt>
      <trkpt lat="47.59949" lon="-2.09022">
        <ele>4</ele>
        <time>2021-07-21T17:09:53Z</time>
      </trkpt>
      <trkpt lat="47.60004" lon="-2.08879">
        <ele>7</ele>
        <time>2021-07-21T17:10:19Z</time>
      </trkpt>
      <trkpt lat="47.60104" lon="-2.08724">
        <ele>6</ele>
        <time>2021-07-21T17:10:53Z</time>
      </trkpt>
      <trkpt lat="47.60239" lon="-2.08516">
        <ele>6</ele>
        <time>2021-07-21T17:11:38Z</time>
      </trkpt>
      <trkpt lat="47.60337" lon="-2.08422">
        <ele>6</ele>
        <time>2021-07-21T17:12:05Z</time>
      </trkpt>
      <trkpt lat="47.6046" lon="-2.08359">
        <ele>4</ele>
        <time>2021-07-21T17:12:36Z</time>
      </trkpt>
      <trkpt lat="47.60637" lon="-2.08329">
        <ele>6</ele>
        <time>2021-07-21T17:13:17Z</time>
      </trkpt>
      <trkpt lat="47.60732" lon="-2.08314">
        <ele>8</ele>
        <time>2021-07-21T17:13:40Z</time>
      </trkpt>
      <trkpt lat="47.61142" lon="-2.08244">
        <ele>12</ele>
        <time>2021-07-21T17:15:16Z</time>
      </trkpt>
      <trkpt lat="47.61289" lon="-2.08217">
        <ele>8</ele>
        <time>2021-07-21T17:15:51Z</time>
      </trkpt>
      <trkpt lat="47.61371" lon="-2.08183">
        <ele>6</ele>
        <time>2021-07-21T17:16:11Z</time>
      </trkpt>
      <trkpt lat="47.61401" lon="-2.08158">
        <ele>6</ele>
        <time>2021-07-21T17:16:19Z</time>
      </trkpt>
      <trkpt lat="47.61471" lon="-2.08077">
        <ele>6</ele>
        <time>2021-07-21T17:16:39Z</time>
      </trkpt>
      <trkpt lat="47.61537" lon="-2.07977">
        <ele>8</ele>
        <time>2021-07-21T17:17:01Z</time>
      </trkpt>
      <trkpt lat="47.61678" lon="-2.07856">
        <ele>9</ele>
        <time>2021-07-21T17:17:39Z</time>
      </trkpt>
      <trkpt lat="47.61751" lon="-2.07846">
        <ele>6</ele>
        <time>2021-07-21T17:17:56Z</time>
      </trkpt>
      <trkpt lat="47.62147" lon="-2.07725">
        <ele>5</ele>
        <time>2021-07-21T17:19:31Z</time>
      </trkpt>
      <trkpt lat="47.62473" lon="-2.07635">
        <ele>6</ele>
        <time>2021-07-21T17:20:48Z</time>
      </trkpt>
      <trkpt lat="47.62737" lon="-2.0756">
        <ele>3</ele>
        <time>2021-07-21T17:21:51Z</time>
      </trkpt>
      <trkpt lat="47.62765" lon="-2.07549">
        <ele>3</ele>
        <time>2021-07-21T17:21:58Z</time>
      </trkpt>
      <trkpt lat="47.62991" lon="-2.07479">
        <ele>5</ele>
        <time>2021-07-21T17:22:52Z</time>
      </trkpt>
      <trkpt lat="47.63234" lon="-2.07476">
        <ele>7</ele>
        <time>2021-07-21T17:23:49Z</time>
      </trkpt>
      <trkpt lat="47.63437" lon="-2.07451">
        <ele>5</ele>
        <time>2021-07-21T17:24:36Z</time>
      </trkpt>
      <trkpt lat="47.63645" lon="-2.07365">
        <ele>4</ele>
        <time>2021-07-21T17:25:27Z</time>
      </trkpt>
      <trkpt lat="47.63946" lon="-2.07251">
        <ele>2</ele>
        <time>2021-07-21T17:26:39Z</time>
      </trkpt>
      <trkpt lat="47.64034" lon="-2.07219">
        <ele>3</ele>
        <time>2021-07-21T17:27:00Z</time>
      </trkpt>
      <trkpt lat="47.64204" lon="-2.07163">
        <ele>5</ele>
        <time>2021-07-21T17:27:41Z</time>
      </trkpt>
      <trkpt lat="47.64355" lon="-2.07076">
        <ele>4</ele>
        <time>2021-07-21T17:28:19Z</time>
      </trkpt>
      <trkpt lat="47.64372" lon="-2.07124">
        <ele>4</ele>
        <time>2021-07-21T17:28:27Z</time>
      </trkpt>
      <trkpt lat="47.64407" lon="-2.07139">
        <ele>4</ele>
        <time>2021-07-21T17:28:36Z</time>
      </trkpt>
      <trkpt lat="47.6445" lon="-2.07284">
        <ele>6</ele>
        <time>2021-07-21T17:29:01Z</time>
      </trkpt>
      <trkpt lat="47.64563" lon="-2.07628">
        <ele>5</ele>
        <time>2021-07-21T17:30:01Z</time>
      </trkpt>
      <trkpt lat="47.64644" lon="-2.07896">
        <ele>5</ele>
        <time>2021-07-21T17:30:47Z</time>
      </trkpt>
      <trkpt lat="47.64726" lon="-2.08168">
        <ele>4</ele>
        <time>2021-07-21T17:31:34Z</time>
      </trkpt>
      <trkpt lat="47.64767" lon="-2.08304">
        <ele>4</ele>
        <time>2021-07-21T17:31:57Z</time>
      </trkpt>
      <trkpt lat="47.64781" lon="-2.0833">
        <ele>4</ele>
        <time>2021-07-21T17:32:03Z</time>
      </trkpt>
      <trkpt lat="47.64789" lon="-2.08357">
        <ele>5</ele>
        <time>2021-07-21T17:32:07Z</time>
      </trkpt>
      <trkpt lat="47.64806" lon="-2.08344">
        <ele>5</ele>
        <time>2021-07-21T17:32:12Z</time>
      </trkpt>
      <trkpt lat="47.64835" lon="-2.08442">
        <ele>6</ele>
        <time>2021-07-21T17:32:29Z</time>
      </trkpt>
      <trkpt lat="47.64838" lon="-2.08428">
        <ele>6</ele>
        <time>2021-07-21T14:13:55Z</time>
      </trkpt>
      <trkpt lat="47.64963" lon="-2.08301">
        <ele>9</ele>
        <time>2021-07-21T14:14:30Z</time>
      </trkpt>
      <trkpt lat="47.65028" lon="-2.08175">
        <ele>6</ele>
        <time>2021-07-21T14:14:55Z</time>
      </trkpt>
      <trkpt lat="47.65062" lon="-2.08059">
        <ele>10</ele>
        <time>2021-07-21T14:15:15Z</time>
      </trkpt>
      <trkpt lat="47.6508" lon="-2.07898">
        <ele>8</ele>
        <time>2021-07-21T14:15:41Z</time>
      </trkpt>
      <trkpt lat="47.65108" lon="-2.07771">
        <ele>9</ele>
        <time>2021-07-21T14:16:02Z</time>
      </trkpt>
      <trkpt lat="47.65185" lon="-2.0757">
        <ele>12</ele>
        <time>2021-07-21T14:16:38Z</time>
      </trkpt>
      <trkpt lat="47.65218" lon="-2.0749">
        <ele>13</ele>
        <time>2021-07-21T14:16:53Z</time>
      </trkpt>
      <trkpt lat="47.65225" lon="-2.07422">
        <ele>10</ele>
        <time>2021-07-21T14:17:04Z</time>
      </trkpt>
      <trkpt lat="47.65108" lon="-2.06898">
        <ele>3</ele>
        <time>2021-07-21T14:18:31Z</time>
      </trkpt>
      <trkpt lat="47.65079" lon="-2.06741">
        <ele>2</ele>
        <time>2021-07-21T14:18:56Z</time>
      </trkpt>
      <trkpt lat="47.65083" lon="-2.06647">
        <ele>3</ele>
        <time>2021-07-21T14:19:11Z</time>
      </trkpt>
      <trkpt lat="47.6513" lon="-2.06525">
        <ele>3</ele>
        <time>2021-07-21T14:19:33Z</time>
      </trkpt>
      <trkpt lat="47.65255" lon="-2.0622">
        <ele>3</ele>
        <time>2021-07-21T14:20:29Z</time>
      </trkpt>
      <trkpt lat="47.6554" lon="-2.0551">
        <ele>5</ele>
        <time>2021-07-21T14:22:39Z</time>
      </trkpt>
      <trkpt lat="47.65708" lon="-2.0508">
        <ele>4</ele>
        <time>2021-07-21T14:23:58Z</time>
      </trkpt>
      <trkpt lat="47.65745" lon="-2.05003">
        <ele>6</ele>
        <time>2021-07-21T14:24:13Z</time>
      </trkpt>
      <trkpt lat="47.65784" lon="-2.04945">
        <ele>6</ele>
        <time>2021-07-21T14:24:25Z</time>
      </trkpt>
      <trkpt lat="47.65927" lon="-2.04866">
        <ele>5</ele>
        <time>2021-07-21T14:25:01Z</time>
      </trkpt>
      <trkpt lat="47.65952" lon="-2.04884">
        <ele>7</ele>
        <time>2021-07-21T14:25:08Z</time>
      </trkpt>
      <trkpt lat="47.65983" lon="-2.04889">
        <ele>9</ele>
        <time>2021-07-21T14:25:15Z</time>
      </trkpt>
      <trkpt lat="47.66022" lon="-2.04899">
        <ele>10</ele>
        <time>2021-07-21T14:25:24Z</time>
      </trkpt>
      <trkpt lat="47.66057" lon="-2.04914">
        <ele>9</ele>
        <time>2021-07-21T14:25:33Z</time>
      </trkpt>
      <trkpt lat="47.66094" lon="-2.04946">
        <ele>13</ele>
        <time>2021-07-21T14:25:43Z</time>
      </trkpt>
      <trkpt lat="47.66161" lon="-2.05022">
        <ele>12</ele>
        <time>2021-07-21T14:26:02Z</time>
      </trkpt>
      <trkpt lat="47.66188" lon="-2.05026">
        <ele>10</ele>
        <time>2021-07-21T14:26:09Z</time>
      </trkpt>
      <trkpt lat="47.66212" lon="-2.05016">
        <ele>7</ele>
        <time>2021-07-21T14:26:14Z</time>
      </trkpt>
      <trkpt lat="47.66239" lon="-2.04994">
        <ele>4</ele>
        <time>2021-07-21T14:26:22Z</time>
      </trkpt>
      <trkpt lat="47.66328" lon="-2.04895">
        <ele>3</ele>
        <time>2021-07-21T14:26:48Z</time>
      </trkpt>
      <trkpt lat="47.66382" lon="-2.04819">
        <ele>4</ele>
        <time>2021-07-21T14:27:05Z</time>
      </trkpt>
      <trkpt lat="47.66424" lon="-2.04753">
        <ele>2</ele>
        <time>2021-07-21T14:27:19Z</time>
      </trkpt>
      <trkpt lat="47.66441" lon="-2.04716">
        <ele>3</ele>
        <time>2021-07-21T14:27:26Z</time>
      </trkpt>
      <trkpt lat="47.6651" lon="-2.04539">
        <ele>2</ele>
        <time>2021-07-21T14:27:58Z</time>
      </trkpt>
      <trkpt lat="47.6656" lon="-2.04396">
        <ele>4</ele>
        <time>2021-07-21T14:28:24Z</time>
      </trkpt>
      <trkpt lat="47.66584" lon="-2.04338">
        <ele>3</ele>
        <time>2021-07-21T14:28:34Z</time>
      </trkpt>
      <trkpt lat="47.66646" lon="-2.04252">
        <ele>2</ele>
        <time>2021-07-21T14:28:54Z</time>
      </trkpt>
      <trkpt lat="47.66703" lon="-2.04139">
        <ele>3</ele>
        <time>2021-07-21T14:29:17Z</time>
      </trkpt>
      <trkpt lat="47.66753" lon="-2.04066">
        <ele>4</ele>
        <time>2021-07-21T14:29:33Z</time>
      </trkpt>
      <trkpt lat="47.6686" lon="-2.0401">
        <ele>3</ele>
        <time>2021-07-21T14:29:59Z</time>
      </trkpt>
      <trkpt lat="47.66971" lon="-2.0393">
        <ele>1</ele>
        <time>2021-07-21T14:30:28Z</time>
      </trkpt>
      <trkpt lat="47.67084" lon="-2.03855">
        <ele>3.8</ele>
        <time>2021-07-21T14:30:57Z</time>
      </trkpt>
      <trkpt lat="47.67157" lon="-2.03755">
        <ele>3</ele>
        <time>2021-07-21T14:31:20Z</time>
      </trkpt>
      <trkpt lat="47.67224" lon="-2.03553">
        <ele>3</ele>
        <time>2021-07-21T14:31:56Z</time>
      </trkpt>
      <trkpt lat="47.67248" lon="-2.03463">
        <ele>4</ele>
        <time>2021-07-21T14:32:11Z</time>
      </trkpt>
      <trkpt lat="47.67225" lon="-2.03358">
        <ele>4</ele>
        <time>2021-07-21T14:32:28Z</time>
      </trkpt>
      <trkpt lat="47.67199" lon="-2.03321">
        <ele>3</ele>
        <time>2021-07-21T14:32:37Z</time>
      </trkpt>
      <trkpt lat="47.67183" lon="-2.03261">
        <ele>3</ele>
        <time>2021-07-21T14:32:47Z</time>
      </trkpt>
      <trkpt lat="47.67186" lon="-2.03175">
        <ele>3</ele>
        <time>2021-07-21T14:33:00Z</time>
      </trkpt>
      <trkpt lat="47.67211" lon="-2.03027">
        <ele>3</ele>
        <time>2021-07-21T14:33:24Z</time>
      </trkpt>
      <trkpt lat="47.67235" lon="-2.02845">
        <ele>3</ele>
        <time>2021-07-21T14:33:54Z</time>
      </trkpt>
      <trkpt lat="47.67254" lon="-2.02662">
        <ele>4</ele>
        <time>2021-07-21T14:34:23Z</time>
      </trkpt>
      <trkpt lat="47.67284" lon="-2.02459">
        <ele>4</ele>
        <time>2021-07-21T14:34:55Z</time>
      </trkpt>
      <trkpt lat="47.67299" lon="-2.02334">
        <ele>5</ele>
        <time>2021-07-21T14:35:15Z</time>
      </trkpt>
      <trkpt lat="47.67297" lon="-2.02216">
        <ele>4</ele>
        <time>2021-07-21T14:35:34Z</time>
      </trkpt>
      <trkpt lat="47.67315" lon="-2.02154">
        <ele>4</ele>
        <time>2021-07-21T14:35:44Z</time>
      </trkpt>
      <trkpt lat="47.67349" lon="-2.02066">
        <ele>3</ele>
        <time>2021-07-21T14:36:00Z</time>
      </trkpt>
      <trkpt lat="47.67378" lon="-2.0198">
        <ele>3</ele>
        <time>2021-07-21T14:36:16Z</time>
      </trkpt>
      <trkpt lat="47.67384" lon="-2.01907">
        <ele>3</ele>
        <time>2021-07-21T14:36:27Z</time>
      </trkpt>
      <trkpt lat="47.67374" lon="-2.01817">
        <ele>3</ele>
        <time>2021-07-21T14:36:41Z</time>
      </trkpt>
      <trkpt lat="47.67357" lon="-2.01718">
        <ele>4</ele>
        <time>2021-07-21T14:36:58Z</time>
      </trkpt>
      <trkpt lat="47.67351" lon="-2.01641">
        <ele>3</ele>
        <time>2021-07-21T14:37:10Z</time>
      </trkpt>
      <trkpt lat="47.67355" lon="-2.01547">
        <ele>3</ele>
        <time>2021-07-21T14:37:25Z</time>
      </trkpt>
      <trkpt lat="47.67355" lon="-2.0145">
        <ele>3</ele>
        <time>2021-07-21T14:37:40Z</time>
      </trkpt>
      <trkpt lat="47.67329" lon="-2.01201">
        <ele>3</ele>
        <time>2021-07-21T14:38:19Z</time>
      </trkpt>
      <trkpt lat="47.67306" lon="-2.01068">
        <ele>2</ele>
        <time>2021-07-21T14:38:41Z</time>
      </trkpt>
      <trkpt lat="47.67329" lon="-2.0092">
        <ele>2</ele>
        <time>2021-07-21T14:39:05Z</time>
      </trkpt>
      <trkpt lat="47.67316" lon="-2.00802">
        <ele>3</ele>
        <time>2021-07-21T14:39:24Z</time>
      </trkpt>
      <trkpt lat="47.67309" lon="-2.00701">
        <ele>3</ele>
        <time>2021-07-21T14:39:40Z</time>
      </trkpt>
      <trkpt lat="47.67355" lon="-2.00525">
        <ele>2</ele>
        <time>2021-07-21T14:40:09Z</time>
      </trkpt>
      <trkpt lat="47.67357" lon="-2.00437">
        <ele>3</ele>
        <time>2021-07-21T14:40:23Z</time>
      </trkpt>
      <trkpt lat="47.67362" lon="-2.0036">
        <ele>3</ele>
        <time>2021-07-21T14:40:35Z</time>
      </trkpt>
      <trkpt lat="47.67381" lon="-2.00291">
        <ele>3</ele>
        <time>2021-07-21T14:40:47Z</time>
      </trkpt>
      <trkpt lat="47.67478" lon="-2.0013">
        <ele>2</ele>
        <time>2021-07-21T14:41:21Z</time>
      </trkpt>
      <trkpt lat="47.67549" lon="-2.00032">
        <ele>2</ele>
        <time>2021-07-21T14:41:44Z</time>
      </trkpt>
      <trkpt lat="47.67622" lon="-1.99944">
        <ele>4</ele>
        <time>2021-07-21T14:42:06Z</time>
      </trkpt>
      <trkpt lat="47.67647" lon="-1.99821">
        <ele>4</ele>
        <time>2021-07-21T14:42:26Z</time>
      </trkpt>
      <trkpt lat="47.67693" lon="-1.99673">
        <ele>4</ele>
        <time>2021-07-21T14:42:51Z</time>
      </trkpt>
      <trkpt lat="47.67738" lon="-1.99553">
        <ele>3</ele>
        <time>2021-07-21T14:43:13Z</time>
      </trkpt>
      <trkpt lat="47.67777" lon="-1.99466">
        <ele>3</ele>
        <time>2021-07-21T14:43:30Z</time>
      </trkpt>
      <trkpt lat="47.67894" lon="-1.99278">
        <ele>3</ele>
        <time>2021-07-21T14:44:10Z</time>
      </trkpt>
      <trkpt lat="47.67968" lon="-1.99195">
        <ele>3</ele>
        <time>2021-07-21T14:44:31Z</time>
      </trkpt>
      <trkpt lat="47.67998" lon="-1.9913">
        <ele>3</ele>
        <time>2021-07-21T14:44:44Z</time>
      </trkpt>
      <trkpt lat="47.6804" lon="-1.99028">
        <ele>2</ele>
        <time>2021-07-21T14:45:03Z</time>
      </trkpt>
      <trkpt lat="47.6806" lon="-1.98963">
        <ele>2</ele>
        <time>2021-07-21T14:45:14Z</time>
      </trkpt>
      <trkpt lat="47.68066" lon="-1.98875">
        <ele>2</ele>
        <time>2021-07-21T14:45:28Z</time>
      </trkpt>
      <trkpt lat="47.68088" lon="-1.98225">
        <ele>1</ele>
        <time>2021-07-21T14:47:10Z</time>
      </trkpt>
      <trkpt lat="47.68093" lon="-1.98141">
        <ele>1</ele>
        <time>2021-07-21T14:47:23Z</time>
      </trkpt>
      <trkpt lat="47.68102" lon="-1.98062">
        <ele>2</ele>
        <time>2021-07-21T14:47:36Z</time>
      </trkpt>
      <trkpt lat="47.68106" lon="-1.98">
        <ele>3</ele>
        <time>2021-07-21T14:47:46Z</time>
      </trkpt>
      <trkpt lat="47.68088" lon="-1.97929">
        <ele>4</ele>
        <time>2021-07-21T14:47:58Z</time>
      </trkpt>
      <trkpt lat="47.68046" lon="-1.97897">
        <ele>5</ele>
        <time>2021-07-21T14:48:09Z</time>
      </trkpt>
      <trkpt lat="47.67991" lon="-1.9782">
        <ele>6</ele>
        <time>2021-07-21T14:48:26Z</time>
      </trkpt>
      <trkpt lat="47.67932" lon="-1.97736">
        <ele>8</ele>
        <time>2021-07-21T14:48:45Z</time>
      </trkpt>
      <trkpt lat="47.67865" lon="-1.97618">
        <ele>6</ele>
        <time>2021-07-21T14:49:10Z</time>
      </trkpt>
      <trkpt lat="47.6784" lon="-1.97579">
        <ele>4</ele>
        <time>2021-07-21T14:49:18Z</time>
      </trkpt>
      <trkpt lat="47.67808" lon="-1.97537">
        <ele>3</ele>
        <time>2021-07-21T14:49:28Z</time>
      </trkpt>
      <trkpt lat="47.67761" lon="-1.97465">
        <ele>3</ele>
        <time>2021-07-21T14:49:44Z</time>
      </trkpt>
      <trkpt lat="47.67652" lon="-1.97314">
        <ele>3</ele>
        <time>2021-07-21T14:50:19Z</time>
      </trkpt>
      <trkpt lat="47.67532" lon="-1.97139">
        <ele>2</ele>
        <time>2021-07-21T14:50:58Z</time>
      </trkpt>
      <trkpt lat="47.67411" lon="-1.96956">
        <ele>3</ele>
        <time>2021-07-21T14:51:38Z</time>
      </trkpt>
      <trkpt lat="47.67343" lon="-1.96863">
        <ele>3</ele>
        <time>2021-07-21T14:52:00Z</time>
      </trkpt>
      <trkpt lat="47.6726" lon="-1.96758">
        <ele>1</ele>
        <time>2021-07-21T14:52:25Z</time>
      </trkpt>
      <trkpt lat="47.67177" lon="-1.96581">
        <ele>5</ele>
        <time>2021-07-21T14:52:59Z</time>
      </trkpt>
      <trkpt lat="47.67146" lon="-1.96372">
        <ele>5</ele>
        <time>2021-07-21T14:53:33Z</time>
      </trkpt>
      <trkpt lat="47.67146" lon="-1.96245">
        <ele>5</ele>
        <time>2021-07-21T14:53:53Z</time>
      </trkpt>
      <trkpt lat="47.67134" lon="-1.96101">
        <ele>5</ele>
        <time>2021-07-21T14:54:16Z</time>
      </trkpt>
      <trkpt lat="47.67146" lon="-1.95935">
        <ele>6</ele>
        <time>2021-07-21T14:54:42Z</time>
      </trkpt>
      <trkpt lat="47.6716" lon="-1.95607">
        <ele>2</ele>
        <time>2021-07-21T14:55:34Z</time>
      </trkpt>
      <trkpt lat="47.67182" lon="-1.95484">
        <ele>3.3</ele>
        <time>2021-07-21T14:55:54Z</time>
      </trkpt>
      <trkpt lat="47.67233" lon="-1.95394">
        <ele>2</ele>
        <time>2021-07-21T14:56:12Z</time>
      </trkpt>
      <trkpt lat="47.67318" lon="-1.95304">
        <ele>2</ele>
        <time>2021-07-21T14:56:37Z</time>
      </trkpt>
      <trkpt lat="47.67474" lon="-1.9513">
        <ele>3</ele>
        <time>2021-07-21T14:57:22Z</time>
      </trkpt>
      <trkpt lat="47.6796" lon="-1.94654">
        <ele>3</ele>
        <time>2021-07-21T14:59:38Z</time>
      </trkpt>
      <trkpt lat="47.68106" lon="-1.94502">
        <ele>6</ele>
        <time>2021-07-21T15:00:20Z</time>
      </trkpt>
      <trkpt lat="47.68314" lon="-1.94297">
        <ele>5</ele>
        <time>2021-07-21T15:01:18Z</time>
      </trkpt>
      <trkpt lat="47.68436" lon="-1.94163">
        <ele>1</ele>
        <time>2021-07-21T15:01:53Z</time>
      </trkpt>
      <trkpt lat="47.68528" lon="-1.94026">
        <ele>2</ele>
        <time>2021-07-21T15:02:24Z</time>
      </trkpt>
      <trkpt lat="47.68642" lon="-1.9381">
        <ele>7</ele>
        <time>2021-07-21T15:03:07Z</time>
      </trkpt>
      <trkpt lat="47.68771" lon="-1.93312">
        <ele>2</ele>
        <time>2021-07-21T15:04:31Z</time>
      </trkpt>
      <trkpt lat="47.68815" lon="-1.93066">
        <ele>3</ele>
        <time>2021-07-21T15:05:11Z</time>
      </trkpt>
      <trkpt lat="47.68871" lon="-1.92824">
        <ele>3</ele>
        <time>2021-07-21T15:05:51Z</time>
      </trkpt>
      <trkpt lat="47.6891" lon="-1.92676">
        <ele>3</ele>
        <time>2021-07-21T15:06:16Z</time>
      </trkpt>
      <trkpt lat="47.68932" lon="-1.92528">
        <ele>5</ele>
        <time>2021-07-21T15:06:40Z</time>
      </trkpt>
      <trkpt lat="47.68966" lon="-1.92344">
        <ele>3</ele>
        <time>2021-07-21T15:07:10Z</time>
      </trkpt>
      <trkpt lat="47.69034" lon="-1.92243">
        <ele>3</ele>
        <time>2021-07-21T15:07:32Z</time>
      </trkpt>
      <trkpt lat="47.6907" lon="-1.92164">
        <ele>3</ele>
        <time>2021-07-21T15:07:47Z</time>
      </trkpt>
      <trkpt lat="47.69072" lon="-1.92052">
        <ele>4</ele>
        <time>2021-07-21T15:08:05Z</time>
      </trkpt>
      <trkpt lat="47.69077" lon="-1.91958">
        <ele>2</ele>
        <time>2021-07-21T15:08:20Z</time>
      </trkpt>
      <trkpt lat="47.6915" lon="-1.9183">
        <ele>2</ele>
        <time>2021-07-21T15:08:46Z</time>
      </trkpt>
      <trkpt lat="47.6917" lon="-1.91706">
        <ele>4</ele>
        <time>2021-07-21T15:09:06Z</time>
      </trkpt>
      <trkpt lat="47.69167" lon="-1.91543">
        <ele>3</ele>
        <time>2021-07-21T15:09:32Z</time>
      </trkpt>
      <trkpt lat="47.69182" lon="-1.91366">
        <ele>3</ele>
        <time>2021-07-21T15:10:00Z</time>
      </trkpt>
      <trkpt lat="47.69216" lon="-1.91135">
        <ele>5</ele>
        <time>2021-07-21T15:10:37Z</time>
      </trkpt>
      <trkpt lat="47.69274" lon="-1.91013">
        <ele>6</ele>
        <time>2021-07-21T15:11:01Z</time>
      </trkpt>
      <trkpt lat="47.69359" lon="-1.90803">
        <ele>2</ele>
        <time>2021-07-21T15:11:39Z</time>
      </trkpt>
      <trkpt lat="47.69439" lon="-1.90504">
        <ele>3</ele>
        <time>2021-07-21T15:12:30Z</time>
      </trkpt>
      <trkpt lat="47.69485" lon="-1.90237">
        <ele>2</ele>
        <time>2021-07-21T15:13:13Z</time>
      </trkpt>
      <trkpt lat="47.69553" lon="-1.89945">
        <ele>4</ele>
        <time>2021-07-21T15:14:02Z</time>
      </trkpt>
      <trkpt lat="47.69607" lon="-1.89757">
        <ele>3</ele>
        <time>2021-07-21T15:14:34Z</time>
      </trkpt>
      <trkpt lat="47.69638" lon="-1.89526">
        <ele>4</ele>
        <time>2021-07-21T15:15:11Z</time>
      </trkpt>
      <trkpt lat="47.6966" lon="-1.89439">
        <ele>4</ele>
        <time>2021-07-21T15:15:25Z</time>
      </trkpt>
      <trkpt lat="47.69651" lon="-1.89306">
        <ele>5</ele>
        <time>2021-07-21T15:15:46Z</time>
      </trkpt>
      <trkpt lat="47.69665" lon="-1.89151">
        <ele>7</ele>
        <time>2021-07-21T15:16:11Z</time>
      </trkpt>
      <trkpt lat="47.69655" lon="-1.89071">
        <ele>5</ele>
        <time>2021-07-21T15:16:24Z</time>
      </trkpt>
      <trkpt lat="47.69602" lon="-1.89021">
        <ele>4</ele>
        <time>2021-07-21T15:16:38Z</time>
      </trkpt>
      <trkpt lat="47.69556" lon="-1.8897">
        <ele>3</ele>
        <time>2021-07-21T15:16:52Z</time>
      </trkpt>
      <trkpt lat="47.69561" lon="-1.88887">
        <ele>4</ele>
        <time>2021-07-21T15:17:05Z</time>
      </trkpt>
      <trkpt lat="47.69602" lon="-1.88768">
        <ele>4</ele>
        <time>2021-07-21T15:17:26Z</time>
      </trkpt>
      <trkpt lat="47.69631" lon="-1.88656">
        <ele>4</ele>
        <time>2021-07-21T15:17:45Z</time>
      </trkpt>
      <trkpt lat="47.69638" lon="-1.88541">
        <ele>3</ele>
        <time>2021-07-21T15:18:03Z</time>
      </trkpt>
      <trkpt lat="47.69617" lon="-1.88429">
        <ele>4</ele>
        <time>2021-07-21T15:18:21Z</time>
      </trkpt>
      <trkpt lat="47.6959" lon="-1.88339">
        <ele>3</ele>
        <time>2021-07-21T15:18:37Z</time>
      </trkpt>
      <trkpt lat="47.69558" lon="-1.88263">
        <ele>3</ele>
        <time>2021-07-21T15:18:51Z</time>
      </trkpt>
      <trkpt lat="47.69563" lon="-1.87808">
        <ele>5</ele>
        <time>2021-07-21T15:20:02Z</time>
      </trkpt>
      <trkpt lat="47.69636" lon="-1.87664">
        <ele>4</ele>
        <time>2021-07-21T15:20:31Z</time>
      </trkpt>
      <trkpt lat="47.69716" lon="-1.8753">
        <ele>4</ele>
        <time>2021-07-21T15:20:59Z</time>
      </trkpt>
      <trkpt lat="47.69823" lon="-1.87426">
        <ele>4</ele>
        <time>2021-07-21T15:21:29Z</time>
      </trkpt>
      <trkpt lat="47.6991" lon="-1.87335">
        <ele>3</ele>
        <time>2021-07-21T15:21:53Z</time>
      </trkpt>
      <trkpt lat="47.7001" lon="-1.87251">
        <ele>5</ele>
        <time>2021-07-21T15:22:20Z</time>
      </trkpt>
      <trkpt lat="47.70054" lon="-1.87148">
        <ele>4</ele>
        <time>2021-07-21T15:22:39Z</time>
      </trkpt>
      <trkpt lat="47.70107" lon="-1.86971">
        <ele>7</ele>
        <time>2021-07-21T15:23:10Z</time>
      </trkpt>
      <trkpt lat="47.70168" lon="-1.86863">
        <ele>8</ele>
        <time>2021-07-21T15:23:32Z</time>
      </trkpt>
      <trkpt lat="47.70216" lon="-1.86722">
        <ele>5</ele>
        <time>2021-07-21T15:23:57Z</time>
      </trkpt>
      <trkpt lat="47.70287" lon="-1.86617">
        <ele>5</ele>
        <time>2021-07-21T15:24:20Z</time>
      </trkpt>
      <trkpt lat="47.70391" lon="-1.86621">
        <ele>4</ele>
        <time>2021-07-21T15:24:45Z</time>
      </trkpt>
      <trkpt lat="47.70513" lon="-1.86617">
        <ele>5</ele>
        <time>2021-07-21T15:25:13Z</time>
      </trkpt>
      <trkpt lat="47.70603" lon="-1.86596">
        <ele>4</ele>
        <time>2021-07-21T15:25:34Z</time>
      </trkpt>
      <trkpt lat="47.707" lon="-1.86487">
        <ele>5</ele>
        <time>2021-07-21T15:26:03Z</time>
      </trkpt>
      <trkpt lat="47.70773" lon="-1.86354">
        <ele>7</ele>
        <time>2021-07-21T15:26:30Z</time>
      </trkpt>
      <trkpt lat="47.70811" lon="-1.86249">
        <ele>8</ele>
        <time>2021-07-21T15:26:48Z</time>
      </trkpt>
      <trkpt lat="47.7087" lon="-1.85787">
        <ele>8</ele>
        <time>2021-07-21T15:28:02Z</time>
      </trkpt>
      <trkpt lat="47.70889" lon="-1.8552">
        <ele>8</ele>
        <time>2021-07-21T15:28:45Z</time>
      </trkpt>
      <trkpt lat="47.70887" lon="-1.85444">
        <ele>7</ele>
        <time>2021-07-21T15:28:57Z</time>
      </trkpt>
      <trkpt lat="47.70843" lon="-1.85239">
        <ele>4</ele>
        <time>2021-07-21T15:29:30Z</time>
      </trkpt>
      <trkpt lat="47.70821" lon="-1.85094">
        <ele>3</ele>
        <time>2021-07-21T15:29:54Z</time>
      </trkpt>
      <trkpt lat="47.70775" lon="-1.84882">
        <ele>3</ele>
        <time>2021-07-21T15:30:29Z</time>
      </trkpt>
      <trkpt lat="47.7059" lon="-1.84113">
        <ele>5</ele>
        <time>2021-07-21T15:32:37Z</time>
      </trkpt>
      <trkpt lat="47.70598" lon="-1.83994">
        <ele>4</ele>
        <time>2021-07-21T15:32:56Z</time>
      </trkpt>
      <trkpt lat="47.70658" lon="-1.83875">
        <ele>3</ele>
        <time>2021-07-21T15:33:19Z</time>
      </trkpt>
      <trkpt lat="47.7076" lon="-1.83813">
        <ele>4</ele>
        <time>2021-07-21T15:33:45Z</time>
      </trkpt>
      <trkpt lat="47.70972" lon="-1.83736">
        <ele>5</ele>
        <time>2021-07-21T15:34:36Z</time>
      </trkpt>
      <trkpt lat="47.71108" lon="-1.83665">
        <ele>5</ele>
        <time>2021-07-21T15:35:10Z</time>
      </trkpt>
      <trkpt lat="47.71295" lon="-1.83705">
        <ele>4</ele>
        <time>2021-07-21T15:35:54Z</time>
      </trkpt>
      <trkpt lat="47.71445" lon="-1.83716">
        <ele>4</ele>
        <time>2021-07-21T15:36:29Z</time>
      </trkpt>
      <trkpt lat="47.71618" lon="-1.83712">
        <ele>3</ele>
        <time>2021-07-21T15:37:09Z</time>
      </trkpt>
      <trkpt lat="47.71868" lon="-1.8351">
        <ele>2</ele>
        <time>2021-07-21T15:38:16Z</time>
      </trkpt>
      <trkpt lat="47.71996" lon="-1.83489">
        <ele>4</ele>
        <time>2021-07-21T15:38:46Z</time>
      </trkpt>
      <trkpt lat="47.72111" lon="-1.83551">
        <ele>3</ele>
        <time>2021-07-21T15:39:14Z</time>
      </trkpt>
      <trkpt lat="47.72169" lon="-1.83627">
        <ele>4</ele>
        <time>2021-07-21T15:39:32Z</time>
      </trkpt>
      <trkpt lat="47.72232" lon="-1.83728">
        <ele>5</ele>
        <time>2021-07-21T15:39:54Z</time>
      </trkpt>
      <trkpt lat="47.72297" lon="-1.8381">
        <ele>6</ele>
        <time>2021-07-21T15:40:14Z</time>
      </trkpt>
      <trkpt lat="47.72375" lon="-1.83829">
        <ele>4</ele>
        <time>2021-07-21T15:40:32Z</time>
      </trkpt>
      <trkpt lat="47.72454" lon="-1.83799">
        <ele>3</ele>
        <time>2021-07-21T15:40:51Z</time>
      </trkpt>
      <trkpt lat="47.72527" lon="-1.83754">
        <ele>3</ele>
        <time>2021-07-21T15:41:10Z</time>
      </trkpt>
      <trkpt lat="47.72613" lon="-1.83777">
        <ele>4</ele>
        <time>2021-07-21T15:41:30Z</time>
      </trkpt>
      <trkpt lat="47.72675" lon="-1.8384">
        <ele>4</ele>
        <time>2021-07-21T15:41:48Z</time>
      </trkpt>
      <trkpt lat="47.72736" lon="-1.83891">
        <ele>5</ele>
        <time>2021-07-21T15:42:04Z</time>
      </trkpt>
      <trkpt lat="47.72804" lon="-1.83917">
        <ele>4</ele>
        <time>2021-07-21T15:42:20Z</time>
      </trkpt>
      <trkpt lat="47.7289" lon="-1.83902">
        <ele>3</ele>
        <time>2021-07-21T15:42:41Z</time>
      </trkpt>
      <trkpt lat="47.72941" lon="-1.83844">
        <ele>2</ele>
        <time>2021-07-21T15:42:56Z</time>
      </trkpt>
      <trkpt lat="47.73048" lon="-1.83773">
        <ele>2</ele>
        <time>2021-07-21T15:43:23Z</time>
      </trkpt>
      <trkpt lat="47.73114" lon="-1.83737">
        <ele>4</ele>
        <time>2021-07-21T15:43:39Z</time>
      </trkpt>
      <trkpt lat="47.73175" lon="-1.83756">
        <ele>5</ele>
        <time>2021-07-21T15:43:54Z</time>
      </trkpt>
      <trkpt lat="47.73185" lon="-1.83812">
        <ele>4</ele>
        <time>2021-07-21T15:44:03Z</time>
      </trkpt>
      <trkpt lat="47.73206" lon="-1.83994">
        <ele>4</ele>
        <time>2021-07-21T15:44:32Z</time>
      </trkpt>
      <trkpt lat="47.7323" lon="-1.84104">
        <ele>5</ele>
        <time>2021-07-21T15:44:50Z</time>
      </trkpt>
      <trkpt lat="47.73287" lon="-1.84312">
        <ele>5</ele>
        <time>2021-07-21T15:45:26Z</time>
      </trkpt>
      <trkpt lat="47.73395" lon="-1.8443">
        <ele>5</ele>
        <time>2021-07-21T15:45:57Z</time>
      </trkpt>
      <trkpt lat="47.73481" lon="-1.84481">
        <ele>5</ele>
        <time>2021-07-21T15:46:19Z</time>
      </trkpt>
      <trkpt lat="47.73561" lon="-1.84496">
        <ele>4</ele>
        <time>2021-07-21T15:46:37Z</time>
      </trkpt>
      <trkpt lat="47.73641" lon="-1.84486">
        <ele>4</ele>
        <time>2021-07-21T15:46:56Z</time>
      </trkpt>
      <trkpt lat="47.73909" lon="-1.84383">
        <ele>5</ele>
        <time>2021-07-21T15:48:01Z</time>
      </trkpt>
      <trkpt lat="47.73917" lon="-1.84378">
        <ele>5</ele>
        <time>2021-07-21T15:48:03Z</time>
      </trkpt>
      <trkpt lat="47.73925" lon="-1.84378">
        <ele>5</ele>
        <time>2021-07-21T15:48:05Z</time>
      </trkpt>
      <trkpt lat="47.7395" lon="-1.8437">
        <ele>6</ele>
        <time>2021-07-21T15:48:11Z</time>
      </trkpt>
      <trkpt lat="47.73968" lon="-1.84362">
        <ele>6</ele>
        <time>2021-07-21T15:48:15Z</time>
      </trkpt>
      <trkpt lat="47.7401" lon="-1.84336">
        <ele>5</ele>
        <time>2021-07-21T15:48:26Z</time>
      </trkpt>
      <trkpt lat="47.74074" lon="-1.84308">
        <ele>6</ele>
        <time>2021-07-21T15:48:41Z</time>
      </trkpt>
      <trkpt lat="47.74115" lon="-1.84254">
        <ele>6</ele>
        <time>2021-07-21T15:48:54Z</time>
      </trkpt>
      <trkpt lat="47.74159" lon="-1.84207">
        <ele>6</ele>
        <time>2021-07-21T15:49:07Z</time>
      </trkpt>
      <trkpt lat="47.74411" lon="-1.83773">
        <ele>4</ele>
        <time>2021-07-21T15:50:37Z</time>
      </trkpt>
      <trkpt lat="47.74503" lon="-1.83699">
        <ele>4</ele>
        <time>2021-07-21T15:51:01Z</time>
      </trkpt>
      <trkpt lat="47.74551" lon="-1.83635">
        <ele>5</ele>
        <time>2021-07-21T15:51:16Z</time>
      </trkpt>
      <trkpt lat="47.74604" lon="-1.83542">
        <ele>6</ele>
        <time>2021-07-21T15:51:35Z</time>
      </trkpt>
      <trkpt lat="47.74646" lon="-1.83463">
        <ele>6</ele>
        <time>2021-07-21T15:51:51Z</time>
      </trkpt>
      <trkpt lat="47.74796" lon="-1.83115">
        <ele>7</ele>
        <time>2021-07-21T15:52:56Z</time>
      </trkpt>
      <trkpt lat="47.74837" lon="-1.83009">
        <ele>6</ele>
        <time>2021-07-21T15:53:15Z</time>
      </trkpt>
      <trkpt lat="47.74849" lon="-1.82926">
        <ele>6</ele>
        <time>2021-07-21T15:53:29Z</time>
      </trkpt>
      <trkpt lat="47.74859" lon="-1.82884">
        <ele>6</ele>
        <time>2021-07-21T15:53:36Z</time>
      </trkpt>
      <trkpt lat="47.74896" lon="-1.82838">
        <ele>5</ele>
        <time>2021-07-21T15:53:47Z</time>
      </trkpt>
      <trkpt lat="47.74973" lon="-1.8277">
        <ele>4</ele>
        <time>2021-07-21T15:54:08Z</time>
      </trkpt>
      <trkpt lat="47.75196" lon="-1.82595">
        <ele>8</ele>
        <time>2021-07-21T15:55:07Z</time>
      </trkpt>
      <trkpt lat="47.75313" lon="-1.82509">
        <ele>8</ele>
        <time>2021-07-21T15:55:37Z</time>
      </trkpt>
      <trkpt lat="47.7539" lon="-1.82436">
        <ele>7</ele>
        <time>2021-07-21T15:55:58Z</time>
      </trkpt>
      <trkpt lat="47.7548" lon="-1.82366">
        <ele>7</ele>
        <time>2021-07-21T15:56:22Z</time>
      </trkpt>
      <trkpt lat="47.75656" lon="-1.82293">
        <ele>5</ele>
        <time>2021-07-21T15:57:05Z</time>
      </trkpt>
      <trkpt lat="47.75902" lon="-1.82151">
        <ele>5</ele>
        <time>2021-07-21T15:58:06Z</time>
      </trkpt>
      <trkpt lat="47.76013" lon="-1.82052">
        <ele>5</ele>
        <time>2021-07-21T15:58:37Z</time>
      </trkpt>
      <trkpt lat="47.76088" lon="-1.81956">
        <ele>6</ele>
        <time>2021-07-21T15:59:00Z</time>
      </trkpt>
      <trkpt lat="47.7618" lon="-1.81876">
        <ele>7</ele>
        <time>2021-07-21T15:59:25Z</time>
      </trkpt>
      <trkpt lat="47.76246" lon="-1.81823">
        <ele>7</ele>
        <time>2021-07-21T15:59:42Z</time>
      </trkpt>
      <trkpt lat="47.76317" lon="-1.8184">
        <ele>5</ele>
        <time>2021-07-21T15:59:59Z</time>
      </trkpt>
      <trkpt lat="47.7636" lon="-1.81883">
        <ele>5</ele>
        <time>2021-07-21T16:00:11Z</time>
      </trkpt>
      <trkpt lat="47.76415" lon="-1.81964">
        <ele>6</ele>
        <time>2021-07-21T16:00:29Z</time>
      </trkpt>
      <trkpt lat="47.76487" lon="-1.82097">
        <ele>6</ele>
        <time>2021-07-21T16:00:56Z</time>
      </trkpt>
      <trkpt lat="47.76581" lon="-1.82284">
        <ele>8</ele>
        <time>2021-07-21T16:01:33Z</time>
      </trkpt>
      <trkpt lat="47.76642" lon="-1.82374">
        <ele>9</ele>
        <time>2021-07-21T16:01:53Z</time>
      </trkpt>
      <trkpt lat="47.76668" lon="-1.82443">
        <ele>5</ele>
        <time>2021-07-21T16:02:05Z</time>
      </trkpt>
      <trkpt lat="47.76679" lon="-1.82514">
        <ele>5</ele>
        <time>2021-07-21T16:02:16Z</time>
      </trkpt>
      <trkpt lat="47.76669" lon="-1.82623">
        <ele>5</ele>
        <time>2021-07-21T16:02:34Z</time>
      </trkpt>
      <trkpt lat="47.7664" lon="-1.82732">
        <ele>6</ele>
        <time>2021-07-21T16:02:52Z</time>
      </trkpt>
      <trkpt lat="47.76538" lon="-1.83044">
        <ele>6</ele>
        <time>2021-07-21T16:03:47Z</time>
      </trkpt>
      <trkpt lat="47.76493" lon="-1.83198">
        <ele>11</ele>
        <time>2021-07-21T16:04:13Z</time>
      </trkpt>
      <trkpt lat="47.76437" lon="-1.83499">
        <ele>9</ele>
        <time>2021-07-21T16:05:02Z</time>
      </trkpt>
      <trkpt lat="47.76391" lon="-1.83698">
        <ele>18</ele>
        <time>2021-07-21T16:05:35Z</time>
      </trkpt>
      <trkpt lat="47.76343" lon="-1.83958">
        <ele>22</ele>
        <time>2021-07-21T16:06:17Z</time>
      </trkpt>
      <trkpt lat="47.76309" lon="-1.84127">
        <ele>29</ele>
        <time>2021-07-21T16:06:45Z</time>
      </trkpt>
      <trkpt lat="47.76343" lon="-1.84282">
        <ele>21</ele>
        <time>2021-07-21T16:07:11Z</time>
      </trkpt>
      <trkpt lat="47.76377" lon="-1.84412">
        <ele>22</ele>
        <time>2021-07-21T16:07:33Z</time>
      </trkpt>
      <trkpt lat="47.76386" lon="-1.8455">
        <ele>27</ele>
        <time>2021-07-21T16:07:54Z</time>
      </trkpt>
      <trkpt lat="47.7643" lon="-1.84676">
        <ele>25</ele>
        <time>2021-07-21T16:08:17Z</time>
      </trkpt>
      <trkpt lat="47.76544" lon="-1.84791">
        <ele>23</ele>
        <time>2021-07-21T16:08:49Z</time>
      </trkpt>
      <trkpt lat="47.76643" lon="-1.84799">
        <ele>20</ele>
        <time>2021-07-21T16:09:12Z</time>
      </trkpt>
      <trkpt lat="47.76755" lon="-1.84773">
        <ele>17</ele>
        <time>2021-07-21T16:09:38Z</time>
      </trkpt>
      <trkpt lat="47.76884" lon="-1.84701">
        <ele>12</ele>
        <time>2021-07-21T16:10:11Z</time>
      </trkpt>
      <trkpt lat="47.77075" lon="-1.8443">
        <ele>7</ele>
        <time>2021-07-21T16:11:12Z</time>
      </trkpt>
      <trkpt lat="47.77206" lon="-1.8416">
        <ele>7</ele>
        <time>2021-07-21T16:12:04Z</time>
      </trkpt>
      <trkpt lat="47.77306" lon="-1.84005">
        <ele>10</ele>
        <time>2021-07-21T16:12:38Z</time>
      </trkpt>
      <trkpt lat="47.77383" lon="-1.83947">
        <ele>8</ele>
        <time>2021-07-21T16:12:58Z</time>
      </trkpt>
      <trkpt lat="47.77478" lon="-1.83965">
        <ele>5</ele>
        <time>2021-07-21T16:13:21Z</time>
      </trkpt>
      <trkpt lat="47.77592" lon="-1.84052">
        <ele>8</ele>
        <time>2021-07-21T16:13:51Z</time>
      </trkpt>
      <trkpt lat="47.7821" lon="-1.84589">
        <ele>9</ele>
        <time>2021-07-21T16:16:38Z</time>
      </trkpt>
      <trkpt lat="47.78377" lon="-1.84716">
        <ele>7</ele>
        <time>2021-07-21T16:17:22Z</time>
      </trkpt>
      <trkpt lat="47.78499" lon="-1.84784">
        <ele>8</ele>
        <time>2021-07-21T16:17:52Z</time>
      </trkpt>
      <trkpt lat="47.78601" lon="-1.84762">
        <ele>10</ele>
        <time>2021-07-21T16:18:16Z</time>
      </trkpt>
      <trkpt lat="47.7869" lon="-1.84683">
        <ele>7</ele>
        <time>2021-07-21T16:18:40Z</time>
      </trkpt>
      <trkpt lat="47.78765" lon="-1.84559">
        <ele>7</ele>
        <time>2021-07-21T16:19:06Z</time>
      </trkpt>
      <trkpt lat="47.78841" lon="-1.84441">
        <ele>8</ele>
        <time>2021-07-21T16:19:32Z</time>
      </trkpt>
      <trkpt lat="47.79066" lon="-1.84246">
        <ele>6</ele>
        <time>2021-07-21T16:20:33Z</time>
      </trkpt>
      <trkpt lat="47.79144" lon="-1.84144">
        <ele>7</ele>
        <time>2021-07-21T16:20:57Z</time>
      </trkpt>
      <trkpt lat="47.79289" lon="-1.84066">
        <ele>6</ele>
        <time>2021-07-21T16:21:33Z</time>
      </trkpt>
      <trkpt lat="47.7941" lon="-1.84006">
        <ele>8</ele>
        <time>2021-07-21T16:22:03Z</time>
      </trkpt>
      <trkpt lat="47.79551" lon="-1.84044">
        <ele>7</ele>
        <time>2021-07-21T16:22:36Z</time>
      </trkpt>
      <trkpt lat="47.79653" lon="-1.84106">
        <ele>7</ele>
        <time>2021-07-21T16:23:02Z</time>
      </trkpt>
      <trkpt lat="47.79854" lon="-1.84301">
        <ele>7</ele>
        <time>2021-07-21T16:23:58Z</time>
      </trkpt>
      <trkpt lat="47.80048" lon="-1.8438">
        <ele>8</ele>
        <time>2021-07-21T16:24:45Z</time>
      </trkpt>
      <trkpt lat="47.80169" lon="-1.84434">
        <ele>7</ele>
        <time>2021-07-21T16:25:15Z</time>
      </trkpt>
      <trkpt lat="47.80244" lon="-1.84495">
        <ele>8</ele>
        <time>2021-07-21T16:25:35Z</time>
      </trkpt>
      <trkpt lat="47.80399" lon="-1.84611">
        <ele>8</ele>
        <time>2021-07-21T16:26:15Z</time>
      </trkpt>
      <trkpt lat="47.80593" lon="-1.84654">
        <ele>6</ele>
        <time>2021-07-21T16:27:01Z</time>
      </trkpt>
      <trkpt lat="47.80833" lon="-1.84697">
        <ele>5</ele>
        <time>2021-07-21T16:27:57Z</time>
      </trkpt>
      <trkpt lat="47.81005" lon="-1.84701">
        <ele>6</ele>
        <time>2021-07-21T16:28:38Z</time>
      </trkpt>
      <trkpt lat="47.81148" lon="-1.84633">
        <ele>6</ele>
        <time>2021-07-21T16:29:13Z</time>
      </trkpt>
      <trkpt lat="47.81485" lon="-1.84272">
        <ele>9</ele>
        <time>2021-07-21T16:30:50Z</time>
      </trkpt>
      <trkpt lat="47.81548" lon="-1.84109">
        <ele>8</ele>
        <time>2021-07-21T16:31:19Z</time>
      </trkpt>
      <trkpt lat="47.81548" lon="-1.83936">
        <ele>6</ele>
        <time>2021-07-21T16:31:46Z</time>
      </trkpt>
      <trkpt lat="47.81514" lon="-1.83821">
        <ele>5</ele>
        <time>2021-07-21T16:32:06Z</time>
      </trkpt>
      <trkpt lat="47.81461" lon="-1.8373">
        <ele>7</ele>
        <time>2021-07-21T16:32:25Z</time>
      </trkpt>
      <trkpt lat="47.81439" lon="-1.83622">
        <ele>7</ele>
        <time>2021-07-21T16:32:42Z</time>
      </trkpt>
      <trkpt lat="47.81471" lon="-1.83485">
        <ele>6</ele>
        <time>2021-07-21T16:33:05Z</time>
      </trkpt>
      <trkpt lat="47.81585" lon="-1.8325">
        <ele>7</ele>
        <time>2021-07-21T16:33:51Z</time>
      </trkpt>
      <trkpt lat="47.81631" lon="-1.83052">
        <ele>7</ele>
        <time>2021-07-21T16:34:23Z</time>
      </trkpt>
      <trkpt lat="47.81735" lon="-1.82904">
        <ele>6</ele>
        <time>2021-07-21T16:34:57Z</time>
      </trkpt>
      <trkpt lat="47.81849" lon="-1.82911">
        <ele>4</ele>
        <time>2021-07-21T16:35:24Z</time>
      </trkpt>
      <trkpt lat="47.81931" lon="-1.82871">
        <ele>7</ele>
        <time>2021-07-21T16:35:44Z</time>
      </trkpt>
      <trkpt lat="47.8212" lon="-1.82565">
        <ele>8</ele>
        <time>2021-07-21T16:36:49Z</time>
      </trkpt>
      <trkpt lat="47.82222" lon="-1.82337">
        <ele>7</ele>
        <time>2021-07-21T16:37:32Z</time>
      </trkpt>
      <trkpt lat="47.82258" lon="-1.822">
        <ele>8</ele>
        <time>2021-07-21T16:37:55Z</time>
      </trkpt>
      <trkpt lat="47.82311" lon="-1.82034">
        <ele>9</ele>
        <time>2021-07-21T16:38:24Z</time>
      </trkpt>
      <trkpt lat="47.82561" lon="-1.81742">
        <ele>8</ele>
        <time>2021-07-21T16:39:38Z</time>
      </trkpt>
      <trkpt lat="47.82779" lon="-1.81565">
        <ele>6</ele>
        <time>2021-07-21T16:40:36Z</time>
      </trkpt>
      <trkpt lat="47.83138" lon="-1.81551">
        <ele>9</ele>
        <time>2021-07-21T16:42:00Z</time>
      </trkpt>
      <trkpt lat="47.83315" lon="-1.81471">
        <ele>12</ele>
        <time>2021-07-21T16:42:43Z</time>
      </trkpt>
      <trkpt lat="47.83392" lon="-1.81399">
        <ele>12</ele>
        <time>2021-07-21T16:43:04Z</time>
      </trkpt>
      <trkpt lat="47.83496" lon="-1.81201">
        <ele>8</ele>
        <time>2021-07-21T16:43:44Z</time>
      </trkpt>
      <trkpt lat="47.83503" lon="-1.81035">
        <ele>8</ele>
        <time>2021-07-21T16:44:10Z</time>
      </trkpt>
      <trkpt lat="47.83542" lon="-1.80746">
        <ele>8</ele>
        <time>2021-07-21T16:44:56Z</time>
      </trkpt>
      <trkpt lat="47.83547" lon="-1.80558">
        <ele>8</ele>
        <time>2021-07-21T16:45:26Z</time>
      </trkpt>
      <trkpt lat="47.83588" lon="-1.8032">
        <ele>9</ele>
        <time>2021-07-21T16:46:04Z</time>
      </trkpt>
      <trkpt lat="47.83644" lon="-1.80089">
        <ele>7</ele>
        <time>2021-07-21T16:46:43Z</time>
      </trkpt>
      <trkpt lat="47.83736" lon="-1.79764">
        <ele>5</ele>
        <time>2021-07-21T16:47:38Z</time>
      </trkpt>
      <trkpt lat="47.83784" lon="-1.79503">
        <ele>7</ele>
        <time>2021-07-21T16:48:20Z</time>
      </trkpt>
      <trkpt lat="47.8371" lon="-1.79339">
        <ele>7</ele>
        <time>2021-07-21T16:48:51Z</time>
      </trkpt>
      <trkpt lat="47.83609" lon="-1.79278">
        <ele>8</ele>
        <time>2021-07-21T16:49:17Z</time>
      </trkpt>
      <trkpt lat="47.83547" lon="-1.79157">
        <ele>10</ele>
        <time>2021-07-21T16:49:41Z</time>
      </trkpt>
      <trkpt lat="47.8358" lon="-1.78957">
        <ele>8</ele>
        <time>2021-07-21T16:50:13Z</time>
      </trkpt>
      <trkpt lat="47.83698" lon="-1.78635">
        <ele>8</ele>
        <time>2021-07-21T16:51:10Z</time>
      </trkpt>
      <trkpt lat="47.84004" lon="-1.78319">
        <ele>6</ele>
        <time>2021-07-21T16:52:37Z</time>
      </trkpt>
      <trkpt lat="47.84244" lon="-1.78256">
        <ele>6</ele>
        <time>2021-07-21T16:53:34Z</time>
      </trkpt>
      <trkpt lat="47.84338" lon="-1.78258">
        <ele>6</ele>
        <time>2021-07-21T16:53:56Z</time>
      </trkpt>
      <trkpt lat="47.84435" lon="-1.78234">
        <ele>9</ele>
        <time>2021-07-21T16:54:19Z</time>
      </trkpt>
      <trkpt lat="47.84587" lon="-1.78222">
        <ele>9</ele>
        <time>2021-07-21T16:54:55Z</time>
      </trkpt>
      <trkpt lat="47.84729" lon="-1.78224">
        <ele>11</ele>
        <time>2021-07-21T16:55:28Z</time>
      </trkpt>
      <trkpt lat="47.84843" lon="-1.78254">
        <ele>9</ele>
        <time>2021-07-21T16:55:55Z</time>
      </trkpt>
      <trkpt lat="47.8495" lon="-1.78231">
        <ele>10</ele>
        <time>2021-07-21T16:56:20Z</time>
      </trkpt>
      <trkpt lat="47.85081" lon="-1.78038">
        <ele>7</ele>
        <time>2021-07-21T16:57:03Z</time>
      </trkpt>
      <trkpt lat="47.8519" lon="-1.77909">
        <ele>10</ele>
        <time>2021-07-21T16:57:36Z</time>
      </trkpt>
      <trkpt lat="47.85329" lon="-1.77804">
        <ele>8</ele>
        <time>2021-07-21T16:58:12Z</time>
      </trkpt>
      <trkpt lat="47.85457" lon="-1.77784">
        <ele>8</ele>
        <time>2021-07-21T16:58:42Z</time>
      </trkpt>
      <trkpt lat="47.8572" lon="-1.77636">
        <ele>10</ele>
        <time>2021-07-21T16:59:48Z</time>
      </trkpt>
      <trkpt lat="47.85861" lon="-1.77613">
        <ele>10</ele>
        <time>2021-07-21T17:00:21Z</time>
      </trkpt>
      <trkpt lat="47.85994" lon="-1.77632">
        <ele>9</ele>
        <time>2021-07-21T17:00:52Z</time>
      </trkpt>
      <trkpt lat="47.86276" lon="-1.77652">
        <ele>7</ele>
        <time>2021-07-21T17:01:58Z</time>
      </trkpt>
      <trkpt lat="47.86574" lon="-1.77743">
        <ele>9</ele>
        <time>2021-07-21T17:03:09Z</time>
      </trkpt>
      <trkpt lat="47.86793" lon="-1.77773">
        <ele>11</ele>
        <time>2021-07-21T17:04:00Z</time>
      </trkpt>
      <trkpt lat="47.86947" lon="-1.77765">
        <ele>11</ele>
        <time>2021-07-21T17:04:36Z</time>
      </trkpt>
      <trkpt lat="47.87175" lon="-1.77812">
        <ele>11</ele>
        <time>2021-07-21T17:05:30Z</time>
      </trkpt>
      <trkpt lat="47.87518" lon="-1.77812">
        <ele>12</ele>
        <time>2021-07-21T17:06:50Z</time>
      </trkpt>
      <trkpt lat="47.87651" lon="-1.77837">
        <ele>11</ele>
        <time>2021-07-21T17:07:22Z</time>
      </trkpt>
      <trkpt lat="47.87872" lon="-1.78014">
        <ele>15</ele>
        <time>2021-07-21T17:08:20Z</time>
      </trkpt>
      <trkpt lat="47.88024" lon="-1.78176">
        <ele>13</ele>
        <time>2021-07-21T17:09:04Z</time>
      </trkpt>
      <trkpt lat="47.88213" lon="-1.78407">
        <ele>15</ele>
        <time>2021-07-21T17:10:01Z</time>
      </trkpt>
      <trkpt lat="47.88368" lon="-1.78572">
        <ele>36</ele>
        <time>2021-07-21T17:10:45Z</time>
      </trkpt>
      <trkpt lat="47.88612" lon="-1.7864">
        <ele>21</ele>
        <time>2021-07-21T17:11:43Z</time>
      </trkpt>
      <trkpt lat="47.88794" lon="-1.78635">
        <ele>19</ele>
        <time>2021-07-21T17:12:26Z</time>
      </trkpt>
      <trkpt lat="47.88924" lon="-1.78682">
        <ele>24</ele>
        <time>2021-07-21T17:12:57Z</time>
      </trkpt>
      <trkpt lat="47.89026" lon="-1.78675">
        <ele>26</ele>
        <time>2021-07-21T17:13:21Z</time>
      </trkpt>
      <trkpt lat="47.89106" lon="-1.7857">
        <ele>14</ele>
        <time>2021-07-21T17:13:46Z</time>
      </trkpt>
      <trkpt lat="47.89149" lon="-1.78429">
        <ele>8</ele>
        <time>2021-07-21T17:14:10Z</time>
      </trkpt>
      <trkpt lat="47.89234" lon="-1.78108">
        <ele>9</ele>
        <time>2021-07-21T17:15:04Z</time>
      </trkpt>
      <trkpt lat="47.89246" lon="-1.77964">
        <ele>12</ele>
        <time>2021-07-21T17:15:27Z</time>
      </trkpt>
      <trkpt lat="47.8927" lon="-1.77552">
        <ele>13</ele>
        <time>2021-07-21T17:16:32Z</time>
      </trkpt>
      <trkpt lat="47.89329" lon="-1.77361">
        <ele>10</ele>
        <time>2021-07-21T17:17:05Z</time>
      </trkpt>
      <trkpt lat="47.89365" lon="-1.77199">
        <ele>11</ele>
        <time>2021-07-21T17:17:31Z</time>
      </trkpt>
      <trkpt lat="47.89447" lon="-1.76603">
        <ele>17</ele>
        <time>2021-07-21T17:19:07Z</time>
      </trkpt>
      <trkpt lat="47.8945" lon="-1.76401">
        <ele>18</ele>
        <time>2021-07-21T17:19:38Z</time>
      </trkpt>
      <trkpt lat="47.89483" lon="-1.76293">
        <ele>15</ele>
        <time>2021-07-21T17:19:57Z</time>
      </trkpt>
      <trkpt lat="47.89641" lon="-1.75957">
        <ele>12</ele>
        <time>2021-07-21T17:21:01Z</time>
      </trkpt>
      <trkpt lat="47.89725" lon="-1.75842">
        <ele>13</ele>
        <time>2021-07-21T17:21:28Z</time>
      </trkpt>
      <trkpt lat="47.89861" lon="-1.75777">
        <ele>11</ele>
        <time>2021-07-21T17:22:01Z</time>
      </trkpt>
      <trkpt lat="47.8995" lon="-1.75757">
        <ele>11</ele>
        <time>2021-07-21T17:22:22Z</time>
      </trkpt>
      <trkpt lat="47.90127" lon="-1.7586">
        <ele>14</ele>
        <time>2021-07-21T17:23:06Z</time>
      </trkpt>
      <trkpt lat="47.90316" lon="-1.76029">
        <ele>19</ele>
        <time>2021-07-21T17:23:58Z</time>
      </trkpt>
      <trkpt lat="47.9049" lon="-1.76166">
        <ele>12</ele>
        <time>2021-07-21T17:24:44Z</time>
      </trkpt>
      <trkpt lat="47.90628" lon="-1.76271">
        <ele>15</ele>
        <time>2021-07-21T17:25:20Z</time>
      </trkpt>
      <trkpt lat="47.90754" lon="-1.76383">
        <ele>16</ele>
        <time>2021-07-21T17:25:54Z</time>
      </trkpt>
      <trkpt lat="47.90923" lon="-1.76459">
        <ele>12</ele>
        <time>2021-07-21T17:26:35Z</time>
      </trkpt>
      <trkpt lat="47.91104" lon="-1.76581">
        <ele>12</ele>
        <time>2021-07-21T17:27:22Z</time>
      </trkpt>
      <trkpt lat="47.91298" lon="-1.7669">
        <ele>18</ele>
        <time>2021-07-21T17:28:10Z</time>
      </trkpt>
      <trkpt lat="47.9138" lon="-1.76805">
        <ele>22</ele>
        <time>2021-07-21T17:28:36Z</time>
      </trkpt>
      <trkpt lat="47.91472" lon="-1.76901">
        <ele>23</ele>
        <time>2021-07-21T17:29:03Z</time>
      </trkpt>
      <trkpt lat="47.91673" lon="-1.76993">
        <ele>21</ele>
        <time>2021-07-21T17:29:52Z</time>
      </trkpt>
      <trkpt lat="47.91864" lon="-1.77058">
        <ele>21</ele>
        <time>2021-07-21T17:30:38Z</time>
      </trkpt>
      <trkpt lat="47.92077" lon="-1.76993">
        <ele>19</ele>
        <time>2021-07-21T17:31:28Z</time>
      </trkpt>
      <trkpt lat="47.92161" lon="-1.76838">
        <ele>19</ele>
        <time>2021-07-21T17:32:00Z</time>
      </trkpt>
      <trkpt lat="47.92256" lon="-1.76578">
        <ele>23</ele>
        <time>2021-07-21T17:32:46Z</time>
      </trkpt>
      <trkpt lat="47.92268" lon="-1.7635">
        <ele>18</ele>
        <time>2021-07-21T17:33:22Z</time>
      </trkpt>
      <trkpt lat="47.9227" lon="-1.76163">
        <ele>15</ele>
        <time>2021-07-21T17:33:51Z</time>
      </trkpt>
      <trkpt lat="47.92285" lon="-1.75921">
        <ele>15</ele>
        <time>2021-07-21T17:34:29Z</time>
      </trkpt>
      <trkpt lat="47.92275" lon="-1.75708">
        <ele>14</ele>
        <time>2021-07-21T17:35:02Z</time>
      </trkpt>
      <trkpt lat="47.9213" lon="-1.75409">
        <ele>22</ele>
        <time>2021-07-21T17:36:00Z</time>
      </trkpt>
      <trkpt lat="47.92106" lon="-1.75311">
        <ele>20</ele>
        <time>2021-07-21T17:36:16Z</time>
      </trkpt>
      <trkpt lat="47.92091" lon="-1.75048">
        <ele>17</ele>
        <time>2021-07-21T17:36:58Z</time>
      </trkpt>
      <trkpt lat="47.92115" lon="-1.749">
        <ele>21</ele>
        <time>2021-07-21T17:37:22Z</time>
      </trkpt>
      <trkpt lat="47.92195" lon="-1.74788">
        <ele>17</ele>
        <time>2021-07-21T17:37:47Z</time>
      </trkpt>
      <trkpt lat="47.92374" lon="-1.74651">
        <ele>16</ele>
        <time>2021-07-21T17:38:34Z</time>
      </trkpt>
      <trkpt lat="47.92497" lon="-1.74683">
        <ele>15</ele>
        <time>2021-07-21T17:39:03Z</time>
      </trkpt>
      <trkpt lat="47.92599" lon="-1.7481">
        <ele>13</ele>
        <time>2021-07-21T17:39:34Z</time>
      </trkpt>
      <trkpt lat="47.92667" lon="-1.74961">
        <ele>12</ele>
        <time>2021-07-21T17:40:03Z</time>
      </trkpt>
      <trkpt lat="47.92635" lon="-1.75069">
        <ele>14</ele>
        <time>2021-07-21T17:40:21Z</time>
      </trkpt>
      <trkpt lat="47.92616" lon="-1.7516">
        <ele>17</ele>
        <time>2021-07-21T17:40:36Z</time>
      </trkpt>
      <trkpt lat="47.92558" lon="-1.75271">
        <ele>19</ele>
        <time>2021-07-21T17:40:58Z</time>
      </trkpt>
      <trkpt lat="47.92517" lon="-1.75423">
        <ele>21</ele>
        <time>2021-07-21T17:41:24Z</time>
      </trkpt>
      <trkpt lat="47.92621" lon="-1.7575">
        <ele>24</ele>
        <time>2021-07-21T17:42:21Z</time>
      </trkpt>
      <trkpt lat="47.92669" lon="-1.7582">
        <ele>27</ele>
        <time>2021-07-21T17:42:36Z</time>
      </trkpt>
      <trkpt lat="47.92708" lon="-1.75903">
        <ele>28</ele>
        <time>2021-07-21T17:42:52Z</time>
      </trkpt>
      <trkpt lat="47.92742" lon="-1.76026">
        <ele>27</ele>
        <time>2021-07-21T17:43:13Z</time>
      </trkpt>
      <trkpt lat="47.92834" lon="-1.76163">
        <ele>25</ele>
        <time>2021-07-21T17:43:43Z</time>
      </trkpt>
      <trkpt lat="47.92908" lon="-1.76228">
        <ele>24</ele>
        <time>2021-07-21T17:44:03Z</time>
      </trkpt>
      <trkpt lat="47.93119" lon="-1.76163">
        <ele>21</ele>
        <time>2021-07-21T17:44:54Z</time>
      </trkpt>
      <trkpt lat="47.9322" lon="-1.76112">
        <ele>19</ele>
        <time>2021-07-21T17:45:19Z</time>
      </trkpt>
      <trkpt lat="47.9331" lon="-1.7599">
        <ele>15</ele>
        <time>2021-07-21T17:45:47Z</time>
      </trkpt>
      <trkpt lat="47.93373" lon="-1.75834">
        <ele>15</ele>
        <time>2021-07-21T17:46:15Z</time>
      </trkpt>
      <trkpt lat="47.93501" lon="-1.75596">
        <ele>18</ele>
        <time>2021-07-21T17:47:03Z</time>
      </trkpt>
      <trkpt lat="47.93602" lon="-1.75376">
        <ele>17</ele>
        <time>2021-07-21T17:47:45Z</time>
      </trkpt>
      <trkpt lat="47.93675" lon="-1.75304">
        <ele>15</ele>
        <time>2021-07-21T17:48:05Z</time>
      </trkpt>
      <trkpt lat="47.93803" lon="-1.75246">
        <ele>16</ele>
        <time>2021-07-21T17:48:37Z</time>
      </trkpt>
      <trkpt lat="47.93883" lon="-1.75142">
        <ele>20</ele>
        <time>2021-07-21T17:49:01Z</time>
      </trkpt>
      <trkpt lat="47.94052" lon="-1.75012">
        <ele>19</ele>
        <time>2021-07-21T17:49:46Z</time>
      </trkpt>
      <trkpt lat="47.94163" lon="-1.75022">
        <ele>15</ele>
        <time>2021-07-21T17:50:12Z</time>
      </trkpt>
      <trkpt lat="47.94318" lon="-1.75116">
        <ele>14</ele>
        <time>2021-07-21T17:50:51Z</time>
      </trkpt>
      <trkpt lat="47.94453" lon="-1.7517">
        <ele>17</ele>
        <time>2021-07-21T17:51:23Z</time>
      </trkpt>
      <trkpt lat="47.9455" lon="-1.75185">
        <ele>19</ele>
        <time>2021-07-21T17:51:46Z</time>
      </trkpt>
      <trkpt lat="47.94639" lon="-1.75156">
        <ele>21</ele>
        <time>2021-07-21T17:52:07Z</time>
      </trkpt>
      <trkpt lat="47.94787" lon="-1.75087">
        <ele>21</ele>
        <time>2021-07-21T17:52:44Z</time>
      </trkpt>
      <trkpt lat="47.95154" lon="-1.74958">
        <ele>23</ele>
        <time>2021-07-21T17:54:12Z</time>
      </trkpt>
      <trkpt lat="47.95307" lon="-1.74846">
        <ele>20</ele>
        <time>2021-07-21T17:54:52Z</time>
      </trkpt>
      <trkpt lat="47.95466" lon="-1.74709">
        <ele>19</ele>
        <time>2021-07-21T17:55:34Z</time>
      </trkpt>
      <trkpt lat="47.95783" lon="-1.74701">
        <ele>18</ele>
        <time>2021-07-21T17:56:48Z</time>
      </trkpt>
      <trkpt lat="47.95913" lon="-1.74705">
        <ele>18</ele>
        <time>2021-07-21T17:57:19Z</time>
      </trkpt>
      <trkpt lat="47.96092" lon="-1.74752">
        <ele>19</ele>
        <time>2021-07-21T17:58:01Z</time>
      </trkpt>
      <trkpt lat="47.96237" lon="-1.74566">
        <ele>14</ele>
        <time>2021-07-21T17:58:46Z</time>
      </trkpt>
      <trkpt lat="47.9645" lon="-1.74474">
        <ele>16</ele>
        <time>2021-07-21T17:59:38Z</time>
      </trkpt>
      <trkpt lat="47.96578" lon="-1.74521">
        <ele>17</ele>
        <time>2021-07-21T18:00:08Z</time>
      </trkpt>
      <trkpt lat="47.96725" lon="-1.74672">
        <ele>13</ele>
        <time>2021-07-21T18:00:50Z</time>
      </trkpt>
      <trkpt lat="47.96904" lon="-1.74806">
        <ele>15</ele>
        <time>2021-07-21T18:01:37Z</time>
      </trkpt>
      <trkpt lat="47.97013" lon="-1.74849">
        <ele>16</ele>
        <time>2021-07-21T18:02:03Z</time>
      </trkpt>
      <trkpt lat="47.97182" lon="-1.74882">
        <ele>18</ele>
        <time>2021-07-21T18:02:43Z</time>
      </trkpt>
      <trkpt lat="47.97351" lon="-1.74948">
        <ele>17</ele>
        <time>2021-07-21T18:03:24Z</time>
      </trkpt>
      <trkpt lat="47.97445" lon="-1.75044">
        <ele>17</ele>
        <time>2021-07-21T18:03:50Z</time>
      </trkpt>
      <trkpt lat="47.97561" lon="-1.75015">
        <ele>17</ele>
        <time>2021-07-21T18:04:18Z</time>
      </trkpt>
      <trkpt lat="47.97655" lon="-1.75087">
        <ele>17</ele>
        <time>2021-07-21T18:04:43Z</time>
      </trkpt>
      <trkpt lat="47.9781" lon="-1.75246">
        <ele>17</ele>
        <time>2021-07-21T18:05:26Z</time>
      </trkpt>
      <trkpt lat="47.98075" lon="-1.75449">
        <ele>20</ele>
        <time>2021-07-21T18:06:36Z</time>
      </trkpt>
      <trkpt lat="47.984" lon="-1.75673">
        <ele>22</ele>
        <time>2021-07-21T18:08:00Z</time>
      </trkpt>
      <trkpt lat="47.98603" lon="-1.75825">
        <ele>24</ele>
        <time>2021-07-21T18:08:53Z</time>
      </trkpt>
      <trkpt lat="47.98806" lon="-1.75861">
        <ele>17</ele>
        <time>2021-07-21T18:09:40Z</time>
      </trkpt>
      <trkpt lat="47.99034" lon="-1.75679">
        <ele>19</ele>
        <time>2021-07-21T18:10:41Z</time>
      </trkpt>
      <trkpt lat="47.99089" lon="-1.7568">
        <ele>17</ele>
        <time>2021-07-21T18:10:54Z</time>
      </trkpt>
      <trkpt lat="47.99255" lon="-1.75556">
        <ele>19</ele>
        <time>2021-07-21T18:11:37Z</time>
      </trkpt>
      <trkpt lat="47.99372" lon="-1.75429">
        <ele>21</ele>
        <time>2021-07-21T18:12:11Z</time>
      </trkpt>
      <trkpt lat="47.99425" lon="-1.75326">
        <ele>23</ele>
        <time>2021-07-21T18:12:31Z</time>
      </trkpt>
      <trkpt lat="47.99465" lon="-1.75234">
        <ele>22</ele>
        <time>2021-07-21T18:12:48Z</time>
      </trkpt>
      <trkpt lat="47.99519" lon="-1.75179">
        <ele>20</ele>
        <time>2021-07-21T18:13:03Z</time>
      </trkpt>
      <trkpt lat="47.99576" lon="-1.75186">
        <ele>21</ele>
        <time>2021-07-21T18:13:17Z</time>
      </trkpt>
      <trkpt lat="47.99636" lon="-1.75239">
        <ele>19</ele>
        <time>2021-07-21T18:13:33Z</time>
      </trkpt>
      <trkpt lat="47.99652" lon="-1.75289">
        <ele>20</ele>
        <time>2021-07-21T18:13:42Z</time>
      </trkpt>
      <trkpt lat="47.99682" lon="-1.75401">
        <ele>23</ele>
        <time>2021-07-21T18:14:01Z</time>
      </trkpt>
      <trkpt lat="47.99695" lon="-1.75493">
        <ele>27</ele>
        <time>2021-07-21T18:14:15Z</time>
      </trkpt>
      <trkpt lat="47.99704" lon="-1.75791">
        <ele>28</ele>
        <time>2021-07-21T18:15:02Z</time>
      </trkpt>
      <trkpt lat="47.99719" lon="-1.76174">
        <ele>32</ele>
        <time>2021-07-21T18:16:02Z</time>
      </trkpt>
      <trkpt lat="47.99823" lon="-1.76496">
        <ele>19</ele>
        <time>2021-07-21T18:16:58Z</time>
      </trkpt>
      <trkpt lat="47.99882" lon="-1.7652">
        <ele>17</ele>
        <time>2021-07-21T18:17:12Z</time>
      </trkpt>
      <trkpt lat="47.99928" lon="-1.76497">
        <ele>18</ele>
        <time>2021-07-21T18:17:23Z</time>
      </trkpt>
      <trkpt lat="47.9994" lon="-1.76444">
        <ele>17</ele>
        <time>2021-07-21T18:17:32Z</time>
      </trkpt>
      <trkpt lat="47.99951" lon="-1.76364">
        <ele>16</ele>
        <time>2021-07-21T18:17:45Z</time>
      </trkpt>
      <trkpt lat="47.99973" lon="-1.76322">
        <ele>15</ele>
        <time>2021-07-21T18:17:53Z</time>
      </trkpt>
      <trkpt lat="48.0003" lon="-1.76259">
        <ele>14</ele>
        <time>2021-07-21T18:18:10Z</time>
      </trkpt>
      <trkpt lat="48.00104" lon="-1.76219">
        <ele>14</ele>
        <time>2021-07-21T18:18:28Z</time>
      </trkpt>
      <trkpt lat="48.00138" lon="-1.76227">
        <ele>15</ele>
        <time>2021-07-21T18:18:36Z</time>
      </trkpt>
      <trkpt lat="48.00165" lon="-1.76268">
        <ele>15</ele>
        <time>2021-07-21T18:18:45Z</time>
      </trkpt>
      <trkpt lat="48.00181" lon="-1.7633">
        <ele>17</ele>
        <time>2021-07-21T18:18:55Z</time>
      </trkpt>
      <trkpt lat="48.00185" lon="-1.76407">
        <ele>16</ele>
        <time>2021-07-21T18:19:08Z</time>
      </trkpt>
      <trkpt lat="48.00184" lon="-1.76489">
        <ele>15</ele>
        <time>2021-07-21T18:19:20Z</time>
      </trkpt>
      <trkpt lat="48.00196" lon="-1.76587">
        <ele>17</ele>
        <time>2021-07-21T18:19:36Z</time>
      </trkpt>
      <trkpt lat="48.00226" lon="-1.76721">
        <ele>18</ele>
        <time>2021-07-21T18:19:58Z</time>
      </trkpt>
      <trkpt lat="48.00221" lon="-1.76817">
        <ele>18</ele>
        <time>2021-07-21T18:20:13Z</time>
      </trkpt>
      <trkpt lat="48.00204" lon="-1.76903">
        <ele>19</ele>
        <time>2021-07-21T18:20:27Z</time>
      </trkpt>
      <trkpt lat="48.00202" lon="-1.76955">
        <ele>18</ele>
        <time>2021-07-21T18:20:35Z</time>
      </trkpt>
      <trkpt lat="48.00225" lon="-1.77362">
        <ele>17</ele>
        <time>2021-07-21T18:21:39Z</time>
      </trkpt>
      <trkpt lat="48.00217" lon="-1.77454">
        <ele>16</ele>
        <time>2021-07-21T18:21:53Z</time>
      </trkpt>
      <trkpt lat="48.00201" lon="-1.77511">
        <ele>16</ele>
        <time>2021-07-21T18:22:03Z</time>
      </trkpt>
      <trkpt lat="48.00203" lon="-1.7753">
        <ele>17</ele>
        <time>2021-07-21T18:22:06Z</time>
      </trkpt>
      <trkpt lat="48.00307" lon="-1.77531">
        <ele>17</ele>
        <time>2021-07-21T18:22:30Z</time>
      </trkpt>
      <trkpt lat="48.00302" lon="-1.77569">
        <ele>17</ele>
        <time>2021-07-21T18:22:36Z</time>
      </trkpt>
      <trkpt lat="48.00318" lon="-1.77755">
        <ele>16</ele>
        <time>2021-07-21T18:23:06Z</time>
      </trkpt>
      <trkpt lat="48.00322" lon="-1.77836">
        <ele>16</ele>
        <time>2021-07-21T18:23:18Z</time>
      </trkpt>
      <trkpt lat="48.00346" lon="-1.77894">
        <ele>16</ele>
        <time>2021-07-21T18:23:29Z</time>
      </trkpt>
      <trkpt lat="48.00408" lon="-1.77997">
        <ele>18</ele>
        <time>2021-07-21T18:23:51Z</time>
      </trkpt>
      <trkpt lat="48.00415" lon="-1.78068">
        <ele>19</ele>
        <time>2021-07-21T18:24:02Z</time>
      </trkpt>
      <trkpt lat="48.00389" lon="-1.78132">
        <ele>19</ele>
        <time>2021-07-21T18:24:14Z</time>
      </trkpt>
      <trkpt lat="48.00362" lon="-1.78225">
        <ele>20</ele>
        <time>2021-07-21T18:24:30Z</time>
      </trkpt>
      <trkpt lat="48.00346" lon="-1.78338">
        <ele>18</ele>
        <time>2021-07-21T18:24:48Z</time>
      </trkpt>
      <trkpt lat="48.00348" lon="-1.78409">
        <ele>17</ele>
        <time>2021-07-21T18:24:59Z</time>
      </trkpt>
      <trkpt lat="48.00372" lon="-1.78448">
        <ele>17</ele>
        <time>2021-07-21T18:25:07Z</time>
      </trkpt>
      <trkpt lat="48.00537" lon="-1.78495">
        <ele>18</ele>
        <time>2021-07-21T18:25:46Z</time>
      </trkpt>
      <trkpt lat="48.00646" lon="-1.78512">
        <ele>17</ele>
        <time>2021-07-21T18:26:12Z</time>
      </trkpt>
      <trkpt lat="48.00711" lon="-1.78504">
        <ele>18</ele>
        <time>2021-07-21T18:26:27Z</time>
      </trkpt>
      <trkpt lat="48.00794" lon="-1.78443">
        <ele>17</ele>
        <time>2021-07-21T18:26:49Z</time>
      </trkpt>
      <trkpt lat="48.00849" lon="-1.78374">
        <ele>18</ele>
        <time>2021-07-21T18:27:05Z</time>
      </trkpt>
      <trkpt lat="48.00899" lon="-1.78351">
        <ele>19</ele>
        <time>2021-07-21T18:27:18Z</time>
      </trkpt>
      <trkpt lat="48.00968" lon="-1.78351">
        <ele>20</ele>
        <time>2021-07-21T18:27:34Z</time>
      </trkpt>
      <trkpt lat="48.01027" lon="-1.78308">
        <ele>19</ele>
        <time>2021-07-21T18:27:49Z</time>
      </trkpt>
      <trkpt lat="48.0112" lon="-1.78286">
        <ele>20</ele>
        <time>2021-07-21T18:28:11Z</time>
      </trkpt>
      <trkpt lat="48.01232" lon="-1.78235">
        <ele>20</ele>
        <time>2021-07-21T18:28:38Z</time>
      </trkpt>
      <trkpt lat="48.01305" lon="-1.78186">
        <ele>21</ele>
        <time>2021-07-21T18:28:57Z</time>
      </trkpt>
      <trkpt lat="48.01393" lon="-1.78156">
        <ele>22</ele>
        <time>2021-07-21T18:29:18Z</time>
      </trkpt>
      <trkpt lat="48.01473" lon="-1.78205">
        <ele>19</ele>
        <time>2021-07-21T18:29:38Z</time>
      </trkpt>
      <trkpt lat="48.01581" lon="-1.78196">
        <ele>16</ele>
        <time>2021-07-21T18:30:04Z</time>
      </trkpt>
      <trkpt lat="48.01642" lon="-1.78156">
        <ele>17</ele>
        <time>2021-07-21T18:30:19Z</time>
      </trkpt>
      <trkpt lat="48.01737" lon="-1.77952">
        <ele>18</ele>
        <time>2021-07-21T18:30:58Z</time>
      </trkpt>
      <trkpt lat="48.01998" lon="-1.77687">
        <ele>19</ele>
        <time>2021-07-21T18:32:12Z</time>
      </trkpt>
      <trkpt lat="48.02062" lon="-1.77591">
        <ele>18</ele>
        <time>2021-07-21T18:32:33Z</time>
      </trkpt>
      <trkpt lat="48.02116" lon="-1.77516">
        <ele>19</ele>
        <time>2021-07-21T18:32:50Z</time>
      </trkpt>
      <trkpt lat="48.02182" lon="-1.77477">
        <ele>20</ele>
        <time>2021-07-21T18:33:07Z</time>
      </trkpt>
      <trkpt lat="48.02281" lon="-1.77437">
        <ele>20</ele>
        <time>2021-07-21T18:33:31Z</time>
      </trkpt>
      <trkpt lat="48.02463" lon="-1.77274">
        <ele>19</ele>
        <time>2021-07-21T18:34:20Z</time>
      </trkpt>
      <trkpt lat="48.02641" lon="-1.77274">
        <ele>17</ele>
        <time>2021-07-21T18:35:02Z</time>
      </trkpt>
      <trkpt lat="48.02893" lon="-1.77284">
        <ele>21</ele>
        <time>2021-07-21T18:36:01Z</time>
      </trkpt>
      <trkpt lat="48.03343" lon="-1.7731">
        <ele>20</ele>
        <time>2021-07-21T18:37:46Z</time>
      </trkpt>
      <trkpt lat="48.03431" lon="-1.7734">
        <ele>20</ele>
        <time>2021-07-21T18:38:07Z</time>
      </trkpt>
      <trkpt lat="48.03487" lon="-1.77413">
        <ele>20</ele>
        <time>2021-07-21T18:38:24Z</time>
      </trkpt>
      <trkpt lat="48.03541" lon="-1.77503">
        <ele>21</ele>
        <time>2021-07-21T18:38:43Z</time>
      </trkpt>
      <trkpt lat="48.03606" lon="-1.77499">
        <ele>22</ele>
        <time>2021-07-21T18:38:58Z</time>
      </trkpt>
      <trkpt lat="48.03667" lon="-1.77467">
        <ele>20</ele>
        <time>2021-07-21T18:39:13Z</time>
      </trkpt>
      <trkpt lat="48.03733" lon="-1.77505">
        <ele>19</ele>
        <time>2021-07-21T18:39:30Z</time>
      </trkpt>
      <trkpt lat="48.03842" lon="-1.77587">
        <ele>19</ele>
        <time>2021-07-21T18:39:58Z</time>
      </trkpt>
      <trkpt lat="48.03934" lon="-1.77613">
        <ele>20</ele>
        <time>2021-07-21T18:40:20Z</time>
      </trkpt>
      <trkpt lat="48.04066" lon="-1.77628">
        <ele>24</ele>
        <time>2021-07-21T18:40:51Z</time>
      </trkpt>
      <trkpt lat="48.04168" lon="-1.77606">
        <ele>23</ele>
        <time>2021-07-21T18:41:15Z</time>
      </trkpt>
      <trkpt lat="48.0423" lon="-1.77501">
        <ele>23</ele>
        <time>2021-07-21T18:41:37Z</time>
      </trkpt>
      <trkpt lat="48.04284" lon="-1.77398">
        <ele>22</ele>
        <time>2021-07-21T18:41:57Z</time>
      </trkpt>
      <trkpt lat="48.0437" lon="-1.77338">
        <ele>20</ele>
        <time>2021-07-21T18:42:20Z</time>
      </trkpt>
      <trkpt lat="48.04451" lon="-1.77261">
        <ele>21</ele>
        <time>2021-07-21T18:42:42Z</time>
      </trkpt>
      <trkpt lat="48.04468" lon="-1.77199">
        <ele>19</ele>
        <time>2021-07-21T18:42:53Z</time>
      </trkpt>
      <trkpt lat="48.04442" lon="-1.771">
        <ele>18</ele>
        <time>2021-07-21T18:43:09Z</time>
      </trkpt>
      <trkpt lat="48.04399" lon="-1.76917">
        <ele>18</ele>
        <time>2021-07-21T18:43:39Z</time>
      </trkpt>
      <trkpt lat="48.04412" lon="-1.76844">
        <ele>20</ele>
        <time>2021-07-21T18:43:51Z</time>
      </trkpt>
      <trkpt lat="48.04438" lon="-1.76769">
        <ele>21</ele>
        <time>2021-07-21T18:44:04Z</time>
      </trkpt>
      <trkpt lat="48.04495" lon="-1.76707">
        <ele>21</ele>
        <time>2021-07-21T18:44:21Z</time>
      </trkpt>
      <trkpt lat="48.04594" lon="-1.76651">
        <ele>21</ele>
        <time>2021-07-21T18:44:46Z</time>
      </trkpt>
      <trkpt lat="48.04676" lon="-1.76626">
        <ele>21</ele>
        <time>2021-07-21T18:45:05Z</time>
      </trkpt>
      <trkpt lat="48.04762" lon="-1.76611">
        <ele>18</ele>
        <time>2021-07-21T18:45:25Z</time>
      </trkpt>
      <trkpt lat="48.04831" lon="-1.7663">
        <ele>19</ele>
        <time>2021-07-21T18:45:42Z</time>
      </trkpt>
      <trkpt lat="48.04924" lon="-1.76645">
        <ele>22</ele>
        <time>2021-07-21T18:46:04Z</time>
      </trkpt>
      <trkpt lat="48.05046" lon="-1.76669">
        <ele>20</ele>
        <time>2021-07-21T18:46:32Z</time>
      </trkpt>
      <trkpt lat="48.05118" lon="-1.76641">
        <ele>20</ele>
        <time>2021-07-21T18:46:50Z</time>
      </trkpt>
      <trkpt lat="48.05344" lon="-1.76544">
        <ele>20</ele>
        <time>2021-07-21T18:47:45Z</time>
      </trkpt>
      <trkpt lat="48.06183" lon="-1.76202">
        <ele>22</ele>
        <time>2021-07-21T18:51:08Z</time>
      </trkpt>
      <trkpt lat="48.06374" lon="-1.76117">
        <ele>21</ele>
        <time>2021-07-21T18:51:54Z</time>
      </trkpt>
      <trkpt lat="48.06532" lon="-1.76043">
        <ele>20</ele>
        <time>2021-07-21T18:52:33Z</time>
      </trkpt>
      <trkpt lat="48.06551" lon="-1.76045">
        <ele>20</ele>
        <time>2021-07-21T18:52:37Z</time>
      </trkpt>
      <trkpt lat="48.06592" lon="-1.76008">
        <ele>21</ele>
        <time>2021-07-21T18:52:48Z</time>
      </trkpt>
      <trkpt lat="48.06714" lon="-1.75847">
        <ele>22</ele>
        <time>2021-07-21T18:53:26Z</time>
      </trkpt>
      <trkpt lat="48.06761" lon="-1.75802">
        <ele>21</ele>
        <time>2021-07-21T18:53:40Z</time>
      </trkpt>
      <trkpt lat="48.06817" lon="-1.75772">
        <ele>23</ele>
        <time>2021-07-21T18:53:53Z</time>
      </trkpt>
      <trkpt lat="48.06863" lon="-1.75762">
        <ele>23</ele>
        <time>2021-07-21T18:54:04Z</time>
      </trkpt>
      <trkpt lat="48.069" lon="-1.75767">
        <ele>22</ele>
        <time>2021-07-21T18:54:13Z</time>
      </trkpt>
      <trkpt lat="48.06928" lon="-1.75791">
        <ele>21</ele>
        <time>2021-07-21T18:54:20Z</time>
      </trkpt>
      <trkpt lat="48.06948" lon="-1.75828">
        <ele>20</ele>
        <time>2021-07-21T18:54:28Z</time>
      </trkpt>
      <trkpt lat="48.06977" lon="-1.7587">
        <ele>21</ele>
        <time>2021-07-21T18:54:37Z</time>
      </trkpt>
      <trkpt lat="48.07034" lon="-1.75913">
        <ele>23</ele>
        <time>2021-07-21T18:54:52Z</time>
      </trkpt>
      <trkpt lat="48.07074" lon="-1.75929">
        <ele>25</ele>
        <time>2021-07-21T18:55:02Z</time>
      </trkpt>
      <trkpt lat="48.07108" lon="-1.75928">
        <ele>25</ele>
        <time>2021-07-21T18:55:10Z</time>
      </trkpt>
      <trkpt lat="48.07141" lon="-1.7591">
        <ele>25</ele>
        <time>2021-07-21T18:55:18Z</time>
      </trkpt>
      <trkpt lat="48.07198" lon="-1.75845">
        <ele>23</ele>
        <time>2021-07-21T18:55:35Z</time>
      </trkpt>
      <trkpt lat="48.07234" lon="-1.7577">
        <ele>24</ele>
        <time>2021-07-21T18:55:49Z</time>
      </trkpt>
      <trkpt lat="48.07278" lon="-1.75712">
        <ele>24</ele>
        <time>2021-07-21T18:56:03Z</time>
      </trkpt>
      <trkpt lat="48.07317" lon="-1.75684">
        <ele>23</ele>
        <time>2021-07-21T18:56:13Z</time>
      </trkpt>
      <trkpt lat="48.07364" lon="-1.75617">
        <ele>25</ele>
        <time>2021-07-21T18:56:28Z</time>
      </trkpt>
      <trkpt lat="48.074" lon="-1.75555">
        <ele>26</ele>
        <time>2021-07-21T18:56:41Z</time>
      </trkpt>
      <trkpt lat="48.07476" lon="-1.75482">
        <ele>25</ele>
        <time>2021-07-21T18:57:02Z</time>
      </trkpt>
      <trkpt lat="48.07546" lon="-1.75406">
        <ele>23</ele>
        <time>2021-07-21T18:57:22Z</time>
      </trkpt>
      <trkpt lat="48.07689" lon="-1.75271">
        <ele>21</ele>
        <time>2021-07-21T18:58:02Z</time>
      </trkpt>
      <trkpt lat="48.07771" lon="-1.75236">
        <ele>21</ele>
        <time>2021-07-21T18:58:22Z</time>
      </trkpt>
      <trkpt lat="48.07799" lon="-1.75236">
        <ele>21</ele>
        <time>2021-07-21T18:58:28Z</time>
      </trkpt>
      <trkpt lat="48.07852" lon="-1.75264">
        <ele>20</ele>
        <time>2021-07-21T18:58:41Z</time>
      </trkpt>
      <trkpt lat="48.07901" lon="-1.75272">
        <ele>20</ele>
        <time>2021-07-21T18:58:53Z</time>
      </trkpt>
      <trkpt lat="48.07939" lon="-1.75256">
        <ele>20</ele>
        <time>2021-07-21T18:59:02Z</time>
      </trkpt>
      <trkpt lat="48.07977" lon="-1.75208">
        <ele>20</ele>
        <time>2021-07-21T18:59:14Z</time>
      </trkpt>
      <trkpt lat="48.08033" lon="-1.75155">
        <ele>19</ele>
        <time>2021-07-21T18:59:29Z</time>
      </trkpt>
      <trkpt lat="48.08074" lon="-1.75137">
        <ele>19</ele>
        <time>2021-07-21T18:59:39Z</time>
      </trkpt>
      <trkpt lat="48.0812" lon="-1.7513">
        <ele>19</ele>
        <time>2021-07-21T18:59:50Z</time>
      </trkpt>
      <trkpt lat="48.08166" lon="-1.75129">
        <ele>21</ele>
        <time>2021-07-21T19:00:01Z</time>
      </trkpt>
      <trkpt lat="48.08233" lon="-1.75105">
        <ele>22</ele>
        <time>2021-07-21T19:00:17Z</time>
      </trkpt>
      <trkpt lat="48.08291" lon="-1.7507">
        <ele>19</ele>
        <time>2021-07-21T19:00:31Z</time>
      </trkpt>
      <trkpt lat="48.08345" lon="-1.75052">
        <ele>17</ele>
        <time>2021-07-21T19:00:44Z</time>
      </trkpt>
      <trkpt lat="48.08409" lon="-1.75042">
        <ele>22</ele>
        <time>2021-07-21T19:00:59Z</time>
      </trkpt>
      <trkpt lat="48.08453" lon="-1.75045">
        <ele>23</ele>
        <time>2021-07-21T19:01:10Z</time>
      </trkpt>
      <trkpt lat="48.08498" lon="-1.75056">
        <ele>23</ele>
        <time>2021-07-21T19:01:20Z</time>
      </trkpt>
      <trkpt lat="48.08541" lon="-1.75073">
        <ele>23</ele>
        <time>2021-07-21T19:01:31Z</time>
      </trkpt>
      <trkpt lat="48.08637" lon="-1.75144">
        <ele>22</ele>
        <time>2021-07-21T19:01:56Z</time>
      </trkpt>
      <trkpt lat="48.08668" lon="-1.75174">
        <ele>22</ele>
        <time>2021-07-21T19:02:04Z</time>
      </trkpt>
      <trkpt lat="48.08701" lon="-1.75201">
        <ele>22</ele>
        <time>2021-07-21T19:02:13Z</time>
      </trkpt>
      <trkpt lat="48.08756" lon="-1.75225">
        <ele>23</ele>
        <time>2021-07-21T19:02:26Z</time>
      </trkpt>
      <trkpt lat="48.08792" lon="-1.75229">
        <ele>22</ele>
        <time>2021-07-21T19:02:35Z</time>
      </trkpt>
      <trkpt lat="48.08846" lon="-1.75212">
        <ele>22</ele>
        <time>2021-07-21T19:02:48Z</time>
      </trkpt>
      <trkpt lat="48.08912" lon="-1.75203">
        <ele>22</ele>
        <time>2021-07-21T19:03:03Z</time>
      </trkpt>
      <trkpt lat="48.08998" lon="-1.75175">
        <ele>24</ele>
        <time>2021-07-21T19:03:24Z</time>
      </trkpt>
      <trkpt lat="48.09081" lon="-1.7516">
        <ele>24</ele>
        <time>2021-07-21T19:03:43Z</time>
      </trkpt>
      <trkpt lat="48.09149" lon="-1.7513">
        <ele>23</ele>
        <time>2021-07-21T19:04:00Z</time>
      </trkpt>
      <trkpt lat="48.09179" lon="-1.75104">
        <ele>22</ele>
        <time>2021-07-21T19:04:08Z</time>
      </trkpt>
      <trkpt lat="48.0925" lon="-1.74951">
        <ele>22</ele>
        <time>2021-07-21T19:04:37Z</time>
      </trkpt>
      <trkpt lat="48.09345" lon="-1.74733">
        <ele>23</ele>
        <time>2021-07-21T19:05:18Z</time>
      </trkpt>
      <trkpt lat="48.09431" lon="-1.74556">
        <ele>22</ele>
        <time>2021-07-21T19:05:52Z</time>
      </trkpt>
      <trkpt lat="48.09872" lon="-1.74393">
        <ele>22</ele>
        <time>2021-07-21T19:07:38Z</time>
      </trkpt>
      <trkpt lat="48.10046" lon="-1.74156">
        <ele>24</ele>
        <time>2021-07-21T19:08:33Z</time>
      </trkpt>
      <trkpt lat="48.10088" lon="-1.7405">
        <ele>24</ele>
        <time>2021-07-21T19:08:52Z</time>
      </trkpt>
      <trkpt lat="48.10111" lon="-1.7394">
        <ele>25</ele>
        <time>2021-07-21T19:09:10Z</time>
      </trkpt>
      <trkpt lat="48.10103" lon="-1.73817">
        <ele>24</ele>
        <time>2021-07-21T19:09:29Z</time>
      </trkpt>
      <trkpt lat="48.10064" lon="-1.73656">
        <ele>24</ele>
        <time>2021-07-21T19:09:56Z</time>
      </trkpt>
      <trkpt lat="48.09926" lon="-1.7325">
        <ele>25</ele>
        <time>2021-07-21T19:11:07Z</time>
      </trkpt>
      <trkpt lat="48.09915" lon="-1.73152">
        <ele>24</ele>
        <time>2021-07-21T19:11:22Z</time>
      </trkpt>
      <trkpt lat="48.09931" lon="-1.73068">
        <ele>25</ele>
        <time>2021-07-21T19:11:36Z</time>
      </trkpt>
      <trkpt lat="48.09995" lon="-1.7301">
        <ele>26</ele>
        <time>2021-07-21T19:11:54Z</time>
      </trkpt>
      <trkpt lat="48.10032" lon="-1.72862">
        <ele>27</ele>
        <time>2021-07-21T19:12:18Z</time>
      </trkpt>
      <trkpt lat="48.10133" lon="-1.72356">
        <ele>25</ele>
        <time>2021-07-21T19:13:41Z</time>
      </trkpt>
      <trkpt lat="48.10169" lon="-1.72263">
        <ele>26</ele>
        <time>2021-07-21T19:13:57Z</time>
      </trkpt>
      <trkpt lat="48.10239" lon="-1.72207">
        <ele>27</ele>
        <time>2021-07-21T19:14:16Z</time>
      </trkpt>
      <trkpt lat="48.103" lon="-1.72152">
        <ele>26</ele>
        <time>2021-07-21T19:14:32Z</time>
      </trkpt>
      <trkpt lat="48.10361" lon="-1.71929">
        <ele>23</ele>
        <time>2021-07-21T19:15:10Z</time>
      </trkpt>
      <trkpt lat="48.10398" lon="-1.71858">
        <ele>24</ele>
        <time>2021-07-21T19:15:24Z</time>
      </trkpt>
      <trkpt lat="48.10455" lon="-1.71791">
        <ele>25</ele>
        <time>2021-07-21T19:15:41Z</time>
      </trkpt>
      <trkpt lat="48.10505" lon="-1.71714">
        <ele>24</ele>
        <time>2021-07-21T19:15:58Z</time>
      </trkpt>
      <trkpt lat="48.10557" lon="-1.71645">
        <ele>25</ele>
        <time>2021-07-21T19:16:14Z</time>
      </trkpt>
      <trkpt lat="48.10617" lon="-1.71521">
        <ele>26</ele>
        <time>2021-07-21T19:16:38Z</time>
      </trkpt>
      <trkpt lat="48.10623" lon="-1.71388">
        <ele>28</ele>
        <time>2021-07-21T19:16:59Z</time>
      </trkpt>
      <trkpt lat="48.10633" lon="-1.70838">
        <ele>24</ele>
        <time>2021-07-21T19:18:24Z</time>
      </trkpt>
      <trkpt lat="48.10649" lon="-1.70407">
        <ele>24</ele>
        <time>2021-07-21T19:19:32Z</time>
      </trkpt>
      <trkpt lat="48.10686" lon="-1.70068">
        <ele>26</ele>
        <time>2021-07-21T19:20:25Z</time>
      </trkpt>
      <trkpt lat="48.10727" lon="-1.69881">
        <ele>28</ele>
        <time>2021-07-21T19:20:56Z</time>
      </trkpt>
      <trkpt lat="48.10782" lon="-1.69654">
        <ele>28</ele>
        <time>2021-07-21T19:21:34Z</time>
      </trkpt>
      <trkpt lat="48.10772" lon="-1.69519">
        <ele>29</ele>
        <time>2021-07-21T19:21:55Z</time>
      </trkpt>
      <trkpt lat="48.10765" lon="-1.69474">
        <ele>29</ele>
        <time>2021-07-21T19:22:02Z</time>
      </trkpt>
      <trkpt lat="48.10735" lon="-1.69399">
        <ele>30</ele>
        <time>2021-07-21T19:22:16Z</time>
      </trkpt>
      <trkpt lat="48.10726" lon="-1.69302">
        <ele>26</ele>
        <time>2021-07-21T19:22:31Z</time>
      </trkpt>
      <trkpt lat="48.10733" lon="-1.6921">
        <ele>25</ele>
        <time>2021-07-21T19:22:45Z</time>
      </trkpt>
      <trkpt lat="48.10753" lon="-1.69113">
        <ele>28</ele>
        <time>2021-07-21T19:23:01Z</time>
      </trkpt>
      <trkpt lat="48.1079" lon="-1.69015">
        <ele>30</ele>
        <time>2021-07-21T19:23:19Z</time>
      </trkpt>
      <trkpt lat="48.10852" lon="-1.68828">
        <ele>29</ele>
        <time>2021-07-21T19:23:51Z</time>
      </trkpt>
      <trkpt lat="48.10964" lon="-1.68506">
        <ele>29</ele>
        <time>2021-07-21T19:24:48Z</time>
      </trkpt>
      <trkpt lat="48.10972" lon="-1.68467">
        <ele>29</ele>
        <time>2021-07-21T19:24:54Z</time>
      </trkpt>
      <trkpt lat="48.10973" lon="-1.68416">
        <ele>31</ele>
        <time>2021-07-21T19:25:02Z</time>
      </trkpt>
      <trkpt lat="48.10998" lon="-1.68418">
        <ele>31</ele>
        <time>2021-07-21T19:25:08Z</time>
      </trkpt>
      <trkpt lat="48.11011" lon="-1.68427">
        <ele>32</ele>
        <time>2021-07-21T19:25:11Z</time>
      </trkpt>
      <trkpt lat="48.11029" lon="-1.68474">
        <ele>31</ele>
        <time>2021-07-21T19:25:20Z</time>
      </trkpt>
      <trkpt lat="48.11032" lon="-1.68488">
        <ele>30</ele>
        <time>2021-07-21T19:25:22Z</time>
      </trkpt>
      <trkpt lat="48.11032" lon="-1.68565">
        <ele>27</ele>
        <time>2021-07-21T19:25:34Z</time>
      </trkpt>
      <trkpt lat="48.11039" lon="-1.68575">
        <ele>27</ele>
        <time>2021-07-21T19:25:36Z</time>
      </trkpt>
      <trkpt lat="48.11085" lon="-1.68589">
        <ele>29</ele>
        <time>2021-07-21T19:25:47Z</time>
      </trkpt>
      <trkpt lat="48.11115" lon="-1.68605">
        <ele>30</ele>
        <time>2021-07-21T19:25:55Z</time>
      </trkpt>
      <trkpt lat="48.11227" lon="-1.68676">
        <ele>31</ele>
        <time>2021-07-21T19:26:23Z</time>
      </trkpt>
      <trkpt lat="48.11363" lon="-1.68729">
        <ele>30</ele>
        <time>2021-07-21T19:26:56Z</time>
      </trkpt>
      <trkpt lat="48.11449" lon="-1.68766">
        <ele>30</ele>
        <time>2021-07-21T19:27:17Z</time>
      </trkpt>
      <trkpt lat="48.11548" lon="-1.6871">
        <ele>29</ele>
        <time>2021-07-21T19:27:42Z</time>
      </trkpt>
      <trkpt lat="48.11859" lon="-1.68517">
        <ele>29</ele>
        <time>2021-07-21T19:29:00Z</time>
      </trkpt>
      <trkpt lat="48.11925" lon="-1.68427">
        <ele>27</ele>
        <time>2021-07-21T19:29:21Z</time>
      </trkpt>
      <trkpt lat="48.1205" lon="-1.68249">
        <ele>27</ele>
        <time>2021-07-21T19:30:01Z</time>
      </trkpt>
      <trkpt lat="48.12062" lon="-1.68199">
        <ele>27</ele>
        <time>2021-07-21T19:30:10Z</time>
      </trkpt>
      <trkpt lat="48.12081" lon="-1.68197">
        <ele>27</ele>
        <time>2021-07-21T19:30:14Z</time>
      </trkpt>
      <trkpt lat="48.12104" lon="-1.68234">
        <ele>28</ele>
        <time>2021-07-21T19:30:22Z</time>
      </trkpt>
      <trkpt lat="48.12106" lon="-1.68214">
        <ele>27</ele>
        <time>2021-07-21T19:30:25Z</time>
      </trkpt>
      <trkpt lat="48.12133" lon="-1.68188">
        <ele>27</ele>
        <time>2021-07-21T19:30:33Z</time>
      </trkpt>
      <trkpt lat="48.12149" lon="-1.68167">
        <ele>27</ele>
        <time>2021-07-21T19:30:38Z</time>
      </trkpt>
      <trkpt lat="48.12252" lon="-1.68014">
        <ele>28</ele>
        <time>2021-07-21T19:31:12Z</time>
      </trkpt>
      <trkpt lat="48.12266" lon="-1.67986">
        <ele>29</ele>
        <time>2021-07-21T14:14:49Z</time>
      </trkpt>
      <trkpt lat="48.12322" lon="-1.67863">
        <ele>29</ele>
        <time>2021-07-21T14:15:12Z</time>
      </trkpt>
      <trkpt lat="48.1235" lon="-1.67782">
        <ele>28</ele>
        <time>2021-07-21T14:15:26Z</time>
      </trkpt>
      <trkpt lat="48.12368" lon="-1.67708">
        <ele>28</ele>
        <time>2021-07-21T14:15:39Z</time>
      </trkpt>
      <trkpt lat="48.12379" lon="-1.67622">
        <ele>28</ele>
        <time>2021-07-21T14:15:52Z</time>
      </trkpt>
      <trkpt lat="48.12395" lon="-1.67563">
        <ele>28</ele>
        <time>2021-07-21T14:16:02Z</time>
      </trkpt>
      <trkpt lat="48.12416" lon="-1.67543">
        <ele>27</ele>
        <time>2021-07-21T14:16:08Z</time>
      </trkpt>
      <trkpt lat="48.12448" lon="-1.67523">
        <ele>27</ele>
        <time>2021-07-21T14:16:16Z</time>
      </trkpt>
      <trkpt lat="48.12462" lon="-1.67505">
        <ele>27</ele>
        <time>2021-07-21T14:16:21Z</time>
      </trkpt>
      <trkpt lat="48.12483" lon="-1.67493">
        <ele>27</ele>
        <time>2021-07-21T14:16:26Z</time>
      </trkpt>
      <trkpt lat="48.12527" lon="-1.67506">
        <ele>28</ele>
        <time>2021-07-21T14:16:36Z</time>
      </trkpt>
      <trkpt lat="48.1255" lon="-1.67521">
        <ele>29</ele>
        <time>2021-07-21T14:16:42Z</time>
      </trkpt>
      <trkpt lat="48.1257" lon="-1.67546">
        <ele>28</ele>
        <time>2021-07-21T14:16:48Z</time>
      </trkpt>
      <trkpt lat="48.12585" lon="-1.6757">
        <ele>28</ele>
        <time>2021-07-21T14:16:53Z</time>
      </trkpt>
      <trkpt lat="48.12598" lon="-1.676">
        <ele>28</ele>
        <time>2021-07-21T14:16:59Z</time>
      </trkpt>
      <trkpt lat="48.1262" lon="-1.67785">
        <ele>28</ele>
        <time>2021-07-21T14:17:28Z</time>
      </trkpt>
      <trkpt lat="48.1263" lon="-1.67838">
        <ele>29</ele>
        <time>2021-07-21T14:17:37Z</time>
      </trkpt>
      <trkpt lat="48.1265" lon="-1.67869">
        <ele>29</ele>
        <time>2021-07-21T14:17:43Z</time>
      </trkpt>
      <trkpt lat="48.12671" lon="-1.67893">
        <ele>29</ele>
        <time>2021-07-21T14:17:50Z</time>
      </trkpt>
      <trkpt lat="48.12699" lon="-1.67916">
        <ele>29</ele>
        <time>2021-07-21T14:17:57Z</time>
      </trkpt>
      <trkpt lat="48.12805" lon="-1.67951">
        <ele>30</ele>
        <time>2021-07-21T14:18:22Z</time>
      </trkpt>
      <trkpt lat="48.13014" lon="-1.68008">
        <ele>30</ele>
        <time>2021-07-21T14:19:12Z</time>
      </trkpt>
      <trkpt lat="48.13077" lon="-1.68008">
        <ele>32</ele>
        <time>2021-07-21T14:19:27Z</time>
      </trkpt>
      <trkpt lat="48.13166" lon="-1.68058">
        <ele>31</ele>
        <time>2021-07-21T14:19:49Z</time>
      </trkpt>
      <trkpt lat="48.13217" lon="-1.68059">
        <ele>29</ele>
        <time>2021-07-21T14:20:01Z</time>
      </trkpt>
      <trkpt lat="48.13264" lon="-1.68036">
        <ele>27</ele>
        <time>2021-07-21T14:20:12Z</time>
      </trkpt>
      <trkpt lat="48.1331" lon="-1.68029">
        <ele>28</ele>
        <time>2021-07-21T14:20:23Z</time>
      </trkpt>
      <trkpt lat="48.13367" lon="-1.68032">
        <ele>29</ele>
        <time>2021-07-21T14:20:37Z</time>
      </trkpt>
      <trkpt lat="48.13431" lon="-1.68017">
        <ele>29</ele>
        <time>2021-07-21T14:20:52Z</time>
      </trkpt>
      <trkpt lat="48.13479" lon="-1.67984">
        <ele>29</ele>
        <time>2021-07-21T14:21:04Z</time>
      </trkpt>
      <trkpt lat="48.13523" lon="-1.67908">
        <ele>30</ele>
        <time>2021-07-21T14:21:20Z</time>
      </trkpt>
      <trkpt lat="48.13596" lon="-1.6772">
        <ele>32</ele>
        <time>2021-07-21T14:21:54Z</time>
      </trkpt>
      <trkpt lat="48.13653" lon="-1.6765">
        <ele>30</ele>
        <time>2021-07-21T14:22:11Z</time>
      </trkpt>
      <trkpt lat="48.1371" lon="-1.6759">
        <ele>30</ele>
        <time>2021-07-21T14:22:27Z</time>
      </trkpt>
      <trkpt lat="48.13766" lon="-1.67563">
        <ele>29</ele>
        <time>2021-07-21T14:22:41Z</time>
      </trkpt>
      <trkpt lat="48.13897" lon="-1.67425">
        <ele>29</ele>
        <time>2021-07-21T14:23:18Z</time>
      </trkpt>
      <trkpt lat="48.13948" lon="-1.67391">
        <ele>29</ele>
        <time>2021-07-21T14:23:31Z</time>
      </trkpt>
      <trkpt lat="48.14" lon="-1.67391">
        <ele>28</ele>
        <time>2021-07-21T14:23:43Z</time>
      </trkpt>
      <trkpt lat="48.14043" lon="-1.67426">
        <ele>28</ele>
        <time>2021-07-21T14:23:55Z</time>
      </trkpt>
      <trkpt lat="48.14075" lon="-1.67461">
        <ele>28</ele>
        <time>2021-07-21T14:24:04Z</time>
      </trkpt>
      <trkpt lat="48.1413" lon="-1.67478">
        <ele>29</ele>
        <time>2021-07-21T14:24:17Z</time>
      </trkpt>
      <trkpt lat="48.14177" lon="-1.67487">
        <ele>30</ele>
        <time>2021-07-21T14:24:28Z</time>
      </trkpt>
      <trkpt lat="48.14272" lon="-1.67536">
        <ele>27</ele>
        <time>2021-07-21T14:24:52Z</time>
      </trkpt>
      <trkpt lat="48.14304" lon="-1.67572">
        <ele>27</ele>
        <time>2021-07-21T14:25:01Z</time>
      </trkpt>
      <trkpt lat="48.14344" lon="-1.67646">
        <ele>28</ele>
        <time>2021-07-21T14:25:16Z</time>
      </trkpt>
      <trkpt lat="48.1438" lon="-1.67699">
        <ele>31</ele>
        <time>2021-07-21T14:25:28Z</time>
      </trkpt>
      <trkpt lat="48.14436" lon="-1.67734">
        <ele>32</ele>
        <time>2021-07-21T14:25:42Z</time>
      </trkpt>
      <trkpt lat="48.14545" lon="-1.6778">
        <ele>30</ele>
        <time>2021-07-21T14:26:08Z</time>
      </trkpt>
      <trkpt lat="48.14557" lon="-1.67796">
        <ele>30</ele>
        <time>2021-07-21T14:26:12Z</time>
      </trkpt>
      <trkpt lat="48.14544" lon="-1.67948">
        <ele>34</ele>
        <time>2021-07-21T14:26:36Z</time>
      </trkpt>
      <trkpt lat="48.14552" lon="-1.67992">
        <ele>35</ele>
        <time>2021-07-21T14:26:43Z</time>
      </trkpt>
      <trkpt lat="48.14574" lon="-1.68017">
        <ele>35</ele>
        <time>2021-07-21T14:26:49Z</time>
      </trkpt>
      <trkpt lat="48.14597" lon="-1.68032">
        <ele>34</ele>
        <time>2021-07-21T14:26:55Z</time>
      </trkpt>
      <trkpt lat="48.14665" lon="-1.68019">
        <ele>31</ele>
        <time>2021-07-21T14:27:11Z</time>
      </trkpt>
      <trkpt lat="48.14781" lon="-1.68006">
        <ele>32</ele>
        <time>2021-07-21T14:27:38Z</time>
      </trkpt>
      <trkpt lat="48.1503" lon="-1.67967">
        <ele>29</ele>
        <time>2021-07-21T14:28:37Z</time>
      </trkpt>
      <trkpt lat="48.15109" lon="-1.6795">
        <ele>30</ele>
        <time>2021-07-21T14:28:56Z</time>
      </trkpt>
      <trkpt lat="48.15128" lon="-1.67919">
        <ele>29</ele>
        <time>2021-07-21T14:29:02Z</time>
      </trkpt>
      <trkpt lat="48.15194" lon="-1.6776">
        <ele>32</ele>
        <time>2021-07-21T14:29:31Z</time>
      </trkpt>
      <trkpt lat="48.15206" lon="-1.6768">
        <ele>32</ele>
        <time>2021-07-21T14:29:44Z</time>
      </trkpt>
      <trkpt lat="48.15202" lon="-1.67616">
        <ele>30</ele>
        <time>2021-07-21T14:29:54Z</time>
      </trkpt>
      <trkpt lat="48.15186" lon="-1.67556">
        <ele>28</ele>
        <time>2021-07-21T14:30:04Z</time>
      </trkpt>
      <trkpt lat="48.15165" lon="-1.67522">
        <ele>27</ele>
        <time>2021-07-21T14:30:11Z</time>
      </trkpt>
      <trkpt lat="48.15161" lon="-1.6747">
        <ele>27</ele>
        <time>2021-07-21T14:30:20Z</time>
      </trkpt>
      <trkpt lat="48.15184" lon="-1.67432">
        <ele>28</ele>
        <time>2021-07-21T14:30:28Z</time>
      </trkpt>
      <trkpt lat="48.15197" lon="-1.67385">
        <ele>29</ele>
        <time>2021-07-21T14:30:35Z</time>
      </trkpt>
      <trkpt lat="48.15191" lon="-1.67304">
        <ele>29</ele>
        <time>2021-07-21T14:30:48Z</time>
      </trkpt>
      <trkpt lat="48.15115" lon="-1.66802">
        <ele>29</ele>
        <time>2021-07-21T14:32:08Z</time>
      </trkpt>
      <trkpt lat="48.151" lon="-1.66755">
        <ele>30</ele>
        <time>2021-07-21T14:32:16Z</time>
      </trkpt>
      <trkpt lat="48.15118" lon="-1.66635">
        <ele>31</ele>
        <time>2021-07-21T14:32:36Z</time>
      </trkpt>
      <trkpt lat="48.15156" lon="-1.66569">
        <ele>32</ele>
        <time>2021-07-21T14:32:49Z</time>
      </trkpt>
      <trkpt lat="48.15174" lon="-1.66492">
        <ele>30</ele>
        <time>2021-07-21T14:33:02Z</time>
      </trkpt>
      <trkpt lat="48.15179" lon="-1.6645">
        <ele>30</ele>
        <time>2021-07-21T14:33:09Z</time>
      </trkpt>
      <trkpt lat="48.15176" lon="-1.66419">
        <ele>29</ele>
        <time>2021-07-21T14:33:13Z</time>
      </trkpt>
      <trkpt lat="48.15167" lon="-1.66383">
        <ele>29</ele>
        <time>2021-07-21T14:33:19Z</time>
      </trkpt>
      <trkpt lat="48.15157" lon="-1.66309">
        <ele>28</ele>
        <time>2021-07-21T14:33:31Z</time>
      </trkpt>
      <trkpt lat="48.15225" lon="-1.66076">
        <ele>30</ele>
        <time>2021-07-21T14:34:11Z</time>
      </trkpt>
      <trkpt lat="48.15323" lon="-1.65718">
        <ele>29</ele>
        <time>2021-07-21T14:35:11Z</time>
      </trkpt>
      <trkpt lat="48.15415" lon="-1.65602">
        <ele>30</ele>
        <time>2021-07-21T14:35:39Z</time>
      </trkpt>
      <trkpt lat="48.15468" lon="-1.65569">
        <ele>29</ele>
        <time>2021-07-21T14:35:53Z</time>
      </trkpt>
      <trkpt lat="48.15528" lon="-1.65556">
        <ele>29</ele>
        <time>2021-07-21T14:36:07Z</time>
      </trkpt>
      <trkpt lat="48.15581" lon="-1.65534">
        <ele>31</ele>
        <time>2021-07-21T14:36:20Z</time>
      </trkpt>
      <trkpt lat="48.15614" lon="-1.65492">
        <ele>32</ele>
        <time>2021-07-21T14:36:30Z</time>
      </trkpt>
      <trkpt lat="48.15642" lon="-1.6544">
        <ele>32</ele>
        <time>2021-07-21T14:36:40Z</time>
      </trkpt>
      <trkpt lat="48.15668" lon="-1.65399">
        <ele>32</ele>
        <time>2021-07-21T14:36:49Z</time>
      </trkpt>
      <trkpt lat="48.15698" lon="-1.65383">
        <ele>32</ele>
        <time>2021-07-21T14:36:56Z</time>
      </trkpt>
      <trkpt lat="48.15777" lon="-1.65387">
        <ele>32</ele>
        <time>2021-07-21T14:37:15Z</time>
      </trkpt>
      <trkpt lat="48.15813" lon="-1.65392">
        <ele>33</ele>
        <time>2021-07-21T14:37:23Z</time>
      </trkpt>
      <trkpt lat="48.15848" lon="-1.6539">
        <ele>35</ele>
        <time>2021-07-21T14:37:31Z</time>
      </trkpt>
      <trkpt lat="48.15884" lon="-1.65395">
        <ele>35</ele>
        <time>2021-07-21T14:37:40Z</time>
      </trkpt>
      <trkpt lat="48.15931" lon="-1.65413">
        <ele>36</ele>
        <time>2021-07-21T14:37:51Z</time>
      </trkpt>
      <trkpt lat="48.16011" lon="-1.65487">
        <ele>34</ele>
        <time>2021-07-21T14:38:13Z</time>
      </trkpt>
      <trkpt lat="48.16031" lon="-1.65523">
        <ele>33</ele>
        <time>2021-07-21T14:38:20Z</time>
      </trkpt>
      <trkpt lat="48.16068" lon="-1.65671">
        <ele>31</ele>
        <time>2021-07-21T14:38:45Z</time>
      </trkpt>
      <trkpt lat="48.16092" lon="-1.65731">
        <ele>32</ele>
        <time>2021-07-21T14:38:56Z</time>
      </trkpt>
      <trkpt lat="48.16118" lon="-1.65779">
        <ele>32</ele>
        <time>2021-07-21T14:39:06Z</time>
      </trkpt>
      <trkpt lat="48.16137" lon="-1.65833">
        <ele>33</ele>
        <time>2021-07-21T14:39:15Z</time>
      </trkpt>
      <trkpt lat="48.16135" lon="-1.65864">
        <ele>32</ele>
        <time>2021-07-21T14:39:20Z</time>
      </trkpt>
      <trkpt lat="48.16065" lon="-1.6614">
        <ele>30</ele>
        <time>2021-07-21T14:40:06Z</time>
      </trkpt>
      <trkpt lat="48.16045" lon="-1.66272">
        <ele>33</ele>
        <time>2021-07-21T14:40:27Z</time>
      </trkpt>
      <trkpt lat="48.16038" lon="-1.66351">
        <ele>32</ele>
        <time>2021-07-21T14:40:40Z</time>
      </trkpt>
      <trkpt lat="48.16055" lon="-1.66584">
        <ele>32</ele>
        <time>2021-07-21T14:41:16Z</time>
      </trkpt>
      <trkpt lat="48.16072" lon="-1.66632">
        <ele>32</ele>
        <time>2021-07-21T14:41:24Z</time>
      </trkpt>
      <trkpt lat="48.16207" lon="-1.66774">
        <ele>30</ele>
        <time>2021-07-21T14:42:03Z</time>
      </trkpt>
      <trkpt lat="48.16306" lon="-1.66793">
        <ele>30</ele>
        <time>2021-07-21T14:42:26Z</time>
      </trkpt>
      <trkpt lat="48.16518" lon="-1.66822">
        <ele>31</ele>
        <time>2021-07-21T14:43:16Z</time>
      </trkpt>
      <trkpt lat="48.16654" lon="-1.66725">
        <ele>32</ele>
        <time>2021-07-21T14:43:51Z</time>
      </trkpt>
      <trkpt lat="48.16886" lon="-1.6648">
        <ele>33</ele>
        <time>2021-07-21T14:44:57Z</time>
      </trkpt>
      <trkpt lat="48.17158" lon="-1.66241">
        <ele>33</ele>
        <time>2021-07-21T14:46:11Z</time>
      </trkpt>
      <trkpt lat="48.17202" lon="-1.66093">
        <ele>31</ele>
        <time>2021-07-21T14:46:36Z</time>
      </trkpt>
      <trkpt lat="48.17196" lon="-1.65955">
        <ele>32</ele>
        <time>2021-07-21T14:46:58Z</time>
      </trkpt>
      <trkpt lat="48.17172" lon="-1.65705">
        <ele>33</ele>
        <time>2021-07-21T14:47:37Z</time>
      </trkpt>
      <trkpt lat="48.17083" lon="-1.65501">
        <ele>32</ele>
        <time>2021-07-21T14:48:15Z</time>
      </trkpt>
      <trkpt lat="48.17053" lon="-1.65327">
        <ele>33</ele>
        <time>2021-07-21T14:48:43Z</time>
      </trkpt>
      <trkpt lat="48.16998" lon="-1.6524">
        <ele>33</ele>
        <time>2021-07-21T14:49:02Z</time>
      </trkpt>
      <trkpt lat="48.16927" lon="-1.65184">
        <ele>33</ele>
        <time>2021-07-21T14:49:21Z</time>
      </trkpt>
      <trkpt lat="48.16784" lon="-1.65113">
        <ele>36</ele>
        <time>2021-07-21T14:49:56Z</time>
      </trkpt>
      <trkpt lat="48.16757" lon="-1.65031">
        <ele>35</ele>
        <time>2021-07-21T14:50:10Z</time>
      </trkpt>
      <trkpt lat="48.16729" lon="-1.64796">
        <ele>33</ele>
        <time>2021-07-21T14:50:47Z</time>
      </trkpt>
      <trkpt lat="48.16746" lon="-1.64736">
        <ele>32</ele>
        <time>2021-07-21T14:50:57Z</time>
      </trkpt>
      <trkpt lat="48.16972" lon="-1.64462">
        <ele>33</ele>
        <time>2021-07-21T14:52:05Z</time>
      </trkpt>
      <trkpt lat="48.1703" lon="-1.64415">
        <ele>33</ele>
        <time>2021-07-21T14:52:21Z</time>
      </trkpt>
      <trkpt lat="48.17148" lon="-1.64378">
        <ele>31</ele>
        <time>2021-07-21T14:52:49Z</time>
      </trkpt>
      <trkpt lat="48.17248" lon="-1.64331">
        <ele>34</ele>
        <time>2021-07-21T14:53:13Z</time>
      </trkpt>
      <trkpt lat="48.17632" lon="-1.64203">
        <ele>33</ele>
        <time>2021-07-21T14:54:45Z</time>
      </trkpt>
      <trkpt lat="48.17629" lon="-1.64154">
        <ele>34</ele>
        <time>2021-07-21T14:54:53Z</time>
      </trkpt>
      <trkpt lat="48.18091" lon="-1.64">
        <ele>36</ele>
        <time>2021-07-21T14:56:43Z</time>
      </trkpt>
      <trkpt lat="48.18274" lon="-1.63936">
        <ele>35</ele>
        <time>2021-07-21T14:57:27Z</time>
      </trkpt>
      <trkpt lat="48.18325" lon="-1.63908">
        <ele>36</ele>
        <time>2021-07-21T14:57:40Z</time>
      </trkpt>
      <trkpt lat="48.18506" lon="-1.63744">
        <ele>34</ele>
        <time>2021-07-21T14:58:29Z</time>
      </trkpt>
      <trkpt lat="48.18566" lon="-1.63753">
        <ele>36</ele>
        <time>2021-07-21T14:58:43Z</time>
      </trkpt>
      <trkpt lat="48.18607" lon="-1.63714">
        <ele>36</ele>
        <time>2021-07-21T14:58:55Z</time>
      </trkpt>
      <trkpt lat="48.18625" lon="-1.63672">
        <ele>35</ele>
        <time>2021-07-21T14:59:02Z</time>
      </trkpt>
      <trkpt lat="48.18676" lon="-1.63638">
        <ele>34</ele>
        <time>2021-07-21T14:59:15Z</time>
      </trkpt>
      <trkpt lat="48.18725" lon="-1.6367">
        <ele>34</ele>
        <time>2021-07-21T14:59:28Z</time>
      </trkpt>
      <trkpt lat="48.18774" lon="-1.63663">
        <ele>34</ele>
        <time>2021-07-21T14:59:39Z</time>
      </trkpt>
      <trkpt lat="48.18817" lon="-1.63571">
        <ele>36</ele>
        <time>2021-07-21T14:59:57Z</time>
      </trkpt>
      <trkpt lat="48.18867" lon="-1.63456">
        <ele>36</ele>
        <time>2021-07-21T15:00:18Z</time>
      </trkpt>
      <trkpt lat="48.18944" lon="-1.63389">
        <ele>37</ele>
        <time>2021-07-21T15:00:39Z</time>
      </trkpt>
      <trkpt lat="48.1902" lon="-1.63347">
        <ele>37</ele>
        <time>2021-07-21T15:00:58Z</time>
      </trkpt>
      <trkpt lat="48.19067" lon="-1.6336">
        <ele>36</ele>
        <time>2021-07-21T15:01:09Z</time>
      </trkpt>
      <trkpt lat="48.19097" lon="-1.634">
        <ele>37</ele>
        <time>2021-07-21T15:01:19Z</time>
      </trkpt>
      <trkpt lat="48.1915" lon="-1.634">
        <ele>38</ele>
        <time>2021-07-21T15:01:31Z</time>
      </trkpt>
      <trkpt lat="48.19248" lon="-1.63311">
        <ele>38</ele>
        <time>2021-07-21T15:01:58Z</time>
      </trkpt>
      <trkpt lat="48.19453" lon="-1.63053">
        <ele>35</ele>
        <time>2021-07-21T15:03:00Z</time>
      </trkpt>
      <trkpt lat="48.19512" lon="-1.63028">
        <ele>35</ele>
        <time>2021-07-21T15:03:14Z</time>
      </trkpt>
      <trkpt lat="48.19577" lon="-1.63035">
        <ele>35</ele>
        <time>2021-07-21T15:03:30Z</time>
      </trkpt>
      <trkpt lat="48.19638" lon="-1.63077">
        <ele>34</ele>
        <time>2021-07-21T15:03:45Z</time>
      </trkpt>
      <trkpt lat="48.19683" lon="-1.63147">
        <ele>35</ele>
        <time>2021-07-21T15:04:00Z</time>
      </trkpt>
      <trkpt lat="48.19698" lon="-1.63234">
        <ele>36</ele>
        <time>2021-07-21T15:04:14Z</time>
      </trkpt>
      <trkpt lat="48.19701" lon="-1.63326">
        <ele>36</ele>
        <time>2021-07-21T15:04:29Z</time>
      </trkpt>
      <trkpt lat="48.19711" lon="-1.63447">
        <ele>36</ele>
        <time>2021-07-21T15:04:48Z</time>
      </trkpt>
      <trkpt lat="48.1973" lon="-1.63591">
        <ele>34</ele>
        <time>2021-07-21T15:05:11Z</time>
      </trkpt>
      <trkpt lat="48.19744" lon="-1.63723">
        <ele>36</ele>
        <time>2021-07-21T15:05:31Z</time>
      </trkpt>
      <trkpt lat="48.19775" lon="-1.63818">
        <ele>37</ele>
        <time>2021-07-21T15:05:48Z</time>
      </trkpt>
      <trkpt lat="48.19825" lon="-1.63889">
        <ele>36</ele>
        <time>2021-07-21T15:06:04Z</time>
      </trkpt>
      <trkpt lat="48.19883" lon="-1.63916">
        <ele>37</ele>
        <time>2021-07-21T15:06:18Z</time>
      </trkpt>
      <trkpt lat="48.19945" lon="-1.63919">
        <ele>37</ele>
        <time>2021-07-21T15:06:33Z</time>
      </trkpt>
      <trkpt lat="48.2" lon="-1.63885">
        <ele>36</ele>
        <time>2021-07-21T15:06:47Z</time>
      </trkpt>
      <trkpt lat="48.20101" lon="-1.63751">
        <ele>40</ele>
        <time>2021-07-21T15:07:18Z</time>
      </trkpt>
      <trkpt lat="48.20217" lon="-1.63618">
        <ele>41</ele>
        <time>2021-07-21T15:07:52Z</time>
      </trkpt>
      <trkpt lat="48.20278" lon="-1.63591">
        <ele>40</ele>
        <time>2021-07-21T15:08:07Z</time>
      </trkpt>
      <trkpt lat="48.20339" lon="-1.63611">
        <ele>38</ele>
        <time>2021-07-21T15:08:22Z</time>
      </trkpt>
      <trkpt lat="48.20383" lon="-1.63672">
        <ele>38</ele>
        <time>2021-07-21T15:08:36Z</time>
      </trkpt>
      <trkpt lat="48.20415" lon="-1.63759">
        <ele>38</ele>
        <time>2021-07-21T15:08:51Z</time>
      </trkpt>
      <trkpt lat="48.20454" lon="-1.63844">
        <ele>40</ele>
        <time>2021-07-21T15:09:07Z</time>
      </trkpt>
      <trkpt lat="48.20504" lon="-1.63871">
        <ele>40</ele>
        <time>2021-07-21T15:09:19Z</time>
      </trkpt>
      <trkpt lat="48.20552" lon="-1.63847">
        <ele>40</ele>
        <time>2021-07-21T15:09:31Z</time>
      </trkpt>
      <trkpt lat="48.20651" lon="-1.63755">
        <ele>40</ele>
        <time>2021-07-21T15:09:59Z</time>
      </trkpt>
      <trkpt lat="48.20858" lon="-1.63575">
        <ele>39</ele>
        <time>2021-07-21T15:10:54Z</time>
      </trkpt>
      <trkpt lat="48.20944" lon="-1.63544">
        <ele>38</ele>
        <time>2021-07-21T15:11:15Z</time>
      </trkpt>
      <trkpt lat="48.21002" lon="-1.63558">
        <ele>39</ele>
        <time>2021-07-21T15:11:29Z</time>
      </trkpt>
      <trkpt lat="48.21044" lon="-1.63585">
        <ele>39</ele>
        <time>2021-07-21T15:11:39Z</time>
      </trkpt>
      <trkpt lat="48.21082" lon="-1.63643">
        <ele>41</ele>
        <time>2021-07-21T15:11:52Z</time>
      </trkpt>
      <trkpt lat="48.21121" lon="-1.63746">
        <ele>41</ele>
        <time>2021-07-21T15:12:11Z</time>
      </trkpt>
      <trkpt lat="48.21125" lon="-1.63806">
        <ele>40</ele>
        <time>2021-07-21T15:12:20Z</time>
      </trkpt>
      <trkpt lat="48.21109" lon="-1.6388">
        <ele>40</ele>
        <time>2021-07-21T15:12:32Z</time>
      </trkpt>
      <trkpt lat="48.2111" lon="-1.63954">
        <ele>40</ele>
        <time>2021-07-21T15:12:44Z</time>
      </trkpt>
      <trkpt lat="48.21092" lon="-1.64289">
        <ele>40</ele>
        <time>2021-07-21T15:13:36Z</time>
      </trkpt>
      <trkpt lat="48.21104" lon="-1.64387">
        <ele>43</ele>
        <time>2021-07-21T15:13:51Z</time>
      </trkpt>
      <trkpt lat="48.21123" lon="-1.64453">
        <ele>43</ele>
        <time>2021-07-21T15:14:03Z</time>
      </trkpt>
      <trkpt lat="48.21164" lon="-1.64536">
        <ele>43</ele>
        <time>2021-07-21T15:14:19Z</time>
      </trkpt>
      <trkpt lat="48.21223" lon="-1.646">
        <ele>44</ele>
        <time>2021-07-21T15:14:36Z</time>
      </trkpt>
      <trkpt lat="48.2131" lon="-1.64637">
        <ele>41</ele>
        <time>2021-07-21T15:14:57Z</time>
      </trkpt>
      <trkpt lat="48.21359" lon="-1.64644">
        <ele>40</ele>
        <time>2021-07-21T15:15:08Z</time>
      </trkpt>
      <trkpt lat="48.21423" lon="-1.64619">
        <ele>39</ele>
        <time>2021-07-21T15:15:24Z</time>
      </trkpt>
      <trkpt lat="48.21485" lon="-1.64574">
        <ele>40</ele>
        <time>2021-07-21T15:15:40Z</time>
      </trkpt>
      <trkpt lat="48.2153" lon="-1.64518">
        <ele>41</ele>
        <time>2021-07-21T15:15:53Z</time>
      </trkpt>
      <trkpt lat="48.21573" lon="-1.64399">
        <ele>39</ele>
        <time>2021-07-21T15:16:14Z</time>
      </trkpt>
      <trkpt lat="48.21708" lon="-1.64058">
        <ele>41</ele>
        <time>2021-07-21T15:17:16Z</time>
      </trkpt>
      <trkpt lat="48.21746" lon="-1.63999">
        <ele>42</ele>
        <time>2021-07-21T15:17:29Z</time>
      </trkpt>
      <trkpt lat="48.21788" lon="-1.63966">
        <ele>42</ele>
        <time>2021-07-21T15:17:40Z</time>
      </trkpt>
      <trkpt lat="48.21845" lon="-1.63952">
        <ele>43</ele>
        <time>2021-07-21T15:17:54Z</time>
      </trkpt>
      <trkpt lat="48.21944" lon="-1.63957">
        <ele>43</ele>
        <time>2021-07-21T15:18:17Z</time>
      </trkpt>
      <trkpt lat="48.22107" lon="-1.63973">
        <ele>44</ele>
        <time>2021-07-21T15:18:55Z</time>
      </trkpt>
      <trkpt lat="48.22323" lon="-1.63984">
        <ele>43</ele>
        <time>2021-07-21T15:19:45Z</time>
      </trkpt>
      <trkpt lat="48.22519" lon="-1.64">
        <ele>41</ele>
        <time>2021-07-21T15:20:31Z</time>
      </trkpt>
      <trkpt lat="48.22561" lon="-1.64026">
        <ele>40</ele>
        <time>2021-07-21T15:20:42Z</time>
      </trkpt>
      <trkpt lat="48.2269" lon="-1.64035">
        <ele>42</ele>
        <time>2021-07-21T15:21:12Z</time>
      </trkpt>
      <trkpt lat="48.22866" lon="-1.64107">
        <ele>43</ele>
        <time>2021-07-21T15:21:54Z</time>
      </trkpt>
      <trkpt lat="48.23084" lon="-1.64207">
        <ele>43</ele>
        <time>2021-07-21T15:22:48Z</time>
      </trkpt>
      <trkpt lat="48.23202" lon="-1.64265">
        <ele>44</ele>
        <time>2021-07-21T15:23:17Z</time>
      </trkpt>
      <trkpt lat="48.23351" lon="-1.64435">
        <ele>43</ele>
        <time>2021-07-21T15:24:00Z</time>
      </trkpt>
      <trkpt lat="48.23537" lon="-1.64668">
        <ele>42</ele>
        <time>2021-07-21T15:24:57Z</time>
      </trkpt>
      <trkpt lat="48.236" lon="-1.64762">
        <ele>42</ele>
        <time>2021-07-21T15:25:18Z</time>
      </trkpt>
      <trkpt lat="48.24245" lon="-1.66032">
        <ele>45</ele>
        <time>2021-07-21T15:29:26Z</time>
      </trkpt>
      <trkpt lat="48.24566" lon="-1.66628">
        <ele>49</ele>
        <time>2021-07-21T15:31:25Z</time>
      </trkpt>
      <trkpt lat="48.24644" lon="-1.66784">
        <ele>50</ele>
        <time>2021-07-21T15:31:56Z</time>
      </trkpt>
      <trkpt lat="48.24691" lon="-1.66817">
        <ele>50</ele>
        <time>2021-07-21T15:32:08Z</time>
      </trkpt>
      <trkpt lat="48.24746" lon="-1.66803">
        <ele>49</ele>
        <time>2021-07-21T15:32:21Z</time>
      </trkpt>
      <trkpt lat="48.24801" lon="-1.6675">
        <ele>50</ele>
        <time>2021-07-21T15:32:36Z</time>
      </trkpt>
      <trkpt lat="48.2486" lon="-1.66651">
        <ele>51</ele>
        <time>2021-07-21T15:32:57Z</time>
      </trkpt>
      <trkpt lat="48.2492" lon="-1.66564">
        <ele>50</ele>
        <time>2021-07-21T15:33:16Z</time>
      </trkpt>
      <trkpt lat="48.2499" lon="-1.66525">
        <ele>51</ele>
        <time>2021-07-21T15:33:34Z</time>
      </trkpt>
      <trkpt lat="48.25072" lon="-1.66509">
        <ele>50</ele>
        <time>2021-07-21T15:33:53Z</time>
      </trkpt>
      <trkpt lat="48.25377" lon="-1.66489">
        <ele>52</ele>
        <time>2021-07-21T15:35:04Z</time>
      </trkpt>
      <trkpt lat="48.25445" lon="-1.66505">
        <ele>52</ele>
        <time>2021-07-21T15:35:20Z</time>
      </trkpt>
      <trkpt lat="48.25491" lon="-1.66548">
        <ele>52</ele>
        <time>2021-07-21T15:35:33Z</time>
      </trkpt>
      <trkpt lat="48.25533" lon="-1.66626">
        <ele>50</ele>
        <time>2021-07-21T15:35:49Z</time>
      </trkpt>
      <trkpt lat="48.25575" lon="-1.66711">
        <ele>52</ele>
        <time>2021-07-21T15:36:05Z</time>
      </trkpt>
      <trkpt lat="48.25618" lon="-1.66823">
        <ele>56</ele>
        <time>2021-07-21T15:36:25Z</time>
      </trkpt>
      <trkpt lat="48.2571" lon="-1.67023">
        <ele>53</ele>
        <time>2021-07-21T15:37:03Z</time>
      </trkpt>
      <trkpt lat="48.25755" lon="-1.6709">
        <ele>54</ele>
        <time>2021-07-21T15:37:18Z</time>
      </trkpt>
      <trkpt lat="48.25814" lon="-1.67104">
        <ele>56</ele>
        <time>2021-07-21T15:37:32Z</time>
      </trkpt>
      <trkpt lat="48.25873" lon="-1.67077">
        <ele>58</ele>
        <time>2021-07-21T15:37:46Z</time>
      </trkpt>
      <trkpt lat="48.25937" lon="-1.67026">
        <ele>57</ele>
        <time>2021-07-21T15:38:03Z</time>
      </trkpt>
      <trkpt lat="48.25984" lon="-1.6696">
        <ele>55</ele>
        <time>2021-07-21T15:38:18Z</time>
      </trkpt>
      <trkpt lat="48.26021" lon="-1.66886">
        <ele>53</ele>
        <time>2021-07-21T15:38:32Z</time>
      </trkpt>
      <trkpt lat="48.26064" lon="-1.66763">
        <ele>54</ele>
        <time>2021-07-21T15:38:54Z</time>
      </trkpt>
      <trkpt lat="48.26073" lon="-1.66731">
        <ele>54</ele>
        <time>2021-07-21T15:38:59Z</time>
      </trkpt>
      <trkpt lat="48.26076" lon="-1.66688">
        <ele>55</ele>
        <time>2021-07-21T15:39:06Z</time>
      </trkpt>
      <trkpt lat="48.26098" lon="-1.66625">
        <ele>57</ele>
        <time>2021-07-21T15:39:17Z</time>
      </trkpt>
      <trkpt lat="48.26202" lon="-1.66466">
        <ele>58</ele>
        <time>2021-07-21T15:39:52Z</time>
      </trkpt>
      <trkpt lat="48.26264" lon="-1.66437">
        <ele>57</ele>
        <time>2021-07-21T15:40:07Z</time>
      </trkpt>
      <trkpt lat="48.26324" lon="-1.66441">
        <ele>58</ele>
        <time>2021-07-21T15:40:21Z</time>
      </trkpt>
      <trkpt lat="48.26387" lon="-1.66486">
        <ele>59</ele>
        <time>2021-07-21T15:40:37Z</time>
      </trkpt>
      <trkpt lat="48.2644" lon="-1.66543">
        <ele>58</ele>
        <time>2021-07-21T15:40:53Z</time>
      </trkpt>
      <trkpt lat="48.26476" lon="-1.66604">
        <ele>57</ele>
        <time>2021-07-21T15:41:05Z</time>
      </trkpt>
      <trkpt lat="48.26529" lon="-1.66646">
        <ele>59</ele>
        <time>2021-07-21T15:41:19Z</time>
      </trkpt>
      <trkpt lat="48.266" lon="-1.66709">
        <ele>61</ele>
        <time>2021-07-21T15:41:38Z</time>
      </trkpt>
      <trkpt lat="48.26671" lon="-1.66761">
        <ele>60</ele>
        <time>2021-07-21T15:41:57Z</time>
      </trkpt>
      <trkpt lat="48.26726" lon="-1.6678">
        <ele>56</ele>
        <time>2021-07-21T15:42:10Z</time>
      </trkpt>
      <trkpt lat="48.26803" lon="-1.66777">
        <ele>53</ele>
        <time>2021-07-21T15:42:28Z</time>
      </trkpt>
      <trkpt lat="48.26882" lon="-1.66736">
        <ele>53</ele>
        <time>2021-07-21T15:42:48Z</time>
      </trkpt>
      <trkpt lat="48.27038" lon="-1.66624">
        <ele>53</ele>
        <time>2021-07-21T15:43:28Z</time>
      </trkpt>
      <trkpt lat="48.2713" lon="-1.66552">
        <ele>55</ele>
        <time>2021-07-21T15:43:52Z</time>
      </trkpt>
      <trkpt lat="48.27206" lon="-1.66513">
        <ele>57</ele>
        <time>2021-07-21T15:44:11Z</time>
      </trkpt>
      <trkpt lat="48.2724" lon="-1.66473">
        <ele>56</ele>
        <time>2021-07-21T15:44:21Z</time>
      </trkpt>
      <trkpt lat="48.27299" lon="-1.66433">
        <ele>55</ele>
        <time>2021-07-21T15:44:36Z</time>
      </trkpt>
      <trkpt lat="48.27348" lon="-1.66418">
        <ele>55</ele>
        <time>2021-07-21T15:44:48Z</time>
      </trkpt>
      <trkpt lat="48.274" lon="-1.6644">
        <ele>56</ele>
        <time>2021-07-21T15:45:00Z</time>
      </trkpt>
      <trkpt lat="48.27431" lon="-1.66475">
        <ele>56</ele>
        <time>2021-07-21T15:45:10Z</time>
      </trkpt>
      <trkpt lat="48.27505" lon="-1.66661">
        <ele>51</ele>
        <time>2021-07-21T15:45:43Z</time>
      </trkpt>
      <trkpt lat="48.27522" lon="-1.66684">
        <ele>52</ele>
        <time>2021-07-21T15:45:49Z</time>
      </trkpt>
      <trkpt lat="48.27556" lon="-1.66781">
        <ele>56</ele>
        <time>2021-07-21T15:46:06Z</time>
      </trkpt>
      <trkpt lat="48.27675" lon="-1.67061">
        <ele>56</ele>
        <time>2021-07-21T15:46:57Z</time>
      </trkpt>
      <trkpt lat="48.27697" lon="-1.67079">
        <ele>56</ele>
        <time>2021-07-21T15:47:03Z</time>
      </trkpt>
      <trkpt lat="48.27732" lon="-1.67098">
        <ele>56</ele>
        <time>2021-07-21T15:47:12Z</time>
      </trkpt>
      <trkpt lat="48.27815" lon="-1.67132">
        <ele>57</ele>
        <time>2021-07-21T15:47:32Z</time>
      </trkpt>
      <trkpt lat="48.27892" lon="-1.67148">
        <ele>57</ele>
        <time>2021-07-21T15:47:50Z</time>
      </trkpt>
      <trkpt lat="48.27942" lon="-1.67164">
        <ele>57</ele>
        <time>2021-07-21T15:48:02Z</time>
      </trkpt>
      <trkpt lat="48.27996" lon="-1.67195">
        <ele>60</ele>
        <time>2021-07-21T15:48:15Z</time>
      </trkpt>
      <trkpt lat="48.28029" lon="-1.67227">
        <ele>60</ele>
        <time>2021-07-21T15:48:25Z</time>
      </trkpt>
      <trkpt lat="48.28084" lon="-1.67253">
        <ele>58</ele>
        <time>2021-07-21T15:48:38Z</time>
      </trkpt>
      <trkpt lat="48.28134" lon="-1.67263">
        <ele>61</ele>
        <time>2021-07-21T15:48:50Z</time>
      </trkpt>
      <trkpt lat="48.28192" lon="-1.67258">
        <ele>63</ele>
        <time>2021-07-21T15:49:03Z</time>
      </trkpt>
      <trkpt lat="48.28263" lon="-1.67242">
        <ele>64</ele>
        <time>2021-07-21T15:49:20Z</time>
      </trkpt>
      <trkpt lat="48.28333" lon="-1.67209">
        <ele>68</ele>
        <time>2021-07-21T15:49:37Z</time>
      </trkpt>
      <trkpt lat="48.28472" lon="-1.67125">
        <ele>64</ele>
        <time>2021-07-21T15:50:12Z</time>
      </trkpt>
      <trkpt lat="48.28513" lon="-1.67134">
        <ele>61</ele>
        <time>2021-07-21T15:50:22Z</time>
      </trkpt>
      <trkpt lat="48.28546" lon="-1.67162">
        <ele>60</ele>
        <time>2021-07-21T15:50:31Z</time>
      </trkpt>
      <trkpt lat="48.28563" lon="-1.6719">
        <ele>60</ele>
        <time>2021-07-21T15:50:37Z</time>
      </trkpt>
      <trkpt lat="48.28577" lon="-1.67247">
        <ele>59</ele>
        <time>2021-07-21T15:50:46Z</time>
      </trkpt>
      <trkpt lat="48.28583" lon="-1.673">
        <ele>58</ele>
        <time>2021-07-21T15:50:55Z</time>
      </trkpt>
      <trkpt lat="48.28589" lon="-1.674">
        <ele>61</ele>
        <time>2021-07-21T15:51:10Z</time>
      </trkpt>
      <trkpt lat="48.28614" lon="-1.67465">
        <ele>62</ele>
        <time>2021-07-21T15:51:22Z</time>
      </trkpt>
      <trkpt lat="48.28633" lon="-1.675">
        <ele>62</ele>
        <time>2021-07-21T15:51:29Z</time>
      </trkpt>
      <trkpt lat="48.28665" lon="-1.6753">
        <ele>62</ele>
        <time>2021-07-21T15:51:38Z</time>
      </trkpt>
      <trkpt lat="48.28716" lon="-1.67544">
        <ele>63</ele>
        <time>2021-07-21T15:51:50Z</time>
      </trkpt>
      <trkpt lat="48.28765" lon="-1.67543">
        <ele>62</ele>
        <time>2021-07-21T15:52:01Z</time>
      </trkpt>
      <trkpt lat="48.28819" lon="-1.67528">
        <ele>63</ele>
        <time>2021-07-21T15:52:14Z</time>
      </trkpt>
      <trkpt lat="48.29198" lon="-1.67392">
        <ele>63</ele>
        <time>2021-07-21T15:53:45Z</time>
      </trkpt>
      <trkpt lat="48.2924" lon="-1.67373">
        <ele>62</ele>
        <time>2021-07-21T15:53:55Z</time>
      </trkpt>
      <trkpt lat="48.29283" lon="-1.67315">
        <ele>62</ele>
        <time>2021-07-21T15:54:09Z</time>
      </trkpt>
      <trkpt lat="48.29324" lon="-1.6725">
        <ele>60</ele>
        <time>2021-07-21T15:54:23Z</time>
      </trkpt>
      <trkpt lat="48.29368" lon="-1.67206">
        <ele>62</ele>
        <time>2021-07-21T15:54:35Z</time>
      </trkpt>
      <trkpt lat="48.29429" lon="-1.6718">
        <ele>58</ele>
        <time>2021-07-21T15:54:50Z</time>
      </trkpt>
      <trkpt lat="48.29486" lon="-1.67167">
        <ele>56</ele>
        <time>2021-07-21T15:55:03Z</time>
      </trkpt>
      <trkpt lat="48.29531" lon="-1.67195">
        <ele>56</ele>
        <time>2021-07-21T15:55:15Z</time>
      </trkpt>
      <trkpt lat="48.29562" lon="-1.67228">
        <ele>55</ele>
        <time>2021-07-21T15:55:24Z</time>
      </trkpt>
      <trkpt lat="48.29586" lon="-1.67262">
        <ele>55</ele>
        <time>2021-07-21T15:55:31Z</time>
      </trkpt>
      <trkpt lat="48.29673" lon="-1.673">
        <ele>58</ele>
        <time>2021-07-21T15:55:52Z</time>
      </trkpt>
      <trkpt lat="48.29712" lon="-1.67301">
        <ele>59</ele>
        <time>2021-07-21T15:56:01Z</time>
      </trkpt>
      <trkpt lat="48.2991" lon="-1.67375">
        <ele>59</ele>
        <time>2021-07-21T15:56:49Z</time>
      </trkpt>
      <trkpt lat="48.30017" lon="-1.67409">
        <ele>57</ele>
        <time>2021-07-21T15:57:15Z</time>
      </trkpt>
      <trkpt lat="48.30042" lon="-1.67424">
        <ele>57</ele>
        <time>2021-07-21T15:57:21Z</time>
      </trkpt>
      <trkpt lat="48.30066" lon="-1.67468">
        <ele>59</ele>
        <time>2021-07-21T15:57:30Z</time>
      </trkpt>
      <trkpt lat="48.30087" lon="-1.67562">
        <ele>61</ele>
        <time>2021-07-21T15:57:45Z</time>
      </trkpt>
      <trkpt lat="48.3009" lon="-1.67679">
        <ele>61</ele>
        <time>2021-07-21T15:58:03Z</time>
      </trkpt>
      <trkpt lat="48.30086" lon="-1.67726">
        <ele>61</ele>
        <time>2021-07-21T15:58:11Z</time>
      </trkpt>
      <trkpt lat="48.30102" lon="-1.67765">
        <ele>62</ele>
        <time>2021-07-21T15:58:18Z</time>
      </trkpt>
      <trkpt lat="48.30147" lon="-1.67796">
        <ele>63</ele>
        <time>2021-07-21T15:58:29Z</time>
      </trkpt>
      <trkpt lat="48.30222" lon="-1.67822">
        <ele>62</ele>
        <time>2021-07-21T15:58:47Z</time>
      </trkpt>
      <trkpt lat="48.30258" lon="-1.67876">
        <ele>61</ele>
        <time>2021-07-21T15:58:59Z</time>
      </trkpt>
      <trkpt lat="48.30277" lon="-1.67964">
        <ele>60</ele>
        <time>2021-07-21T15:59:14Z</time>
      </trkpt>
      <trkpt lat="48.30279" lon="-1.6813">
        <ele>58</ele>
        <time>2021-07-21T15:59:39Z</time>
      </trkpt>
      <trkpt lat="48.30277" lon="-1.68349">
        <ele>61</ele>
        <time>2021-07-21T16:00:13Z</time>
      </trkpt>
      <trkpt lat="48.30287" lon="-1.68468">
        <ele>60</ele>
        <time>2021-07-21T16:00:32Z</time>
      </trkpt>
      <trkpt lat="48.30324" lon="-1.6853">
        <ele>59</ele>
        <time>2021-07-21T16:00:45Z</time>
      </trkpt>
      <trkpt lat="48.30366" lon="-1.68559">
        <ele>59</ele>
        <time>2021-07-21T16:00:56Z</time>
      </trkpt>
      <trkpt lat="48.30428" lon="-1.6856">
        <ele>59</ele>
        <time>2021-07-21T16:01:10Z</time>
      </trkpt>
      <trkpt lat="48.30508" lon="-1.68557">
        <ele>61</ele>
        <time>2021-07-21T16:01:29Z</time>
      </trkpt>
      <trkpt lat="48.30905" lon="-1.68522">
        <ele>66</ele>
        <time>2021-07-21T16:03:02Z</time>
      </trkpt>
      <trkpt lat="48.30946" lon="-1.68536">
        <ele>66</ele>
        <time>2021-07-21T16:03:12Z</time>
      </trkpt>
      <trkpt lat="48.3098" lon="-1.6857">
        <ele>65</ele>
        <time>2021-07-21T16:03:21Z</time>
      </trkpt>
      <trkpt lat="48.30999" lon="-1.68606">
        <ele>65</ele>
        <time>2021-07-21T16:03:28Z</time>
      </trkpt>
      <trkpt lat="48.31004" lon="-1.68633">
        <ele>64</ele>
        <time>2021-07-21T16:03:33Z</time>
      </trkpt>
      <trkpt lat="48.31008" lon="-1.68685">
        <ele>63</ele>
        <time>2021-07-21T16:03:41Z</time>
      </trkpt>
      <trkpt lat="48.30996" lon="-1.68745">
        <ele>62</ele>
        <time>2021-07-21T16:03:51Z</time>
      </trkpt>
      <trkpt lat="48.30967" lon="-1.68927">
        <ele>62</ele>
        <time>2021-07-21T16:04:20Z</time>
      </trkpt>
      <trkpt lat="48.30967" lon="-1.6897">
        <ele>63</ele>
        <time>2021-07-21T16:04:26Z</time>
      </trkpt>
      <trkpt lat="48.30979" lon="-1.69003">
        <ele>64</ele>
        <time>2021-07-21T16:04:32Z</time>
      </trkpt>
      <trkpt lat="48.31" lon="-1.69037">
        <ele>64</ele>
        <time>2021-07-21T16:04:39Z</time>
      </trkpt>
      <trkpt lat="48.31031" lon="-1.69056">
        <ele>64</ele>
        <time>2021-07-21T16:04:47Z</time>
      </trkpt>
      <trkpt lat="48.31119" lon="-1.691">
        <ele>64</ele>
        <time>2021-07-21T16:05:09Z</time>
      </trkpt>
      <trkpt lat="48.3123" lon="-1.69163">
        <ele>64</ele>
        <time>2021-07-21T16:05:37Z</time>
      </trkpt>
      <trkpt lat="48.31258" lon="-1.69193">
        <ele>64</ele>
        <time>2021-07-21T16:05:45Z</time>
      </trkpt>
      <trkpt lat="48.31286" lon="-1.69239">
        <ele>66</ele>
        <time>2021-07-21T16:05:54Z</time>
      </trkpt>
      <trkpt lat="48.31309" lon="-1.69295">
        <ele>65</ele>
        <time>2021-07-21T16:06:04Z</time>
      </trkpt>
      <trkpt lat="48.31359" lon="-1.69464">
        <ele>64</ele>
        <time>2021-07-21T16:06:33Z</time>
      </trkpt>
      <trkpt lat="48.31473" lon="-1.69883">
        <ele>65</ele>
        <time>2021-07-21T16:07:44Z</time>
      </trkpt>
      <trkpt lat="48.31618" lon="-1.70398">
        <ele>66</ele>
        <time>2021-07-21T16:09:10Z</time>
      </trkpt>
      <trkpt lat="48.3164" lon="-1.70423">
        <ele>67</ele>
        <time>2021-07-21T16:09:17Z</time>
      </trkpt>
      <trkpt lat="48.31671" lon="-1.70464">
        <ele>68</ele>
        <time>2021-07-21T16:09:26Z</time>
      </trkpt>
      <trkpt lat="48.31686" lon="-1.70539">
        <ele>67</ele>
        <time>2021-07-21T16:09:39Z</time>
      </trkpt>
      <trkpt lat="48.31692" lon="-1.70602">
        <ele>65</ele>
        <time>2021-07-21T16:09:49Z</time>
      </trkpt>
      <trkpt lat="48.31692" lon="-1.70765">
        <ele>65</ele>
        <time>2021-07-21T16:10:14Z</time>
      </trkpt>
      <trkpt lat="48.3168" lon="-1.70877">
        <ele>68</ele>
        <time>2021-07-21T16:10:31Z</time>
      </trkpt>
      <trkpt lat="48.31644" lon="-1.7101">
        <ele>67</ele>
        <time>2021-07-21T16:10:54Z</time>
      </trkpt>
      <trkpt lat="48.31498" lon="-1.71289">
        <ele>68</ele>
        <time>2021-07-21T16:11:49Z</time>
      </trkpt>
      <trkpt lat="48.31438" lon="-1.71454">
        <ele>65</ele>
        <time>2021-07-21T16:12:18Z</time>
      </trkpt>
      <trkpt lat="48.31373" lon="-1.7174">
        <ele>68</ele>
        <time>2021-07-21T16:13:05Z</time>
      </trkpt>
      <trkpt lat="48.31351" lon="-1.71766">
        <ele>68</ele>
        <time>2021-07-21T16:13:12Z</time>
      </trkpt>
      <trkpt lat="48.31326" lon="-1.7179">
        <ele>67</ele>
        <time>2021-07-21T16:13:18Z</time>
      </trkpt>
      <trkpt lat="48.31308" lon="-1.71835">
        <ele>68</ele>
        <time>2021-07-21T16:13:27Z</time>
      </trkpt>
      <trkpt lat="48.31261" lon="-1.71819">
        <ele>67</ele>
        <time>2021-07-21T16:13:38Z</time>
      </trkpt>
      <trkpt lat="48.31222" lon="-1.71999">
        <ele>68</ele>
        <time>2021-07-21T16:14:07Z</time>
      </trkpt>
      <trkpt lat="48.31222" lon="-1.7207">
        <ele>69</ele>
        <time>2021-07-21T16:14:18Z</time>
      </trkpt>
      <trkpt lat="48.31171" lon="-1.72317">
        <ele>70</ele>
        <time>2021-07-21T16:14:58Z</time>
      </trkpt>
      <trkpt lat="48.31148" lon="-1.72447">
        <ele>71</ele>
        <time>2021-07-21T16:15:19Z</time>
      </trkpt>
      <trkpt lat="48.31144" lon="-1.72712">
        <ele>72</ele>
        <time>2021-07-21T16:16:01Z</time>
      </trkpt>
      <trkpt lat="48.31151" lon="-1.72913">
        <ele>71</ele>
        <time>2021-07-21T16:16:32Z</time>
      </trkpt>
      <trkpt lat="48.31151" lon="-1.73045">
        <ele>71</ele>
        <time>2021-07-21T16:16:52Z</time>
      </trkpt>
      <trkpt lat="48.31159" lon="-1.73171">
        <ele>73</ele>
        <time>2021-07-21T16:17:12Z</time>
      </trkpt>
      <trkpt lat="48.31163" lon="-1.73491">
        <ele>77</ele>
        <time>2021-07-21T16:18:02Z</time>
      </trkpt>
      <trkpt lat="48.31173" lon="-1.73655">
        <ele>80</ele>
        <time>2021-07-21T16:18:27Z</time>
      </trkpt>
      <trkpt lat="48.31157" lon="-1.73759">
        <ele>82</ele>
        <time>2021-07-21T16:18:44Z</time>
      </trkpt>
      <trkpt lat="48.31168" lon="-1.73968">
        <ele>84</ele>
        <time>2021-07-21T16:19:16Z</time>
      </trkpt>
      <trkpt lat="48.31178" lon="-1.74073">
        <ele>84</ele>
        <time>2021-07-21T16:19:33Z</time>
      </trkpt>
      <trkpt lat="48.31169" lon="-1.74135">
        <ele>86</ele>
        <time>2021-07-21T16:19:43Z</time>
      </trkpt>
      <trkpt lat="48.31174" lon="-1.74192">
        <ele>87</ele>
        <time>2021-07-21T16:19:52Z</time>
      </trkpt>
      <trkpt lat="48.31156" lon="-1.74374">
        <ele>83</ele>
        <time>2021-07-21T16:20:20Z</time>
      </trkpt>
      <trkpt lat="48.31176" lon="-1.74626">
        <ele>87</ele>
        <time>2021-07-21T16:21:00Z</time>
      </trkpt>
      <trkpt lat="48.31193" lon="-1.7479">
        <ele>81</ele>
        <time>2021-07-21T16:21:25Z</time>
      </trkpt>
      <trkpt lat="48.31196" lon="-1.74994">
        <ele>78</ele>
        <time>2021-07-21T16:21:57Z</time>
      </trkpt>
      <trkpt lat="48.31216" lon="-1.75125">
        <ele>79</ele>
        <time>2021-07-21T16:22:18Z</time>
      </trkpt>
      <trkpt lat="48.31236" lon="-1.75476">
        <ele>80</ele>
        <time>2021-07-21T16:23:13Z</time>
      </trkpt>
      <trkpt lat="48.31306" lon="-1.75724">
        <ele>77</ele>
        <time>2021-07-21T16:23:55Z</time>
      </trkpt>
      <trkpt lat="48.31348" lon="-1.75783">
        <ele>76</ele>
        <time>2021-07-21T16:24:08Z</time>
      </trkpt>
      <trkpt lat="48.31361" lon="-1.75806">
        <ele>75</ele>
        <time>2021-07-21T16:24:13Z</time>
      </trkpt>
      <trkpt lat="48.31442" lon="-1.75873">
        <ele>73</ele>
        <time>2021-07-21T16:24:34Z</time>
      </trkpt>
      <trkpt lat="48.31501" lon="-1.75896">
        <ele>72</ele>
        <time>2021-07-21T16:24:49Z</time>
      </trkpt>
      <trkpt lat="48.31535" lon="-1.75932">
        <ele>72</ele>
        <time>2021-07-21T16:24:58Z</time>
      </trkpt>
      <trkpt lat="48.31554" lon="-1.7601">
        <ele>72</ele>
        <time>2021-07-21T16:25:11Z</time>
      </trkpt>
      <trkpt lat="48.31549" lon="-1.76089">
        <ele>74</ele>
        <time>2021-07-21T16:25:23Z</time>
      </trkpt>
      <trkpt lat="48.31537" lon="-1.76155">
        <ele>74</ele>
        <time>2021-07-21T16:25:34Z</time>
      </trkpt>
      <trkpt lat="48.31507" lon="-1.76214">
        <ele>73</ele>
        <time>2021-07-21T16:25:46Z</time>
      </trkpt>
      <trkpt lat="48.31452" lon="-1.76245">
        <ele>72</ele>
        <time>2021-07-21T16:25:59Z</time>
      </trkpt>
      <trkpt lat="48.31333" lon="-1.76248">
        <ele>71</ele>
        <time>2021-07-21T16:26:27Z</time>
      </trkpt>
      <trkpt lat="48.31262" lon="-1.7624">
        <ele>71</ele>
        <time>2021-07-21T16:26:44Z</time>
      </trkpt>
      <trkpt lat="48.31228" lon="-1.76223">
        <ele>71</ele>
        <time>2021-07-21T16:26:52Z</time>
      </trkpt>
      <trkpt lat="48.31174" lon="-1.76181">
        <ele>69</ele>
        <time>2021-07-21T16:27:06Z</time>
      </trkpt>
      <trkpt lat="48.31113" lon="-1.7609">
        <ele>69</ele>
        <time>2021-07-21T16:27:26Z</time>
      </trkpt>
      <trkpt lat="48.31043" lon="-1.76057">
        <ele>70</ele>
        <time>2021-07-21T16:27:44Z</time>
      </trkpt>
      <trkpt lat="48.30976" lon="-1.76032">
        <ele>70</ele>
        <time>2021-07-21T16:28:00Z</time>
      </trkpt>
      <trkpt lat="48.30899" lon="-1.76041">
        <ele>71</ele>
        <time>2021-07-21T16:28:18Z</time>
      </trkpt>
      <trkpt lat="48.30809" lon="-1.76083">
        <ele>72</ele>
        <time>2021-07-21T16:28:40Z</time>
      </trkpt>
      <trkpt lat="48.30725" lon="-1.76146">
        <ele>73</ele>
        <time>2021-07-21T16:29:02Z</time>
      </trkpt>
      <trkpt lat="48.30664" lon="-1.76267">
        <ele>74</ele>
        <time>2021-07-21T16:29:25Z</time>
      </trkpt>
      <trkpt lat="48.3063" lon="-1.76433">
        <ele>75</ele>
        <time>2021-07-21T16:29:52Z</time>
      </trkpt>
      <trkpt lat="48.30586" lon="-1.76544">
        <ele>76</ele>
        <time>2021-07-21T16:30:12Z</time>
      </trkpt>
      <trkpt lat="48.3052" lon="-1.76624">
        <ele>73</ele>
        <time>2021-07-21T16:30:32Z</time>
      </trkpt>
      <trkpt lat="48.30388" lon="-1.76691">
        <ele>74</ele>
        <time>2021-07-21T16:31:05Z</time>
      </trkpt>
      <trkpt lat="48.30321" lon="-1.76736">
        <ele>78</ele>
        <time>2021-07-21T16:31:22Z</time>
      </trkpt>
      <trkpt lat="48.30273" lon="-1.7681">
        <ele>77</ele>
        <time>2021-07-21T16:31:38Z</time>
      </trkpt>
      <trkpt lat="48.3024" lon="-1.76943">
        <ele>75</ele>
        <time>2021-07-21T16:32:00Z</time>
      </trkpt>
      <trkpt lat="48.30191" lon="-1.7705">
        <ele>73</ele>
        <time>2021-07-21T16:32:20Z</time>
      </trkpt>
      <trkpt lat="48.30142" lon="-1.77138">
        <ele>71</ele>
        <time>2021-07-21T16:32:38Z</time>
      </trkpt>
      <trkpt lat="48.30138" lon="-1.77167">
        <ele>71</ele>
        <time>2021-07-21T16:32:42Z</time>
      </trkpt>
      <trkpt lat="48.30085" lon="-1.77252">
        <ele>77</ele>
        <time>2021-07-21T16:33:01Z</time>
      </trkpt>
      <trkpt lat="48.30064" lon="-1.77353">
        <ele>76</ele>
        <time>2021-07-21T16:33:17Z</time>
      </trkpt>
      <trkpt lat="48.30041" lon="-1.77513">
        <ele>71</ele>
        <time>2021-07-21T16:33:42Z</time>
      </trkpt>
      <trkpt lat="48.30025" lon="-1.77649">
        <ele>75</ele>
        <time>2021-07-21T16:34:04Z</time>
      </trkpt>
      <trkpt lat="48.30004" lon="-1.77748">
        <ele>77</ele>
        <time>2021-07-21T16:34:20Z</time>
      </trkpt>
      <trkpt lat="48.29992" lon="-1.77903">
        <ele>75</ele>
        <time>2021-07-21T16:34:44Z</time>
      </trkpt>
      <trkpt lat="48.30142" lon="-1.78318">
        <ele>68</ele>
        <time>2021-07-21T16:35:58Z</time>
      </trkpt>
      <trkpt lat="48.30204" lon="-1.78511">
        <ele>66</ele>
        <time>2021-07-21T16:36:31Z</time>
      </trkpt>
      <trkpt lat="48.30277" lon="-1.78709">
        <ele>60</ele>
        <time>2021-07-21T16:37:06Z</time>
      </trkpt>
      <trkpt lat="48.30443" lon="-1.79186">
        <ele>58</ele>
        <time>2021-07-21T16:38:30Z</time>
      </trkpt>
      <trkpt lat="48.30443" lon="-1.79244">
        <ele>57</ele>
        <time>2021-07-21T16:38:39Z</time>
      </trkpt>
      <trkpt lat="48.30476" lon="-1.79298">
        <ele>52</ele>
        <time>2021-07-21T16:38:50Z</time>
      </trkpt>
      <trkpt lat="48.30514" lon="-1.79389">
        <ele>47</ele>
        <time>2021-07-21T16:39:07Z</time>
      </trkpt>
      <trkpt lat="48.30548" lon="-1.79364">
        <ele>47</ele>
        <time>2021-07-21T16:39:16Z</time>
      </trkpt>
      <trkpt lat="48.30947" lon="-1.80506">
        <ele>44</ele>
        <time>2021-07-21T16:42:36Z</time>
      </trkpt>
      <trkpt lat="48.30969" lon="-1.80552">
        <ele>44</ele>
        <time>2021-07-21T16:42:45Z</time>
      </trkpt>
      <trkpt lat="48.31019" lon="-1.80578">
        <ele>45</ele>
        <time>2021-07-21T16:42:57Z</time>
      </trkpt>
      <trkpt lat="48.31219" lon="-1.8058">
        <ele>42</ele>
        <time>2021-07-21T16:43:44Z</time>
      </trkpt>
      <trkpt lat="48.31286" lon="-1.80583">
        <ele>42</ele>
        <time>2021-07-21T16:43:59Z</time>
      </trkpt>
      <trkpt lat="48.31342" lon="-1.80598">
        <ele>42</ele>
        <time>2021-07-21T16:44:13Z</time>
      </trkpt>
      <trkpt lat="48.31381" lon="-1.80603">
        <ele>40</ele>
        <time>2021-07-21T16:44:22Z</time>
      </trkpt>
      <trkpt lat="48.3145" lon="-1.80638">
        <ele>40</ele>
        <time>2021-07-21T16:44:39Z</time>
      </trkpt>
      <trkpt lat="48.31779" lon="-1.80828">
        <ele>43</ele>
        <time>2021-07-21T16:46:01Z</time>
      </trkpt>
      <trkpt lat="48.31975" lon="-1.80947">
        <ele>39</ele>
        <time>2021-07-21T16:46:51Z</time>
      </trkpt>
      <trkpt lat="48.32036" lon="-1.80994">
        <ele>38</ele>
        <time>2021-07-21T16:47:07Z</time>
      </trkpt>
      <trkpt lat="48.32096" lon="-1.81076">
        <ele>37</ele>
        <time>2021-07-21T16:47:26Z</time>
      </trkpt>
      <trkpt lat="48.32122" lon="-1.8114">
        <ele>37</ele>
        <time>2021-07-21T16:47:37Z</time>
      </trkpt>
      <trkpt lat="48.32138" lon="-1.81211">
        <ele>37</ele>
        <time>2021-07-21T16:47:49Z</time>
      </trkpt>
      <trkpt lat="48.32142" lon="-1.81281">
        <ele>38</ele>
        <time>2021-07-21T16:48:00Z</time>
      </trkpt>
      <trkpt lat="48.3215" lon="-1.8132">
        <ele>39</ele>
        <time>2021-07-21T16:48:06Z</time>
      </trkpt>
      <trkpt lat="48.32162" lon="-1.81406">
        <ele>39</ele>
        <time>2021-07-21T16:48:20Z</time>
      </trkpt>
      <trkpt lat="48.3217" lon="-1.81484">
        <ele>38</ele>
        <time>2021-07-21T16:48:32Z</time>
      </trkpt>
      <trkpt lat="48.32146" lon="-1.81484">
        <ele>39</ele>
        <time>2021-07-21T16:48:38Z</time>
      </trkpt>
      <trkpt lat="48.32145" lon="-1.81654">
        <ele>38</ele>
        <time>2021-07-21T16:49:04Z</time>
      </trkpt>
      <trkpt lat="48.32177" lon="-1.81768">
        <ele>38</ele>
        <time>2021-07-21T16:49:23Z</time>
      </trkpt>
      <trkpt lat="48.32286" lon="-1.81934">
        <ele>39</ele>
        <time>2021-07-21T16:49:59Z</time>
      </trkpt>
      <trkpt lat="48.32371" lon="-1.82104">
        <ele>39</ele>
        <time>2021-07-21T16:50:32Z</time>
      </trkpt>
      <trkpt lat="48.32686" lon="-1.82699">
        <ele>38</ele>
        <time>2021-07-21T16:52:31Z</time>
      </trkpt>
      <trkpt lat="48.32724" lon="-1.82726">
        <ele>38</ele>
        <time>2021-07-21T16:52:40Z</time>
      </trkpt>
      <trkpt lat="48.32739" lon="-1.82777">
        <ele>39</ele>
        <time>2021-07-21T16:52:49Z</time>
      </trkpt>
      <trkpt lat="48.32871" lon="-1.82997">
        <ele>41</ele>
        <time>2021-07-21T16:53:35Z</time>
      </trkpt>
      <trkpt lat="48.32934" lon="-1.8304">
        <ele>42</ele>
        <time>2021-07-21T16:53:51Z</time>
      </trkpt>
      <trkpt lat="48.33014" lon="-1.83062">
        <ele>39</ele>
        <time>2021-07-21T16:54:10Z</time>
      </trkpt>
      <trkpt lat="48.33109" lon="-1.83141">
        <ele>38</ele>
        <time>2021-07-21T16:54:36Z</time>
      </trkpt>
      <trkpt lat="48.3314" lon="-1.83174">
        <ele>37</ele>
        <time>2021-07-21T16:54:44Z</time>
      </trkpt>
      <trkpt lat="48.33173" lon="-1.83217">
        <ele>37</ele>
        <time>2021-07-21T16:54:55Z</time>
      </trkpt>
      <trkpt lat="48.33205" lon="-1.83286">
        <ele>37</ele>
        <time>2021-07-21T16:55:08Z</time>
      </trkpt>
      <trkpt lat="48.33224" lon="-1.83368">
        <ele>37</ele>
        <time>2021-07-21T16:55:21Z</time>
      </trkpt>
      <trkpt lat="48.33249" lon="-1.83445">
        <ele>36</ele>
        <time>2021-07-21T16:55:34Z</time>
      </trkpt>
      <trkpt lat="48.33292" lon="-1.83507">
        <ele>36</ele>
        <time>2021-07-21T16:55:48Z</time>
      </trkpt>
      <trkpt lat="48.33328" lon="-1.83533">
        <ele>36</ele>
        <time>2021-07-21T16:55:58Z</time>
      </trkpt>
      <trkpt lat="48.33374" lon="-1.83548">
        <ele>36</ele>
        <time>2021-07-21T16:56:09Z</time>
      </trkpt>
      <trkpt lat="48.33431" lon="-1.8354">
        <ele>36</ele>
        <time>2021-07-21T16:56:22Z</time>
      </trkpt>
      <trkpt lat="48.33487" lon="-1.83512">
        <ele>35</ele>
        <time>2021-07-21T16:56:36Z</time>
      </trkpt>
      <trkpt lat="48.33525" lon="-1.83488">
        <ele>35</ele>
        <time>2021-07-21T16:56:45Z</time>
      </trkpt>
      <trkpt lat="48.33566" lon="-1.83481">
        <ele>37</ele>
        <time>2021-07-21T16:56:55Z</time>
      </trkpt>
      <trkpt lat="48.33648" lon="-1.83498">
        <ele>37</ele>
        <time>2021-07-21T16:57:14Z</time>
      </trkpt>
      <trkpt lat="48.337" lon="-1.83549">
        <ele>37</ele>
        <time>2021-07-21T16:57:29Z</time>
      </trkpt>
      <trkpt lat="48.33748" lon="-1.83621">
        <ele>37</ele>
        <time>2021-07-21T16:57:45Z</time>
      </trkpt>
      <trkpt lat="48.33808" lon="-1.83687">
        <ele>38</ele>
        <time>2021-07-21T16:58:02Z</time>
      </trkpt>
      <trkpt lat="48.3386" lon="-1.83701">
        <ele>38</ele>
        <time>2021-07-21T16:58:14Z</time>
      </trkpt>
      <trkpt lat="48.33918" lon="-1.83683">
        <ele>38</ele>
        <time>2021-07-21T16:58:28Z</time>
      </trkpt>
      <trkpt lat="48.33997" lon="-1.83621">
        <ele>38</ele>
        <time>2021-07-21T16:58:49Z</time>
      </trkpt>
      <trkpt lat="48.34099" lon="-1.83568">
        <ele>39</ele>
        <time>2021-07-21T16:59:14Z</time>
      </trkpt>
      <trkpt lat="48.34239" lon="-1.83539">
        <ele>40</ele>
        <time>2021-07-21T16:59:47Z</time>
      </trkpt>
      <trkpt lat="48.34391" lon="-1.83536">
        <ele>40</ele>
        <time>2021-07-21T17:00:23Z</time>
      </trkpt>
      <trkpt lat="48.34543" lon="-1.83546">
        <ele>37</ele>
        <time>2021-07-21T17:00:58Z</time>
      </trkpt>
      <trkpt lat="48.34635" lon="-1.83619">
        <ele>34</ele>
        <time>2021-07-21T17:01:23Z</time>
      </trkpt>
      <trkpt lat="48.34683" lon="-1.83643">
        <ele>34</ele>
        <time>2021-07-21T17:01:34Z</time>
      </trkpt>
      <trkpt lat="48.34713" lon="-1.83641">
        <ele>35</ele>
        <time>2021-07-21T17:01:41Z</time>
      </trkpt>
      <trkpt lat="48.34856" lon="-1.83588">
        <ele>38</ele>
        <time>2021-07-21T17:02:16Z</time>
      </trkpt>
      <trkpt lat="48.34906" lon="-1.83577">
        <ele>39</ele>
        <time>2021-07-21T17:02:28Z</time>
      </trkpt>
      <trkpt lat="48.34961" lon="-1.83593">
        <ele>39</ele>
        <time>2021-07-21T17:02:41Z</time>
      </trkpt>
      <trkpt lat="48.3503" lon="-1.83628">
        <ele>37</ele>
        <time>2021-07-21T17:02:58Z</time>
      </trkpt>
      <trkpt lat="48.35084" lon="-1.83689">
        <ele>37</ele>
        <time>2021-07-21T17:03:13Z</time>
      </trkpt>
      <trkpt lat="48.35137" lon="-1.83764">
        <ele>36</ele>
        <time>2021-07-21T17:03:30Z</time>
      </trkpt>
      <trkpt lat="48.35219" lon="-1.83912">
        <ele>33</ele>
        <time>2021-07-21T17:04:00Z</time>
      </trkpt>
      <trkpt lat="48.35286" lon="-1.84057">
        <ele>33</ele>
        <time>2021-07-21T17:04:28Z</time>
      </trkpt>
      <trkpt lat="48.35339" lon="-1.84138">
        <ele>35</ele>
        <time>2021-07-21T17:04:45Z</time>
      </trkpt>
      <trkpt lat="48.35373" lon="-1.8417">
        <ele>36</ele>
        <time>2021-07-21T17:04:55Z</time>
      </trkpt>
      <trkpt lat="48.3543" lon="-1.84192">
        <ele>36</ele>
        <time>2021-07-21T17:05:09Z</time>
      </trkpt>
      <trkpt lat="48.35469" lon="-1.842">
        <ele>34</ele>
        <time>2021-07-21T17:05:18Z</time>
      </trkpt>
      <trkpt lat="48.3552" lon="-1.84186">
        <ele>33</ele>
        <time>2021-07-21T17:05:30Z</time>
      </trkpt>
      <trkpt lat="48.35564" lon="-1.8415">
        <ele>33</ele>
        <time>2021-07-21T17:05:42Z</time>
      </trkpt>
      <trkpt lat="48.35628" lon="-1.84061">
        <ele>32</ele>
        <time>2021-07-21T17:06:02Z</time>
      </trkpt>
      <trkpt lat="48.35889" lon="-1.83678">
        <ele>31</ele>
        <time>2021-07-21T17:07:27Z</time>
      </trkpt>
      <trkpt lat="48.35915" lon="-1.83627">
        <ele>31</ele>
        <time>2021-07-21T17:07:37Z</time>
      </trkpt>
      <trkpt lat="48.35959" lon="-1.83585">
        <ele>32</ele>
        <time>2021-07-21T17:07:49Z</time>
      </trkpt>
      <trkpt lat="48.36068" lon="-1.83526">
        <ele>31</ele>
        <time>2021-07-21T17:08:16Z</time>
      </trkpt>
      <trkpt lat="48.36254" lon="-1.83463">
        <ele>31</ele>
        <time>2021-07-21T17:09:01Z</time>
      </trkpt>
      <trkpt lat="48.36388" lon="-1.83406">
        <ele>31</ele>
        <time>2021-07-21T17:09:33Z</time>
      </trkpt>
      <trkpt lat="48.36435" lon="-1.83398">
        <ele>31</ele>
        <time>2021-07-21T17:09:44Z</time>
      </trkpt>
      <trkpt lat="48.36515" lon="-1.8337">
        <ele>32</ele>
        <time>2021-07-21T17:10:03Z</time>
      </trkpt>
      <trkpt lat="48.36674" lon="-1.83306">
        <ele>32</ele>
        <time>2021-07-21T17:10:42Z</time>
      </trkpt>
      <trkpt lat="48.36717" lon="-1.8328">
        <ele>31</ele>
        <time>2021-07-21T17:10:53Z</time>
      </trkpt>
      <trkpt lat="48.36844" lon="-1.83159">
        <ele>32</ele>
        <time>2021-07-21T17:11:28Z</time>
      </trkpt>
      <trkpt lat="48.36913" lon="-1.83087">
        <ele>35</ele>
        <time>2021-07-21T17:11:47Z</time>
      </trkpt>
      <trkpt lat="48.37056" lon="-1.82953">
        <ele>32</ele>
        <time>2021-07-21T17:12:27Z</time>
      </trkpt>
      <trkpt lat="48.37136" lon="-1.8291">
        <ele>31</ele>
        <time>2021-07-21T17:12:47Z</time>
      </trkpt>
      <trkpt lat="48.3718" lon="-1.82889">
        <ele>31</ele>
        <time>2021-07-21T17:12:57Z</time>
      </trkpt>
      <trkpt lat="48.37279" lon="-1.82899">
        <ele>31</ele>
        <time>2021-07-21T17:13:21Z</time>
      </trkpt>
      <trkpt lat="48.37335" lon="-1.82931">
        <ele>30</ele>
        <time>2021-07-21T17:13:35Z</time>
      </trkpt>
      <trkpt lat="48.3743" lon="-1.83012">
        <ele>28</ele>
        <time>2021-07-21T17:14:00Z</time>
      </trkpt>
      <trkpt lat="48.37508" lon="-1.831">
        <ele>28</ele>
        <time>2021-07-21T17:14:23Z</time>
      </trkpt>
      <trkpt lat="48.37597" lon="-1.8321">
        <ele>30</ele>
        <time>2021-07-21T17:14:50Z</time>
      </trkpt>
      <trkpt lat="48.37623" lon="-1.8326">
        <ele>29</ele>
        <time>2021-07-21T17:15:00Z</time>
      </trkpt>
      <trkpt lat="48.37652" lon="-1.83288">
        <ele>29</ele>
        <time>2021-07-21T17:15:08Z</time>
      </trkpt>
      <trkpt lat="48.37661" lon="-1.83333">
        <ele>29</ele>
        <time>2021-07-21T17:15:15Z</time>
      </trkpt>
      <trkpt lat="48.37681" lon="-1.83355">
        <ele>29</ele>
        <time>2021-07-21T17:15:21Z</time>
      </trkpt>
      <trkpt lat="48.37706" lon="-1.83433">
        <ele>29</ele>
        <time>2021-07-21T17:15:34Z</time>
      </trkpt>
      <trkpt lat="48.37728" lon="-1.83512">
        <ele>29</ele>
        <time>2021-07-21T17:15:47Z</time>
      </trkpt>
      <trkpt lat="48.37738" lon="-1.83574">
        <ele>28</ele>
        <time>2021-07-21T17:15:57Z</time>
      </trkpt>
      <trkpt lat="48.37775" lon="-1.83671">
        <ele>26</ele>
        <time>2021-07-21T17:16:15Z</time>
      </trkpt>
      <trkpt lat="48.37785" lon="-1.83728">
        <ele>27</ele>
        <time>2021-07-21T17:16:24Z</time>
      </trkpt>
      <trkpt lat="48.37817" lon="-1.83834">
        <ele>28</ele>
        <time>2021-07-21T17:16:42Z</time>
      </trkpt>
      <trkpt lat="48.38167" lon="-1.84949">
        <ele>30</ele>
        <time>2021-07-21T17:19:53Z</time>
      </trkpt>
      <trkpt lat="48.3818" lon="-1.85047">
        <ele>30</ele>
        <time>2021-07-21T17:20:09Z</time>
      </trkpt>
      <trkpt lat="48.38177" lon="-1.85115">
        <ele>30</ele>
        <time>2021-07-21T17:20:19Z</time>
      </trkpt>
      <trkpt lat="48.38163" lon="-1.85182">
        <ele>30</ele>
        <time>2021-07-21T17:20:30Z</time>
      </trkpt>
      <trkpt lat="48.38133" lon="-1.85299">
        <ele>27</ele>
        <time>2021-07-21T17:20:50Z</time>
      </trkpt>
      <trkpt lat="48.38065" lon="-1.8537">
        <ele>27</ele>
        <time>2021-07-21T17:21:09Z</time>
      </trkpt>
      <trkpt lat="48.38022" lon="-1.85398">
        <ele>27</ele>
        <time>2021-07-21T17:21:20Z</time>
      </trkpt>
      <trkpt lat="48.37978" lon="-1.85413">
        <ele>27</ele>
        <time>2021-07-21T17:21:30Z</time>
      </trkpt>
      <trkpt lat="48.37898" lon="-1.85415">
        <ele>28</ele>
        <time>2021-07-21T17:21:49Z</time>
      </trkpt>
      <trkpt lat="48.37799" lon="-1.85413">
        <ele>28</ele>
        <time>2021-07-21T17:22:12Z</time>
      </trkpt>
      <trkpt lat="48.37712" lon="-1.85408">
        <ele>28</ele>
        <time>2021-07-21T17:22:32Z</time>
      </trkpt>
      <trkpt lat="48.37675" lon="-1.85417">
        <ele>27</ele>
        <time>2021-07-21T17:22:41Z</time>
      </trkpt>
      <trkpt lat="48.37631" lon="-1.85442">
        <ele>26</ele>
        <time>2021-07-21T17:22:52Z</time>
      </trkpt>
      <trkpt lat="48.37593" lon="-1.85496">
        <ele>27</ele>
        <time>2021-07-21T17:23:04Z</time>
      </trkpt>
      <trkpt lat="48.37575" lon="-1.85584">
        <ele>26</ele>
        <time>2021-07-21T17:23:19Z</time>
      </trkpt>
      <trkpt lat="48.37577" lon="-1.85716">
        <ele>25</ele>
        <time>2021-07-21T17:23:39Z</time>
      </trkpt>
      <trkpt lat="48.37596" lon="-1.85884">
        <ele>25</ele>
        <time>2021-07-21T17:24:06Z</time>
      </trkpt>
      <trkpt lat="48.37619" lon="-1.86011">
        <ele>24</ele>
        <time>2021-07-21T17:24:26Z</time>
      </trkpt>
      <trkpt lat="48.37664" lon="-1.86155">
        <ele>26</ele>
        <time>2021-07-21T17:24:51Z</time>
      </trkpt>
      <trkpt lat="48.37744" lon="-1.86337">
        <ele>27</ele>
        <time>2021-07-21T17:25:25Z</time>
      </trkpt>
      <trkpt lat="48.37795" lon="-1.86442">
        <ele>28</ele>
        <time>2021-07-21T17:25:45Z</time>
      </trkpt>
      <trkpt lat="48.37866" lon="-1.86562">
        <ele>29</ele>
        <time>2021-07-21T17:26:10Z</time>
      </trkpt>
      <trkpt lat="48.37949" lon="-1.86653">
        <ele>28</ele>
        <time>2021-07-21T17:26:34Z</time>
      </trkpt>
      <trkpt lat="48.38006" lon="-1.86732">
        <ele>27</ele>
        <time>2021-07-21T17:26:52Z</time>
      </trkpt>
      <trkpt lat="48.38037" lon="-1.86826">
        <ele>26</ele>
        <time>2021-07-21T17:27:08Z</time>
      </trkpt>
      <trkpt lat="48.38038" lon="-1.86945">
        <ele>26</ele>
        <time>2021-07-21T17:27:26Z</time>
      </trkpt>
      <trkpt lat="48.38017" lon="-1.87028">
        <ele>24</ele>
        <time>2021-07-21T17:27:40Z</time>
      </trkpt>
      <trkpt lat="48.37868" lon="-1.87405">
        <ele>26</ele>
        <time>2021-07-21T17:28:48Z</time>
      </trkpt>
      <trkpt lat="48.37835" lon="-1.87513">
        <ele>26</ele>
        <time>2021-07-21T17:29:07Z</time>
      </trkpt>
      <trkpt lat="48.37829" lon="-1.87607">
        <ele>26</ele>
        <time>2021-07-21T17:29:21Z</time>
      </trkpt>
      <trkpt lat="48.37853" lon="-1.87692">
        <ele>26</ele>
        <time>2021-07-21T17:29:36Z</time>
      </trkpt>
      <trkpt lat="48.37886" lon="-1.87778">
        <ele>24</ele>
        <time>2021-07-21T17:29:51Z</time>
      </trkpt>
      <trkpt lat="48.37902" lon="-1.87867">
        <ele>24</ele>
        <time>2021-07-21T17:30:05Z</time>
      </trkpt>
      <trkpt lat="48.37922" lon="-1.88024">
        <ele>27</ele>
        <time>2021-07-21T17:30:30Z</time>
      </trkpt>
      <trkpt lat="48.37929" lon="-1.88121">
        <ele>25</ele>
        <time>2021-07-21T17:30:45Z</time>
      </trkpt>
      <trkpt lat="48.37953" lon="-1.88195">
        <ele>23</ele>
        <time>2021-07-21T17:30:58Z</time>
      </trkpt>
      <trkpt lat="48.3796" lon="-1.88278">
        <ele>23</ele>
        <time>2021-07-21T17:31:11Z</time>
      </trkpt>
      <trkpt lat="48.37964" lon="-1.88379">
        <ele>23</ele>
        <time>2021-07-21T17:31:27Z</time>
      </trkpt>
      <trkpt lat="48.3799" lon="-1.88462">
        <ele>23</ele>
        <time>2021-07-21T17:31:41Z</time>
      </trkpt>
      <trkpt lat="48.38046" lon="-1.88506">
        <ele>23</ele>
        <time>2021-07-21T17:31:56Z</time>
      </trkpt>
      <trkpt lat="48.38108" lon="-1.88524">
        <ele>23</ele>
        <time>2021-07-21T17:32:11Z</time>
      </trkpt>
      <trkpt lat="48.38173" lon="-1.88558">
        <ele>24</ele>
        <time>2021-07-21T17:32:27Z</time>
      </trkpt>
      <trkpt lat="48.38219" lon="-1.88608">
        <ele>26</ele>
        <time>2021-07-21T17:32:40Z</time>
      </trkpt>
      <trkpt lat="48.38248" lon="-1.88708">
        <ele>29</ele>
        <time>2021-07-21T17:32:57Z</time>
      </trkpt>
      <trkpt lat="48.38254" lon="-1.88803">
        <ele>28</ele>
        <time>2021-07-21T17:33:12Z</time>
      </trkpt>
      <trkpt lat="48.38231" lon="-1.88915">
        <ele>24</ele>
        <time>2021-07-21T17:33:30Z</time>
      </trkpt>
      <trkpt lat="48.38191" lon="-1.89016">
        <ele>21</ele>
        <time>2021-07-21T17:33:48Z</time>
      </trkpt>
      <trkpt lat="48.38127" lon="-1.89124">
        <ele>23</ele>
        <time>2021-07-21T17:34:10Z</time>
      </trkpt>
      <trkpt lat="48.38002" lon="-1.89294">
        <ele>28</ele>
        <time>2021-07-21T17:34:50Z</time>
      </trkpt>
      <trkpt lat="48.3792" lon="-1.89392">
        <ele>25</ele>
        <time>2021-07-21T17:35:14Z</time>
      </trkpt>
      <trkpt lat="48.37875" lon="-1.89455">
        <ele>23</ele>
        <time>2021-07-21T17:35:29Z</time>
      </trkpt>
      <trkpt lat="48.37823" lon="-1.89545">
        <ele>22</ele>
        <time>2021-07-21T17:35:47Z</time>
      </trkpt>
      <trkpt lat="48.37803" lon="-1.89646">
        <ele>23</ele>
        <time>2021-07-21T17:36:03Z</time>
      </trkpt>
      <trkpt lat="48.37811" lon="-1.89736">
        <ele>23</ele>
        <time>2021-07-21T17:36:18Z</time>
      </trkpt>
      <trkpt lat="48.37838" lon="-1.89848">
        <ele>25</ele>
        <time>2021-07-21T17:36:36Z</time>
      </trkpt>
      <trkpt lat="48.37862" lon="-1.89992">
        <ele>24</ele>
        <time>2021-07-21T17:36:59Z</time>
      </trkpt>
      <trkpt lat="48.37868" lon="-1.90111">
        <ele>22</ele>
        <time>2021-07-21T17:37:18Z</time>
      </trkpt>
      <trkpt lat="48.37732" lon="-1.90615">
        <ele>22</ele>
        <time>2021-07-21T17:38:42Z</time>
      </trkpt>
      <trkpt lat="48.37439" lon="-1.9167">
        <ele>21</ele>
        <time>2021-07-21T17:41:39Z</time>
      </trkpt>
      <trkpt lat="48.37297" lon="-1.9217">
        <ele>20</ele>
        <time>2021-07-21T17:43:04Z</time>
      </trkpt>
      <trkpt lat="48.37245" lon="-1.92318">
        <ele>22</ele>
        <time>2021-07-21T17:43:30Z</time>
      </trkpt>
      <trkpt lat="48.37191" lon="-1.92437">
        <ele>22</ele>
        <time>2021-07-21T17:43:52Z</time>
      </trkpt>
      <trkpt lat="48.37156" lon="-1.92574">
        <ele>23</ele>
        <time>2021-07-21T17:44:15Z</time>
      </trkpt>
      <trkpt lat="48.37156" lon="-1.92715">
        <ele>23</ele>
        <time>2021-07-21T17:44:37Z</time>
      </trkpt>
      <trkpt lat="48.37185" lon="-1.92805">
        <ele>20</ele>
        <time>2021-07-21T17:44:52Z</time>
      </trkpt>
      <trkpt lat="48.37251" lon="-1.92931">
        <ele>17</ele>
        <time>2021-07-21T17:45:17Z</time>
      </trkpt>
      <trkpt lat="48.37274" lon="-1.92984">
        <ele>17</ele>
        <time>2021-07-21T17:45:27Z</time>
      </trkpt>
      <trkpt lat="48.37326" lon="-1.93049">
        <ele>18</ele>
        <time>2021-07-21T17:45:43Z</time>
      </trkpt>
      <trkpt lat="48.37294" lon="-1.93109">
        <ele>19</ele>
        <time>2021-07-21T17:45:55Z</time>
      </trkpt>
      <trkpt lat="48.37295" lon="-1.93135">
        <ele>20</ele>
        <time>2021-07-21T17:45:59Z</time>
      </trkpt>
      <trkpt lat="48.37354" lon="-1.93178">
        <ele>21</ele>
        <time>2021-07-21T17:46:14Z</time>
      </trkpt>
      <trkpt lat="48.3741" lon="-1.93224">
        <ele>23</ele>
        <time>2021-07-21T17:46:29Z</time>
      </trkpt>
      <trkpt lat="48.37442" lon="-1.93235">
        <ele>22</ele>
        <time>2021-07-21T17:46:37Z</time>
      </trkpt>
      <trkpt lat="48.37924" lon="-1.93779">
        <ele>18</ele>
        <time>2021-07-21T17:48:57Z</time>
      </trkpt>
      <trkpt lat="48.38058" lon="-1.93919">
        <ele>20</ele>
        <time>2021-07-21T17:49:35Z</time>
      </trkpt>
      <trkpt lat="48.38169" lon="-1.93975">
        <ele>20</ele>
        <time>2021-07-21T17:50:03Z</time>
      </trkpt>
      <trkpt lat="48.3832" lon="-1.94013">
        <ele>18</ele>
        <time>2021-07-21T17:50:38Z</time>
      </trkpt>
      <trkpt lat="48.3841" lon="-1.94039">
        <ele>17</ele>
        <time>2021-07-21T17:51:00Z</time>
      </trkpt>
      <trkpt lat="48.38457" lon="-1.94068">
        <ele>19</ele>
        <time>2021-07-21T17:51:12Z</time>
      </trkpt>
      <trkpt lat="48.38491" lon="-1.94115">
        <ele>20</ele>
        <time>2021-07-21T17:51:22Z</time>
      </trkpt>
      <trkpt lat="48.38517" lon="-1.94162">
        <ele>20</ele>
        <time>2021-07-21T17:51:32Z</time>
      </trkpt>
      <trkpt lat="48.38533" lon="-1.94226">
        <ele>18</ele>
        <time>2021-07-21T17:51:43Z</time>
      </trkpt>
      <trkpt lat="48.38539" lon="-1.94289">
        <ele>17</ele>
        <time>2021-07-21T17:51:52Z</time>
      </trkpt>
      <trkpt lat="48.38534" lon="-1.94341">
        <ele>17</ele>
        <time>2021-07-21T17:52:01Z</time>
      </trkpt>
      <trkpt lat="48.38433" lon="-1.94872">
        <ele>18</ele>
        <time>2021-07-21T17:53:26Z</time>
      </trkpt>
      <trkpt lat="48.38307" lon="-1.95652">
        <ele>15</ele>
        <time>2021-07-21T17:55:31Z</time>
      </trkpt>
      <trkpt lat="48.38302" lon="-1.95817">
        <ele>17</ele>
        <time>2021-07-21T17:55:56Z</time>
      </trkpt>
      <trkpt lat="48.38333" lon="-1.96248">
        <ele>16</ele>
        <time>2021-07-21T17:57:04Z</time>
      </trkpt>
      <trkpt lat="48.38341" lon="-1.96389">
        <ele>14</ele>
        <time>2021-07-21T17:57:25Z</time>
      </trkpt>
      <trkpt lat="48.38328" lon="-1.96507">
        <ele>15</ele>
        <time>2021-07-21T17:57:44Z</time>
      </trkpt>
      <trkpt lat="48.3814" lon="-1.9719">
        <ele>15</ele>
        <time>2021-07-21T17:59:39Z</time>
      </trkpt>
      <trkpt lat="48.3814" lon="-1.9729">
        <ele>15</ele>
        <time>2021-07-21T17:59:54Z</time>
      </trkpt>
      <trkpt lat="48.3817" lon="-1.97457">
        <ele>15</ele>
        <time>2021-07-21T18:00:21Z</time>
      </trkpt>
      <trkpt lat="48.38394" lon="-1.981">
        <ele>15</ele>
        <time>2021-07-21T18:02:14Z</time>
      </trkpt>
      <trkpt lat="48.38454" lon="-1.98325">
        <ele>15</ele>
        <time>2021-07-21T18:02:51Z</time>
      </trkpt>
      <trkpt lat="48.38448" lon="-1.9837">
        <ele>14</ele>
        <time>2021-07-21T18:02:58Z</time>
      </trkpt>
      <trkpt lat="48.38424" lon="-1.9844">
        <ele>13</ele>
        <time>2021-07-21T18:03:11Z</time>
      </trkpt>
      <trkpt lat="48.38334" lon="-1.98534">
        <ele>15</ele>
        <time>2021-07-21T18:03:36Z</time>
      </trkpt>
      <trkpt lat="48.38283" lon="-1.98598">
        <ele>16</ele>
        <time>2021-07-21T18:03:52Z</time>
      </trkpt>
      <trkpt lat="48.38219" lon="-1.98695">
        <ele>17</ele>
        <time>2021-07-21T18:04:13Z</time>
      </trkpt>
      <trkpt lat="48.38184" lon="-1.98789">
        <ele>15</ele>
        <time>2021-07-21T18:04:30Z</time>
      </trkpt>
      <trkpt lat="48.38172" lon="-1.98934">
        <ele>13</ele>
        <time>2021-07-21T18:04:52Z</time>
      </trkpt>
      <trkpt lat="48.38177" lon="-1.99024">
        <ele>12</ele>
        <time>2021-07-21T18:05:06Z</time>
      </trkpt>
      <trkpt lat="48.38192" lon="-1.99088">
        <ele>13</ele>
        <time>2021-07-21T18:05:17Z</time>
      </trkpt>
      <trkpt lat="48.38214" lon="-1.99155">
        <ele>12</ele>
        <time>2021-07-21T18:05:28Z</time>
      </trkpt>
      <trkpt lat="48.38239" lon="-1.99208">
        <ele>12</ele>
        <time>2021-07-21T18:05:38Z</time>
      </trkpt>
      <trkpt lat="48.38244" lon="-1.99228">
        <ele>12</ele>
        <time>2021-07-21T18:05:42Z</time>
      </trkpt>
      <trkpt lat="48.38263" lon="-1.99262">
        <ele>12</ele>
        <time>2021-07-21T18:05:49Z</time>
      </trkpt>
      <trkpt lat="48.38294" lon="-1.99289">
        <ele>13</ele>
        <time>2021-07-21T18:05:57Z</time>
      </trkpt>
      <trkpt lat="48.38578" lon="-1.99692">
        <ele>12</ele>
        <time>2021-07-21T18:07:28Z</time>
      </trkpt>
      <trkpt lat="48.38671" lon="-1.99818">
        <ele>15</ele>
        <time>2021-07-21T18:07:57Z</time>
      </trkpt>
      <trkpt lat="48.38707" lon="-1.99848">
        <ele>16</ele>
        <time>2021-07-21T18:08:07Z</time>
      </trkpt>
      <trkpt lat="48.38847" lon="-1.99953">
        <ele>14</ele>
        <time>2021-07-21T18:08:44Z</time>
      </trkpt>
      <trkpt lat="48.39079" lon="-2.00112">
        <ele>14</ele>
        <time>2021-07-21T18:09:43Z</time>
      </trkpt>
      <trkpt lat="48.3919" lon="-2.00195">
        <ele>12</ele>
        <time>2021-07-21T18:10:12Z</time>
      </trkpt>
      <trkpt lat="48.39227" lon="-2.00198">
        <ele>12</ele>
        <time>2021-07-21T18:10:21Z</time>
      </trkpt>
      <trkpt lat="48.39267" lon="-2.00217">
        <ele>12</ele>
        <time>2021-07-21T18:10:30Z</time>
      </trkpt>
      <trkpt lat="48.39301" lon="-2.00263">
        <ele>11</ele>
        <time>2021-07-21T18:10:41Z</time>
      </trkpt>
      <trkpt lat="48.39317" lon="-2.00305">
        <ele>11</ele>
        <time>2021-07-21T18:10:49Z</time>
      </trkpt>
      <trkpt lat="48.3933" lon="-2.00351">
        <ele>11</ele>
        <time>2021-07-21T18:10:56Z</time>
      </trkpt>
      <trkpt lat="48.39349" lon="-2.00387">
        <ele>12</ele>
        <time>2021-07-21T18:11:04Z</time>
      </trkpt>
      <trkpt lat="48.39371" lon="-2.00401">
        <ele>12</ele>
        <time>2021-07-21T18:11:09Z</time>
      </trkpt>
      <trkpt lat="48.39418" lon="-2.00397">
        <ele>12</ele>
        <time>2021-07-21T18:11:20Z</time>
      </trkpt>
      <trkpt lat="48.39533" lon="-2.00423">
        <ele>14</ele>
        <time>2021-07-21T18:11:47Z</time>
      </trkpt>
      <trkpt lat="48.39554" lon="-2.00424">
        <ele>14</ele>
        <time>2021-07-21T18:11:52Z</time>
      </trkpt>
      <trkpt lat="48.39613" lon="-2.00406">
        <ele>13</ele>
        <time>2021-07-21T18:12:06Z</time>
      </trkpt>
      <trkpt lat="48.39661" lon="-2.00384">
        <ele>13</ele>
        <time>2021-07-21T18:12:18Z</time>
      </trkpt>
      <trkpt lat="48.39698" lon="-2.00383">
        <ele>13</ele>
        <time>2021-07-21T18:12:27Z</time>
      </trkpt>
      <trkpt lat="48.39781" lon="-2.00436">
        <ele>12</ele>
        <time>2021-07-21T18:12:48Z</time>
      </trkpt>
      <trkpt lat="48.39935" lon="-2.00546">
        <ele>15</ele>
        <time>2021-07-21T18:13:27Z</time>
      </trkpt>
      <trkpt lat="48.40048" lon="-2.00611">
        <ele>14</ele>
        <time>2021-07-21T18:13:56Z</time>
      </trkpt>
      <trkpt lat="48.40195" lon="-2.0068">
        <ele>11</ele>
        <time>2021-07-21T18:14:32Z</time>
      </trkpt>
      <trkpt lat="48.40257" lon="-2.00704">
        <ele>10</ele>
        <time>2021-07-21T18:14:47Z</time>
      </trkpt>
      <trkpt lat="48.40317" lon="-2.00734">
        <ele>10</ele>
        <time>2021-07-21T18:15:01Z</time>
      </trkpt>
      <trkpt lat="48.40454" lon="-2.00793">
        <ele>12</ele>
        <time>2021-07-21T18:15:35Z</time>
      </trkpt>
      <trkpt lat="48.40746" lon="-2.00925">
        <ele>12</ele>
        <time>2021-07-21T18:16:46Z</time>
      </trkpt>
      <trkpt lat="48.40772" lon="-2.0094">
        <ele>11</ele>
        <time>2021-07-21T18:16:52Z</time>
      </trkpt>
      <trkpt lat="48.40833" lon="-2.00991">
        <ele>9</ele>
        <time>2021-07-21T18:17:09Z</time>
      </trkpt>
      <trkpt lat="48.4086" lon="-2.01002">
        <ele>10</ele>
        <time>2021-07-21T18:17:15Z</time>
      </trkpt>
      <trkpt lat="48.40898" lon="-2.0101">
        <ele>10</ele>
        <time>2021-07-21T18:17:24Z</time>
      </trkpt>
      <trkpt lat="48.40937" lon="-2.01043">
        <ele>10</ele>
        <time>2021-07-21T18:17:35Z</time>
      </trkpt>
      <trkpt lat="48.40956" lon="-2.0107">
        <ele>10</ele>
        <time>2021-07-21T18:17:41Z</time>
      </trkpt>
      <trkpt lat="48.4097" lon="-2.01106">
        <ele>11</ele>
        <time>2021-07-21T18:17:47Z</time>
      </trkpt>
      <trkpt lat="48.40992" lon="-2.01183">
        <ele>16</ele>
        <time>2021-07-21T18:18:00Z</time>
      </trkpt>
      <trkpt lat="48.41019" lon="-2.01217">
        <ele>19</ele>
        <time>2021-07-21T18:18:08Z</time>
      </trkpt>
      <trkpt lat="48.41047" lon="-2.01228">
        <ele>19</ele>
        <time>2021-07-21T18:18:15Z</time>
      </trkpt>
      <trkpt lat="48.41155" lon="-2.01249">
        <ele>19</ele>
        <time>2021-07-21T18:18:41Z</time>
      </trkpt>
      <trkpt lat="48.41208" lon="-2.01258">
        <ele>19</ele>
        <time>2021-07-21T18:18:53Z</time>
      </trkpt>
      <trkpt lat="48.41251" lon="-2.01259">
        <ele>19</ele>
        <time>2021-07-21T18:19:03Z</time>
      </trkpt>
      <trkpt lat="48.41282" lon="-2.01265">
        <ele>17</ele>
        <time>2021-07-21T18:19:10Z</time>
      </trkpt>
      <trkpt lat="48.41302" lon="-2.01273">
        <ele>16</ele>
        <time>2021-07-21T18:19:15Z</time>
      </trkpt>
      <trkpt lat="48.41323" lon="-2.01288">
        <ele>16</ele>
        <time>2021-07-21T18:19:21Z</time>
      </trkpt>
      <trkpt lat="48.41403" lon="-2.01371">
        <ele>17</ele>
        <time>2021-07-21T18:19:43Z</time>
      </trkpt>
      <trkpt lat="48.41423" lon="-2.01383">
        <ele>16</ele>
        <time>2021-07-21T18:19:48Z</time>
      </trkpt>
      <trkpt lat="48.41467" lon="-2.01398">
        <ele>15</ele>
        <time>2021-07-21T18:19:59Z</time>
      </trkpt>
      <trkpt lat="48.41532" lon="-2.01413">
        <ele>13</ele>
        <time>2021-07-21T18:20:14Z</time>
      </trkpt>
      <trkpt lat="48.41562" lon="-2.01412">
        <ele>13</ele>
        <time>2021-07-21T18:20:21Z</time>
      </trkpt>
      <trkpt lat="48.41616" lon="-2.01403">
        <ele>14</ele>
        <time>2021-07-21T18:20:34Z</time>
      </trkpt>
      <trkpt lat="48.41679" lon="-2.01401">
        <ele>16</ele>
        <time>2021-07-21T18:20:49Z</time>
      </trkpt>
      <trkpt lat="48.41762" lon="-2.01443">
        <ele>19</ele>
        <time>2021-07-21T18:21:09Z</time>
      </trkpt>
      <trkpt lat="48.41939" lon="-2.01447">
        <ele>17</ele>
        <time>2021-07-21T18:21:50Z</time>
      </trkpt>
      <trkpt lat="48.42005" lon="-2.01486">
        <ele>13</ele>
        <time>2021-07-21T18:22:07Z</time>
      </trkpt>
      <trkpt lat="48.42065" lon="-2.01501">
        <ele>12</ele>
        <time>2021-07-21T18:22:21Z</time>
      </trkpt>
      <trkpt lat="48.42169" lon="-2.01468">
        <ele>10</ele>
        <time>2021-07-21T18:22:46Z</time>
      </trkpt>
      <trkpt lat="48.42332" lon="-2.01585">
        <ele>25</ele>
        <time>2021-07-21T18:23:28Z</time>
      </trkpt>
      <trkpt lat="48.42382" lon="-2.01588">
        <ele>26</ele>
        <time>2021-07-21T18:23:40Z</time>
      </trkpt>
      <trkpt lat="48.42511" lon="-2.01555">
        <ele>23</ele>
        <time>2021-07-21T18:24:10Z</time>
      </trkpt>
      <trkpt lat="48.4257" lon="-2.01517">
        <ele>21</ele>
        <time>2021-07-21T18:24:25Z</time>
      </trkpt>
      <trkpt lat="48.42671" lon="-2.01403">
        <ele>14</ele>
        <time>2021-07-21T18:24:55Z</time>
      </trkpt>
      <trkpt lat="48.42717" lon="-2.01376">
        <ele>13</ele>
        <time>2021-07-21T18:25:06Z</time>
      </trkpt>
      <trkpt lat="48.42778" lon="-2.01373">
        <ele>12</ele>
        <time>2021-07-21T18:25:21Z</time>
      </trkpt>
      <trkpt lat="48.42836" lon="-2.01356">
        <ele>11</ele>
        <time>2021-07-21T18:25:34Z</time>
      </trkpt>
      <trkpt lat="48.42883" lon="-2.01394">
        <ele>12</ele>
        <time>2021-07-21T18:25:47Z</time>
      </trkpt>
      <trkpt lat="48.42908" lon="-2.01463">
        <ele>13</ele>
        <time>2021-07-21T18:25:59Z</time>
      </trkpt>
      <trkpt lat="48.42911" lon="-2.01535">
        <ele>13</ele>
        <time>2021-07-21T18:26:10Z</time>
      </trkpt>
      <trkpt lat="48.42681" lon="-2.02948">
        <ele>15</ele>
        <time>2021-07-21T18:29:56Z</time>
      </trkpt>
      <trkpt lat="48.42698" lon="-2.03076">
        <ele>24</ele>
        <time>2021-07-21T18:30:16Z</time>
      </trkpt>
      <trkpt lat="48.42742" lon="-2.03184">
        <ele>23</ele>
        <time>2021-07-21T18:30:36Z</time>
      </trkpt>
      <trkpt lat="48.42804" lon="-2.03287">
        <ele>27</ele>
        <time>2021-07-21T18:30:57Z</time>
      </trkpt>
      <trkpt lat="48.42918" lon="-2.03422">
        <ele>29</ele>
        <time>2021-07-21T18:31:31Z</time>
      </trkpt>
      <trkpt lat="48.43025" lon="-2.03511">
        <ele>33</ele>
        <time>2021-07-21T18:31:59Z</time>
      </trkpt>
      <trkpt lat="48.43091" lon="-2.0352">
        <ele>26</ele>
        <time>2021-07-21T18:32:15Z</time>
      </trkpt>
      <trkpt lat="48.43179" lon="-2.03507">
        <ele>18</ele>
        <time>2021-07-21T18:32:36Z</time>
      </trkpt>
      <trkpt lat="48.43236" lon="-2.0352">
        <ele>19</ele>
        <time>2021-07-21T18:32:49Z</time>
      </trkpt>
      <trkpt lat="48.43297" lon="-2.03554">
        <ele>20</ele>
        <time>2021-07-21T18:33:04Z</time>
      </trkpt>
      <trkpt lat="48.43371" lon="-2.03576">
        <ele>17</ele>
        <time>2021-07-21T18:33:22Z</time>
      </trkpt>
      <trkpt lat="48.43434" lon="-2.03615">
        <ele>18</ele>
        <time>2021-07-21T18:33:38Z</time>
      </trkpt>
      <trkpt lat="48.43486" lon="-2.03702">
        <ele>19</ele>
        <time>2021-07-21T18:33:56Z</time>
      </trkpt>
      <trkpt lat="48.43572" lon="-2.03857">
        <ele>11</ele>
        <time>2021-07-21T18:34:27Z</time>
      </trkpt>
      <trkpt lat="48.43671" lon="-2.03971">
        <ele>12</ele>
        <time>2021-07-21T18:34:56Z</time>
      </trkpt>
      <trkpt lat="48.43736" lon="-2.04007">
        <ele>10</ele>
        <time>2021-07-21T18:35:13Z</time>
      </trkpt>
      <trkpt lat="48.43796" lon="-2.04018">
        <ele>9</ele>
        <time>2021-07-21T18:35:27Z</time>
      </trkpt>
      <trkpt lat="48.43835" lon="-2.03982">
        <ele>9</ele>
        <time>2021-07-21T18:35:37Z</time>
      </trkpt>
      <trkpt lat="48.43874" lon="-2.03915">
        <ele>10</ele>
        <time>2021-07-21T18:35:51Z</time>
      </trkpt>
      <trkpt lat="48.43931" lon="-2.0392">
        <ele>9</ele>
        <time>2021-07-21T18:36:04Z</time>
      </trkpt>
      <trkpt lat="48.44007" lon="-2.03911">
        <ele>9</ele>
        <time>2021-07-21T18:36:22Z</time>
      </trkpt>
      <trkpt lat="48.44065" lon="-2.03857">
        <ele>15</ele>
        <time>2021-07-21T18:36:38Z</time>
      </trkpt>
      <trkpt lat="48.44106" lon="-2.03789">
        <ele>12</ele>
        <time>2021-07-21T18:36:52Z</time>
      </trkpt>
      <trkpt lat="48.44143" lon="-2.03751">
        <ele>10</ele>
        <time>2021-07-21T18:37:03Z</time>
      </trkpt>
      <trkpt lat="48.44114" lon="-2.03684">
        <ele>21</ele>
        <time>2021-07-21T18:37:15Z</time>
      </trkpt>
      <trkpt lat="48.44163" lon="-2.03671">
        <ele>19</ele>
        <time>2021-07-21T18:37:27Z</time>
      </trkpt>
      <trkpt lat="48.44236" lon="-2.03646">
        <ele>25</ele>
        <time>2021-07-21T18:37:44Z</time>
      </trkpt>
      <trkpt lat="48.44287" lon="-2.03668">
        <ele>25</ele>
        <time>2021-07-21T18:37:57Z</time>
      </trkpt>
      <trkpt lat="48.44326" lon="-2.0374">
        <ele>21</ele>
        <time>2021-07-21T18:38:11Z</time>
      </trkpt>
      <trkpt lat="48.4443" lon="-2.03911">
        <ele>13</ele>
        <time>2021-07-21T18:38:47Z</time>
      </trkpt>
      <trkpt lat="48.44482" lon="-2.03942">
        <ele>17</ele>
        <time>2021-07-21T18:39:00Z</time>
      </trkpt>
      <trkpt lat="48.44533" lon="-2.03946">
        <ele>20</ele>
        <time>2021-07-21T18:39:12Z</time>
      </trkpt>
      <trkpt lat="48.44611" lon="-2.03923">
        <ele>19</ele>
        <time>2021-07-21T18:39:31Z</time>
      </trkpt>
      <trkpt lat="48.44687" lon="-2.03857">
        <ele>18</ele>
        <time>2021-07-21T18:39:51Z</time>
      </trkpt>
      <trkpt lat="48.4478" lon="-2.03792">
        <ele>20</ele>
        <time>2021-07-21T18:40:15Z</time>
      </trkpt>
      <trkpt lat="48.4483" lon="-2.03778">
        <ele>22</ele>
        <time>2021-07-21T18:40:27Z</time>
      </trkpt>
      <trkpt lat="48.44878" lon="-2.0381">
        <ele>27</ele>
        <time>2021-07-21T18:40:39Z</time>
      </trkpt>
      <trkpt lat="48.44902" lon="-2.03877">
        <ele>24</ele>
        <time>2021-07-21T18:40:51Z</time>
      </trkpt>
      <trkpt lat="48.4494" lon="-2.04003">
        <ele>15</ele>
        <time>2021-07-21T18:41:12Z</time>
      </trkpt>
      <trkpt lat="48.44968" lon="-2.04043">
        <ele>23</ele>
        <time>2021-07-21T18:41:21Z</time>
      </trkpt>
      <trkpt lat="48.45012" lon="-2.04007">
        <ele>20</ele>
        <time>2021-07-21T18:41:33Z</time>
      </trkpt>
      <trkpt lat="48.45043" lon="-2.03962">
        <ele>23</ele>
        <time>2021-07-21T18:41:43Z</time>
      </trkpt>
      <trkpt lat="48.45134" lon="-2.03731">
        <ele>16</ele>
        <time>2021-07-21T18:42:25Z</time>
      </trkpt>
      <trkpt lat="48.4515" lon="-2.03624">
        <ele>18</ele>
        <time>2021-07-21T18:42:42Z</time>
      </trkpt>
      <trkpt lat="48.45178" lon="-2.03541">
        <ele>19</ele>
        <time>2021-07-21T18:42:56Z</time>
      </trkpt>
      <trkpt lat="48.45213" lon="-2.0348">
        <ele>26</ele>
        <time>2021-07-21T18:43:09Z</time>
      </trkpt>
      <trkpt lat="48.45278" lon="-2.03457">
        <ele>32</ele>
        <time>2021-07-21T18:43:24Z</time>
      </trkpt>
      <trkpt lat="48.45347" lon="-2.0348">
        <ele>29</ele>
        <time>2021-07-21T18:43:41Z</time>
      </trkpt>
      <trkpt lat="48.45395" lon="-2.03525">
        <ele>27</ele>
        <time>2021-07-21T18:43:54Z</time>
      </trkpt>
      <trkpt lat="48.45419" lon="-2.03568">
        <ele>21</ele>
        <time>2021-07-21T18:44:03Z</time>
      </trkpt>
      <trkpt lat="48.4544" lon="-2.03626">
        <ele>20</ele>
        <time>2021-07-21T18:44:13Z</time>
      </trkpt>
      <trkpt lat="48.45457" lon="-2.03783">
        <ele>12</ele>
        <time>2021-07-21T18:44:38Z</time>
      </trkpt>
      <trkpt lat="48.45491" lon="-2.03832">
        <ele>11</ele>
        <time>2021-07-21T18:44:49Z</time>
      </trkpt>
      <trkpt lat="48.45536" lon="-2.03848">
        <ele>14</ele>
        <time>2021-07-21T18:44:59Z</time>
      </trkpt>
      <trkpt lat="48.45571" lon="-2.03814">
        <ele>11</ele>
        <time>2021-07-21T18:45:09Z</time>
      </trkpt>
      <trkpt lat="48.456" lon="-2.03781">
        <ele>11</ele>
        <time>2021-07-21T18:45:18Z</time>
      </trkpt>
      <trkpt lat="48.45622" lon="-2.03816">
        <ele>12</ele>
        <time>2021-07-21T18:45:25Z</time>
      </trkpt>
      <trkpt lat="48.45631" lon="-2.0384">
        <ele>13</ele>
        <time>2021-07-21T18:45:29Z</time>
      </trkpt>
      <trkpt lat="48.45664" lon="-2.03807">
        <ele>12</ele>
        <time>2021-07-21T18:45:39Z</time>
      </trkpt>
      <trkpt lat="48.45696" lon="-2.03787">
        <ele>13</ele>
        <time>2021-07-21T18:45:47Z</time>
      </trkpt>
      <trkpt lat="48.45748" lon="-2.03782">
        <ele>16</ele>
        <time>2021-07-21T18:45:59Z</time>
      </trkpt>
      <trkpt lat="48.45807" lon="-2.03744">
        <ele>17</ele>
        <time>2021-07-21T18:46:14Z</time>
      </trkpt>
      <trkpt lat="48.4585" lon="-2.03707">
        <ele>17</ele>
        <time>2021-07-21T18:46:25Z</time>
      </trkpt>
      <trkpt lat="48.46" lon="-2.03503">
        <ele>13</ele>
        <time>2021-07-21T18:47:13Z</time>
      </trkpt>
      <trkpt lat="48.46133" lon="-2.03295">
        <ele>16</ele>
        <time>2021-07-21T18:47:57Z</time>
      </trkpt>
      <trkpt lat="48.46138" lon="-2.03241">
        <ele>13</ele>
        <time>2021-07-21T18:48:06Z</time>
      </trkpt>
      <trkpt lat="48.4616" lon="-2.03102">
        <ele>11</ele>
        <time>2021-07-21T18:48:28Z</time>
      </trkpt>
      <trkpt lat="48.46175" lon="-2.02968">
        <ele>12</ele>
        <time>2021-07-21T18:48:49Z</time>
      </trkpt>
      <trkpt lat="48.46201" lon="-2.02928">
        <ele>13</ele>
        <time>2021-07-21T18:48:58Z</time>
      </trkpt>
      <trkpt lat="48.46251" lon="-2.02909">
        <ele>8</ele>
        <time>2021-07-21T18:49:10Z</time>
      </trkpt>
      <trkpt lat="48.46303" lon="-2.0288">
        <ele>11</ele>
        <time>2021-07-21T18:49:23Z</time>
      </trkpt>
      <trkpt lat="48.46349" lon="-2.02833">
        <ele>11</ele>
        <time>2021-07-21T18:49:36Z</time>
      </trkpt>
      <trkpt lat="48.46382" lon="-2.02788">
        <ele>16</ele>
        <time>2021-07-21T18:49:46Z</time>
      </trkpt>
      <trkpt lat="48.46407" lon="-2.02749">
        <ele>18</ele>
        <time>2021-07-21T18:49:54Z</time>
      </trkpt>
      <trkpt lat="48.46456" lon="-2.02715">
        <ele>19</ele>
        <time>2021-07-21T18:50:07Z</time>
      </trkpt>
      <trkpt lat="48.46513" lon="-2.02714">
        <ele>22</ele>
        <time>2021-07-21T18:50:20Z</time>
      </trkpt>
      <trkpt lat="48.46601" lon="-2.02733">
        <ele>27</ele>
        <time>2021-07-21T18:50:41Z</time>
      </trkpt>
      <trkpt lat="48.46673" lon="-2.02741">
        <ele>29</ele>
        <time>2021-07-21T18:50:58Z</time>
      </trkpt>
      <trkpt lat="48.46737" lon="-2.02725">
        <ele>32</ele>
        <time>2021-07-21T18:51:13Z</time>
      </trkpt>
      <trkpt lat="48.46785" lon="-2.0267">
        <ele>29</ele>
        <time>2021-07-21T18:51:27Z</time>
      </trkpt>
      <trkpt lat="48.46838" lon="-2.02593">
        <ele>27</ele>
        <time>2021-07-21T18:51:44Z</time>
      </trkpt>
      <trkpt lat="48.4688" lon="-2.02527">
        <ele>25</ele>
        <time>2021-07-21T18:51:58Z</time>
      </trkpt>
      <trkpt lat="48.46901" lon="-2.02471">
        <ele>22</ele>
        <time>2021-07-21T18:52:08Z</time>
      </trkpt>
      <trkpt lat="48.46925" lon="-2.02374">
        <ele>16</ele>
        <time>2021-07-21T18:52:24Z</time>
      </trkpt>
      <trkpt lat="48.46962" lon="-2.02272">
        <ele>19</ele>
        <time>2021-07-21T18:52:42Z</time>
      </trkpt>
      <trkpt lat="48.46992" lon="-2.02173">
        <ele>18</ele>
        <time>2021-07-21T18:52:59Z</time>
      </trkpt>
      <trkpt lat="48.47003" lon="-2.01934">
        <ele>15</ele>
        <time>2021-07-21T18:53:36Z</time>
      </trkpt>
      <trkpt lat="48.47023" lon="-2.01729">
        <ele>17</ele>
        <time>2021-07-21T18:54:08Z</time>
      </trkpt>
      <trkpt lat="48.47036" lon="-2.01561">
        <ele>21</ele>
        <time>2021-07-21T18:54:35Z</time>
      </trkpt>
      <trkpt lat="48.47055" lon="-2.01384">
        <ele>18</ele>
        <time>2021-07-21T18:55:02Z</time>
      </trkpt>
      <trkpt lat="48.47063" lon="-2.01263">
        <ele>13</ele>
        <time>2021-07-21T18:55:21Z</time>
      </trkpt>
      <trkpt lat="48.47085" lon="-2.01141">
        <ele>10</ele>
        <time>2021-07-21T18:55:41Z</time>
      </trkpt>
      <trkpt lat="48.47135" lon="-2.01032">
        <ele>11</ele>
        <time>2021-07-21T18:56:01Z</time>
      </trkpt>
      <trkpt lat="48.47252" lon="-2.00916">
        <ele>11</ele>
        <time>2021-07-21T18:56:34Z</time>
      </trkpt>
      <trkpt lat="48.47348" lon="-2.00825">
        <ele>11</ele>
        <time>2021-07-21T18:57:00Z</time>
      </trkpt>
      <trkpt lat="48.47471" lon="-2.00801">
        <ele>11</ele>
        <time>2021-07-21T18:57:29Z</time>
      </trkpt>
      <trkpt lat="48.47566" lon="-2.00752">
        <ele>10</ele>
        <time>2021-07-21T18:57:53Z</time>
      </trkpt>
      <trkpt lat="48.47654" lon="-2.0068">
        <ele>9</ele>
        <time>2021-07-21T18:58:16Z</time>
      </trkpt>
      <trkpt lat="48.47753" lon="-2.0068">
        <ele>9</ele>
        <time>2021-07-21T18:58:39Z</time>
      </trkpt>
      <trkpt lat="48.47732" lon="-2.00772">
        <ele>10</ele>
        <time>2021-07-21T18:58:54Z</time>
      </trkpt>
      <trkpt lat="48.47681" lon="-2.00927">
        <ele>14</ele>
        <time>2021-07-21T18:59:21Z</time>
      </trkpt>
      <trkpt lat="48.47703" lon="-2.01076">
        <ele>17</ele>
        <time>2021-07-21T18:59:45Z</time>
      </trkpt>
      <trkpt lat="48.47711" lon="-2.01148">
        <ele>20</ele>
        <time>2021-07-21T18:59:56Z</time>
      </trkpt>
      <trkpt lat="48.47693" lon="-2.01227">
        <ele>24</ele>
        <time>2021-07-21T19:00:09Z</time>
      </trkpt>
      <trkpt lat="48.47618" lon="-2.01447">
        <ele>37</ele>
        <time>2021-07-21T19:00:47Z</time>
      </trkpt>
      <trkpt lat="48.47568" lon="-2.01453">
        <ele>38</ele>
        <time>2021-07-21T19:00:59Z</time>
      </trkpt>
      <trkpt lat="48.47557" lon="-2.015">
        <ele>40</ele>
        <time>2021-07-21T19:01:07Z</time>
      </trkpt>
      <trkpt lat="48.47555" lon="-2.01626">
        <ele>45</ele>
        <time>2021-07-21T19:01:26Z</time>
      </trkpt>
      <trkpt lat="48.4751" lon="-2.01678">
        <ele>45</ele>
        <time>2021-07-21T19:01:40Z</time>
      </trkpt>
      <trkpt lat="48.47434" lon="-2.02101">
        <ele>49</ele>
        <time>2021-07-21T19:02:47Z</time>
      </trkpt>
      <trkpt lat="48.47424" lon="-2.02115">
        <ele>49</ele>
        <time>2021-07-21T19:02:51Z</time>
      </trkpt>
      <trkpt lat="48.47441" lon="-2.02218">
        <ele>48</ele>
        <time>2021-07-21T19:03:07Z</time>
      </trkpt>
      <trkpt lat="48.47469" lon="-2.0231">
        <ele>49</ele>
        <time>2021-07-21T19:03:23Z</time>
      </trkpt>
      <trkpt lat="48.47486" lon="-2.02408">
        <ele>52</ele>
        <time>2021-07-21T19:03:38Z</time>
      </trkpt>
      <trkpt lat="48.47503" lon="-2.02439">
        <ele>53</ele>
        <time>2021-07-21T19:03:45Z</time>
      </trkpt>
      <trkpt lat="48.47503" lon="-2.02473">
        <ele>54</ele>
        <time>2021-07-21T19:03:50Z</time>
      </trkpt>
      <trkpt lat="48.4752" lon="-2.02507">
        <ele>54</ele>
        <time>2021-07-21T19:03:57Z</time>
      </trkpt>
      <trkpt lat="48.47545" lon="-2.0266">
        <ele>59</ele>
        <time>2021-07-21T19:04:21Z</time>
      </trkpt>
      <trkpt lat="48.47607" lon="-2.02792">
        <ele>60</ele>
        <time>2021-07-21T19:04:46Z</time>
      </trkpt>
      <trkpt lat="48.47757" lon="-2.03049">
        <ele>65</ele>
        <time>2021-07-21T19:05:39Z</time>
      </trkpt>
      <trkpt lat="48.47823" lon="-2.03046">
        <ele>64</ele>
        <time>2021-07-21T19:05:54Z</time>
      </trkpt>
      <trkpt lat="48.47877" lon="-2.03024">
        <ele>64</ele>
        <time>2021-07-21T19:06:07Z</time>
      </trkpt>
      <trkpt lat="48.47926" lon="-2.0299">
        <ele>64</ele>
        <time>2021-07-21T19:06:20Z</time>
      </trkpt>
      <trkpt lat="48.48008" lon="-2.02959">
        <ele>64</ele>
        <time>2021-07-21T19:06:40Z</time>
      </trkpt>
      <trkpt lat="48.48136" lon="-2.02928">
        <ele>65</ele>
        <time>2021-07-21T19:07:10Z</time>
      </trkpt>
      <trkpt lat="48.48361" lon="-2.02886">
        <ele>70</ele>
        <time>2021-07-21T19:08:03Z</time>
      </trkpt>
      <trkpt lat="48.48411" lon="-2.03031">
        <ele>69</ele>
        <time>2021-07-21T19:08:28Z</time>
      </trkpt>
      <trkpt lat="48.48422" lon="-2.03095">
        <ele>68</ele>
        <time>2021-07-21T19:08:39Z</time>
      </trkpt>
      <trkpt lat="48.48449" lon="-2.03147">
        <ele>66</ele>
        <time>2021-07-21T19:08:49Z</time>
      </trkpt>
      <trkpt lat="48.48485" lon="-2.03181">
        <ele>66</ele>
        <time>2021-07-21T19:08:59Z</time>
      </trkpt>
      <trkpt lat="48.48495" lon="-2.03235">
        <ele>64</ele>
        <time>2021-07-21T19:09:07Z</time>
      </trkpt>
      <trkpt lat="48.48547" lon="-2.03223">
        <ele>65</ele>
        <time>2021-07-21T19:09:20Z</time>
      </trkpt>
      <trkpt lat="48.48552" lon="-2.03185">
        <ele>67</ele>
        <time>2021-07-21T19:09:26Z</time>
      </trkpt>
      <trkpt lat="48.48624" lon="-2.03157">
        <ele>68</ele>
        <time>2021-07-21T19:09:43Z</time>
      </trkpt>
      <trkpt lat="48.48722" lon="-2.03166">
        <ele>69</ele>
        <time>2021-07-21T19:10:06Z</time>
      </trkpt>
      <trkpt lat="48.48788" lon="-2.03181">
        <ele>70</ele>
        <time>2021-07-21T19:10:22Z</time>
      </trkpt>
      <trkpt lat="48.4885" lon="-2.03219">
        <ele>72</ele>
        <time>2021-07-21T19:10:37Z</time>
      </trkpt>
      <trkpt lat="48.48907" lon="-2.03265">
        <ele>73</ele>
        <time>2021-07-21T19:10:52Z</time>
      </trkpt>
      <trkpt lat="48.48942" lon="-2.03304">
        <ele>74</ele>
        <time>2021-07-21T19:11:02Z</time>
      </trkpt>
      <trkpt lat="48.48949" lon="-2.03292">
        <ele>73</ele>
        <time>2021-07-21T19:11:05Z</time>
      </trkpt>
      <trkpt lat="48.48961" lon="-2.03294">
        <ele>73</ele>
        <time>2021-07-21T19:11:08Z</time>
      </trkpt>
      <trkpt lat="48.48958" lon="-2.03322">
        <ele>74</ele>
        <time>2021-07-21T19:11:12Z</time>
      </trkpt>
      <trkpt lat="48.4896" lon="-2.03331">
        <ele>74</ele>
        <time>2021-07-21T19:11:14Z</time>
      </trkpt>
      <trkpt lat="48.48993" lon="-2.03381">
        <ele>75</ele>
        <time>2021-07-21T19:11:24Z</time>
      </trkpt>
      <trkpt lat="48.49121" lon="-2.03698">
        <ele>72</ele>
        <time>2021-07-21T19:12:22Z</time>
      </trkpt>
      <trkpt lat="48.49228" lon="-2.04012">
        <ele>69</ele>
        <time>2021-07-21T19:13:17Z</time>
      </trkpt>
      <trkpt lat="48.49363" lon="-2.04397">
        <ele>69</ele>
        <time>2021-07-21T19:14:24Z</time>
      </trkpt>
      <trkpt lat="48.49412" lon="-2.04519">
        <ele>68</ele>
        <time>2021-07-21T19:14:46Z</time>
      </trkpt>
      <trkpt lat="48.49484" lon="-2.04608">
        <ele>63</ele>
        <time>2021-07-21T19:15:08Z</time>
      </trkpt>
      <trkpt lat="48.49575" lon="-2.04687">
        <ele>64</ele>
        <time>2021-07-21T19:15:32Z</time>
      </trkpt>
      <trkpt lat="48.4968" lon="-2.04734">
        <ele>69</ele>
        <time>2021-07-21T19:15:58Z</time>
      </trkpt>
      <trkpt lat="48.49809" lon="-2.04736">
        <ele>67</ele>
        <time>2021-07-21T19:16:28Z</time>
      </trkpt>
      <trkpt lat="48.49991" lon="-2.04653">
        <ele>67</ele>
        <time>2021-07-21T19:17:12Z</time>
      </trkpt>
      <trkpt lat="48.50334" lon="-2.04436">
        <ele>80</ele>
        <time>2021-07-21T19:18:39Z</time>
      </trkpt>
      <trkpt lat="48.50477" lon="-2.04395">
        <ele>76</ele>
        <time>2021-07-21T19:19:13Z</time>
      </trkpt>
      <trkpt lat="48.50604" lon="-2.04371">
        <ele>75</ele>
        <time>2021-07-21T19:19:43Z</time>
      </trkpt>
      <trkpt lat="48.5104" lon="-2.04426">
        <ele>68</ele>
        <time>2021-07-21T19:21:25Z</time>
      </trkpt>
      <trkpt lat="48.51414" lon="-2.04481">
        <ele>70</ele>
        <time>2021-07-21T19:22:53Z</time>
      </trkpt>
      <trkpt lat="48.52311" lon="-2.04599">
        <ele>83</ele>
        <time>2021-07-21T19:26:23Z</time>
      </trkpt>
      <trkpt lat="48.52663" lon="-2.0466">
        <ele>80</ele>
        <time>2021-07-21T19:27:46Z</time>
      </trkpt>
      <trkpt lat="48.528" lon="-2.04691">
        <ele>84</ele>
        <time>2021-07-21T19:28:18Z</time>
      </trkpt>
      <trkpt lat="48.52904" lon="-2.0474">
        <ele>87</ele>
        <time>2021-07-21T19:28:44Z</time>
      </trkpt>
      <trkpt lat="48.53125" lon="-2.04834">
        <ele>82</ele>
        <time>2021-07-21T19:29:38Z</time>
      </trkpt>
      <trkpt lat="48.53635" lon="-2.05044">
        <ele>80</ele>
        <time>2021-07-21T19:31:41Z</time>
      </trkpt>
      <trkpt lat="48.53633" lon="-2.04981">
        <ele>80</ele>
        <time>2021-07-21T19:31:51Z</time>
      </trkpt>
      <trkpt lat="48.53623" lon="-2.04911">
        <ele>81</ele>
        <time>2021-07-21T19:32:02Z</time>
      </trkpt>
      <trkpt lat="48.53603" lon="-2.04835">
        <ele>81</ele>
        <time>2021-07-21T19:32:14Z</time>
      </trkpt>
      <trkpt lat="48.53526" lon="-2.04721">
        <ele>78</ele>
        <time>2021-07-21T19:32:40Z</time>
      </trkpt>
      <trkpt lat="48.53479" lon="-2.04667">
        <ele>78</ele>
        <time>2021-07-21T19:32:53Z</time>
      </trkpt>
      <trkpt lat="48.5343" lon="-2.04591">
        <ele>81</ele>
        <time>2021-07-21T19:33:10Z</time>
      </trkpt>
      <trkpt lat="48.53389" lon="-2.04486">
        <ele>83</ele>
        <time>2021-07-21T19:33:29Z</time>
      </trkpt>
      <trkpt lat="48.53379" lon="-2.04384">
        <ele>84</ele>
        <time>2021-07-21T19:33:45Z</time>
      </trkpt>
      <trkpt lat="48.53381" lon="-2.04289">
        <ele>85</ele>
        <time>2021-07-21T19:33:59Z</time>
      </trkpt>
      <trkpt lat="48.53397" lon="-2.04204">
        <ele>86</ele>
        <time>2021-07-21T19:34:13Z</time>
      </trkpt>
      <trkpt lat="48.53415" lon="-2.04085">
        <ele>86</ele>
        <time>2021-07-21T19:34:32Z</time>
      </trkpt>
      <trkpt lat="48.53421" lon="-2.03972">
        <ele>86</ele>
        <time>2021-07-21T19:34:49Z</time>
      </trkpt>
      <trkpt lat="48.53405" lon="-2.03824">
        <ele>86</ele>
        <time>2021-07-21T19:35:13Z</time>
      </trkpt>
      <trkpt lat="48.53379" lon="-2.03728">
        <ele>86</ele>
        <time>2021-07-21T19:35:29Z</time>
      </trkpt>
      <trkpt lat="48.53358" lon="-2.03626">
        <ele>86</ele>
        <time>2021-07-21T19:35:45Z</time>
      </trkpt>
      <trkpt lat="48.53341" lon="-2.0351">
        <ele>87</ele>
        <time>2021-07-21T19:36:03Z</time>
      </trkpt>
      <trkpt lat="48.53343" lon="-2.03239">
        <ele>85</ele>
        <time>2021-07-21T19:36:45Z</time>
      </trkpt>
      <trkpt lat="48.53373" lon="-2.02978">
        <ele>86</ele>
        <time>2021-07-21T19:37:26Z</time>
      </trkpt>
      <trkpt lat="48.53408" lon="-2.02763">
        <ele>90</ele>
        <time>2021-07-21T19:38:01Z</time>
      </trkpt>
      <trkpt lat="48.53403" lon="-2.02543">
        <ele>90</ele>
        <time>2021-07-21T19:38:35Z</time>
      </trkpt>
      <trkpt lat="48.53386" lon="-2.02272">
        <ele>92</ele>
        <time>2021-07-21T19:39:17Z</time>
      </trkpt>
      <trkpt lat="48.53398" lon="-2.02114">
        <ele>90</ele>
        <time>2021-07-21T19:39:41Z</time>
      </trkpt>
      <trkpt lat="48.53425" lon="-2.01917">
        <ele>85</ele>
        <time>2021-07-21T19:40:12Z</time>
      </trkpt>
      <trkpt lat="48.5348" lon="-2.0157">
        <ele>75</ele>
        <time>2021-07-21T19:41:08Z</time>
      </trkpt>
      <trkpt lat="48.53513" lon="-2.01489">
        <ele>71</ele>
        <time>2021-07-21T19:41:22Z</time>
      </trkpt>
      <trkpt lat="48.53552" lon="-2.01425">
        <ele>69</ele>
        <time>2021-07-21T19:41:36Z</time>
      </trkpt>
      <trkpt lat="48.53576" lon="-2.01348">
        <ele>69</ele>
        <time>2021-07-21T19:41:49Z</time>
      </trkpt>
      <trkpt lat="48.53578" lon="-2.01286">
        <ele>67</ele>
        <time>2021-07-21T19:41:59Z</time>
      </trkpt>
      <trkpt lat="48.53563" lon="-2.01282">
        <ele>66</ele>
        <time>2021-07-21T19:42:02Z</time>
      </trkpt>
      <trkpt lat="48.53531" lon="-2.01255">
        <ele>64</ele>
        <time>2021-07-21T19:42:11Z</time>
      </trkpt>
      <trkpt lat="48.53525" lon="-2.0119">
        <ele>63</ele>
        <time>2021-07-21T19:42:21Z</time>
      </trkpt>
      <trkpt lat="48.53485" lon="-2.01167">
        <ele>62</ele>
        <time>2021-07-21T19:42:31Z</time>
      </trkpt>
      <trkpt lat="48.53268" lon="-2.01081">
        <ele>58</ele>
        <time>2021-07-21T19:43:23Z</time>
      </trkpt>
      <trkpt lat="48.53238" lon="-2.01087">
        <ele>58</ele>
        <time>2021-07-21T19:43:30Z</time>
      </trkpt>
      <trkpt lat="48.53214" lon="-2.0107">
        <ele>57</ele>
        <time>2021-07-21T19:43:36Z</time>
      </trkpt>
      <trkpt lat="48.53219" lon="-2.01006">
        <ele>58</ele>
        <time>2021-07-21T19:43:46Z</time>
      </trkpt>
      <trkpt lat="48.53117" lon="-2.00742">
        <ele>55</ele>
        <time>2021-07-21T19:44:34Z</time>
      </trkpt>
      <trkpt lat="48.53073" lon="-2.00617">
        <ele>57</ele>
        <time>2021-07-21T19:44:56Z</time>
      </trkpt>
      <trkpt lat="48.5309" lon="-2.0055">
        <ele>58</ele>
        <time>2021-07-21T19:45:07Z</time>
      </trkpt>
      <trkpt lat="48.52962" lon="-2.00539">
        <ele>57</ele>
        <time>2021-07-21T19:45:37Z</time>
      </trkpt>
      <trkpt lat="48.52899" lon="-2.00494">
        <ele>58</ele>
        <time>2021-07-21T19:45:53Z</time>
      </trkpt>
      <trkpt lat="48.5279" lon="-2.00369">
        <ele>58</ele>
        <time>2021-07-21T19:46:25Z</time>
      </trkpt>
      <trkpt lat="48.52716" lon="-2.00305">
        <ele>56</ele>
        <time>2021-07-21T19:46:45Z</time>
      </trkpt>
      <trkpt lat="48.52793" lon="-2.00265">
        <ele>58</ele>
        <time>2021-07-21T19:47:04Z</time>
      </trkpt>
      <trkpt lat="48.52811" lon="-2.00184">
        <ele>55</ele>
        <time>2021-07-21T19:47:17Z</time>
      </trkpt>
      <trkpt lat="48.52814" lon="-2.00126">
        <ele>52</ele>
        <time>2021-07-21T19:47:26Z</time>
      </trkpt>
      <trkpt lat="48.52846" lon="-2.00112">
        <ele>52</ele>
        <time>2021-07-21T19:47:34Z</time>
      </trkpt>
      <trkpt lat="48.52953" lon="-2.00098">
        <ele>54</ele>
        <time>2021-07-21T19:47:59Z</time>
      </trkpt>
      <trkpt lat="48.53064" lon="-1.99929">
        <ele>56</ele>
        <time>2021-07-21T19:48:36Z</time>
      </trkpt>
      <trkpt lat="48.53089" lon="-1.99879">
        <ele>57</ele>
        <time>2021-07-21T19:48:45Z</time>
      </trkpt>
      <trkpt lat="48.53134" lon="-1.9982">
        <ele>58</ele>
        <time>2021-07-21T19:48:59Z</time>
      </trkpt>
      <trkpt lat="48.53157" lon="-1.99796">
        <ele>58</ele>
        <time>2021-07-21T19:49:06Z</time>
      </trkpt>
      <trkpt lat="48.53292" lon="-1.99688">
        <ele>61</ele>
        <time>2021-07-21T19:49:41Z</time>
      </trkpt>
      <trkpt lat="48.53394" lon="-1.99575">
        <ele>62</ele>
        <time>2021-07-21T19:50:11Z</time>
      </trkpt>
      <trkpt lat="48.53401" lon="-1.99156">
        <ele>63</ele>
        <time>2021-07-21T19:51:16Z</time>
      </trkpt>
      <trkpt lat="48.5344" lon="-1.99037">
        <ele>63</ele>
        <time>2021-07-21T19:51:36Z</time>
      </trkpt>
      <trkpt lat="48.53416" lon="-1.98997">
        <ele>62</ele>
        <time>2021-07-21T19:51:45Z</time>
      </trkpt>
      <trkpt lat="48.534" lon="-1.98954">
        <ele>63</ele>
        <time>2021-07-21T19:51:52Z</time>
      </trkpt>
      <trkpt lat="48.53393" lon="-1.98881">
        <ele>64</ele>
        <time>2021-07-21T19:52:04Z</time>
      </trkpt>
      <trkpt lat="48.534" lon="-1.98613">
        <ele>62</ele>
        <time>2021-07-21T19:52:45Z</time>
      </trkpt>
      <trkpt lat="48.53383" lon="-1.98476">
        <ele>62</ele>
        <time>2021-07-21T19:53:07Z</time>
      </trkpt>
      <trkpt lat="48.53359" lon="-1.98356">
        <ele>61</ele>
        <time>2021-07-21T19:53:26Z</time>
      </trkpt>
      <trkpt lat="48.53338" lon="-1.9828">
        <ele>60</ele>
        <time>2021-07-21T19:53:39Z</time>
      </trkpt>
      <trkpt lat="48.53318" lon="-1.9824">
        <ele>60</ele>
        <time>2021-07-21T19:53:47Z</time>
      </trkpt>
      <trkpt lat="48.53269" lon="-1.98172">
        <ele>58</ele>
        <time>2021-07-21T19:54:02Z</time>
      </trkpt>
      <trkpt lat="48.53253" lon="-1.98117">
        <ele>55</ele>
        <time>2021-07-21T19:54:11Z</time>
      </trkpt>
      <trkpt lat="48.53249" lon="-1.98026">
        <ele>52</ele>
        <time>2021-07-21T19:54:26Z</time>
      </trkpt>
      <trkpt lat="48.53252" lon="-1.9799">
        <ele>51</ele>
        <time>2021-07-21T19:54:31Z</time>
      </trkpt>
      <trkpt lat="48.53281" lon="-1.97952">
        <ele>50</ele>
        <time>2021-07-21T19:54:40Z</time>
      </trkpt>
      <trkpt lat="48.53312" lon="-1.97865">
        <ele>49</ele>
        <time>2021-07-21T19:54:55Z</time>
      </trkpt>
      <trkpt lat="48.53325" lon="-1.9782">
        <ele>49</ele>
        <time>2021-07-21T19:55:03Z</time>
      </trkpt>
      <trkpt lat="48.53312" lon="-1.97808">
        <ele>48</ele>
        <time>2021-07-21T19:55:07Z</time>
      </trkpt>
      <trkpt lat="48.53291" lon="-1.97781">
        <ele>46</ele>
        <time>2021-07-21T19:55:13Z</time>
      </trkpt>
      <trkpt lat="48.53277" lon="-1.97737">
        <ele>45</ele>
        <time>2021-07-21T19:55:21Z</time>
      </trkpt>
      <trkpt lat="48.53272" lon="-1.97683">
        <ele>43</ele>
        <time>2021-07-21T19:55:29Z</time>
      </trkpt>
      <trkpt lat="48.53282" lon="-1.97638">
        <ele>40</ele>
        <time>2021-07-21T19:55:36Z</time>
      </trkpt>
      <trkpt lat="48.53301" lon="-1.97595">
        <ele>38</ele>
        <time>2021-07-21T19:55:44Z</time>
      </trkpt>
      <trkpt lat="48.53332" lon="-1.97559">
        <ele>37</ele>
        <time>2021-07-21T19:55:53Z</time>
      </trkpt>
      <trkpt lat="48.5336" lon="-1.97521">
        <ele>35</ele>
        <time>2021-07-21T19:56:02Z</time>
      </trkpt>
      <trkpt lat="48.53393" lon="-1.97494">
        <ele>35</ele>
        <time>2021-07-21T19:56:11Z</time>
      </trkpt>
      <trkpt lat="48.53448" lon="-1.97303">
        <ele>19</ele>
        <time>2021-07-21T19:56:43Z</time>
      </trkpt>
      <trkpt lat="48.53566" lon="-1.96976">
        <ele>8</ele>
        <time>2021-07-21T19:57:41Z</time>
      </trkpt>
      <trkpt lat="48.53581" lon="-1.96944">
        <ele>11</ele>
        <time>2021-07-21T19:57:47Z</time>
      </trkpt>
      <trkpt lat="48.53601" lon="-1.96912">
        <ele>14</ele>
        <time>2021-07-21T19:57:54Z</time>
      </trkpt>
      <trkpt lat="48.53635" lon="-1.96886">
        <ele>17</ele>
        <time>2021-07-21T19:58:03Z</time>
      </trkpt>
      <trkpt lat="48.53651" lon="-1.96869">
        <ele>19</ele>
        <time>2021-07-21T19:58:07Z</time>
      </trkpt>
      <trkpt lat="48.53673" lon="-1.96812">
        <ele>24</ele>
        <time>2021-07-21T19:58:17Z</time>
      </trkpt>
      <trkpt lat="48.53726" lon="-1.96744">
        <ele>27</ele>
        <time>2021-07-21T19:58:34Z</time>
      </trkpt>
      <trkpt lat="48.53752" lon="-1.96717">
        <ele>29</ele>
        <time>2021-07-21T19:58:41Z</time>
      </trkpt>
      <trkpt lat="48.53774" lon="-1.96662">
        <ele>28</ele>
        <time>2021-07-21T19:58:51Z</time>
      </trkpt>
      <trkpt lat="48.53801" lon="-1.96492">
        <ele>29</ele>
        <time>2021-07-21T19:59:18Z</time>
      </trkpt>
      <trkpt lat="48.53827" lon="-1.96372">
        <ele>32</ele>
        <time>2021-07-21T19:59:37Z</time>
      </trkpt>
      <trkpt lat="48.53858" lon="-1.96327">
        <ele>33</ele>
        <time>2021-07-21T19:59:47Z</time>
      </trkpt>
      <trkpt lat="48.53888" lon="-1.96306">
        <ele>35</ele>
        <time>2021-07-21T19:59:55Z</time>
      </trkpt>
      <trkpt lat="48.5392" lon="-1.96296">
        <ele>36</ele>
        <time>2021-07-21T20:00:03Z</time>
      </trkpt>
      <trkpt lat="48.54025" lon="-1.96284">
        <ele>38</ele>
        <time>2021-07-21T20:00:27Z</time>
      </trkpt>
      <trkpt lat="48.54045" lon="-1.96277">
        <ele>39</ele>
        <time>2021-07-21T20:00:32Z</time>
      </trkpt>
      <trkpt lat="48.5407" lon="-1.96256">
        <ele>39</ele>
        <time>2021-07-21T20:00:39Z</time>
      </trkpt>
      <trkpt lat="48.54101" lon="-1.962">
        <ele>39</ele>
        <time>2021-07-21T20:00:50Z</time>
      </trkpt>
      <trkpt lat="48.54185" lon="-1.95957">
        <ele>42</ele>
        <time>2021-07-21T20:01:33Z</time>
      </trkpt>
      <trkpt lat="48.54252" lon="-1.95813">
        <ele>42</ele>
        <time>2021-07-21T20:02:00Z</time>
      </trkpt>
      <trkpt lat="48.54313" lon="-1.95747">
        <ele>43</ele>
        <time>2021-07-21T20:02:17Z</time>
      </trkpt>
      <trkpt lat="48.54414" lon="-1.95706">
        <ele>43</ele>
        <time>2021-07-21T20:02:42Z</time>
      </trkpt>
      <trkpt lat="48.54492" lon="-1.95633">
        <ele>41</ele>
        <time>2021-07-21T20:03:03Z</time>
      </trkpt>
      <trkpt lat="48.5474" lon="-1.95313">
        <ele>39</ele>
        <time>2021-07-21T20:04:19Z</time>
      </trkpt>
      <trkpt lat="48.54755" lon="-1.95255">
        <ele>41</ele>
        <time>2021-07-21T20:04:29Z</time>
      </trkpt>
      <trkpt lat="48.5488" lon="-1.9532">
        <ele>38</ele>
        <time>2021-07-21T20:05:00Z</time>
      </trkpt>
      <trkpt lat="48.54964" lon="-1.9537">
        <ele>42</ele>
        <time>2021-07-21T20:05:21Z</time>
      </trkpt>
      <trkpt lat="48.55002" lon="-1.95404">
        <ele>45</ele>
        <time>2021-07-21T20:05:31Z</time>
      </trkpt>
      <trkpt lat="48.5503" lon="-1.95439">
        <ele>45</ele>
        <time>2021-07-21T20:05:40Z</time>
      </trkpt>
      <trkpt lat="48.55104" lon="-1.95491">
        <ele>43</ele>
        <time>2021-07-21T20:05:59Z</time>
      </trkpt>
      <trkpt lat="48.55157" lon="-1.95523">
        <ele>39</ele>
        <time>2021-07-21T20:06:12Z</time>
      </trkpt>
      <trkpt lat="48.55229" lon="-1.95527">
        <ele>38</ele>
        <time>2021-07-21T20:06:29Z</time>
      </trkpt>
      <trkpt lat="48.55303" lon="-1.95467">
        <ele>36</ele>
        <time>2021-07-21T20:06:49Z</time>
      </trkpt>
      <trkpt lat="48.55353" lon="-1.95412">
        <ele>36</ele>
        <time>2021-07-21T20:07:03Z</time>
      </trkpt>
      <trkpt lat="48.55403" lon="-1.95365">
        <ele>36</ele>
        <time>2021-07-21T20:07:17Z</time>
      </trkpt>
      <trkpt lat="48.55435" lon="-1.95353">
        <ele>35</ele>
        <time>2021-07-21T20:07:24Z</time>
      </trkpt>
      <trkpt lat="48.55468" lon="-1.95413">
        <ele>31</ele>
        <time>2021-07-21T20:07:37Z</time>
      </trkpt>
      <trkpt lat="48.55515" lon="-1.95363">
        <ele>29</ele>
        <time>2021-07-21T20:07:50Z</time>
      </trkpt>
      <trkpt lat="48.55574" lon="-1.95345">
        <ele>26</ele>
        <time>2021-07-21T20:08:04Z</time>
      </trkpt>
      <trkpt lat="48.5567" lon="-1.95349">
        <ele>19</ele>
        <time>2021-07-21T20:08:26Z</time>
      </trkpt>
      <trkpt lat="48.55788" lon="-1.95313">
        <ele>16</ele>
        <time>2021-07-21T20:08:55Z</time>
      </trkpt>
      <trkpt lat="48.55958" lon="-1.95225">
        <ele>9</ele>
        <time>2021-07-21T20:09:36Z</time>
      </trkpt>
      <trkpt lat="48.56014" lon="-1.95343">
        <ele>13</ele>
        <time>2021-07-21T20:09:59Z</time>
      </trkpt>
      <trkpt lat="48.56042" lon="-1.95408">
        <ele>14</ele>
        <time>2021-07-21T20:10:11Z</time>
      </trkpt>
      <trkpt lat="48.56094" lon="-1.95488">
        <ele>16</ele>
        <time>2021-07-21T20:10:28Z</time>
      </trkpt>
      <trkpt lat="48.56209" lon="-1.95973">
        <ele>35</ele>
        <time>2021-07-21T20:11:48Z</time>
      </trkpt>
      <trkpt lat="48.56282" lon="-1.9624">
        <ele>49</ele>
        <time>2021-07-21T20:12:33Z</time>
      </trkpt>
      <trkpt lat="48.56325" lon="-1.9632">
        <ele>58</ele>
        <time>2021-07-21T20:12:48Z</time>
      </trkpt>
      <trkpt lat="48.56384" lon="-1.96459">
        <ele>68</ele>
        <time>2021-07-21T20:13:14Z</time>
      </trkpt>
      <trkpt lat="48.56574" lon="-1.96684">
        <ele>52</ele>
        <time>2021-07-21T20:14:10Z</time>
      </trkpt>
      <trkpt lat="48.5666" lon="-1.96823">
        <ele>44</ele>
        <time>2021-07-21T20:14:40Z</time>
      </trkpt>
      <trkpt lat="48.56785" lon="-1.97053">
        <ele>34</ele>
        <time>2021-07-21T20:15:26Z</time>
      </trkpt>
      <trkpt lat="48.56889" lon="-1.97198">
        <ele>27</ele>
        <time>2021-07-21T20:15:59Z</time>
      </trkpt>
      <trkpt lat="48.56924" lon="-1.97235">
        <ele>25</ele>
        <time>2021-07-21T20:16:09Z</time>
      </trkpt>
      <trkpt lat="48.56964" lon="-1.97246">
        <ele>24</ele>
        <time>2021-07-21T20:16:18Z</time>
      </trkpt>
      <trkpt lat="48.57003" lon="-1.97248">
        <ele>23</ele>
        <time>2021-07-21T20:16:27Z</time>
      </trkpt>
      <trkpt lat="48.57044" lon="-1.97272">
        <ele>21</ele>
        <time>2021-07-21T20:16:38Z</time>
      </trkpt>
      <trkpt lat="48.57167" lon="-1.97096">
        <ele>23</ele>
        <time>2021-07-21T20:17:17Z</time>
      </trkpt>
      <trkpt lat="48.57195" lon="-1.97047">
        <ele>22</ele>
        <time>2021-07-21T20:17:27Z</time>
      </trkpt>
      <trkpt lat="48.57224" lon="-1.96938">
        <ele>19</ele>
        <time>2021-07-21T20:17:45Z</time>
      </trkpt>
      <trkpt lat="48.5725" lon="-1.9681">
        <ele>14</ele>
        <time>2021-07-21T20:18:06Z</time>
      </trkpt>
      <trkpt lat="48.57264" lon="-1.9676">
        <ele>13</ele>
        <time>2021-07-21T20:18:14Z</time>
      </trkpt>
      <trkpt lat="48.57278" lon="-1.96631">
        <ele>9</ele>
        <time>2021-07-21T20:18:35Z</time>
      </trkpt>
      <trkpt lat="48.57288" lon="-1.96589">
        <ele>8</ele>
        <time>2021-07-21T20:18:42Z</time>
      </trkpt>
      <trkpt lat="48.5739" lon="-1.96325">
        <ele>8</ele>
        <time>2021-07-21T20:19:29Z</time>
      </trkpt>
      <trkpt lat="48.57412" lon="-1.96256">
        <ele>5</ele>
        <time>2021-07-21T20:19:41Z</time>
      </trkpt>
      <trkpt lat="48.57427" lon="-1.96176">
        <ele>4</ele>
        <time>2021-07-21T20:19:53Z</time>
      </trkpt>
      <trkpt lat="48.5743" lon="-1.96079">
        <ele>5</ele>
        <time>2021-07-21T20:20:08Z</time>
      </trkpt>
      <trkpt lat="48.57466" lon="-1.95521">
        <ele>8</ele>
        <time>2021-07-21T20:21:35Z</time>
      </trkpt>
      <trkpt lat="48.57476" lon="-1.95484">
        <ele>10</ele>
        <time>2021-07-21T20:21:41Z</time>
      </trkpt>
      <trkpt lat="48.57501" lon="-1.95458">
        <ele>9</ele>
        <time>2021-07-21T20:21:48Z</time>
      </trkpt>
      <trkpt lat="48.57616" lon="-1.95424">
        <ele>8</ele>
        <time>2021-07-21T20:22:16Z</time>
      </trkpt>
      <trkpt lat="48.57727" lon="-1.95386">
        <ele>7</ele>
        <time>2021-07-21T20:22:42Z</time>
      </trkpt>
      <trkpt lat="48.57845" lon="-1.95375">
        <ele>7</ele>
        <time>2021-07-21T20:23:10Z</time>
      </trkpt>
      <trkpt lat="48.57928" lon="-1.9535">
        <ele>10</ele>
        <time>2021-07-21T20:23:30Z</time>
      </trkpt>
      <trkpt lat="48.57997" lon="-1.9541">
        <ele>11</ele>
        <time>2021-07-21T20:23:48Z</time>
      </trkpt>
      <trkpt lat="48.58031" lon="-1.9547">
        <ele>12</ele>
        <time>2021-07-21T20:24:00Z</time>
      </trkpt>
      <trkpt lat="48.58071" lon="-1.95629">
        <ele>11</ele>
        <time>2021-07-21T20:24:27Z</time>
      </trkpt>
      <trkpt lat="48.5817" lon="-1.96075">
        <ele>13</ele>
        <time>2021-07-21T20:25:39Z</time>
      </trkpt>
      <trkpt lat="48.58189" lon="-1.96128">
        <ele>13</ele>
        <time>2021-07-21T20:25:49Z</time>
      </trkpt>
      <trkpt lat="48.58267" lon="-1.96219">
        <ele>15</ele>
        <time>2021-07-21T20:26:12Z</time>
      </trkpt>
      <trkpt lat="48.58427" lon="-1.96388">
        <ele>19</ele>
        <time>2021-07-21T20:26:57Z</time>
      </trkpt>
      <trkpt lat="48.58493" lon="-1.96416">
        <ele>22</ele>
        <time>2021-07-21T20:27:13Z</time>
      </trkpt>
      <trkpt lat="48.58555" lon="-1.96382">
        <ele>18</ele>
        <time>2021-07-21T20:27:29Z</time>
      </trkpt>
      <trkpt lat="48.58609" lon="-1.9627">
        <ele>16</ele>
        <time>2021-07-21T20:27:50Z</time>
      </trkpt>
      <trkpt lat="48.58673" lon="-1.96111">
        <ele>13</ele>
        <time>2021-07-21T20:28:19Z</time>
      </trkpt>
      <trkpt lat="48.58866" lon="-1.95873">
        <ele>17</ele>
        <time>2021-07-21T20:29:17Z</time>
      </trkpt>
      <trkpt lat="48.58931" lon="-1.95837">
        <ele>17</ele>
        <time>2021-07-21T20:29:33Z</time>
      </trkpt>
      <trkpt lat="48.58992" lon="-1.9585">
        <ele>15</ele>
        <time>2021-07-21T20:29:48Z</time>
      </trkpt>
      <trkpt lat="48.59084" lon="-1.95927">
        <ele>15</ele>
        <time>2021-07-21T20:30:12Z</time>
      </trkpt>
      <trkpt lat="48.59197" lon="-1.96032">
        <ele>15</ele>
        <time>2021-07-21T20:30:43Z</time>
      </trkpt>
      <trkpt lat="48.59248" lon="-1.9609">
        <ele>13</ele>
        <time>2021-07-21T20:30:58Z</time>
      </trkpt>
      <trkpt lat="48.59307" lon="-1.96225">
        <ele>9</ele>
        <time>2021-07-21T20:31:23Z</time>
      </trkpt>
      <trkpt lat="48.59747" lon="-1.97184">
        <ele>43</ele>
        <time>2021-07-21T20:34:23Z</time>
      </trkpt>
      <trkpt lat="48.59868" lon="-1.97234">
        <ele>42</ele>
        <time>2021-07-21T20:34:53Z</time>
      </trkpt>
      <trkpt lat="48.59905" lon="-1.97274">
        <ele>42</ele>
        <time>2021-07-21T20:35:03Z</time>
      </trkpt>
      <trkpt lat="48.59903" lon="-1.97319">
        <ele>43</ele>
        <time>2021-07-21T20:35:10Z</time>
      </trkpt>
      <trkpt lat="48.59847" lon="-1.97532">
        <ele>44</ele>
        <time>2021-07-21T20:35:46Z</time>
      </trkpt>
      <trkpt lat="48.59817" lon="-1.97637">
        <ele>46</ele>
        <time>2021-07-21T20:36:03Z</time>
      </trkpt>
      <trkpt lat="48.59808" lon="-1.9777">
        <ele>46</ele>
        <time>2021-07-21T20:36:24Z</time>
      </trkpt>
      <trkpt lat="48.5977" lon="-1.97916">
        <ele>45</ele>
        <time>2021-07-21T20:36:48Z</time>
      </trkpt>
      <trkpt lat="48.59749" lon="-1.98027">
        <ele>46</ele>
        <time>2021-07-21T20:37:06Z</time>
      </trkpt>
      <trkpt lat="48.59732" lon="-1.98148">
        <ele>44</ele>
        <time>2021-07-21T20:37:25Z</time>
      </trkpt>
      <trkpt lat="48.59739" lon="-1.98424">
        <ele>42</ele>
        <time>2021-07-21T20:38:08Z</time>
      </trkpt>
      <trkpt lat="48.59752" lon="-1.98437">
        <ele>43</ele>
        <time>2021-07-21T20:38:11Z</time>
      </trkpt>
      <trkpt lat="48.5977" lon="-1.98422">
        <ele>43</ele>
        <time>2021-07-21T20:38:16Z</time>
      </trkpt>
      <trkpt lat="48.598" lon="-1.98379">
        <ele>44</ele>
        <time>2021-07-21T20:38:26Z</time>
      </trkpt>
      <trkpt lat="48.59838" lon="-1.98335">
        <ele>45</ele>
        <time>2021-07-21T20:38:37Z</time>
      </trkpt>
      <trkpt lat="48.59864" lon="-1.98319">
        <ele>46</ele>
        <time>2021-07-21T20:38:44Z</time>
      </trkpt>
      <trkpt lat="48.59936" lon="-1.98343">
        <ele>47</ele>
        <time>2021-07-21T20:39:01Z</time>
      </trkpt>
      <trkpt lat="48.59981" lon="-1.98341">
        <ele>47</ele>
        <time>2021-07-21T20:39:11Z</time>
      </trkpt>
      <trkpt lat="48.59991" lon="-1.98367">
        <ele>47</ele>
        <time>2021-07-21T20:39:16Z</time>
      </trkpt>
      <trkpt lat="48.60015" lon="-1.98412">
        <ele>45</ele>
        <time>2021-07-21T20:39:25Z</time>
      </trkpt>
      <trkpt lat="48.60026" lon="-1.9844">
        <ele>44</ele>
        <time>2021-07-21T20:39:30Z</time>
      </trkpt>
      <trkpt lat="48.60038" lon="-1.98504">
        <ele>41</ele>
        <time>2021-07-21T20:39:40Z</time>
      </trkpt>
      <trkpt lat="48.60044" lon="-1.98571">
        <ele>41</ele>
        <time>2021-07-21T20:39:51Z</time>
      </trkpt>
      <trkpt lat="48.60053" lon="-1.98619">
        <ele>39</ele>
        <time>2021-07-21T20:39:58Z</time>
      </trkpt>
      <trkpt lat="48.60151" lon="-1.98896">
        <ele>35</ele>
        <time>2021-07-21T20:40:47Z</time>
      </trkpt>
      <trkpt lat="48.60189" lon="-1.99061">
        <ele>32</ele>
        <time>2021-07-21T20:41:14Z</time>
      </trkpt>
      <trkpt lat="48.60231" lon="-1.99153">
        <ele>30</ele>
        <time>2021-07-21T20:41:31Z</time>
      </trkpt>
      <trkpt lat="48.60305" lon="-1.99269">
        <ele>26</ele>
        <time>2021-07-21T20:41:56Z</time>
      </trkpt>
      <trkpt lat="48.60388" lon="-1.99378">
        <ele>25</ele>
        <time>2021-07-21T20:42:22Z</time>
      </trkpt>
      <trkpt lat="48.60442" lon="-1.99455">
        <ele>24</ele>
        <time>2021-07-21T20:42:39Z</time>
      </trkpt>
      <trkpt lat="48.60494" lon="-1.99483">
        <ele>22</ele>
        <time>2021-07-21T20:42:52Z</time>
      </trkpt>
      <trkpt lat="48.60528" lon="-1.99511">
        <ele>23</ele>
        <time>2021-07-21T20:43:01Z</time>
      </trkpt>
      <trkpt lat="48.6056" lon="-1.9956">
        <ele>25</ele>
        <time>2021-07-21T20:43:12Z</time>
      </trkpt>
      <trkpt lat="48.60613" lon="-1.99603">
        <ele>28</ele>
        <time>2021-07-21T20:43:26Z</time>
      </trkpt>
      <trkpt lat="48.60682" lon="-1.99646">
        <ele>32</ele>
        <time>2021-07-21T20:43:43Z</time>
      </trkpt>
      <trkpt lat="48.60701" lon="-1.9969">
        <ele>34</ele>
        <time>2021-07-21T20:43:51Z</time>
      </trkpt>
      <trkpt lat="48.60753" lon="-1.99875">
        <ele>35</ele>
        <time>2021-07-21T20:44:22Z</time>
      </trkpt>
      <trkpt lat="48.60777" lon="-1.99913">
        <ele>34</ele>
        <time>2021-07-21T20:44:30Z</time>
      </trkpt>
      <trkpt lat="48.60839" lon="-1.99951">
        <ele>31</ele>
        <time>2021-07-21T20:44:46Z</time>
      </trkpt>
      <trkpt lat="48.60926" lon="-1.99973">
        <ele>29</ele>
        <time>2021-07-21T20:45:07Z</time>
      </trkpt>
      <trkpt lat="48.61014" lon="-1.9995">
        <ele>29</ele>
        <time>2021-07-21T20:45:27Z</time>
      </trkpt>
      <trkpt lat="48.61085" lon="-1.99902">
        <ele>28</ele>
        <time>2021-07-21T20:45:46Z</time>
      </trkpt>
      <trkpt lat="48.61217" lon="-1.99877">
        <ele>25</ele>
        <time>2021-07-21T20:46:17Z</time>
      </trkpt>
      <trkpt lat="48.61396" lon="-1.99853">
        <ele>21</ele>
        <time>2021-07-21T20:46:59Z</time>
      </trkpt>
      <trkpt lat="48.61458" lon="-1.9984">
        <ele>19</ele>
        <time>2021-07-21T20:47:13Z</time>
      </trkpt>
      <trkpt lat="48.61495" lon="-1.99866">
        <ele>18</ele>
        <time>2021-07-21T20:47:23Z</time>
      </trkpt>
      <trkpt lat="48.61729" lon="-2.002">
        <ele>31</ele>
        <time>2021-07-21T20:48:38Z</time>
      </trkpt>
      <trkpt lat="48.61742" lon="-2.00227">
        <ele>32</ele>
        <time>2021-07-21T20:48:43Z</time>
      </trkpt>
      <trkpt lat="48.61744" lon="-2.00536">
        <ele>36</ele>
        <time>2021-07-21T20:49:31Z</time>
      </trkpt>
      <trkpt lat="48.61732" lon="-2.00561">
        <ele>36</ele>
        <time>2021-07-21T20:49:35Z</time>
      </trkpt>
      <trkpt lat="48.61719" lon="-2.00608">
        <ele>35</ele>
        <time>2021-07-21T20:49:43Z</time>
      </trkpt>
      <trkpt lat="48.61758" lon="-2.00582">
        <ele>36</ele>
        <time>2021-07-21T20:49:53Z</time>
      </trkpt>
      <trkpt lat="48.61799" lon="-2.00538">
        <ele>38</ele>
        <time>2021-07-21T20:50:05Z</time>
      </trkpt>
      <trkpt lat="48.61842" lon="-2.00484">
        <ele>38</ele>
        <time>2021-07-21T20:50:18Z</time>
      </trkpt>
      <trkpt lat="48.61881" lon="-2.00448">
        <ele>37</ele>
        <time>2021-07-21T20:50:29Z</time>
      </trkpt>
      <trkpt lat="48.61894" lon="-2.00452">
        <ele>37</ele>
        <time>2021-07-21T20:50:32Z</time>
      </trkpt>
      <trkpt lat="48.61973" lon="-2.00411">
        <ele>37</ele>
        <time>2021-07-21T20:50:51Z</time>
      </trkpt>
      <trkpt lat="48.62014" lon="-2.00402">
        <ele>38</ele>
        <time>2021-07-21T20:51:01Z</time>
      </trkpt>
      <trkpt lat="48.62125" lon="-2.00412">
        <ele>40</ele>
        <time>2021-07-21T20:51:27Z</time>
      </trkpt>
      <trkpt lat="48.62159" lon="-2.00409">
        <ele>41</ele>
        <time>2021-07-21T20:51:35Z</time>
      </trkpt>
      <trkpt lat="48.62172" lon="-2.00434">
        <ele>41</ele>
        <time>2021-07-21T20:51:40Z</time>
      </trkpt>
      <trkpt lat="48.62142" lon="-2.00518">
        <ele>42</ele>
        <time>2021-07-21T20:51:55Z</time>
      </trkpt>
      <trkpt lat="48.62064" lon="-2.00921">
        <ele>40</ele>
        <time>2021-07-21T20:52:59Z</time>
      </trkpt>
      <trkpt lat="48.62127" lon="-2.00961">
        <ele>35</ele>
        <time>2021-07-21T20:53:15Z</time>
      </trkpt>
      <trkpt lat="48.62175" lon="-2.00999">
        <ele>32</ele>
        <time>2021-07-21T20:53:28Z</time>
      </trkpt>
      <trkpt lat="48.62221" lon="-2.01018">
        <ele>30</ele>
        <time>2021-07-21T20:53:39Z</time>
      </trkpt>
      <trkpt lat="48.62313" lon="-2.01046">
        <ele>27</ele>
        <time>2021-07-21T20:54:01Z</time>
      </trkpt>
      <trkpt lat="48.62376" lon="-2.01115">
        <ele>23</ele>
        <time>2021-07-21T20:54:19Z</time>
      </trkpt>
      <trkpt lat="48.62381" lon="-2.01168">
        <ele>20</ele>
        <time>2021-07-21T20:54:28Z</time>
      </trkpt>
      <trkpt lat="48.62373" lon="-2.01231">
        <ele>19</ele>
        <time>2021-07-21T20:54:37Z</time>
      </trkpt>
      <trkpt lat="48.62451" lon="-2.01285">
        <ele>11</ele>
        <time>2021-07-21T20:54:57Z</time>
      </trkpt>
      <trkpt lat="48.62474" lon="-2.01247">
        <ele>17</ele>
        <time>2021-07-21T20:55:05Z</time>
      </trkpt>
      <trkpt lat="48.62491" lon="-2.0121">
        <ele>21</ele>
        <time>2021-07-21T20:55:12Z</time>
      </trkpt>
      <trkpt lat="48.6254" lon="-2.01212">
        <ele>24</ele>
        <time>2021-07-21T20:55:24Z</time>
      </trkpt>
      <trkpt lat="48.6255" lon="-2.01242">
        <ele>22</ele>
        <time>2021-07-21T20:55:29Z</time>
      </trkpt>
      <trkpt lat="48.62574" lon="-2.01267">
        <ele>20</ele>
        <time>2021-07-21T20:55:36Z</time>
      </trkpt>
      <trkpt lat="48.6265" lon="-2.01261">
        <ele>22</ele>
        <time>2021-07-21T20:55:54Z</time>
      </trkpt>
      <trkpt lat="48.62744" lon="-2.01248">
        <ele>24</ele>
        <time>2021-07-21T20:56:16Z</time>
      </trkpt>
      <trkpt lat="48.62992" lon="-2.01104">
        <ele>34</ele>
        <time>2021-07-21T20:57:18Z</time>
      </trkpt>
      <trkpt lat="48.63016" lon="-2.0118">
        <ele>38</ele>
        <time>2021-07-21T20:57:31Z</time>
      </trkpt>
      <trkpt lat="48.63054" lon="-2.01277">
        <ele>39</ele>
        <time>2021-07-21T20:57:48Z</time>
      </trkpt>
      <trkpt lat="48.63079" lon="-2.01318">
        <ele>39</ele>
        <time>2021-07-21T20:57:57Z</time>
      </trkpt>
      <trkpt lat="48.6312" lon="-2.01375">
        <ele>39</ele>
        <time>2021-07-21T20:58:10Z</time>
      </trkpt>
      <trkpt lat="48.63155" lon="-2.01433">
        <ele>39</ele>
        <time>2021-07-21T20:58:22Z</time>
      </trkpt>
      <trkpt lat="48.63213" lon="-2.01541">
        <ele>36</ele>
        <time>2021-07-21T20:58:43Z</time>
      </trkpt>
      <trkpt lat="48.63255" lon="-2.01624">
        <ele>34</ele>
        <time>2021-07-21T20:58:59Z</time>
      </trkpt>
      <trkpt lat="48.63323" lon="-2.01773">
        <ele>27</ele>
        <time>2021-07-21T20:59:27Z</time>
      </trkpt>
      <trkpt lat="48.63366" lon="-2.01859">
        <ele>25</ele>
        <time>2021-07-21T20:59:44Z</time>
      </trkpt>
      <trkpt lat="48.63373" lon="-2.01886">
        <ele>24</ele>
        <time>2021-07-21T20:59:48Z</time>
      </trkpt>
      <trkpt lat="48.63395" lon="-2.01903">
        <ele>23</ele>
        <time>2021-07-21T20:59:54Z</time>
      </trkpt>
      <trkpt lat="48.63415" lon="-2.01911">
        <ele>22</ele>
        <time>2021-07-21T20:59:59Z</time>
      </trkpt>
      <trkpt lat="48.63437" lon="-2.01914">
        <ele>22</ele>
        <time>2021-07-21T21:00:04Z</time>
      </trkpt>
      <trkpt lat="48.63435" lon="-2.01944">
        <ele>20</ele>
        <time>2021-07-21T21:00:09Z</time>
      </trkpt>
      <trkpt lat="48.63428" lon="-2.01981">
        <ele>18</ele>
        <time>2021-07-21T21:00:15Z</time>
      </trkpt>
      <trkpt lat="48.6341" lon="-2.02008">
        <ele>16</ele>
        <time>2021-07-21T21:00:21Z</time>
      </trkpt>
      <trkpt lat="48.63399" lon="-2.02072">
        <ele>10</ele>
        <time>2021-07-21T21:00:31Z</time>
      </trkpt>
      <trkpt lat="48.63401" lon="-2.02088">
        <ele>9</ele>
        <time>2021-07-21T21:00:33Z</time>
      </trkpt>
      <trkpt lat="48.63421" lon="-2.02099">
        <ele>9</ele>
        <time>2021-07-21T21:00:38Z</time>
      </trkpt>
      <trkpt lat="48.63456" lon="-2.02135">
        <ele>9</ele>
        <time>2021-07-21T21:00:48Z</time>
      </trkpt>
      <trkpt lat="48.63478" lon="-2.02164">
        <ele>9</ele>
        <time>2021-07-21T21:00:55Z</time>
      </trkpt>
      <trkpt lat="48.63491" lon="-2.02192">
        <ele>9</ele>
        <time>2021-07-21T21:01:00Z</time>
      </trkpt>
      <trkpt lat="48.63509" lon="-2.02242">
        <ele>8</ele>
        <time>2021-07-21T21:01:09Z</time>
      </trkpt>
      <trkpt lat="48.63525" lon="-2.02296">
        <ele>8</ele>
        <time>2021-07-21T21:01:18Z</time>
      </trkpt>
      <trkpt lat="48.63557" lon="-2.02272">
        <ele>9</ele>
        <time>2021-07-21T21:01:27Z</time>
      </trkpt>
      <trkpt lat="48.63565" lon="-2.02235">
        <ele>10</ele>
        <time>2021-07-21T21:01:33Z</time>
      </trkpt>
      <trkpt lat="48.63579" lon="-2.02195">
        <ele>11</ele>
        <time>2021-07-21T21:01:40Z</time>
      </trkpt>
      <trkpt lat="48.63589" lon="-2.02175">
        <ele>12</ele>
        <time>2021-07-21T21:01:44Z</time>
      </trkpt>
      <trkpt lat="48.63609" lon="-2.02116">
        <ele>12</ele>
        <time>2021-07-21T21:01:54Z</time>
      </trkpt>
      <trkpt lat="48.63658" lon="-2.02023">
        <ele>15</ele>
        <time>2021-07-21T21:02:12Z</time>
      </trkpt>
      <trkpt lat="48.63722" lon="-2.01945">
        <ele>14</ele>
        <time>2021-07-21T21:02:31Z</time>
      </trkpt>
      <trkpt lat="48.63775" lon="-2.01895">
        <ele>15</ele>
        <time>2021-07-21T21:02:46Z</time>
      </trkpt>
      <trkpt lat="48.6383" lon="-2.01859">
        <ele>15</ele>
        <time>2021-07-21T21:03:00Z</time>
      </trkpt>
      <trkpt lat="48.63847" lon="-2.0184">
        <ele>17</ele>
        <time>2021-07-21T21:03:05Z</time>
      </trkpt>
      <trkpt lat="48.63891" lon="-2.01753">
        <ele>22</ele>
        <time>2021-07-21T21:03:22Z</time>
      </trkpt>
      <trkpt lat="48.6395" lon="-2.01786">
        <ele>19</ele>
        <time>2021-07-21T21:03:36Z</time>
      </trkpt>
      <trkpt lat="48.64072" lon="-2.01866">
        <ele>13</ele>
        <time>2021-07-21T21:04:07Z</time>
      </trkpt>
      <trkpt lat="48.64188" lon="-2.02027">
        <ele>7</ele>
        <time>2021-07-21T21:04:44Z</time>
      </trkpt>
      <trkpt lat="48.6421" lon="-2.02017">
        <ele>7</ele>
        <time>2021-07-21T21:04:50Z</time>
      </trkpt>
      <trkpt lat="48.64226" lon="-2.02049">
        <ele>6</ele>
        <time>2021-07-21T21:04:56Z</time>
      </trkpt>
      <trkpt lat="48.64228" lon="-2.02077">
        <ele>6</ele>
        <time>2021-07-21T21:05:00Z</time>
      </trkpt>
      <trkpt lat="48.64257" lon="-2.02095">
        <ele>7</ele>
        <time>2021-07-21T21:05:07Z</time>
      </trkpt>
      <trkpt lat="48.64316" lon="-2.02165">
        <ele>5</ele>
        <time>2021-07-21T21:05:25Z</time>
      </trkpt>
      <trkpt lat="48.64348" lon="-2.02222">
        <ele>5</ele>
        <time>2021-07-21T21:05:36Z</time>
      </trkpt>
      <trkpt lat="48.64446" lon="-2.02288">
        <ele>5</ele>
        <time>2021-07-21T21:06:02Z</time>
      </trkpt>
      <trkpt lat="48.64482" lon="-2.02308">
        <ele>5</ele>
        <time>2021-07-21T21:06:10Z</time>
      </trkpt>
      <trkpt lat="48.64575" lon="-2.02331">
        <ele>4</ele>
        <time>2021-07-21T21:06:33Z</time>
      </trkpt>
      <trkpt lat="48.64606" lon="-2.0235">
        <ele>5</ele>
        <time>2021-07-21T21:06:40Z</time>
      </trkpt>
      <trkpt lat="48.64631" lon="-2.02339">
        <ele>5</ele>
        <time>2021-07-21T21:06:46Z</time>
      </trkpt>
      <trkpt lat="48.64876" lon="-2.02352">
        <ele>10</ele>
        <time>2021-07-21T21:07:44Z</time>
      </trkpt>
      <trkpt lat="48.649" lon="-2.02346">
        <ele>10</ele>
        <time>2021-07-21T21:07:49Z</time>
      </trkpt>
      <trkpt lat="48.64941" lon="-2.02325">
        <ele>9</ele>
        <time>2021-07-21T21:07:59Z</time>
      </trkpt>
      <trkpt lat="48.65044" lon="-2.02247">
        <ele>7</ele>
        <time>2021-07-21T21:08:26Z</time>
      </trkpt>
      <trkpt lat="48.65116" lon="-2.02142">
        <ele>6</ele>
        <time>2021-07-21T21:08:50Z</time>
      </trkpt>
      <trkpt lat="48.65163" lon="-2.01714">
        <ele>9</ele>
        <time>2021-07-21T21:09:57Z</time>
      </trkpt>
      <trkpt lat="48.65216" lon="-2.01711">
        <ele>6</ele>
        <time>2021-07-21T21:10:09Z</time>
      </trkpt>
      <trkpt lat="48.65269" lon="-2.01409">
        <ele>7</ele>
        <time>2021-07-21T21:10:57Z</time>
      </trkpt>
      <trkpt lat="48.65325" lon="-2.01231">
        <ele>6</ele>
        <time>2021-07-21T21:11:28Z</time>
      </trkpt>
      <trkpt lat="48.65331" lon="-2.01206">
        <ele>7</ele>
        <time>2021-07-23T13:06:06Z</time>
      </trkpt>
      <trkpt lat="48.65398" lon="-2.00994">
        <ele>6</ele>
        <time>2021-07-23T13:06:42Z</time>
      </trkpt>
      <trkpt lat="48.65574" lon="-2.00426">
        <ele>8</ele>
        <time>2021-07-23T13:08:19Z</time>
      </trkpt>
      <trkpt lat="48.6562" lon="-2.00275">
        <ele>8</ele>
        <time>2021-07-23T13:08:45Z</time>
      </trkpt>
      <trkpt lat="48.65721" lon="-1.99695">
        <ele>7</ele>
        <time>2021-07-23T13:10:17Z</time>
      </trkpt>
      <trkpt lat="48.6573" lon="-1.9965">
        <ele>7</ele>
        <time>2021-07-23T13:10:24Z</time>
      </trkpt>
      <trkpt lat="48.65845" lon="-1.99493">
        <ele>9</ele>
        <time>2021-07-23T13:11:01Z</time>
      </trkpt>
      <trkpt lat="48.65971" lon="-1.99301">
        <ele>13</ele>
        <time>2021-07-23T13:11:42Z</time>
      </trkpt>
      <trkpt lat="48.66033" lon="-1.99211">
        <ele>15</ele>
        <time>2021-07-23T13:12:02Z</time>
      </trkpt>
      <trkpt lat="48.66277" lon="-1.98853">
        <ele>16</ele>
        <time>2021-07-23T13:13:22Z</time>
      </trkpt>
      <trkpt lat="48.6648" lon="-1.98808">
        <ele>17</ele>
        <time>2021-07-23T13:14:10Z</time>
      </trkpt>
      <trkpt lat="48.66552" lon="-1.98775">
        <ele>20</ele>
        <time>2021-07-23T13:14:27Z</time>
      </trkpt>
      <trkpt lat="48.66596" lon="-1.98719">
        <ele>22</ele>
        <time>2021-07-23T13:14:41Z</time>
      </trkpt>
      <trkpt lat="48.66654" lon="-1.98613">
        <ele>21</ele>
        <time>2021-07-23T13:15:02Z</time>
      </trkpt>
      <trkpt lat="48.66748" lon="-1.98473">
        <ele>23</ele>
        <time>2021-07-23T13:15:33Z</time>
      </trkpt>
      <trkpt lat="48.66802" lon="-1.98405">
        <ele>24</ele>
        <time>2021-07-23T13:15:49Z</time>
      </trkpt>
      <trkpt lat="48.66878" lon="-1.98354">
        <ele>23</ele>
        <time>2021-07-23T13:16:09Z</time>
      </trkpt>
      <trkpt lat="48.67042" lon="-1.98289">
        <ele>18</ele>
        <time>2021-07-23T13:16:48Z</time>
      </trkpt>
      <trkpt lat="48.67295" lon="-1.98152">
        <ele>19</ele>
        <time>2021-07-23T13:17:51Z</time>
      </trkpt>
      <trkpt lat="48.67624" lon="-1.97962">
        <ele>12</ele>
        <time>2021-07-23T13:19:13Z</time>
      </trkpt>
      <trkpt lat="48.67675" lon="-1.97929">
        <ele>11</ele>
        <time>2021-07-23T13:19:26Z</time>
      </trkpt>
      <trkpt lat="48.67841" lon="-1.97892">
        <ele>16</ele>
        <time>2021-07-23T13:20:05Z</time>
      </trkpt>
      <trkpt lat="48.67941" lon="-1.97793">
        <ele>15</ele>
        <time>2021-07-23T13:20:33Z</time>
      </trkpt>
      <trkpt lat="48.68016" lon="-1.97707">
        <ele>16</ele>
        <time>2021-07-23T13:20:55Z</time>
      </trkpt>
      <trkpt lat="48.68045" lon="-1.97531">
        <ele>15</ele>
        <time>2021-07-23T13:21:23Z</time>
      </trkpt>
      <trkpt lat="48.68045" lon="-1.9743">
        <ele>16</ele>
        <time>2021-07-23T13:21:39Z</time>
      </trkpt>
      <trkpt lat="48.68062" lon="-1.97322">
        <ele>16</ele>
        <time>2021-07-23T13:21:56Z</time>
      </trkpt>
      <trkpt lat="48.68136" lon="-1.9706">
        <ele>21</ele>
        <time>2021-07-23T13:22:40Z</time>
      </trkpt>
      <trkpt lat="48.68177" lon="-1.96876">
        <ele>24</ele>
        <time>2021-07-23T13:23:10Z</time>
      </trkpt>
      <trkpt lat="48.68184" lon="-1.96799">
        <ele>23</ele>
        <time>2021-07-23T13:23:22Z</time>
      </trkpt>
      <trkpt lat="48.68118" lon="-1.96774">
        <ele>20</ele>
        <time>2021-07-23T13:23:38Z</time>
      </trkpt>
      <trkpt lat="48.68112" lon="-1.9675">
        <ele>20</ele>
        <time>2021-07-23T13:23:41Z</time>
      </trkpt>
      <trkpt lat="48.68123" lon="-1.96658">
        <ele>17</ele>
        <time>2021-07-23T13:23:56Z</time>
      </trkpt>
      <trkpt lat="48.68121" lon="-1.96563">
        <ele>15</ele>
        <time>2021-07-23T13:24:11Z</time>
      </trkpt>
      <trkpt lat="48.68125" lon="-1.96491">
        <ele>14</ele>
        <time>2021-07-23T13:24:22Z</time>
      </trkpt>
      <trkpt lat="48.68141" lon="-1.96422">
        <ele>14</ele>
        <time>2021-07-23T13:24:33Z</time>
      </trkpt>
      <trkpt lat="48.6813" lon="-1.96381">
        <ele>13</ele>
        <time>2021-07-23T13:24:40Z</time>
      </trkpt>
      <trkpt lat="48.68076" lon="-1.96283">
        <ele>13</ele>
        <time>2021-07-23T13:24:59Z</time>
      </trkpt>
      <trkpt lat="48.68" lon="-1.96175">
        <ele>14</ele>
        <time>2021-07-23T13:25:24Z</time>
      </trkpt>
      <trkpt lat="48.67944" lon="-1.96073">
        <ele>15</ele>
        <time>2021-07-23T13:25:44Z</time>
      </trkpt>
      <trkpt lat="48.67939" lon="-1.95958">
        <ele>15</ele>
        <time>2021-07-23T13:26:02Z</time>
      </trkpt>
      <trkpt lat="48.67944" lon="-1.95806">
        <ele>16</ele>
        <time>2021-07-23T13:26:26Z</time>
      </trkpt>
      <trkpt lat="48.67956" lon="-1.95691">
        <ele>15</ele>
        <time>2021-07-23T13:26:43Z</time>
      </trkpt>
      <trkpt lat="48.67987" lon="-1.95538">
        <ele>12</ele>
        <time>2021-07-23T13:27:08Z</time>
      </trkpt>
      <trkpt lat="48.68067" lon="-1.95313">
        <ele>10</ele>
        <time>2021-07-23T13:27:48Z</time>
      </trkpt>
      <trkpt lat="48.68189" lon="-1.9501">
        <ele>12</ele>
        <time>2021-07-23T13:28:42Z</time>
      </trkpt>
      <trkpt lat="48.68192" lon="-1.94919">
        <ele>15</ele>
        <time>2021-07-23T13:28:56Z</time>
      </trkpt>
      <trkpt lat="48.68174" lon="-1.94802">
        <ele>20</ele>
        <time>2021-07-23T13:29:15Z</time>
      </trkpt>
      <trkpt lat="48.68143" lon="-1.9473">
        <ele>21</ele>
        <time>2021-07-23T13:29:28Z</time>
      </trkpt>
      <trkpt lat="48.68063" lon="-1.94566">
        <ele>24</ele>
        <time>2021-07-23T13:30:00Z</time>
      </trkpt>
      <trkpt lat="48.68017" lon="-1.94505">
        <ele>26</ele>
        <time>2021-07-23T13:30:14Z</time>
      </trkpt>
      <trkpt lat="48.67952" lon="-1.94459">
        <ele>29</ele>
        <time>2021-07-23T13:30:31Z</time>
      </trkpt>
      <trkpt lat="48.679" lon="-1.94425">
        <ele>32</ele>
        <time>2021-07-23T13:30:44Z</time>
      </trkpt>
      <trkpt lat="48.67846" lon="-1.94397">
        <ele>36</ele>
        <time>2021-07-23T13:30:57Z</time>
      </trkpt>
      <trkpt lat="48.67763" lon="-1.94355">
        <ele>36</ele>
        <time>2021-07-23T13:31:18Z</time>
      </trkpt>
      <trkpt lat="48.67669" lon="-1.94299">
        <ele>29</ele>
        <time>2021-07-23T13:31:41Z</time>
      </trkpt>
      <trkpt lat="48.67611" lon="-1.94265">
        <ele>26</ele>
        <time>2021-07-23T13:31:56Z</time>
      </trkpt>
      <trkpt lat="48.67538" lon="-1.94268">
        <ele>22</ele>
        <time>2021-07-23T13:32:13Z</time>
      </trkpt>
      <trkpt lat="48.67467" lon="-1.9425">
        <ele>20</ele>
        <time>2021-07-23T13:32:30Z</time>
      </trkpt>
      <trkpt lat="48.67418" lon="-1.94193">
        <ele>21</ele>
        <time>2021-07-23T13:32:44Z</time>
      </trkpt>
      <trkpt lat="48.67406" lon="-1.93853">
        <ele>26</ele>
        <time>2021-07-23T13:33:36Z</time>
      </trkpt>
      <trkpt lat="48.6753" lon="-1.93721">
        <ele>20</ele>
        <time>2021-07-23T13:34:12Z</time>
      </trkpt>
      <trkpt lat="48.67578" lon="-1.93715">
        <ele>17</ele>
        <time>2021-07-23T13:34:23Z</time>
      </trkpt>
      <trkpt lat="48.67654" lon="-1.93731">
        <ele>18</ele>
        <time>2021-07-23T13:34:41Z</time>
      </trkpt>
      <trkpt lat="48.6766" lon="-1.93581">
        <ele>9</ele>
        <time>2021-07-23T13:35:04Z</time>
      </trkpt>
      <trkpt lat="48.67667" lon="-1.93537">
        <ele>10</ele>
        <time>2021-07-23T13:35:11Z</time>
      </trkpt>
      <trkpt lat="48.6771" lon="-1.93511">
        <ele>9</ele>
        <time>2021-07-23T13:35:22Z</time>
      </trkpt>
      <trkpt lat="48.67709" lon="-1.93443">
        <ele>11</ele>
        <time>2021-07-23T13:35:32Z</time>
      </trkpt>
      <trkpt lat="48.67888" lon="-1.9337">
        <ele>13</ele>
        <time>2021-07-23T13:36:16Z</time>
      </trkpt>
      <trkpt lat="48.67991" lon="-1.93399">
        <ele>14</ele>
        <time>2021-07-23T13:36:40Z</time>
      </trkpt>
      <trkpt lat="48.68023" lon="-1.93399">
        <ele>15</ele>
        <time>2021-07-23T13:36:48Z</time>
      </trkpt>
      <trkpt lat="48.68033" lon="-1.93361">
        <ele>15</ele>
        <time>2021-07-23T13:36:54Z</time>
      </trkpt>
      <trkpt lat="48.68118" lon="-1.93135">
        <ele>21</ele>
        <time>2021-07-23T13:37:34Z</time>
      </trkpt>
      <trkpt lat="48.68128" lon="-1.93035">
        <ele>23</ele>
        <time>2021-07-23T13:37:50Z</time>
      </trkpt>
      <trkpt lat="48.68098" lon="-1.92924">
        <ele>25</ele>
        <time>2021-07-23T13:38:08Z</time>
      </trkpt>
      <trkpt lat="48.68164" lon="-1.92634">
        <ele>23</ele>
        <time>2021-07-23T13:38:56Z</time>
      </trkpt>
      <trkpt lat="48.68147" lon="-1.92523">
        <ele>25</ele>
        <time>2021-07-23T13:39:13Z</time>
      </trkpt>
      <trkpt lat="48.68131" lon="-1.92469">
        <ele>25</ele>
        <time>2021-07-23T13:39:22Z</time>
      </trkpt>
      <trkpt lat="48.68078" lon="-1.92384">
        <ele>24</ele>
        <time>2021-07-23T13:39:40Z</time>
      </trkpt>
      <trkpt lat="48.68047" lon="-1.92273">
        <ele>27</ele>
        <time>2021-07-23T13:39:59Z</time>
      </trkpt>
      <trkpt lat="48.6802" lon="-1.9222">
        <ele>28</ele>
        <time>2021-07-23T13:40:09Z</time>
      </trkpt>
      <trkpt lat="48.67869" lon="-1.91945">
        <ele>29</ele>
        <time>2021-07-23T13:41:04Z</time>
      </trkpt>
      <trkpt lat="48.67851" lon="-1.9186">
        <ele>28</ele>
        <time>2021-07-23T13:41:18Z</time>
      </trkpt>
      <trkpt lat="48.67813" lon="-1.91648">
        <ele>29</ele>
        <time>2021-07-23T13:41:52Z</time>
      </trkpt>
      <trkpt lat="48.6778" lon="-1.91587">
        <ele>29</ele>
        <time>2021-07-23T13:42:04Z</time>
      </trkpt>
      <trkpt lat="48.67739" lon="-1.91504">
        <ele>30</ele>
        <time>2021-07-23T13:42:20Z</time>
      </trkpt>
      <trkpt lat="48.67695" lon="-1.91433">
        <ele>31</ele>
        <time>2021-07-23T13:42:35Z</time>
      </trkpt>
      <trkpt lat="48.67639" lon="-1.91332">
        <ele>32</ele>
        <time>2021-07-23T13:42:55Z</time>
      </trkpt>
      <trkpt lat="48.67706" lon="-1.9123">
        <ele>37</ele>
        <time>2021-07-23T13:43:18Z</time>
      </trkpt>
      <trkpt lat="48.67613" lon="-1.91141">
        <ele>35</ele>
        <time>2021-07-23T13:43:43Z</time>
      </trkpt>
      <trkpt lat="48.67585" lon="-1.91126">
        <ele>35</ele>
        <time>2021-07-23T13:43:50Z</time>
      </trkpt>
      <trkpt lat="48.67557" lon="-1.91116">
        <ele>35</ele>
        <time>2021-07-23T13:43:57Z</time>
      </trkpt>
      <trkpt lat="48.67533" lon="-1.91129">
        <ele>34</ele>
        <time>2021-07-23T13:44:03Z</time>
      </trkpt>
      <trkpt lat="48.67478" lon="-1.91051">
        <ele>35</ele>
        <time>2021-07-23T13:44:20Z</time>
      </trkpt>
      <trkpt lat="48.6746" lon="-1.91093">
        <ele>34</ele>
        <time>2021-07-23T13:44:28Z</time>
      </trkpt>
      <trkpt lat="48.6744" lon="-1.91098">
        <ele>35</ele>
        <time>2021-07-23T13:44:33Z</time>
      </trkpt>
      <trkpt lat="48.67424" lon="-1.91127">
        <ele>34</ele>
        <time>2021-07-23T13:44:39Z</time>
      </trkpt>
      <trkpt lat="48.6733" lon="-1.91203">
        <ele>33</ele>
        <time>2021-07-23T13:45:04Z</time>
      </trkpt>
      <trkpt lat="48.67293" lon="-1.91212">
        <ele>32</ele>
        <time>2021-07-23T13:45:12Z</time>
      </trkpt>
      <trkpt lat="48.67187" lon="-1.91147">
        <ele>32</ele>
        <time>2021-07-23T13:45:39Z</time>
      </trkpt>
      <trkpt lat="48.67097" lon="-1.91063">
        <ele>31</ele>
        <time>2021-07-23T13:46:04Z</time>
      </trkpt>
      <trkpt lat="48.67039" lon="-1.91013">
        <ele>32</ele>
        <time>2021-07-23T13:46:19Z</time>
      </trkpt>
      <trkpt lat="48.67" lon="-1.90997">
        <ele>33</ele>
        <time>2021-07-23T13:46:29Z</time>
      </trkpt>
      <trkpt lat="48.66966" lon="-1.90995">
        <ele>33</ele>
        <time>2021-07-23T13:46:37Z</time>
      </trkpt>
      <trkpt lat="48.66933" lon="-1.91027">
        <ele>31</ele>
        <time>2021-07-23T13:46:46Z</time>
      </trkpt>
      <trkpt lat="48.6691" lon="-1.91079">
        <ele>29</ele>
        <time>2021-07-23T13:46:56Z</time>
      </trkpt>
      <trkpt lat="48.66855" lon="-1.91228">
        <ele>24</ele>
        <time>2021-07-23T13:47:22Z</time>
      </trkpt>
      <trkpt lat="48.66818" lon="-1.91293">
        <ele>24</ele>
        <time>2021-07-23T13:47:35Z</time>
      </trkpt>
      <trkpt lat="48.66758" lon="-1.91325">
        <ele>26</ele>
        <time>2021-07-23T13:47:50Z</time>
      </trkpt>
      <trkpt lat="48.66653" lon="-1.91374">
        <ele>29</ele>
        <time>2021-07-23T13:48:16Z</time>
      </trkpt>
      <trkpt lat="48.6659" lon="-1.91396">
        <ele>29</ele>
        <time>2021-07-23T13:48:31Z</time>
      </trkpt>
      <trkpt lat="48.66588" lon="-1.91368">
        <ele>29</ele>
        <time>2021-07-23T13:48:35Z</time>
      </trkpt>
      <trkpt lat="48.66605" lon="-1.91315">
        <ele>29</ele>
        <time>2021-07-23T13:48:44Z</time>
      </trkpt>
      <trkpt lat="48.66612" lon="-1.91258">
        <ele>28</ele>
        <time>2021-07-23T13:48:53Z</time>
      </trkpt>
      <trkpt lat="48.6661" lon="-1.91178">
        <ele>30</ele>
        <time>2021-07-23T13:49:05Z</time>
      </trkpt>
      <trkpt lat="48.66607" lon="-1.91076">
        <ele>29</ele>
        <time>2021-07-23T13:49:21Z</time>
      </trkpt>
      <trkpt lat="48.666" lon="-1.91016">
        <ele>29</ele>
        <time>2021-07-23T13:49:31Z</time>
      </trkpt>
      <trkpt lat="48.66581" lon="-1.90972">
        <ele>29</ele>
        <time>2021-07-23T13:49:39Z</time>
      </trkpt>
      <trkpt lat="48.66573" lon="-1.90932">
        <ele>30</ele>
        <time>2021-07-23T13:49:45Z</time>
      </trkpt>
      <trkpt lat="48.66599" lon="-1.90865">
        <ele>33</ele>
        <time>2021-07-23T13:49:57Z</time>
      </trkpt>
      <trkpt lat="48.66622" lon="-1.90777">
        <ele>36</ele>
        <time>2021-07-23T13:50:12Z</time>
      </trkpt>
      <trkpt lat="48.66643" lon="-1.90648">
        <ele>40</ele>
        <time>2021-07-23T13:50:32Z</time>
      </trkpt>
      <trkpt lat="48.6665" lon="-1.90525">
        <ele>45</ele>
        <time>2021-07-23T13:50:51Z</time>
      </trkpt>
      <trkpt lat="48.66657" lon="-1.90436">
        <ele>48</ele>
        <time>2021-07-23T13:51:05Z</time>
      </trkpt>
      <trkpt lat="48.66662" lon="-1.9031">
        <ele>48</ele>
        <time>2021-07-23T13:51:25Z</time>
      </trkpt>
      <trkpt lat="48.66692" lon="-1.90181">
        <ele>47</ele>
        <time>2021-07-23T13:51:46Z</time>
      </trkpt>
      <trkpt lat="48.66726" lon="-1.90054">
        <ele>49</ele>
        <time>2021-07-23T13:52:07Z</time>
      </trkpt>
      <trkpt lat="48.66764" lon="-1.89808">
        <ele>49</ele>
        <time>2021-07-23T13:52:46Z</time>
      </trkpt>
      <trkpt lat="48.66784" lon="-1.89521">
        <ele>48</ele>
        <time>2021-07-23T13:53:30Z</time>
      </trkpt>
      <trkpt lat="48.66812" lon="-1.89233">
        <ele>43</ele>
        <time>2021-07-23T13:54:15Z</time>
      </trkpt>
      <trkpt lat="48.66914" lon="-1.89044">
        <ele>41</ele>
        <time>2021-07-23T13:54:53Z</time>
      </trkpt>
      <trkpt lat="48.66943" lon="-1.88937">
        <ele>40</ele>
        <time>2021-07-23T13:55:11Z</time>
      </trkpt>
      <trkpt lat="48.66979" lon="-1.88649">
        <ele>41</ele>
        <time>2021-07-23T13:55:56Z</time>
      </trkpt>
      <trkpt lat="48.6703" lon="-1.88375">
        <ele>38</ele>
        <time>2021-07-23T13:56:40Z</time>
      </trkpt>
      <trkpt lat="48.67011" lon="-1.88134">
        <ele>42</ele>
        <time>2021-07-23T13:57:17Z</time>
      </trkpt>
      <trkpt lat="48.67019" lon="-1.87924">
        <ele>43</ele>
        <time>2021-07-23T13:57:50Z</time>
      </trkpt>
      <trkpt lat="48.6694" lon="-1.87598">
        <ele>45</ele>
        <time>2021-07-23T13:58:43Z</time>
      </trkpt>
      <trkpt lat="48.66923" lon="-1.87465">
        <ele>45</ele>
        <time>2021-07-23T13:59:04Z</time>
      </trkpt>
      <trkpt lat="48.6696" lon="-1.8728">
        <ele>45</ele>
        <time>2021-07-23T13:59:34Z</time>
      </trkpt>
      <trkpt lat="48.67059" lon="-1.87113">
        <ele>42</ele>
        <time>2021-07-23T14:00:09Z</time>
      </trkpt>
      <trkpt lat="48.67172" lon="-1.86924">
        <ele>43</ele>
        <time>2021-07-23T14:00:48Z</time>
      </trkpt>
      <trkpt lat="48.67305" lon="-1.86783">
        <ele>43</ele>
        <time>2021-07-23T14:01:26Z</time>
      </trkpt>
      <trkpt lat="48.67433" lon="-1.86714">
        <ele>45</ele>
        <time>2021-07-23T14:01:57Z</time>
      </trkpt>
      <trkpt lat="48.67404" lon="-1.86414">
        <ele>44</ele>
        <time>2021-07-23T14:02:44Z</time>
      </trkpt>
      <trkpt lat="48.6737" lon="-1.86208">
        <ele>47</ele>
        <time>2021-07-23T14:03:17Z</time>
      </trkpt>
      <trkpt lat="48.67458" lon="-1.85847">
        <ele>44</ele>
        <time>2021-07-23T14:04:16Z</time>
      </trkpt>
      <trkpt lat="48.67478" lon="-1.85598">
        <ele>37</ele>
        <time>2021-07-23T14:04:55Z</time>
      </trkpt>
      <trkpt lat="48.67609" lon="-1.85341">
        <ele>45</ele>
        <time>2021-07-23T14:05:45Z</time>
      </trkpt>
      <trkpt lat="48.6756" lon="-1.85173">
        <ele>48</ele>
        <time>2021-07-23T14:06:13Z</time>
      </trkpt>
      <trkpt lat="48.67439" lon="-1.85242">
        <ele>43</ele>
        <time>2021-07-23T14:06:44Z</time>
      </trkpt>
      <trkpt lat="48.67325" lon="-1.85298">
        <ele>33</ele>
        <time>2021-07-23T14:07:12Z</time>
      </trkpt>
      <trkpt lat="48.67124" lon="-1.85285">
        <ele>14</ele>
        <time>2021-07-23T14:07:59Z</time>
      </trkpt>
      <trkpt lat="48.67104" lon="-1.85448">
        <ele>11</ele>
        <time>2021-07-23T14:08:24Z</time>
      </trkpt>
      <trkpt lat="48.67025" lon="-1.85607">
        <ele>7</ele>
        <time>2021-07-23T14:08:55Z</time>
      </trkpt>
      <trkpt lat="48.66926" lon="-1.85774">
        <ele>9</ele>
        <time>2021-07-23T14:09:29Z</time>
      </trkpt>
      <trkpt lat="48.66875" lon="-1.86036">
        <ele>10</ele>
        <time>2021-07-23T14:10:12Z</time>
      </trkpt>
      <trkpt lat="48.66807" lon="-1.86246">
        <ele>15</ele>
        <time>2021-07-23T14:10:48Z</time>
      </trkpt>
      <trkpt lat="48.66821" lon="-1.86486">
        <ele>37</ele>
        <time>2021-07-23T14:11:25Z</time>
      </trkpt>
      <trkpt lat="48.66996" lon="-1.86461">
        <ele>41</ele>
        <time>2021-07-23T14:12:06Z</time>
      </trkpt>
      <trkpt lat="48.67217" lon="-1.86465">
        <ele>41</ele>
        <time>2021-07-23T14:12:57Z</time>
      </trkpt>
      <trkpt lat="48.6737" lon="-1.86401">
        <ele>43</ele>
        <time>2021-07-23T14:13:35Z</time>
      </trkpt>
      <trkpt lat="48.6741" lon="-1.86559">
        <ele>44</ele>
        <time>2021-07-23T14:14:01Z</time>
      </trkpt>
      <trkpt lat="48.67426" lon="-1.86707">
        <ele>45</ele>
        <time>2021-07-23T14:14:24Z</time>
      </trkpt>
      <trkpt lat="48.67326" lon="-1.86761">
        <ele>43</ele>
        <time>2021-07-23T14:14:49Z</time>
      </trkpt>
      <trkpt lat="48.67251" lon="-1.86828">
        <ele>43</ele>
        <time>2021-07-23T14:15:09Z</time>
      </trkpt>
      <trkpt lat="48.67177" lon="-1.86904">
        <ele>43</ele>
        <time>2021-07-23T14:15:30Z</time>
      </trkpt>
      <trkpt lat="48.67094" lon="-1.8704">
        <ele>43</ele>
        <time>2021-07-23T14:15:58Z</time>
      </trkpt>
      <trkpt lat="48.67014" lon="-1.87177">
        <ele>44</ele>
        <time>2021-07-23T14:16:26Z</time>
      </trkpt>
      <trkpt lat="48.66949" lon="-1.87281">
        <ele>45</ele>
        <time>2021-07-23T14:16:49Z</time>
      </trkpt>
      <trkpt lat="48.66916" lon="-1.8745">
        <ele>46</ele>
        <time>2021-07-23T14:17:16Z</time>
      </trkpt>
      <trkpt lat="48.66922" lon="-1.8758">
        <ele>45</ele>
        <time>2021-07-23T14:17:36Z</time>
      </trkpt>
      <trkpt lat="48.66991" lon="-1.87832">
        <ele>45</ele>
        <time>2021-07-23T14:18:18Z</time>
      </trkpt>
      <trkpt lat="48.67008" lon="-1.87928">
        <ele>44</ele>
        <time>2021-07-23T14:18:33Z</time>
      </trkpt>
      <trkpt lat="48.67013" lon="-1.88037">
        <ele>43</ele>
        <time>2021-07-23T14:18:50Z</time>
      </trkpt>
      <trkpt lat="48.67008" lon="-1.88208">
        <ele>41</ele>
        <time>2021-07-23T14:19:17Z</time>
      </trkpt>
      <trkpt lat="48.6702" lon="-1.88372">
        <ele>39</ele>
        <time>2021-07-23T14:19:42Z</time>
      </trkpt>
      <trkpt lat="48.67003" lon="-1.88565">
        <ele>42</ele>
        <time>2021-07-23T14:20:12Z</time>
      </trkpt>
      <trkpt lat="48.66925" lon="-1.88641">
        <ele>42</ele>
        <time>2021-07-23T14:20:34Z</time>
      </trkpt>
      <trkpt lat="48.66831" lon="-1.88623">
        <ele>42</ele>
        <time>2021-07-23T14:20:56Z</time>
      </trkpt>
      <trkpt lat="48.66771" lon="-1.88615">
        <ele>42</ele>
        <time>2021-07-23T14:21:10Z</time>
      </trkpt>
      <trkpt lat="48.66654" lon="-1.88656">
        <ele>43</ele>
        <time>2021-07-23T14:21:38Z</time>
      </trkpt>
      <trkpt lat="48.6653" lon="-1.88721">
        <ele>44</ele>
        <time>2021-07-23T14:22:09Z</time>
      </trkpt>
      <trkpt lat="48.66465" lon="-1.88764">
        <ele>45</ele>
        <time>2021-07-23T14:22:25Z</time>
      </trkpt>
      <trkpt lat="48.6635" lon="-1.88733">
        <ele>44</ele>
        <time>2021-07-23T14:22:52Z</time>
      </trkpt>
      <trkpt lat="48.66285" lon="-1.88714">
        <ele>45</ele>
        <time>2021-07-23T14:23:08Z</time>
      </trkpt>
      <trkpt lat="48.66194" lon="-1.88637">
        <ele>45</ele>
        <time>2021-07-23T14:23:32Z</time>
      </trkpt>
      <trkpt lat="48.66132" lon="-1.88559">
        <ele>44</ele>
        <time>2021-07-23T14:23:51Z</time>
      </trkpt>
      <trkpt lat="48.66033" lon="-1.88538">
        <ele>45</ele>
        <time>2021-07-23T14:24:14Z</time>
      </trkpt>
      <trkpt lat="48.65902" lon="-1.88512">
        <ele>47</ele>
        <time>2021-07-23T14:24:45Z</time>
      </trkpt>
      <trkpt lat="48.65746" lon="-1.88525">
        <ele>47</ele>
        <time>2021-07-23T14:25:22Z</time>
      </trkpt>
      <trkpt lat="48.6565" lon="-1.88473">
        <ele>46</ele>
        <time>2021-07-23T14:25:45Z</time>
      </trkpt>
      <trkpt lat="48.65562" lon="-1.88413">
        <ele>45</ele>
        <time>2021-07-23T14:26:08Z</time>
      </trkpt>
      <trkpt lat="48.65511" lon="-1.88401">
        <ele>45</ele>
        <time>2021-07-23T14:26:20Z</time>
      </trkpt>
      <trkpt lat="48.65447" lon="-1.88424">
        <ele>45</ele>
        <time>2021-07-23T14:26:35Z</time>
      </trkpt>
      <trkpt lat="48.65337" lon="-1.88525">
        <ele>45</ele>
        <time>2021-07-23T14:27:05Z</time>
      </trkpt>
      <trkpt lat="48.65223" lon="-1.88741">
        <ele>46</ele>
        <time>2021-07-23T14:27:48Z</time>
      </trkpt>
      <trkpt lat="48.65079" lon="-1.88986">
        <ele>42</ele>
        <time>2021-07-23T14:28:39Z</time>
      </trkpt>
      <trkpt lat="48.64917" lon="-1.89181">
        <ele>43</ele>
        <time>2021-07-23T14:29:27Z</time>
      </trkpt>
      <trkpt lat="48.64731" lon="-1.89318">
        <ele>44</ele>
        <time>2021-07-23T14:30:15Z</time>
      </trkpt>
      <trkpt lat="48.64555" lon="-1.8934">
        <ele>44</ele>
        <time>2021-07-23T14:30:57Z</time>
      </trkpt>
      <trkpt lat="48.64541" lon="-1.89643">
        <ele>44</ele>
        <time>2021-07-23T14:31:43Z</time>
      </trkpt>
      <trkpt lat="48.64412" lon="-1.89708">
        <ele>45</ele>
        <time>2021-07-23T14:32:15Z</time>
      </trkpt>
      <trkpt lat="48.64264" lon="-1.89715">
        <ele>44</ele>
        <time>2021-07-23T14:32:50Z</time>
      </trkpt>
      <trkpt lat="48.64126" lon="-1.89773">
        <ele>41</ele>
        <time>2021-07-23T14:33:23Z</time>
      </trkpt>
      <trkpt lat="48.63954" lon="-1.89889">
        <ele>40</ele>
        <time>2021-07-23T14:34:07Z</time>
      </trkpt>
      <trkpt lat="48.64131" lon="-1.89499">
        <ele>36</ele>
        <time>2021-07-23T14:35:20Z</time>
      </trkpt>
      <trkpt lat="48.64169" lon="-1.89261">
        <ele>33</ele>
        <time>2021-07-23T14:35:58Z</time>
      </trkpt>
      <trkpt lat="48.64207" lon="-1.88828">
        <ele>39</ele>
        <time>2021-07-23T14:37:05Z</time>
      </trkpt>
      <trkpt lat="48.64226" lon="-1.88322">
        <ele>15</ele>
        <time>2021-07-23T14:38:24Z</time>
      </trkpt>
      <trkpt lat="48.64164" lon="-1.88366">
        <ele>16</ele>
        <time>2021-07-23T14:38:40Z</time>
      </trkpt>
      <trkpt lat="48.64092" lon="-1.88294">
        <ele>7</ele>
        <time>2021-07-23T14:39:00Z</time>
      </trkpt>
      <trkpt lat="48.63959" lon="-1.88164">
        <ele>5</ele>
        <time>2021-07-23T14:39:37Z</time>
      </trkpt>
      <trkpt lat="48.63897" lon="-1.88063">
        <ele>5</ele>
        <time>2021-07-23T14:39:58Z</time>
      </trkpt>
      <trkpt lat="48.63792" lon="-1.88012">
        <ele>5</ele>
        <time>2021-07-23T14:40:24Z</time>
      </trkpt>
      <trkpt lat="48.63644" lon="-1.87824">
        <ele>4</ele>
        <time>2021-07-23T14:41:09Z</time>
      </trkpt>
      <trkpt lat="48.63539" lon="-1.87637">
        <ele>4</ele>
        <time>2021-07-23T14:41:47Z</time>
      </trkpt>
      <trkpt lat="48.63482" lon="-1.87363">
        <ele>4</ele>
        <time>2021-07-23T14:42:31Z</time>
      </trkpt>
      <trkpt lat="48.63458" lon="-1.87081">
        <ele>4</ele>
        <time>2021-07-23T14:43:15Z</time>
      </trkpt>
      <trkpt lat="48.63696" lon="-1.86821">
        <ele>6</ele>
        <time>2021-07-23T14:44:24Z</time>
      </trkpt>
      <trkpt lat="48.63315" lon="-1.86489">
        <ele>7</ele>
        <time>2021-07-23T14:46:06Z</time>
      </trkpt>
      <trkpt lat="48.62948" lon="-1.86244">
        <ele>6</ele>
        <time>2021-07-23T14:47:40Z</time>
      </trkpt>
      <trkpt lat="48.62437" lon="-1.85703">
        <ele>6</ele>
        <time>2021-07-23T14:50:06Z</time>
      </trkpt>
      <trkpt lat="48.61922" lon="-1.84966">
        <ele>7</ele>
        <time>2021-07-23T14:52:51Z</time>
      </trkpt>
      <trkpt lat="48.61545" lon="-1.84425">
        <ele>6</ele>
        <time>2021-07-23T14:54:52Z</time>
      </trkpt>
      <trkpt lat="48.6134" lon="-1.83913">
        <ele>10</ele>
        <time>2021-07-23T14:56:25Z</time>
      </trkpt>
      <trkpt lat="48.61206" lon="-1.83227">
        <ele>4</ele>
        <time>2021-07-23T14:58:15Z</time>
      </trkpt>
      <trkpt lat="48.60882" lon="-1.81697">
        <ele>7</ele>
        <time>2021-07-23T15:02:23Z</time>
      </trkpt>
      <trkpt lat="48.6071" lon="-1.80304">
        <ele>6</ele>
        <time>2021-07-23T15:06:02Z</time>
      </trkpt>
      <trkpt lat="48.60529" lon="-1.78644">
        <ele>7</ele>
        <time>2021-07-23T15:10:22Z</time>
      </trkpt>
      <trkpt lat="48.60385" lon="-1.77922">
        <ele>6</ele>
        <time>2021-07-23T15:12:18Z</time>
      </trkpt>
      <trkpt lat="48.60287" lon="-1.77452">
        <ele>9</ele>
        <time>2021-07-23T15:13:35Z</time>
      </trkpt>
      <trkpt lat="48.60237" lon="-1.77214">
        <ele>7</ele>
        <time>2021-07-23T15:14:13Z</time>
      </trkpt>
      <trkpt lat="48.60194" lon="-1.77028">
        <ele>9</ele>
        <time>2021-07-23T15:14:44Z</time>
      </trkpt>
      <trkpt lat="48.60237" lon="-1.76781">
        <ele>4</ele>
        <time>2021-07-23T15:15:23Z</time>
      </trkpt>
      <trkpt lat="48.60264" lon="-1.76648">
        <ele>5</ele>
        <time>2021-07-23T15:15:44Z</time>
      </trkpt>
      <trkpt lat="48.60324" lon="-1.76666">
        <ele>7</ele>
        <time>2021-07-23T15:15:59Z</time>
      </trkpt>
      <trkpt lat="48.60326" lon="-1.76592">
        <ele>7</ele>
        <time>2021-07-23T15:16:10Z</time>
      </trkpt>
      <trkpt lat="48.60334" lon="-1.76459">
        <ele>7</ele>
        <time>2021-07-23T15:16:31Z</time>
      </trkpt>
      <trkpt lat="48.60365" lon="-1.7624">
        <ele>6</ele>
        <time>2021-07-23T15:17:05Z</time>
      </trkpt>
      <trkpt lat="48.60355" lon="-1.76081">
        <ele>7</ele>
        <time>2021-07-23T15:17:30Z</time>
      </trkpt>
      <trkpt lat="48.6037" lon="-1.75862">
        <ele>7</ele>
        <time>2021-07-23T15:18:04Z</time>
      </trkpt>
      <trkpt lat="48.60363" lon="-1.75686">
        <ele>6</ele>
        <time>2021-07-23T15:18:31Z</time>
      </trkpt>
      <trkpt lat="48.60444" lon="-1.75329">
        <ele>5</ele>
        <time>2021-07-23T15:19:30Z</time>
      </trkpt>
      <trkpt lat="48.6048" lon="-1.75091">
        <ele>6</ele>
        <time>2021-07-23T15:20:07Z</time>
      </trkpt>
      <trkpt lat="48.60505" lon="-1.74864">
        <ele>6</ele>
        <time>2021-07-23T15:20:43Z</time>
      </trkpt>
      <trkpt lat="48.60496" lon="-1.74798">
        <ele>7</ele>
        <time>2021-07-23T15:20:53Z</time>
      </trkpt>
      <trkpt lat="48.60503" lon="-1.74701">
        <ele>6</ele>
        <time>2021-07-23T15:21:08Z</time>
      </trkpt>
      <trkpt lat="48.60522" lon="-1.74507">
        <ele>6</ele>
        <time>2021-07-23T15:21:39Z</time>
      </trkpt>
      <trkpt lat="48.60525" lon="-1.74367">
        <ele>5</ele>
        <time>2021-07-23T15:22:00Z</time>
      </trkpt>
      <trkpt lat="48.60544" lon="-1.73864">
        <ele>5</ele>
        <time>2021-07-23T15:23:18Z</time>
      </trkpt>
      <trkpt lat="48.60561" lon="-1.73272">
        <ele>6</ele>
        <time>2021-07-23T15:24:50Z</time>
      </trkpt>
      <trkpt lat="48.60596" lon="-1.72129">
        <ele>8</ele>
        <time>2021-07-23T15:27:46Z</time>
      </trkpt>
      <trkpt lat="48.60478" lon="-1.72114">
        <ele>6</ele>
        <time>2021-07-23T15:28:14Z</time>
      </trkpt>
      <trkpt lat="48.60488" lon="-1.71499">
        <ele>6</ele>
        <time>2021-07-23T15:29:49Z</time>
      </trkpt>
      <trkpt lat="48.60518" lon="-1.71129">
        <ele>8</ele>
        <time>2021-07-23T15:30:46Z</time>
      </trkpt>
      <trkpt lat="48.60565" lon="-1.71046">
        <ele>9</ele>
        <time>2021-07-23T15:31:03Z</time>
      </trkpt>
      <trkpt lat="48.60599" lon="-1.70973">
        <ele>7</ele>
        <time>2021-07-23T15:31:17Z</time>
      </trkpt>
      <trkpt lat="48.6062" lon="-1.70848">
        <ele>7</ele>
        <time>2021-07-23T15:31:37Z</time>
      </trkpt>
      <trkpt lat="48.60635" lon="-1.70738">
        <ele>6</ele>
        <time>2021-07-23T15:31:54Z</time>
      </trkpt>
      <trkpt lat="48.60649" lon="-1.70582">
        <ele>7</ele>
        <time>2021-07-23T15:32:19Z</time>
      </trkpt>
      <trkpt lat="48.60674" lon="-1.70306">
        <ele>7</ele>
        <time>2021-07-23T15:33:02Z</time>
      </trkpt>
      <trkpt lat="48.60712" lon="-1.69863">
        <ele>6</ele>
        <time>2021-07-23T15:34:11Z</time>
      </trkpt>
      <trkpt lat="48.60786" lon="-1.69326">
        <ele>9</ele>
        <time>2021-07-23T15:35:35Z</time>
      </trkpt>
      <trkpt lat="48.60808" lon="-1.69157">
        <ele>7</ele>
        <time>2021-07-23T15:36:02Z</time>
      </trkpt>
      <trkpt lat="48.6087" lon="-1.68773">
        <ele>7</ele>
        <time>2021-07-23T15:37:03Z</time>
      </trkpt>
      <trkpt lat="48.60917" lon="-1.68526">
        <ele>6</ele>
        <time>2021-07-23T15:37:43Z</time>
      </trkpt>
      <trkpt lat="48.6099" lon="-1.68068">
        <ele>7</ele>
        <time>2021-07-23T15:38:55Z</time>
      </trkpt>
      <trkpt lat="48.61017" lon="-1.67898">
        <ele>7</ele>
        <time>2021-07-23T15:39:22Z</time>
      </trkpt>
      <trkpt lat="48.61062" lon="-1.67678">
        <ele>7</ele>
        <time>2021-07-23T15:39:58Z</time>
      </trkpt>
      <trkpt lat="48.61074" lon="-1.67497">
        <ele>6</ele>
        <time>2021-07-23T15:40:26Z</time>
      </trkpt>
      <trkpt lat="48.61087" lon="-1.67252">
        <ele>7</ele>
        <time>2021-07-23T15:41:04Z</time>
      </trkpt>
      <trkpt lat="48.61069" lon="-1.67139">
        <ele>6</ele>
        <time>2021-07-23T15:41:22Z</time>
      </trkpt>
      <trkpt lat="48.60973" lon="-1.66798">
        <ele>6</ele>
        <time>2021-07-23T15:42:19Z</time>
      </trkpt>
      <trkpt lat="48.60814" lon="-1.66273">
        <ele>6</ele>
        <time>2021-07-23T15:43:48Z</time>
      </trkpt>
      <trkpt lat="48.60733" lon="-1.66033">
        <ele>6</ele>
        <time>2021-07-23T15:44:30Z</time>
      </trkpt>
      <trkpt lat="48.60724" lon="-1.65941">
        <ele>7</ele>
        <time>2021-07-23T15:44:44Z</time>
      </trkpt>
      <trkpt lat="48.60738" lon="-1.65844">
        <ele>6</ele>
        <time>2021-07-23T15:45:00Z</time>
      </trkpt>
      <trkpt lat="48.60859" lon="-1.65484">
        <ele>5</ele>
        <time>2021-07-23T15:46:02Z</time>
      </trkpt>
      <trkpt lat="48.60804" lon="-1.64989">
        <ele>5</ele>
        <time>2021-07-23T15:47:20Z</time>
      </trkpt>
      <trkpt lat="48.60697" lon="-1.6404">
        <ele>5</ele>
        <time>2021-07-23T15:49:48Z</time>
      </trkpt>
      <trkpt lat="48.60748" lon="-1.63984">
        <ele>6</ele>
        <time>2021-07-23T15:50:03Z</time>
      </trkpt>
      <trkpt lat="48.60709" lon="-1.63432">
        <ele>6</ele>
        <time>2021-07-23T15:51:29Z</time>
      </trkpt>
      <trkpt lat="48.60689" lon="-1.63415">
        <ele>6</ele>
        <time>2021-07-23T15:51:34Z</time>
      </trkpt>
      <trkpt lat="48.60665" lon="-1.63175">
        <ele>6</ele>
        <time>2021-07-23T15:52:11Z</time>
      </trkpt>
      <trkpt lat="48.60773" lon="-1.6259">
        <ele>6</ele>
        <time>2021-07-23T15:53:45Z</time>
      </trkpt>
      <trkpt lat="48.60827" lon="-1.62588">
        <ele>7</ele>
        <time>2021-07-23T15:53:58Z</time>
      </trkpt>
      <trkpt lat="48.60869" lon="-1.62358">
        <ele>5</ele>
        <time>2021-07-23T15:54:35Z</time>
      </trkpt>
      <trkpt lat="48.60891" lon="-1.62085">
        <ele>6</ele>
        <time>2021-07-23T15:55:17Z</time>
      </trkpt>
      <trkpt lat="48.60908" lon="-1.61644">
        <ele>7</ele>
        <time>2021-07-23T15:56:25Z</time>
      </trkpt>
      <trkpt lat="48.60893" lon="-1.61317">
        <ele>6</ele>
        <time>2021-07-23T15:57:16Z</time>
      </trkpt>
      <trkpt lat="48.60863" lon="-1.61108">
        <ele>6</ele>
        <time>2021-07-23T15:57:49Z</time>
      </trkpt>
      <trkpt lat="48.60859" lon="-1.6097">
        <ele>6</ele>
        <time>2021-07-23T15:58:10Z</time>
      </trkpt>
      <trkpt lat="48.60809" lon="-1.60674">
        <ele>5</ele>
        <time>2021-07-23T15:58:58Z</time>
      </trkpt>
      <trkpt lat="48.60788" lon="-1.60541">
        <ele>5</ele>
        <time>2021-07-23T15:59:19Z</time>
      </trkpt>
      <trkpt lat="48.6078" lon="-1.60352">
        <ele>7</ele>
        <time>2021-07-23T15:59:48Z</time>
      </trkpt>
      <trkpt lat="48.60772" lon="-1.60202">
        <ele>6</ele>
        <time>2021-07-23T16:00:11Z</time>
      </trkpt>
      <trkpt lat="48.60653" lon="-1.59944">
        <ele>7</ele>
        <time>2021-07-23T16:01:00Z</time>
      </trkpt>
      <trkpt lat="48.60566" lon="-1.59819">
        <ele>7</ele>
        <time>2021-07-23T16:01:28Z</time>
      </trkpt>
      <trkpt lat="48.60432" lon="-1.59459">
        <ele>6</ele>
        <time>2021-07-23T16:02:31Z</time>
      </trkpt>
      <trkpt lat="48.60469" lon="-1.59385">
        <ele>7</ele>
        <time>2021-07-23T16:02:46Z</time>
      </trkpt>
      <trkpt lat="48.60434" lon="-1.59286">
        <ele>5</ele>
        <time>2021-07-23T16:03:03Z</time>
      </trkpt>
      <trkpt lat="48.60444" lon="-1.59161">
        <ele>6</ele>
        <time>2021-07-23T16:03:23Z</time>
      </trkpt>
      <trkpt lat="48.60453" lon="-1.59098">
        <ele>6</ele>
        <time>2021-07-23T16:03:33Z</time>
      </trkpt>
      <trkpt lat="48.60427" lon="-1.59023">
        <ele>6</ele>
        <time>2021-07-23T16:03:46Z</time>
      </trkpt>
      <trkpt lat="48.60355" lon="-1.58995">
        <ele>7</ele>
        <time>2021-07-23T16:04:03Z</time>
      </trkpt>
      <trkpt lat="48.60304" lon="-1.58949">
        <ele>6</ele>
        <time>2021-07-23T16:04:17Z</time>
      </trkpt>
      <trkpt lat="48.60243" lon="-1.58974">
        <ele>5</ele>
        <time>2021-07-23T16:04:32Z</time>
      </trkpt>
      <trkpt lat="48.60078" lon="-1.58911">
        <ele>6</ele>
        <time>2021-07-23T16:05:11Z</time>
      </trkpt>
      <trkpt lat="48.59882" lon="-1.58755">
        <ele>6</ele>
        <time>2021-07-23T16:06:03Z</time>
      </trkpt>
      <trkpt lat="48.59838" lon="-1.58745">
        <ele>5</ele>
        <time>2021-07-23T16:06:13Z</time>
      </trkpt>
      <trkpt lat="48.59712" lon="-1.58513">
        <ele>7</ele>
        <time>2021-07-23T16:07:00Z</time>
      </trkpt>
      <trkpt lat="48.59644" lon="-1.58411">
        <ele>8</ele>
        <time>2021-07-23T16:07:22Z</time>
      </trkpt>
      <trkpt lat="48.59617" lon="-1.58306">
        <ele>7</ele>
        <time>2021-07-23T16:07:40Z</time>
      </trkpt>
      <trkpt lat="48.59557" lon="-1.5827">
        <ele>7</ele>
        <time>2021-07-23T16:07:55Z</time>
      </trkpt>
      <trkpt lat="48.59425" lon="-1.57801">
        <ele>7</ele>
        <time>2021-07-23T16:09:13Z</time>
      </trkpt>
      <trkpt lat="48.59391" lon="-1.57747">
        <ele>7</ele>
        <time>2021-07-23T16:09:25Z</time>
      </trkpt>
      <trkpt lat="48.59356" lon="-1.57612">
        <ele>7</ele>
        <time>2021-07-23T16:09:47Z</time>
      </trkpt>
      <trkpt lat="48.59298" lon="-1.57545">
        <ele>6</ele>
        <time>2021-07-23T16:10:04Z</time>
      </trkpt>
      <trkpt lat="48.59232" lon="-1.57285">
        <ele>7</ele>
        <time>2021-07-23T16:10:47Z</time>
      </trkpt>
      <trkpt lat="48.59185" lon="-1.57101">
        <ele>6</ele>
        <time>2021-07-23T16:11:18Z</time>
      </trkpt>
      <trkpt lat="48.59151" lon="-1.56943">
        <ele>7</ele>
        <time>2021-07-23T16:11:44Z</time>
      </trkpt>
      <trkpt lat="48.59072" lon="-1.56823">
        <ele>7</ele>
        <time>2021-07-23T16:12:10Z</time>
      </trkpt>
      <trkpt lat="48.58996" lon="-1.56752">
        <ele>7</ele>
        <time>2021-07-23T16:12:31Z</time>
      </trkpt>
      <trkpt lat="48.58875" lon="-1.56785">
        <ele>6</ele>
        <time>2021-07-23T16:12:59Z</time>
      </trkpt>
      <trkpt lat="48.58706" lon="-1.56709">
        <ele>6</ele>
        <time>2021-07-23T16:13:40Z</time>
      </trkpt>
      <trkpt lat="48.58621" lon="-1.56599">
        <ele>6</ele>
        <time>2021-07-23T16:14:07Z</time>
      </trkpt>
      <trkpt lat="48.58527" lon="-1.56609">
        <ele>7</ele>
        <time>2021-07-23T16:14:29Z</time>
      </trkpt>
      <trkpt lat="48.58412" lon="-1.56571">
        <ele>7</ele>
        <time>2021-07-23T16:14:56Z</time>
      </trkpt>
      <trkpt lat="48.58316" lon="-1.56543">
        <ele>7</ele>
        <time>2021-07-23T16:15:19Z</time>
      </trkpt>
      <trkpt lat="48.58238" lon="-1.56446">
        <ele>8</ele>
        <time>2021-07-23T16:15:42Z</time>
      </trkpt>
      <trkpt lat="48.58205" lon="-1.56339">
        <ele>7</ele>
        <time>2021-07-23T16:16:01Z</time>
      </trkpt>
      <trkpt lat="48.58208" lon="-1.55966">
        <ele>7</ele>
        <time>2021-07-23T16:16:58Z</time>
      </trkpt>
      <trkpt lat="48.58188" lon="-1.55647">
        <ele>7</ele>
        <time>2021-07-23T16:17:48Z</time>
      </trkpt>
      <trkpt lat="48.58149" lon="-1.55512">
        <ele>6</ele>
        <time>2021-07-23T16:18:11Z</time>
      </trkpt>
      <trkpt lat="48.58151" lon="-1.55433">
        <ele>6</ele>
        <time>2021-07-23T16:18:23Z</time>
      </trkpt>
      <trkpt lat="48.58086" lon="-1.55394">
        <ele>7</ele>
        <time>2021-07-23T16:18:39Z</time>
      </trkpt>
      <trkpt lat="48.58056" lon="-1.55313">
        <ele>7</ele>
        <time>2021-07-23T16:18:53Z</time>
      </trkpt>
      <trkpt lat="48.58042" lon="-1.55139">
        <ele>6</ele>
        <time>2021-07-23T16:19:21Z</time>
      </trkpt>
      <trkpt lat="48.57984" lon="-1.55072">
        <ele>6</ele>
        <time>2021-07-23T16:19:38Z</time>
      </trkpt>
      <trkpt lat="48.57931" lon="-1.54927">
        <ele>7</ele>
        <time>2021-07-23T16:20:03Z</time>
      </trkpt>
      <trkpt lat="48.57918" lon="-1.54851">
        <ele>8</ele>
        <time>2021-07-23T16:20:15Z</time>
      </trkpt>
      <trkpt lat="48.57948" lon="-1.54547">
        <ele>6</ele>
        <time>2021-07-23T16:21:03Z</time>
      </trkpt>
      <trkpt lat="48.57983" lon="-1.54279">
        <ele>6</ele>
        <time>2021-07-23T16:21:45Z</time>
      </trkpt>
      <trkpt lat="48.5795" lon="-1.54249">
        <ele>6</ele>
        <time>2021-07-23T16:21:54Z</time>
      </trkpt>
      <trkpt lat="48.57946" lon="-1.54139">
        <ele>7</ele>
        <time>2021-07-23T16:22:11Z</time>
      </trkpt>
      <trkpt lat="48.57945" lon="-1.53983">
        <ele>8</ele>
        <time>2021-07-23T16:22:35Z</time>
      </trkpt>
      <trkpt lat="48.5801" lon="-1.53649">
        <ele>6</ele>
        <time>2021-07-23T16:23:29Z</time>
      </trkpt>
      <trkpt lat="48.57953" lon="-1.53608">
        <ele>6</ele>
        <time>2021-07-23T16:23:44Z</time>
      </trkpt>
      <trkpt lat="48.57912" lon="-1.53532">
        <ele>5</ele>
        <time>2021-07-23T16:23:59Z</time>
      </trkpt>
      <trkpt lat="48.57894" lon="-1.53401">
        <ele>6</ele>
        <time>2021-07-23T16:24:19Z</time>
      </trkpt>
      <trkpt lat="48.57943" lon="-1.53327">
        <ele>6</ele>
        <time>2021-07-23T16:24:36Z</time>
      </trkpt>
      <trkpt lat="48.57907" lon="-1.53246">
        <ele>6</ele>
        <time>2021-07-23T16:24:51Z</time>
      </trkpt>
      <trkpt lat="48.57772" lon="-1.53098">
        <ele>7</ele>
        <time>2021-07-23T16:25:30Z</time>
      </trkpt>
      <trkpt lat="48.57722" lon="-1.53049">
        <ele>8</ele>
        <time>2021-07-23T16:25:44Z</time>
      </trkpt>
      <trkpt lat="48.5768" lon="-1.53042">
        <ele>7</ele>
        <time>2021-07-23T16:25:53Z</time>
      </trkpt>
      <trkpt lat="48.57637" lon="-1.5298">
        <ele>7</ele>
        <time>2021-07-23T16:26:07Z</time>
      </trkpt>
      <trkpt lat="48.57609" lon="-1.52909">
        <ele>7</ele>
        <time>2021-07-23T16:26:20Z</time>
      </trkpt>
      <trkpt lat="48.57575" lon="-1.52845">
        <ele>6</ele>
        <time>2021-07-23T16:26:33Z</time>
      </trkpt>
      <trkpt lat="48.57571" lon="-1.52792">
        <ele>6</ele>
        <time>2021-07-23T16:26:41Z</time>
      </trkpt>
      <trkpt lat="48.57538" lon="-1.52753">
        <ele>6</ele>
        <time>2021-07-23T16:26:51Z</time>
      </trkpt>
      <trkpt lat="48.57563" lon="-1.52511">
        <ele>8</ele>
        <time>2021-07-23T16:27:29Z</time>
      </trkpt>
      <trkpt lat="48.57566" lon="-1.52317">
        <ele>8</ele>
        <time>2021-07-23T16:27:59Z</time>
      </trkpt>
      <trkpt lat="48.57561" lon="-1.52182">
        <ele>8</ele>
        <time>2021-07-23T16:28:20Z</time>
      </trkpt>
      <trkpt lat="48.57538" lon="-1.5211">
        <ele>7</ele>
        <time>2021-07-23T16:28:32Z</time>
      </trkpt>
      <trkpt lat="48.57625" lon="-1.52052">
        <ele>7</ele>
        <time>2021-07-23T16:28:54Z</time>
      </trkpt>
      <trkpt lat="48.57722" lon="-1.52029">
        <ele>8</ele>
        <time>2021-07-23T16:29:17Z</time>
      </trkpt>
      <trkpt lat="48.5784" lon="-1.51909">
        <ele>4</ele>
        <time>2021-07-23T16:29:50Z</time>
      </trkpt>
      <trkpt lat="48.58081" lon="-1.51722">
        <ele>5</ele>
        <time>2021-07-23T16:30:54Z</time>
      </trkpt>
      <trkpt lat="48.5838" lon="-1.51615">
        <ele>7</ele>
        <time>2021-07-23T16:32:05Z</time>
      </trkpt>
      <trkpt lat="48.58836" lon="-1.51562">
        <ele>6</ele>
        <time>2021-07-23T16:33:52Z</time>
      </trkpt>
      <trkpt lat="48.5892" lon="-1.51513">
        <ele>7</ele>
        <time>2021-07-23T16:34:13Z</time>
      </trkpt>
      <trkpt lat="48.59403" lon="-1.51452">
        <ele>6</ele>
        <time>2021-07-23T16:36:06Z</time>
      </trkpt>
      <trkpt lat="48.59663" lon="-1.51426">
        <ele>7</ele>
        <time>2021-07-23T16:37:07Z</time>
      </trkpt>
      <trkpt lat="48.5983" lon="-1.51388">
        <ele>6</ele>
        <time>2021-07-23T16:37:47Z</time>
      </trkpt>
      <trkpt lat="48.60194" lon="-1.51332">
        <ele>7</ele>
        <time>2021-07-23T16:39:12Z</time>
      </trkpt>
      <trkpt lat="48.60648" lon="-1.51283">
        <ele>6</ele>
        <time>2021-07-23T16:40:58Z</time>
      </trkpt>
      <trkpt lat="48.61273" lon="-1.51194">
        <ele>7</ele>
        <time>2021-07-23T16:43:25Z</time>
      </trkpt>
      <trkpt lat="48.61654" lon="-1.51146">
        <ele>7</ele>
        <time>2021-07-23T16:44:54Z</time>
      </trkpt>
      <trkpt lat="48.6191" lon="-1.51097">
        <ele>6</ele>
        <time>2021-07-23T16:45:54Z</time>
      </trkpt>
      <trkpt lat="48.62182" lon="-1.5097">
        <ele>7</ele>
        <time>2021-07-23T16:47:01Z</time>
      </trkpt>
      <trkpt lat="48.62514" lon="-1.50725">
        <ele>7</ele>
        <time>2021-07-23T16:48:27Z</time>
      </trkpt>
      <trkpt lat="48.62664" lon="-1.50643">
        <ele>7</ele>
        <time>2021-07-23T16:49:04Z</time>
      </trkpt>
      <trkpt lat="48.62806" lon="-1.50615">
        <ele>5</ele>
        <time>2021-07-23T16:49:38Z</time>
      </trkpt>
      <trkpt lat="48.62948" lon="-1.50648">
        <ele>6</ele>
        <time>2021-07-23T16:50:11Z</time>
      </trkpt>
      <trkpt lat="48.63079" lon="-1.5073">
        <ele>7</ele>
        <time>2021-07-23T16:50:45Z</time>
      </trkpt>
      <trkpt lat="48.63216" lon="-1.50875">
        <ele>5</ele>
        <time>2021-07-23T16:51:24Z</time>
      </trkpt>
      <trkpt lat="48.63351" lon="-1.51049">
        <ele>4</ele>
        <time>2021-07-23T16:52:05Z</time>
      </trkpt>
      <trkpt lat="48.63412" lon="-1.51118">
        <ele>4</ele>
        <time>2021-07-23T16:52:23Z</time>
      </trkpt>
    </trkseg>
  </trk>
</gpx>